<?xml version="1.0" encoding="UTF-8" standalone="no" ?>
<gpx xmlns="http://www.topografix.com/GPX/1/1" xmlns:xsi="http://www.w3.org/2001/XMLSchema-instance" xsi:schemaLocation="http://www.topografix.com/GPX/1/1 http://www.topografix.com/GPX/1/1/gpx.xsd" version="1.1" creator="VisuGPX - https://www.visugpx.com">
  <metadata>
    <name>L\'hivernale 2011</name>
    <desc><![CDATA[rando de 45 km]]></desc>
  </metadata>
  <trk>
    <name><![CDATA[06-FEV-11 01:18:44 PM]]></name>
    <trkseg>
      <trkpt lat="48.28292" lon="2.59824">
        <ele>-74.36</ele>
        <time>2011-02-06T07:03:29Z</time>
      </trkpt>
      <trkpt lat="48.2831" lon="2.598">
        <ele>-72.44</ele>
        <time>2011-02-06T07:03:54Z</time>
      </trkpt>
      <trkpt lat="48.2831" lon="2.598">
        <ele>-70.52</ele>
        <time>2011-02-06T07:04:22Z</time>
      </trkpt>
      <trkpt lat="48.28309" lon="2.59799">
        <ele>-68.12</ele>
        <time>2011-02-06T07:04:45Z</time>
      </trkpt>
      <trkpt lat="48.28308" lon="2.59798">
        <ele>-66.19</ele>
        <time>2011-02-06T07:05:06Z</time>
      </trkpt>
      <trkpt lat="48.28308" lon="2.59798">
        <ele>-64.27</ele>
        <time>2011-02-06T07:05:38Z</time>
      </trkpt>
      <trkpt lat="48.28308" lon="2.59798">
        <ele>-62.83</ele>
        <time>2011-02-06T07:06:05Z</time>
      </trkpt>
      <trkpt lat="48.28308" lon="2.59798">
        <ele>-60.91</ele>
        <time>2011-02-06T07:06:28Z</time>
      </trkpt>
      <trkpt lat="48.28308" lon="2.59798">
        <ele>-59.46</ele>
        <time>2011-02-06T07:06:52Z</time>
      </trkpt>
      <trkpt lat="48.28308" lon="2.59798">
        <ele>-57.54</ele>
        <time>2011-02-06T07:07:14Z</time>
      </trkpt>
      <trkpt lat="48.28308" lon="2.59798">
        <ele>-55.62</ele>
        <time>2011-02-06T07:07:39Z</time>
      </trkpt>
      <trkpt lat="48.28308" lon="2.59799">
        <ele>-54.18</ele>
        <time>2011-02-06T07:08:06Z</time>
      </trkpt>
      <trkpt lat="48.28295" lon="2.59814">
        <ele>-53.7</ele>
        <time>2011-02-06T07:08:15Z</time>
      </trkpt>
      <trkpt lat="48.28291" lon="2.59817">
        <ele>-52.74</ele>
        <time>2011-02-06T07:08:17Z</time>
      </trkpt>
      <trkpt lat="48.28244" lon="2.59845">
        <ele>-49.85</ele>
        <time>2011-02-06T07:08:37Z</time>
      </trkpt>
      <trkpt lat="48.28202" lon="2.59869">
        <ele>-46.49</ele>
        <time>2011-02-06T07:08:53Z</time>
      </trkpt>
      <trkpt lat="48.28176" lon="2.59856">
        <ele>-45.04</ele>
        <time>2011-02-06T07:09:04Z</time>
      </trkpt>
      <trkpt lat="48.28137" lon="2.59831">
        <ele>-42.16</ele>
        <time>2011-02-06T07:09:19Z</time>
      </trkpt>
      <trkpt lat="48.28102" lon="2.59823">
        <ele>-38.8</ele>
        <time>2011-02-06T07:09:31Z</time>
      </trkpt>
      <trkpt lat="48.28067" lon="2.59809">
        <ele>-36.87</ele>
        <time>2011-02-06T07:09:43Z</time>
      </trkpt>
      <trkpt lat="48.28061" lon="2.59799">
        <ele>-35.91</ele>
        <time>2011-02-06T07:09:47Z</time>
      </trkpt>
      <trkpt lat="48.28039" lon="2.59757">
        <ele>-33.03</ele>
        <time>2011-02-06T07:10:01Z</time>
      </trkpt>
      <trkpt lat="48.28035" lon="2.59749">
        <ele>-32.55</ele>
        <time>2011-02-06T07:10:04Z</time>
      </trkpt>
      <trkpt lat="48.28028" lon="2.59734">
        <ele>-31.11</ele>
        <time>2011-02-06T07:10:10Z</time>
      </trkpt>
      <trkpt lat="48.2801" lon="2.59703">
        <ele>-28.22</ele>
        <time>2011-02-06T07:10:22Z</time>
      </trkpt>
      <trkpt lat="48.27992" lon="2.59681">
        <ele>-26.3</ele>
        <time>2011-02-06T07:10:32Z</time>
      </trkpt>
      <trkpt lat="48.27982" lon="2.59667">
        <ele>-24.86</ele>
        <time>2011-02-06T07:10:38Z</time>
      </trkpt>
      <trkpt lat="48.27967" lon="2.59649">
        <ele>-22.93</ele>
        <time>2011-02-06T07:10:46Z</time>
      </trkpt>
      <trkpt lat="48.27947" lon="2.59618">
        <ele>-19.57</ele>
        <time>2011-02-06T07:11:00Z</time>
      </trkpt>
      <trkpt lat="48.27938" lon="2.59601">
        <ele>-16.69</ele>
        <time>2011-02-06T07:11:08Z</time>
      </trkpt>
      <trkpt lat="48.27932" lon="2.59587">
        <ele>-13.32</ele>
        <time>2011-02-06T07:11:17Z</time>
      </trkpt>
      <trkpt lat="48.2793" lon="2.59579">
        <ele>-11.88</ele>
        <time>2011-02-06T07:11:21Z</time>
      </trkpt>
      <trkpt lat="48.27928" lon="2.59563">
        <ele>-9</ele>
        <time>2011-02-06T07:11:29Z</time>
      </trkpt>
      <trkpt lat="48.27927" lon="2.59551">
        <ele>-7.07</ele>
        <time>2011-02-06T07:11:35Z</time>
      </trkpt>
      <trkpt lat="48.27925" lon="2.59545">
        <ele>-5.63</ele>
        <time>2011-02-06T07:11:39Z</time>
      </trkpt>
      <trkpt lat="48.27918" lon="2.59547">
        <ele>-5.15</ele>
        <time>2011-02-06T07:11:45Z</time>
      </trkpt>
      <trkpt lat="48.27912" lon="2.59543">
        <ele>-4.67</ele>
        <time>2011-02-06T07:11:49Z</time>
      </trkpt>
      <trkpt lat="48.2791" lon="2.5954">
        <ele>-4.67</ele>
        <time>2011-02-06T07:11:51Z</time>
      </trkpt>
      <trkpt lat="48.27906" lon="2.59529">
        <ele>-3.71</ele>
        <time>2011-02-06T07:11:58Z</time>
      </trkpt>
      <trkpt lat="48.27904" lon="2.59527">
        <ele>-3.23</ele>
        <time>2011-02-06T07:12:00Z</time>
      </trkpt>
      <trkpt lat="48.27902" lon="2.59536">
        <ele>-1.79</ele>
        <time>2011-02-06T07:12:05Z</time>
      </trkpt>
      <trkpt lat="48.279" lon="2.59545">
        <ele>-0.82</ele>
        <time>2011-02-06T07:12:09Z</time>
      </trkpt>
      <trkpt lat="48.27898" lon="2.59551">
        <ele>-1.3</ele>
        <time>2011-02-06T07:12:11Z</time>
      </trkpt>
      <trkpt lat="48.27893" lon="2.59557">
        <ele>-0.82</ele>
        <time>2011-02-06T07:12:15Z</time>
      </trkpt>
      <trkpt lat="48.27891" lon="2.5957">
        <ele>-1.3</ele>
        <time>2011-02-06T07:12:24Z</time>
      </trkpt>
      <trkpt lat="48.27891" lon="2.5957">
        <ele>-0.82</ele>
        <time>2011-02-06T07:12:32Z</time>
      </trkpt>
      <trkpt lat="48.27889" lon="2.59575">
        <ele>-0.34</ele>
        <time>2011-02-06T07:12:37Z</time>
      </trkpt>
      <trkpt lat="48.27884" lon="2.59591">
        <ele>1.1</ele>
        <time>2011-02-06T07:12:50Z</time>
      </trkpt>
      <trkpt lat="48.27881" lon="2.59596">
        <ele>-1.79</ele>
        <time>2011-02-06T07:12:53Z</time>
      </trkpt>
      <trkpt lat="48.27875" lon="2.59614">
        <ele>-3.23</ele>
        <time>2011-02-06T07:13:01Z</time>
      </trkpt>
      <trkpt lat="48.27867" lon="2.59638">
        <ele>-3.71</ele>
        <time>2011-02-06T07:13:12Z</time>
      </trkpt>
      <trkpt lat="48.27864" lon="2.59652">
        <ele>-3.23</ele>
        <time>2011-02-06T07:13:18Z</time>
      </trkpt>
      <trkpt lat="48.27865" lon="2.59657">
        <ele>-2.75</ele>
        <time>2011-02-06T07:13:20Z</time>
      </trkpt>
      <trkpt lat="48.27859" lon="2.59664">
        <ele>-1.3</ele>
        <time>2011-02-06T07:13:25Z</time>
      </trkpt>
      <trkpt lat="48.27852" lon="2.59681">
        <ele>-0.82</ele>
        <time>2011-02-06T07:13:32Z</time>
      </trkpt>
      <trkpt lat="48.27843" lon="2.59683">
        <ele>2.06</ele>
        <time>2011-02-06T07:13:38Z</time>
      </trkpt>
      <trkpt lat="48.27841" lon="2.59682">
        <ele>2.06</ele>
        <time>2011-02-06T07:13:42Z</time>
      </trkpt>
      <trkpt lat="48.27835" lon="2.59678">
        <ele>0.62</ele>
        <time>2011-02-06T07:13:46Z</time>
      </trkpt>
      <trkpt lat="48.27826" lon="2.59673">
        <ele>-2.75</ele>
        <time>2011-02-06T07:13:49Z</time>
      </trkpt>
      <trkpt lat="48.27822" lon="2.59672">
        <ele>-1.3</ele>
        <time>2011-02-06T07:13:52Z</time>
      </trkpt>
      <trkpt lat="48.2782" lon="2.59674">
        <ele>-0.82</ele>
        <time>2011-02-06T07:13:54Z</time>
      </trkpt>
      <trkpt lat="48.27819" lon="2.59687">
        <ele>0.62</ele>
        <time>2011-02-06T07:14:05Z</time>
      </trkpt>
      <trkpt lat="48.27819" lon="2.59693">
        <ele>1.1</ele>
        <time>2011-02-06T07:14:08Z</time>
      </trkpt>
      <trkpt lat="48.27818" lon="2.59697">
        <ele>0.62</ele>
        <time>2011-02-06T07:14:10Z</time>
      </trkpt>
      <trkpt lat="48.27818" lon="2.5971">
        <ele>1.1</ele>
        <time>2011-02-06T07:14:15Z</time>
      </trkpt>
      <trkpt lat="48.27824" lon="2.59733">
        <ele>1.1</ele>
        <time>2011-02-06T07:14:25Z</time>
      </trkpt>
      <trkpt lat="48.27834" lon="2.59749">
        <ele>1.58</ele>
        <time>2011-02-06T07:14:33Z</time>
      </trkpt>
      <trkpt lat="48.27836" lon="2.59758">
        <ele>0.62</ele>
        <time>2011-02-06T07:14:36Z</time>
      </trkpt>
      <trkpt lat="48.27834" lon="2.59764">
        <ele>0.14</ele>
        <time>2011-02-06T07:14:38Z</time>
      </trkpt>
      <trkpt lat="48.27824" lon="2.59773">
        <ele>2.54</ele>
        <time>2011-02-06T07:14:45Z</time>
      </trkpt>
      <trkpt lat="48.27824" lon="2.59777">
        <ele>3.02</ele>
        <time>2011-02-06T07:14:47Z</time>
      </trkpt>
      <trkpt lat="48.27825" lon="2.5978">
        <ele>3.5</ele>
        <time>2011-02-06T07:14:58Z</time>
      </trkpt>
      <trkpt lat="48.27827" lon="2.59786">
        <ele>3.98</ele>
        <time>2011-02-06T07:15:08Z</time>
      </trkpt>
      <trkpt lat="48.27832" lon="2.59811">
        <ele>6.87</ele>
        <time>2011-02-06T07:15:20Z</time>
      </trkpt>
      <trkpt lat="48.27829" lon="2.59822">
        <ele>8.31</ele>
        <time>2011-02-06T07:15:25Z</time>
      </trkpt>
      <trkpt lat="48.27828" lon="2.59836">
        <ele>11.19</ele>
        <time>2011-02-06T07:15:34Z</time>
      </trkpt>
      <trkpt lat="48.27832" lon="2.59839">
        <ele>11.67</ele>
        <time>2011-02-06T07:15:41Z</time>
      </trkpt>
      <trkpt lat="48.27836" lon="2.59826">
        <ele>12.15</ele>
        <time>2011-02-06T07:15:49Z</time>
      </trkpt>
      <trkpt lat="48.27837" lon="2.59824">
        <ele>12.15</ele>
        <time>2011-02-06T07:15:50Z</time>
      </trkpt>
      <trkpt lat="48.27842" lon="2.59818">
        <ele>12.63</ele>
        <time>2011-02-06T07:15:54Z</time>
      </trkpt>
      <trkpt lat="48.27851" lon="2.59801">
        <ele>13.12</ele>
        <time>2011-02-06T07:16:01Z</time>
      </trkpt>
      <trkpt lat="48.27864" lon="2.59797">
        <ele>13.6</ele>
        <time>2011-02-06T07:16:08Z</time>
      </trkpt>
      <trkpt lat="48.27869" lon="2.59807">
        <ele>13.6</ele>
        <time>2011-02-06T07:16:13Z</time>
      </trkpt>
      <trkpt lat="48.27873" lon="2.59816">
        <ele>13.6</ele>
        <time>2011-02-06T07:16:17Z</time>
      </trkpt>
      <trkpt lat="48.27875" lon="2.59838">
        <ele>15.04</ele>
        <time>2011-02-06T07:16:25Z</time>
      </trkpt>
      <trkpt lat="48.27873" lon="2.59858">
        <ele>17.92</ele>
        <time>2011-02-06T07:16:32Z</time>
      </trkpt>
      <trkpt lat="48.27872" lon="2.59866">
        <ele>18.88</ele>
        <time>2011-02-06T07:16:36Z</time>
      </trkpt>
      <trkpt lat="48.27863" lon="2.5986">
        <ele>19.84</ele>
        <time>2011-02-06T07:16:48Z</time>
      </trkpt>
      <trkpt lat="48.27866" lon="2.59886">
        <ele>20.81</ele>
        <time>2011-02-06T07:16:57Z</time>
      </trkpt>
      <trkpt lat="48.27869" lon="2.59915">
        <ele>21.29</ele>
        <time>2011-02-06T07:17:06Z</time>
      </trkpt>
      <trkpt lat="48.27873" lon="2.59934">
        <ele>21.77</ele>
        <time>2011-02-06T07:17:13Z</time>
      </trkpt>
      <trkpt lat="48.27878" lon="2.59935">
        <ele>21.77</ele>
        <time>2011-02-06T07:17:17Z</time>
      </trkpt>
      <trkpt lat="48.27888" lon="2.5994">
        <ele>21.77</ele>
        <time>2011-02-06T07:17:22Z</time>
      </trkpt>
      <trkpt lat="48.2789" lon="2.5994">
        <ele>21.77</ele>
        <time>2011-02-06T07:17:24Z</time>
      </trkpt>
      <trkpt lat="48.27892" lon="2.59932">
        <ele>20.81</ele>
        <time>2011-02-06T07:17:28Z</time>
      </trkpt>
      <trkpt lat="48.27893" lon="2.59912">
        <ele>17.44</ele>
        <time>2011-02-06T07:17:34Z</time>
      </trkpt>
      <trkpt lat="48.27893" lon="2.59906">
        <ele>14.08</ele>
        <time>2011-02-06T07:17:37Z</time>
      </trkpt>
      <trkpt lat="48.27894" lon="2.59903">
        <ele>11.67</ele>
        <time>2011-02-06T07:17:38Z</time>
      </trkpt>
      <trkpt lat="48.27898" lon="2.59877">
        <ele>7.35</ele>
        <time>2011-02-06T07:17:42Z</time>
      </trkpt>
      <trkpt lat="48.2791" lon="2.59876">
        <ele>3.02</ele>
        <time>2011-02-06T07:17:47Z</time>
      </trkpt>
      <trkpt lat="48.27917" lon="2.5988">
        <ele>1.58</ele>
        <time>2011-02-06T07:17:49Z</time>
      </trkpt>
      <trkpt lat="48.2793" lon="2.59874">
        <ele>-3.71</ele>
        <time>2011-02-06T07:17:53Z</time>
      </trkpt>
      <trkpt lat="48.27942" lon="2.59872">
        <ele>-6.59</ele>
        <time>2011-02-06T07:17:56Z</time>
      </trkpt>
      <trkpt lat="48.27947" lon="2.59872">
        <ele>-7.55</ele>
        <time>2011-02-06T07:17:57Z</time>
      </trkpt>
      <trkpt lat="48.27968" lon="2.59872">
        <ele>-9</ele>
        <time>2011-02-06T07:18:01Z</time>
      </trkpt>
      <trkpt lat="48.28005" lon="2.59881">
        <ele>-9.96</ele>
        <time>2011-02-06T07:18:09Z</time>
      </trkpt>
      <trkpt lat="48.28053" lon="2.59899">
        <ele>-10.44</ele>
        <time>2011-02-06T07:18:22Z</time>
      </trkpt>
      <trkpt lat="48.28078" lon="2.59939">
        <ele>-12.36</ele>
        <time>2011-02-06T07:18:32Z</time>
      </trkpt>
      <trkpt lat="48.28083" lon="2.59972">
        <ele>-12.36</ele>
        <time>2011-02-06T07:18:38Z</time>
      </trkpt>
      <trkpt lat="48.28053" lon="2.60014">
        <ele>-9.96</ele>
        <time>2011-02-06T07:18:51Z</time>
      </trkpt>
      <trkpt lat="48.28015" lon="2.60062">
        <ele>-8.03</ele>
        <time>2011-02-06T07:19:06Z</time>
      </trkpt>
      <trkpt lat="48.27981" lon="2.60101">
        <ele>-4.67</ele>
        <time>2011-02-06T07:19:19Z</time>
      </trkpt>
      <trkpt lat="48.27949" lon="2.60134">
        <ele>-2.75</ele>
        <time>2011-02-06T07:19:32Z</time>
      </trkpt>
      <trkpt lat="48.27919" lon="2.60161">
        <ele>0.14</ele>
        <time>2011-02-06T07:19:45Z</time>
      </trkpt>
      <trkpt lat="48.27917" lon="2.60162">
        <ele>0.62</ele>
        <time>2011-02-06T07:19:46Z</time>
      </trkpt>
      <trkpt lat="48.27885" lon="2.60168">
        <ele>2.54</ele>
        <time>2011-02-06T07:19:59Z</time>
      </trkpt>
      <trkpt lat="48.27857" lon="2.60173">
        <ele>4.94</ele>
        <time>2011-02-06T07:20:11Z</time>
      </trkpt>
      <trkpt lat="48.27824" lon="2.60183">
        <ele>7.83</ele>
        <time>2011-02-06T07:20:25Z</time>
      </trkpt>
      <trkpt lat="48.27802" lon="2.60192">
        <ele>11.19</ele>
        <time>2011-02-06T07:20:36Z</time>
      </trkpt>
      <trkpt lat="48.27793" lon="2.60196">
        <ele>13.12</ele>
        <time>2011-02-06T07:20:42Z</time>
      </trkpt>
      <trkpt lat="48.27772" lon="2.60201">
        <ele>16.48</ele>
        <time>2011-02-06T07:20:55Z</time>
      </trkpt>
      <trkpt lat="48.27766" lon="2.602">
        <ele>17.92</ele>
        <time>2011-02-06T07:21:00Z</time>
      </trkpt>
      <trkpt lat="48.27762" lon="2.60201">
        <ele>18.4</ele>
        <time>2011-02-06T07:21:02Z</time>
      </trkpt>
      <trkpt lat="48.27747" lon="2.60203">
        <ele>21.77</ele>
        <time>2011-02-06T07:21:13Z</time>
      </trkpt>
      <trkpt lat="48.27738" lon="2.60203">
        <ele>23.21</ele>
        <time>2011-02-06T07:21:20Z</time>
      </trkpt>
      <trkpt lat="48.2772" lon="2.60203">
        <ele>26.57</ele>
        <time>2011-02-06T07:21:33Z</time>
      </trkpt>
      <trkpt lat="48.27705" lon="2.60208">
        <ele>29.46</ele>
        <time>2011-02-06T07:21:45Z</time>
      </trkpt>
      <trkpt lat="48.27704" lon="2.60208">
        <ele>29.46</ele>
        <time>2011-02-06T07:21:46Z</time>
      </trkpt>
      <trkpt lat="48.27697" lon="2.6021">
        <ele>30.42</ele>
        <time>2011-02-06T07:21:51Z</time>
      </trkpt>
      <trkpt lat="48.2769" lon="2.60213">
        <ele>31.38</ele>
        <time>2011-02-06T07:21:56Z</time>
      </trkpt>
      <trkpt lat="48.27683" lon="2.6022">
        <ele>32.34</ele>
        <time>2011-02-06T07:22:11Z</time>
      </trkpt>
      <trkpt lat="48.27683" lon="2.6022">
        <ele>33.78</ele>
        <time>2011-02-06T07:22:35Z</time>
      </trkpt>
      <trkpt lat="48.27678" lon="2.60215">
        <ele>34.26</ele>
        <time>2011-02-06T07:22:44Z</time>
      </trkpt>
      <trkpt lat="48.27678" lon="2.60215">
        <ele>36.19</ele>
        <time>2011-02-06T07:23:13Z</time>
      </trkpt>
      <trkpt lat="48.27677" lon="2.60215">
        <ele>36.67</ele>
        <time>2011-02-06T07:23:35Z</time>
      </trkpt>
      <trkpt lat="48.27677" lon="2.60215">
        <ele>37.63</ele>
        <time>2011-02-06T07:23:58Z</time>
      </trkpt>
      <trkpt lat="48.27677" lon="2.60215">
        <ele>38.59</ele>
        <time>2011-02-06T07:24:22Z</time>
      </trkpt>
      <trkpt lat="48.27665" lon="2.60221">
        <ele>40.03</ele>
        <time>2011-02-06T07:24:29Z</time>
      </trkpt>
      <trkpt lat="48.27629" lon="2.60251">
        <ele>41.47</ele>
        <time>2011-02-06T07:24:43Z</time>
      </trkpt>
      <trkpt lat="48.27594" lon="2.60278">
        <ele>41.47</ele>
        <time>2011-02-06T07:24:54Z</time>
      </trkpt>
      <trkpt lat="48.27536" lon="2.60321">
        <ele>41.95</ele>
        <time>2011-02-06T07:25:11Z</time>
      </trkpt>
      <trkpt lat="48.27522" lon="2.60332">
        <ele>40.99</ele>
        <time>2011-02-06T07:25:15Z</time>
      </trkpt>
      <trkpt lat="48.27518" lon="2.60334">
        <ele>41.95</ele>
        <time>2011-02-06T07:25:16Z</time>
      </trkpt>
      <trkpt lat="48.27515" lon="2.60337">
        <ele>41.47</ele>
        <time>2011-02-06T07:25:17Z</time>
      </trkpt>
      <trkpt lat="48.27476" lon="2.60365">
        <ele>41.95</ele>
        <time>2011-02-06T07:25:28Z</time>
      </trkpt>
      <trkpt lat="48.27472" lon="2.60367">
        <ele>41.47</ele>
        <time>2011-02-06T07:25:29Z</time>
      </trkpt>
      <trkpt lat="48.27424" lon="2.60402">
        <ele>42.44</ele>
        <time>2011-02-06T07:25:43Z</time>
      </trkpt>
      <trkpt lat="48.27388" lon="2.6043">
        <ele>42.44</ele>
        <time>2011-02-06T07:25:53Z</time>
      </trkpt>
      <trkpt lat="48.27384" lon="2.60433">
        <ele>42.44</ele>
        <time>2011-02-06T07:25:54Z</time>
      </trkpt>
      <trkpt lat="48.2738" lon="2.60435">
        <ele>42.44</ele>
        <time>2011-02-06T07:25:55Z</time>
      </trkpt>
      <trkpt lat="48.27377" lon="2.60438">
        <ele>42.44</ele>
        <time>2011-02-06T07:25:56Z</time>
      </trkpt>
      <trkpt lat="48.27373" lon="2.60441">
        <ele>41.95</ele>
        <time>2011-02-06T07:25:57Z</time>
      </trkpt>
      <trkpt lat="48.27306" lon="2.60493">
        <ele>41.95</ele>
        <time>2011-02-06T07:26:15Z</time>
      </trkpt>
      <trkpt lat="48.27254" lon="2.60527">
        <ele>40.51</ele>
        <time>2011-02-06T07:26:29Z</time>
      </trkpt>
      <trkpt lat="48.27245" lon="2.60534">
        <ele>40.51</ele>
        <time>2011-02-06T07:26:31Z</time>
      </trkpt>
      <trkpt lat="48.27235" lon="2.60541">
        <ele>40.51</ele>
        <time>2011-02-06T07:26:33Z</time>
      </trkpt>
      <trkpt lat="48.27231" lon="2.60545">
        <ele>40.03</ele>
        <time>2011-02-06T07:26:34Z</time>
      </trkpt>
      <trkpt lat="48.27227" lon="2.6055">
        <ele>40.03</ele>
        <time>2011-02-06T07:26:35Z</time>
      </trkpt>
      <trkpt lat="48.27212" lon="2.60572">
        <ele>39.07</ele>
        <time>2011-02-06T07:26:39Z</time>
      </trkpt>
      <trkpt lat="48.27208" lon="2.60576">
        <ele>39.07</ele>
        <time>2011-02-06T07:26:40Z</time>
      </trkpt>
      <trkpt lat="48.272" lon="2.60585">
        <ele>38.11</ele>
        <time>2011-02-06T07:26:42Z</time>
      </trkpt>
      <trkpt lat="48.27194" lon="2.60589">
        <ele>37.63</ele>
        <time>2011-02-06T07:26:43Z</time>
      </trkpt>
      <trkpt lat="48.27176" lon="2.60601">
        <ele>34.74</ele>
        <time>2011-02-06T07:26:46Z</time>
      </trkpt>
      <trkpt lat="48.27168" lon="2.60604">
        <ele>33.3</ele>
        <time>2011-02-06T07:26:47Z</time>
      </trkpt>
      <trkpt lat="48.27143" lon="2.60616">
        <ele>28.5</ele>
        <time>2011-02-06T07:26:50Z</time>
      </trkpt>
      <trkpt lat="48.27136" lon="2.60622">
        <ele>27.53</ele>
        <time>2011-02-06T07:26:51Z</time>
      </trkpt>
      <trkpt lat="48.27129" lon="2.6063">
        <ele>26.09</ele>
        <time>2011-02-06T07:26:52Z</time>
      </trkpt>
      <trkpt lat="48.27123" lon="2.6064">
        <ele>26.09</ele>
        <time>2011-02-06T07:26:53Z</time>
      </trkpt>
      <trkpt lat="48.271" lon="2.60682">
        <ele>23.21</ele>
        <time>2011-02-06T07:26:57Z</time>
      </trkpt>
      <trkpt lat="48.27094" lon="2.60691">
        <ele>22.73</ele>
        <time>2011-02-06T07:26:58Z</time>
      </trkpt>
      <trkpt lat="48.27089" lon="2.607">
        <ele>22.25</ele>
        <time>2011-02-06T07:26:59Z</time>
      </trkpt>
      <trkpt lat="48.2707" lon="2.60728">
        <ele>18.88</ele>
        <time>2011-02-06T07:27:02Z</time>
      </trkpt>
      <trkpt lat="48.27045" lon="2.60761">
        <ele>16</ele>
        <time>2011-02-06T07:27:06Z</time>
      </trkpt>
      <trkpt lat="48.27038" lon="2.60768">
        <ele>15.52</ele>
        <time>2011-02-06T07:27:07Z</time>
      </trkpt>
      <trkpt lat="48.27023" lon="2.60782">
        <ele>14.56</ele>
        <time>2011-02-06T07:27:09Z</time>
      </trkpt>
      <trkpt lat="48.27015" lon="2.60787">
        <ele>14.08</ele>
        <time>2011-02-06T07:27:10Z</time>
      </trkpt>
      <trkpt lat="48.27007" lon="2.60791">
        <ele>13.12</ele>
        <time>2011-02-06T07:27:11Z</time>
      </trkpt>
      <trkpt lat="48.26973" lon="2.60804">
        <ele>9.75</ele>
        <time>2011-02-06T07:27:15Z</time>
      </trkpt>
      <trkpt lat="48.26901" lon="2.6086">
        <ele>7.35</ele>
        <time>2011-02-06T07:27:26Z</time>
      </trkpt>
      <trkpt lat="48.26897" lon="2.60864">
        <ele>6.87</ele>
        <time>2011-02-06T07:27:27Z</time>
      </trkpt>
      <trkpt lat="48.26894" lon="2.60868">
        <ele>7.35</ele>
        <time>2011-02-06T07:27:28Z</time>
      </trkpt>
      <trkpt lat="48.26892" lon="2.60871">
        <ele>7.35</ele>
        <time>2011-02-06T07:27:29Z</time>
      </trkpt>
      <trkpt lat="48.2689" lon="2.60874">
        <ele>7.35</ele>
        <time>2011-02-06T07:27:30Z</time>
      </trkpt>
      <trkpt lat="48.26889" lon="2.60879">
        <ele>7.35</ele>
        <time>2011-02-06T07:27:31Z</time>
      </trkpt>
      <trkpt lat="48.26887" lon="2.60883">
        <ele>7.35</ele>
        <time>2011-02-06T07:27:32Z</time>
      </trkpt>
      <trkpt lat="48.26886" lon="2.60889">
        <ele>7.35</ele>
        <time>2011-02-06T07:27:33Z</time>
      </trkpt>
      <trkpt lat="48.26886" lon="2.60894">
        <ele>6.87</ele>
        <time>2011-02-06T07:27:34Z</time>
      </trkpt>
      <trkpt lat="48.26884" lon="2.60928">
        <ele>6.39</ele>
        <time>2011-02-06T07:27:40Z</time>
      </trkpt>
      <trkpt lat="48.26881" lon="2.60931">
        <ele>6.39</ele>
        <time>2011-02-06T07:27:41Z</time>
      </trkpt>
      <trkpt lat="48.26877" lon="2.6093">
        <ele>5.91</ele>
        <time>2011-02-06T07:27:42Z</time>
      </trkpt>
      <trkpt lat="48.26874" lon="2.60926">
        <ele>4.94</ele>
        <time>2011-02-06T07:27:43Z</time>
      </trkpt>
      <trkpt lat="48.26872" lon="2.60921">
        <ele>5.42</ele>
        <time>2011-02-06T07:27:44Z</time>
      </trkpt>
      <trkpt lat="48.26847" lon="2.60852">
        <ele>6.39</ele>
        <time>2011-02-06T07:27:58Z</time>
      </trkpt>
      <trkpt lat="48.26819" lon="2.6077">
        <ele>7.35</ele>
        <time>2011-02-06T07:28:14Z</time>
      </trkpt>
      <trkpt lat="48.2679" lon="2.60693">
        <ele>8.31</ele>
        <time>2011-02-06T07:28:29Z</time>
      </trkpt>
      <trkpt lat="48.26766" lon="2.60591">
        <ele>9.75</ele>
        <time>2011-02-06T07:28:46Z</time>
      </trkpt>
      <trkpt lat="48.26757" lon="2.60548">
        <ele>10.71</ele>
        <time>2011-02-06T07:28:54Z</time>
      </trkpt>
      <trkpt lat="48.26754" lon="2.60545">
        <ele>10.71</ele>
        <time>2011-02-06T07:28:55Z</time>
      </trkpt>
      <trkpt lat="48.26751" lon="2.60544">
        <ele>11.19</ele>
        <time>2011-02-06T07:28:56Z</time>
      </trkpt>
      <trkpt lat="48.26747" lon="2.60545">
        <ele>11.67</ele>
        <time>2011-02-06T07:28:57Z</time>
      </trkpt>
      <trkpt lat="48.26744" lon="2.60547">
        <ele>11.67</ele>
        <time>2011-02-06T07:28:58Z</time>
      </trkpt>
      <trkpt lat="48.2674" lon="2.60549">
        <ele>11.67</ele>
        <time>2011-02-06T07:28:59Z</time>
      </trkpt>
      <trkpt lat="48.26737" lon="2.60552">
        <ele>12.15</ele>
        <time>2011-02-06T07:29:00Z</time>
      </trkpt>
      <trkpt lat="48.26726" lon="2.6056">
        <ele>12.15</ele>
        <time>2011-02-06T07:29:03Z</time>
      </trkpt>
      <trkpt lat="48.26722" lon="2.60562">
        <ele>12.15</ele>
        <time>2011-02-06T07:29:04Z</time>
      </trkpt>
      <trkpt lat="48.26718" lon="2.60564">
        <ele>12.15</ele>
        <time>2011-02-06T07:29:05Z</time>
      </trkpt>
      <trkpt lat="48.26652" lon="2.60566">
        <ele>15.04</ele>
        <time>2011-02-06T07:29:21Z</time>
      </trkpt>
      <trkpt lat="48.26618" lon="2.60567">
        <ele>17.92</ele>
        <time>2011-02-06T07:29:32Z</time>
      </trkpt>
      <trkpt lat="48.26591" lon="2.60572">
        <ele>21.29</ele>
        <time>2011-02-06T07:29:43Z</time>
      </trkpt>
      <trkpt lat="48.2657" lon="2.60586">
        <ele>24.65</ele>
        <time>2011-02-06T07:29:52Z</time>
      </trkpt>
      <trkpt lat="48.26562" lon="2.60602">
        <ele>26.57</ele>
        <time>2011-02-06T07:29:58Z</time>
      </trkpt>
      <trkpt lat="48.26557" lon="2.60633">
        <ele>29.46</ele>
        <time>2011-02-06T07:30:08Z</time>
      </trkpt>
      <trkpt lat="48.26535" lon="2.60654">
        <ele>32.34</ele>
        <time>2011-02-06T07:30:21Z</time>
      </trkpt>
      <trkpt lat="48.265" lon="2.60658">
        <ele>33.78</ele>
        <time>2011-02-06T07:30:35Z</time>
      </trkpt>
      <trkpt lat="48.26467" lon="2.60625">
        <ele>36.19</ele>
        <time>2011-02-06T07:30:49Z</time>
      </trkpt>
      <trkpt lat="48.26456" lon="2.60618">
        <ele>36.67</ele>
        <time>2011-02-06T07:30:54Z</time>
      </trkpt>
      <trkpt lat="48.26454" lon="2.60621">
        <ele>37.15</ele>
        <time>2011-02-06T07:30:55Z</time>
      </trkpt>
      <trkpt lat="48.26453" lon="2.60624">
        <ele>37.63</ele>
        <time>2011-02-06T07:30:56Z</time>
      </trkpt>
      <trkpt lat="48.26453" lon="2.60628">
        <ele>37.63</ele>
        <time>2011-02-06T07:30:57Z</time>
      </trkpt>
      <trkpt lat="48.26453" lon="2.60632">
        <ele>37.63</ele>
        <time>2011-02-06T07:30:58Z</time>
      </trkpt>
      <trkpt lat="48.26454" lon="2.60703">
        <ele>38.59</ele>
        <time>2011-02-06T07:31:15Z</time>
      </trkpt>
      <trkpt lat="48.26452" lon="2.60758">
        <ele>40.03</ele>
        <time>2011-02-06T07:31:29Z</time>
      </trkpt>
      <trkpt lat="48.26465" lon="2.60796">
        <ele>42.92</ele>
        <time>2011-02-06T07:31:40Z</time>
      </trkpt>
      <trkpt lat="48.26476" lon="2.60836">
        <ele>45.8</ele>
        <time>2011-02-06T07:31:50Z</time>
      </trkpt>
      <trkpt lat="48.2649" lon="2.60895">
        <ele>48.2</ele>
        <time>2011-02-06T07:32:05Z</time>
      </trkpt>
      <trkpt lat="48.26507" lon="2.60951">
        <ele>49.65</ele>
        <time>2011-02-06T07:32:20Z</time>
      </trkpt>
      <trkpt lat="48.26522" lon="2.61007">
        <ele>50.13</ele>
        <time>2011-02-06T07:32:35Z</time>
      </trkpt>
      <trkpt lat="48.26536" lon="2.6108">
        <ele>49.65</ele>
        <time>2011-02-06T07:32:50Z</time>
      </trkpt>
      <trkpt lat="48.26547" lon="2.61118">
        <ele>48.2</ele>
        <time>2011-02-06T07:32:58Z</time>
      </trkpt>
      <trkpt lat="48.2655" lon="2.61122">
        <ele>47.24</ele>
        <time>2011-02-06T07:32:59Z</time>
      </trkpt>
      <trkpt lat="48.26555" lon="2.61125">
        <ele>46.76</ele>
        <time>2011-02-06T07:33:00Z</time>
      </trkpt>
      <trkpt lat="48.2656" lon="2.61127">
        <ele>46.28</ele>
        <time>2011-02-06T07:33:01Z</time>
      </trkpt>
      <trkpt lat="48.26566" lon="2.61128">
        <ele>45.8</ele>
        <time>2011-02-06T07:33:02Z</time>
      </trkpt>
      <trkpt lat="48.26572" lon="2.61127">
        <ele>44.36</ele>
        <time>2011-02-06T07:33:03Z</time>
      </trkpt>
      <trkpt lat="48.26579" lon="2.61126">
        <ele>43.4</ele>
        <time>2011-02-06T07:33:04Z</time>
      </trkpt>
      <trkpt lat="48.266" lon="2.61118">
        <ele>40.03</ele>
        <time>2011-02-06T07:33:07Z</time>
      </trkpt>
      <trkpt lat="48.26617" lon="2.61113">
        <ele>38.11</ele>
        <time>2011-02-06T07:33:10Z</time>
      </trkpt>
      <trkpt lat="48.2662" lon="2.61115">
        <ele>37.63</ele>
        <time>2011-02-06T07:33:11Z</time>
      </trkpt>
      <trkpt lat="48.26622" lon="2.61118">
        <ele>37.63</ele>
        <time>2011-02-06T07:33:12Z</time>
      </trkpt>
      <trkpt lat="48.26624" lon="2.61123">
        <ele>38.59</ele>
        <time>2011-02-06T07:33:13Z</time>
      </trkpt>
      <trkpt lat="48.26626" lon="2.61127">
        <ele>39.55</ele>
        <time>2011-02-06T07:33:14Z</time>
      </trkpt>
      <trkpt lat="48.26626" lon="2.61133">
        <ele>38.59</ele>
        <time>2011-02-06T07:33:15Z</time>
      </trkpt>
      <trkpt lat="48.26627" lon="2.6114">
        <ele>37.63</ele>
        <time>2011-02-06T07:33:16Z</time>
      </trkpt>
      <trkpt lat="48.26627" lon="2.6116">
        <ele>38.11</ele>
        <time>2011-02-06T07:33:20Z</time>
      </trkpt>
      <trkpt lat="48.26625" lon="2.61161">
        <ele>38.59</ele>
        <time>2011-02-06T07:33:21Z</time>
      </trkpt>
      <trkpt lat="48.26623" lon="2.61161">
        <ele>38.59</ele>
        <time>2011-02-06T07:33:22Z</time>
      </trkpt>
      <trkpt lat="48.26619" lon="2.61163">
        <ele>39.07</ele>
        <time>2011-02-06T07:33:24Z</time>
      </trkpt>
      <trkpt lat="48.26608" lon="2.61183">
        <ele>40.51</ele>
        <time>2011-02-06T07:33:34Z</time>
      </trkpt>
      <trkpt lat="48.26607" lon="2.61186">
        <ele>40.51</ele>
        <time>2011-02-06T07:33:35Z</time>
      </trkpt>
      <trkpt lat="48.26607" lon="2.61189">
        <ele>40.51</ele>
        <time>2011-02-06T07:33:36Z</time>
      </trkpt>
      <trkpt lat="48.26607" lon="2.61191">
        <ele>40.99</ele>
        <time>2011-02-06T07:33:37Z</time>
      </trkpt>
      <trkpt lat="48.26606" lon="2.61194">
        <ele>40.99</ele>
        <time>2011-02-06T07:33:38Z</time>
      </trkpt>
      <trkpt lat="48.26606" lon="2.61196">
        <ele>40.51</ele>
        <time>2011-02-06T07:33:39Z</time>
      </trkpt>
      <trkpt lat="48.26606" lon="2.61199">
        <ele>40.99</ele>
        <time>2011-02-06T07:33:40Z</time>
      </trkpt>
      <trkpt lat="48.26604" lon="2.61236">
        <ele>43.4</ele>
        <time>2011-02-06T07:33:54Z</time>
      </trkpt>
      <trkpt lat="48.26606" lon="2.61287">
        <ele>46.28</ele>
        <time>2011-02-06T07:34:09Z</time>
      </trkpt>
      <trkpt lat="48.26621" lon="2.61338">
        <ele>48.2</ele>
        <time>2011-02-06T07:34:23Z</time>
      </trkpt>
      <trkpt lat="48.26655" lon="2.61377">
        <ele>48.68</ele>
        <time>2011-02-06T07:34:37Z</time>
      </trkpt>
      <trkpt lat="48.26689" lon="2.61418">
        <ele>47.72</ele>
        <time>2011-02-06T07:34:50Z</time>
      </trkpt>
      <trkpt lat="48.26702" lon="2.6147">
        <ele>44.36</ele>
        <time>2011-02-06T07:34:57Z</time>
      </trkpt>
      <trkpt lat="48.26707" lon="2.61498">
        <ele>42.44</ele>
        <time>2011-02-06T07:35:00Z</time>
      </trkpt>
      <trkpt lat="48.26708" lon="2.61507">
        <ele>41.95</ele>
        <time>2011-02-06T07:35:01Z</time>
      </trkpt>
      <trkpt lat="48.26707" lon="2.61517">
        <ele>41.47</ele>
        <time>2011-02-06T07:35:02Z</time>
      </trkpt>
      <trkpt lat="48.26706" lon="2.61528">
        <ele>40.51</ele>
        <time>2011-02-06T07:35:03Z</time>
      </trkpt>
      <trkpt lat="48.26703" lon="2.6154">
        <ele>40.03</ele>
        <time>2011-02-06T07:35:04Z</time>
      </trkpt>
      <trkpt lat="48.26699" lon="2.61553">
        <ele>39.07</ele>
        <time>2011-02-06T07:35:05Z</time>
      </trkpt>
      <trkpt lat="48.26687" lon="2.61602">
        <ele>40.99</ele>
        <time>2011-02-06T07:35:09Z</time>
      </trkpt>
      <trkpt lat="48.26679" lon="2.61629">
        <ele>44.36</ele>
        <time>2011-02-06T07:35:12Z</time>
      </trkpt>
      <trkpt lat="48.26677" lon="2.61637">
        <ele>44.36</ele>
        <time>2011-02-06T07:35:13Z</time>
      </trkpt>
      <trkpt lat="48.26675" lon="2.61643">
        <ele>44.84</ele>
        <time>2011-02-06T07:35:14Z</time>
      </trkpt>
      <trkpt lat="48.26673" lon="2.61649">
        <ele>45.8</ele>
        <time>2011-02-06T07:35:15Z</time>
      </trkpt>
      <trkpt lat="48.26667" lon="2.61661">
        <ele>47.72</ele>
        <time>2011-02-06T07:35:18Z</time>
      </trkpt>
      <trkpt lat="48.26657" lon="2.61717">
        <ele>49.65</ele>
        <time>2011-02-06T07:35:32Z</time>
      </trkpt>
      <trkpt lat="48.26651" lon="2.61768">
        <ele>50.13</ele>
        <time>2011-02-06T07:35:43Z</time>
      </trkpt>
      <trkpt lat="48.26654" lon="2.6183">
        <ele>51.09</ele>
        <time>2011-02-06T07:35:57Z</time>
      </trkpt>
      <trkpt lat="48.26688" lon="2.61859">
        <ele>50.13</ele>
        <time>2011-02-06T07:36:09Z</time>
      </trkpt>
      <trkpt lat="48.26722" lon="2.61898">
        <ele>48.68</ele>
        <time>2011-02-06T07:36:21Z</time>
      </trkpt>
      <trkpt lat="48.26725" lon="2.61902">
        <ele>48.68</ele>
        <time>2011-02-06T07:36:22Z</time>
      </trkpt>
      <trkpt lat="48.26733" lon="2.61914">
        <ele>46.76</ele>
        <time>2011-02-06T07:36:24Z</time>
      </trkpt>
      <trkpt lat="48.26751" lon="2.61932">
        <ele>43.88</ele>
        <time>2011-02-06T07:36:27Z</time>
      </trkpt>
      <trkpt lat="48.26757" lon="2.61938">
        <ele>43.88</ele>
        <time>2011-02-06T07:36:28Z</time>
      </trkpt>
      <trkpt lat="48.26777" lon="2.61952">
        <ele>42.44</ele>
        <time>2011-02-06T07:36:31Z</time>
      </trkpt>
      <trkpt lat="48.26794" lon="2.61962">
        <ele>44.36</ele>
        <time>2011-02-06T07:36:34Z</time>
      </trkpt>
      <trkpt lat="48.26802" lon="2.6197">
        <ele>45.32</ele>
        <time>2011-02-06T07:36:36Z</time>
      </trkpt>
      <trkpt lat="48.26805" lon="2.61976">
        <ele>45.32</ele>
        <time>2011-02-06T07:36:37Z</time>
      </trkpt>
      <trkpt lat="48.2681" lon="2.61988">
        <ele>45.32</ele>
        <time>2011-02-06T07:36:40Z</time>
      </trkpt>
      <trkpt lat="48.26817" lon="2.61996">
        <ele>46.28</ele>
        <time>2011-02-06T07:36:43Z</time>
      </trkpt>
      <trkpt lat="48.26819" lon="2.61999">
        <ele>46.28</ele>
        <time>2011-02-06T07:36:44Z</time>
      </trkpt>
      <trkpt lat="48.2682" lon="2.62">
        <ele>46.76</ele>
        <time>2011-02-06T07:36:45Z</time>
      </trkpt>
      <trkpt lat="48.26822" lon="2.62002">
        <ele>46.76</ele>
        <time>2011-02-06T07:36:46Z</time>
      </trkpt>
      <trkpt lat="48.26823" lon="2.62005">
        <ele>46.28</ele>
        <time>2011-02-06T07:36:47Z</time>
      </trkpt>
      <trkpt lat="48.26823" lon="2.62008">
        <ele>46.28</ele>
        <time>2011-02-06T07:36:48Z</time>
      </trkpt>
      <trkpt lat="48.26823" lon="2.62012">
        <ele>46.76</ele>
        <time>2011-02-06T07:36:49Z</time>
      </trkpt>
      <trkpt lat="48.26829" lon="2.62031">
        <ele>49.65</ele>
        <time>2011-02-06T07:36:55Z</time>
      </trkpt>
      <trkpt lat="48.26835" lon="2.62038">
        <ele>51.09</ele>
        <time>2011-02-06T07:37:00Z</time>
      </trkpt>
      <trkpt lat="48.26836" lon="2.6204">
        <ele>50.61</ele>
        <time>2011-02-06T07:37:01Z</time>
      </trkpt>
      <trkpt lat="48.26838" lon="2.62042">
        <ele>50.61</ele>
        <time>2011-02-06T07:37:02Z</time>
      </trkpt>
      <trkpt lat="48.2684" lon="2.62045">
        <ele>51.09</ele>
        <time>2011-02-06T07:37:03Z</time>
      </trkpt>
      <trkpt lat="48.26842" lon="2.62049">
        <ele>51.09</ele>
        <time>2011-02-06T07:37:04Z</time>
      </trkpt>
      <trkpt lat="48.26843" lon="2.62054">
        <ele>50.61</ele>
        <time>2011-02-06T07:37:05Z</time>
      </trkpt>
      <trkpt lat="48.26847" lon="2.62071">
        <ele>51.09</ele>
        <time>2011-02-06T07:37:09Z</time>
      </trkpt>
      <trkpt lat="48.26847" lon="2.62074">
        <ele>51.09</ele>
        <time>2011-02-06T07:37:10Z</time>
      </trkpt>
      <trkpt lat="48.26848" lon="2.62077">
        <ele>51.09</ele>
        <time>2011-02-06T07:37:11Z</time>
      </trkpt>
      <trkpt lat="48.26849" lon="2.6208">
        <ele>51.09</ele>
        <time>2011-02-06T07:37:12Z</time>
      </trkpt>
      <trkpt lat="48.2685" lon="2.62083">
        <ele>50.61</ele>
        <time>2011-02-06T07:37:13Z</time>
      </trkpt>
      <trkpt lat="48.2685" lon="2.62085">
        <ele>51.09</ele>
        <time>2011-02-06T07:37:14Z</time>
      </trkpt>
      <trkpt lat="48.26854" lon="2.62091">
        <ele>51.09</ele>
        <time>2011-02-06T07:37:16Z</time>
      </trkpt>
      <trkpt lat="48.26855" lon="2.62092">
        <ele>51.09</ele>
        <time>2011-02-06T07:37:17Z</time>
      </trkpt>
      <trkpt lat="48.26859" lon="2.62092">
        <ele>51.09</ele>
        <time>2011-02-06T07:37:21Z</time>
      </trkpt>
      <trkpt lat="48.2687" lon="2.62127">
        <ele>51.57</ele>
        <time>2011-02-06T07:37:32Z</time>
      </trkpt>
      <trkpt lat="48.26878" lon="2.62151">
        <ele>51.57</ele>
        <time>2011-02-06T07:37:38Z</time>
      </trkpt>
      <trkpt lat="48.26885" lon="2.62163">
        <ele>52.05</ele>
        <time>2011-02-06T07:37:43Z</time>
      </trkpt>
      <trkpt lat="48.26887" lon="2.62177">
        <ele>52.05</ele>
        <time>2011-02-06T07:37:47Z</time>
      </trkpt>
      <trkpt lat="48.26887" lon="2.62184">
        <ele>53.49</ele>
        <time>2011-02-06T07:37:49Z</time>
      </trkpt>
      <trkpt lat="48.26876" lon="2.62208">
        <ele>52.53</ele>
        <time>2011-02-06T07:37:58Z</time>
      </trkpt>
      <trkpt lat="48.26879" lon="2.62233">
        <ele>53.49</ele>
        <time>2011-02-06T07:38:06Z</time>
      </trkpt>
      <trkpt lat="48.26881" lon="2.62244">
        <ele>53.01</ele>
        <time>2011-02-06T07:38:09Z</time>
      </trkpt>
      <trkpt lat="48.26883" lon="2.6225">
        <ele>53.01</ele>
        <time>2011-02-06T07:38:11Z</time>
      </trkpt>
      <trkpt lat="48.26893" lon="2.62263">
        <ele>53.49</ele>
        <time>2011-02-06T07:38:20Z</time>
      </trkpt>
      <trkpt lat="48.26892" lon="2.62271">
        <ele>52.53</ele>
        <time>2011-02-06T07:38:23Z</time>
      </trkpt>
      <trkpt lat="48.26899" lon="2.62293">
        <ele>52.05</ele>
        <time>2011-02-06T07:38:28Z</time>
      </trkpt>
      <trkpt lat="48.26898" lon="2.62324">
        <ele>53.49</ele>
        <time>2011-02-06T07:38:36Z</time>
      </trkpt>
      <trkpt lat="48.26904" lon="2.6234">
        <ele>53.01</ele>
        <time>2011-02-06T07:38:41Z</time>
      </trkpt>
      <trkpt lat="48.26926" lon="2.62326">
        <ele>52.05</ele>
        <time>2011-02-06T07:38:51Z</time>
      </trkpt>
      <trkpt lat="48.26925" lon="2.62307">
        <ele>53.49</ele>
        <time>2011-02-06T07:38:57Z</time>
      </trkpt>
      <trkpt lat="48.26927" lon="2.62303">
        <ele>53.97</ele>
        <time>2011-02-06T07:38:59Z</time>
      </trkpt>
      <trkpt lat="48.26927" lon="2.62297">
        <ele>53.97</ele>
        <time>2011-02-06T07:39:02Z</time>
      </trkpt>
      <trkpt lat="48.26932" lon="2.62289">
        <ele>54.45</ele>
        <time>2011-02-06T07:39:07Z</time>
      </trkpt>
      <trkpt lat="48.26934" lon="2.62283">
        <ele>54.45</ele>
        <time>2011-02-06T07:39:09Z</time>
      </trkpt>
      <trkpt lat="48.26942" lon="2.62272">
        <ele>53.97</ele>
        <time>2011-02-06T07:39:15Z</time>
      </trkpt>
      <trkpt lat="48.2694" lon="2.62263">
        <ele>53.01</ele>
        <time>2011-02-06T07:39:19Z</time>
      </trkpt>
      <trkpt lat="48.26938" lon="2.62232">
        <ele>52.05</ele>
        <time>2011-02-06T07:39:29Z</time>
      </trkpt>
      <trkpt lat="48.26936" lon="2.62205">
        <ele>53.49</ele>
        <time>2011-02-06T07:39:37Z</time>
      </trkpt>
      <trkpt lat="48.26919" lon="2.62175">
        <ele>53.97</ele>
        <time>2011-02-06T07:39:49Z</time>
      </trkpt>
      <trkpt lat="48.26919" lon="2.62163">
        <ele>53.49</ele>
        <time>2011-02-06T07:39:52Z</time>
      </trkpt>
      <trkpt lat="48.26922" lon="2.62159">
        <ele>54.45</ele>
        <time>2011-02-06T07:39:55Z</time>
      </trkpt>
      <trkpt lat="48.26925" lon="2.62147">
        <ele>50.13</ele>
        <time>2011-02-06T07:39:58Z</time>
      </trkpt>
      <trkpt lat="48.26926" lon="2.62137">
        <ele>50.13</ele>
        <time>2011-02-06T07:40:01Z</time>
      </trkpt>
      <trkpt lat="48.26924" lon="2.62132">
        <ele>50.61</ele>
        <time>2011-02-06T07:40:04Z</time>
      </trkpt>
      <trkpt lat="48.26923" lon="2.6211">
        <ele>50.61</ele>
        <time>2011-02-06T07:40:09Z</time>
      </trkpt>
      <trkpt lat="48.26919" lon="2.62096">
        <ele>50.13</ele>
        <time>2011-02-06T07:40:13Z</time>
      </trkpt>
      <trkpt lat="48.26918" lon="2.62076">
        <ele>50.61</ele>
        <time>2011-02-06T07:40:17Z</time>
      </trkpt>
      <trkpt lat="48.26915" lon="2.62057">
        <ele>51.57</ele>
        <time>2011-02-06T07:40:22Z</time>
      </trkpt>
      <trkpt lat="48.26905" lon="2.62046">
        <ele>54.45</ele>
        <time>2011-02-06T07:40:28Z</time>
      </trkpt>
      <trkpt lat="48.26902" lon="2.62045">
        <ele>53.97</ele>
        <time>2011-02-06T07:40:32Z</time>
      </trkpt>
      <trkpt lat="48.26901" lon="2.62041">
        <ele>52.53</ele>
        <time>2011-02-06T07:40:34Z</time>
      </trkpt>
      <trkpt lat="48.26898" lon="2.6204">
        <ele>53.01</ele>
        <time>2011-02-06T07:40:36Z</time>
      </trkpt>
      <trkpt lat="48.26875" lon="2.62026">
        <ele>53.49</ele>
        <time>2011-02-06T07:40:48Z</time>
      </trkpt>
      <trkpt lat="48.26875" lon="2.62014">
        <ele>54.93</ele>
        <time>2011-02-06T07:40:57Z</time>
      </trkpt>
      <trkpt lat="48.26876" lon="2.62015">
        <ele>54.93</ele>
        <time>2011-02-06T07:40:58Z</time>
      </trkpt>
      <trkpt lat="48.26877" lon="2.62013">
        <ele>55.41</ele>
        <time>2011-02-06T07:41:00Z</time>
      </trkpt>
      <trkpt lat="48.26883" lon="2.62026">
        <ele>55.41</ele>
        <time>2011-02-06T07:41:09Z</time>
      </trkpt>
      <trkpt lat="48.2689" lon="2.62021">
        <ele>53.01</ele>
        <time>2011-02-06T07:41:16Z</time>
      </trkpt>
      <trkpt lat="48.26891" lon="2.62019">
        <ele>52.53</ele>
        <time>2011-02-06T07:41:17Z</time>
      </trkpt>
      <trkpt lat="48.26891" lon="2.62019">
        <ele>53.01</ele>
        <time>2011-02-06T07:41:18Z</time>
      </trkpt>
      <trkpt lat="48.26894" lon="2.62012">
        <ele>53.49</ele>
        <time>2011-02-06T07:41:21Z</time>
      </trkpt>
      <trkpt lat="48.269" lon="2.62006">
        <ele>53.49</ele>
        <time>2011-02-06T07:41:25Z</time>
      </trkpt>
      <trkpt lat="48.26893" lon="2.62004">
        <ele>55.89</ele>
        <time>2011-02-06T07:41:30Z</time>
      </trkpt>
      <trkpt lat="48.26894" lon="2.62001">
        <ele>56.37</ele>
        <time>2011-02-06T07:41:38Z</time>
      </trkpt>
      <trkpt lat="48.26898" lon="2.61996">
        <ele>55.89</ele>
        <time>2011-02-06T07:41:43Z</time>
      </trkpt>
      <trkpt lat="48.26902" lon="2.61994">
        <ele>53.97</ele>
        <time>2011-02-06T07:41:46Z</time>
      </trkpt>
      <trkpt lat="48.26903" lon="2.61991">
        <ele>53.97</ele>
        <time>2011-02-06T07:41:48Z</time>
      </trkpt>
      <trkpt lat="48.26901" lon="2.61983">
        <ele>55.89</ele>
        <time>2011-02-06T07:41:53Z</time>
      </trkpt>
      <trkpt lat="48.26898" lon="2.61969">
        <ele>57.82</ele>
        <time>2011-02-06T07:42:05Z</time>
      </trkpt>
      <trkpt lat="48.26888" lon="2.61958">
        <ele>57.34</ele>
        <time>2011-02-06T07:42:12Z</time>
      </trkpt>
      <trkpt lat="48.26886" lon="2.61951">
        <ele>57.34</ele>
        <time>2011-02-06T07:42:15Z</time>
      </trkpt>
      <trkpt lat="48.26896" lon="2.61934">
        <ele>57.82</ele>
        <time>2011-02-06T07:42:22Z</time>
      </trkpt>
      <trkpt lat="48.26888" lon="2.61894">
        <ele>58.3</ele>
        <time>2011-02-06T07:42:35Z</time>
      </trkpt>
      <trkpt lat="48.26877" lon="2.61841">
        <ele>61.18</ele>
        <time>2011-02-06T07:42:50Z</time>
      </trkpt>
      <trkpt lat="48.26877" lon="2.61838">
        <ele>60.7</ele>
        <time>2011-02-06T07:42:51Z</time>
      </trkpt>
      <trkpt lat="48.26879" lon="2.61812">
        <ele>62.62</ele>
        <time>2011-02-06T07:42:58Z</time>
      </trkpt>
      <trkpt lat="48.26885" lon="2.61759">
        <ele>62.62</ele>
        <time>2011-02-06T07:43:12Z</time>
      </trkpt>
      <trkpt lat="48.26872" lon="2.61709">
        <ele>61.66</ele>
        <time>2011-02-06T07:43:24Z</time>
      </trkpt>
      <trkpt lat="48.26854" lon="2.61647">
        <ele>60.7</ele>
        <time>2011-02-06T07:43:37Z</time>
      </trkpt>
      <trkpt lat="48.26851" lon="2.61642">
        <ele>60.7</ele>
        <time>2011-02-06T07:43:38Z</time>
      </trkpt>
      <trkpt lat="48.26841" lon="2.61621">
        <ele>62.62</ele>
        <time>2011-02-06T07:43:43Z</time>
      </trkpt>
      <trkpt lat="48.2684" lon="2.61619">
        <ele>62.62</ele>
        <time>2011-02-06T07:43:44Z</time>
      </trkpt>
      <trkpt lat="48.26839" lon="2.61614">
        <ele>63.1</ele>
        <time>2011-02-06T07:43:47Z</time>
      </trkpt>
      <trkpt lat="48.26837" lon="2.61612">
        <ele>63.1</ele>
        <time>2011-02-06T07:43:48Z</time>
      </trkpt>
      <trkpt lat="48.26836" lon="2.61611">
        <ele>63.1</ele>
        <time>2011-02-06T07:43:49Z</time>
      </trkpt>
      <trkpt lat="48.26835" lon="2.61609">
        <ele>63.1</ele>
        <time>2011-02-06T07:43:50Z</time>
      </trkpt>
      <trkpt lat="48.26833" lon="2.61606">
        <ele>64.07</ele>
        <time>2011-02-06T07:43:51Z</time>
      </trkpt>
      <trkpt lat="48.26831" lon="2.61602">
        <ele>64.07</ele>
        <time>2011-02-06T07:43:52Z</time>
      </trkpt>
      <trkpt lat="48.26829" lon="2.61599">
        <ele>64.07</ele>
        <time>2011-02-06T07:43:53Z</time>
      </trkpt>
      <trkpt lat="48.26828" lon="2.61595">
        <ele>64.55</ele>
        <time>2011-02-06T07:43:54Z</time>
      </trkpt>
      <trkpt lat="48.26823" lon="2.61574">
        <ele>65.99</ele>
        <time>2011-02-06T07:44:01Z</time>
      </trkpt>
      <trkpt lat="48.26821" lon="2.61571">
        <ele>65.99</ele>
        <time>2011-02-06T07:44:02Z</time>
      </trkpt>
      <trkpt lat="48.2682" lon="2.61568">
        <ele>66.47</ele>
        <time>2011-02-06T07:44:03Z</time>
      </trkpt>
      <trkpt lat="48.26819" lon="2.61565">
        <ele>66.47</ele>
        <time>2011-02-06T07:44:04Z</time>
      </trkpt>
      <trkpt lat="48.26818" lon="2.61562">
        <ele>66.47</ele>
        <time>2011-02-06T07:44:05Z</time>
      </trkpt>
      <trkpt lat="48.26818" lon="2.6156">
        <ele>66.47</ele>
        <time>2011-02-06T07:44:06Z</time>
      </trkpt>
      <trkpt lat="48.26816" lon="2.61556">
        <ele>67.43</ele>
        <time>2011-02-06T07:44:08Z</time>
      </trkpt>
      <trkpt lat="48.26808" lon="2.6154">
        <ele>68.39</ele>
        <time>2011-02-06T07:44:20Z</time>
      </trkpt>
      <trkpt lat="48.26807" lon="2.61538">
        <ele>69.35</ele>
        <time>2011-02-06T07:44:27Z</time>
      </trkpt>
      <trkpt lat="48.26805" lon="2.61533">
        <ele>69.35</ele>
        <time>2011-02-06T07:44:29Z</time>
      </trkpt>
      <trkpt lat="48.26804" lon="2.61531">
        <ele>70.31</ele>
        <time>2011-02-06T07:44:30Z</time>
      </trkpt>
      <trkpt lat="48.26801" lon="2.61526">
        <ele>71.76</ele>
        <time>2011-02-06T07:44:35Z</time>
      </trkpt>
      <trkpt lat="48.268" lon="2.61524">
        <ele>72.24</ele>
        <time>2011-02-06T07:44:36Z</time>
      </trkpt>
      <trkpt lat="48.268" lon="2.61522">
        <ele>71.76</ele>
        <time>2011-02-06T07:44:37Z</time>
      </trkpt>
      <trkpt lat="48.268" lon="2.6152">
        <ele>72.24</ele>
        <time>2011-02-06T07:44:38Z</time>
      </trkpt>
      <trkpt lat="48.26801" lon="2.61514">
        <ele>72.24</ele>
        <time>2011-02-06T07:44:42Z</time>
      </trkpt>
      <trkpt lat="48.26802" lon="2.61511">
        <ele>72.72</ele>
        <time>2011-02-06T07:44:51Z</time>
      </trkpt>
      <trkpt lat="48.26802" lon="2.61512">
        <ele>72.72</ele>
        <time>2011-02-06T07:45:13Z</time>
      </trkpt>
      <trkpt lat="48.26805" lon="2.61509">
        <ele>69.83</ele>
        <time>2011-02-06T07:45:22Z</time>
      </trkpt>
      <trkpt lat="48.26806" lon="2.61509">
        <ele>69.83</ele>
        <time>2011-02-06T07:45:34Z</time>
      </trkpt>
      <trkpt lat="48.26806" lon="2.61508">
        <ele>68.39</ele>
        <time>2011-02-06T07:45:38Z</time>
      </trkpt>
      <trkpt lat="48.26811" lon="2.61506">
        <ele>65.03</ele>
        <time>2011-02-06T07:45:44Z</time>
      </trkpt>
      <trkpt lat="48.26813" lon="2.61504">
        <ele>64.07</ele>
        <time>2011-02-06T07:45:46Z</time>
      </trkpt>
      <trkpt lat="48.26814" lon="2.61501">
        <ele>63.1</ele>
        <time>2011-02-06T07:45:48Z</time>
      </trkpt>
      <trkpt lat="48.26814" lon="2.61494">
        <ele>63.58</ele>
        <time>2011-02-06T07:46:00Z</time>
      </trkpt>
      <trkpt lat="48.26814" lon="2.6149">
        <ele>64.07</ele>
        <time>2011-02-06T07:46:12Z</time>
      </trkpt>
      <trkpt lat="48.26814" lon="2.61461">
        <ele>65.03</ele>
        <time>2011-02-06T07:46:25Z</time>
      </trkpt>
      <trkpt lat="48.26811" lon="2.61436">
        <ele>64.55</ele>
        <time>2011-02-06T07:46:34Z</time>
      </trkpt>
      <trkpt lat="48.2681" lon="2.61432">
        <ele>65.03</ele>
        <time>2011-02-06T07:46:35Z</time>
      </trkpt>
      <trkpt lat="48.26807" lon="2.61404">
        <ele>65.51</ele>
        <time>2011-02-06T07:46:43Z</time>
      </trkpt>
      <trkpt lat="48.26805" lon="2.61391">
        <ele>65.99</ele>
        <time>2011-02-06T07:46:47Z</time>
      </trkpt>
      <trkpt lat="48.26804" lon="2.6136">
        <ele>68.39</ele>
        <time>2011-02-06T07:47:00Z</time>
      </trkpt>
      <trkpt lat="48.26805" lon="2.61354">
        <ele>68.87</ele>
        <time>2011-02-06T07:47:06Z</time>
      </trkpt>
      <trkpt lat="48.26799" lon="2.61332">
        <ele>68.87</ele>
        <time>2011-02-06T07:47:15Z</time>
      </trkpt>
      <trkpt lat="48.26798" lon="2.6132">
        <ele>68.39</ele>
        <time>2011-02-06T07:47:20Z</time>
      </trkpt>
      <trkpt lat="48.26793" lon="2.61299">
        <ele>68.39</ele>
        <time>2011-02-06T07:47:29Z</time>
      </trkpt>
      <trkpt lat="48.26794" lon="2.6129">
        <ele>69.83</ele>
        <time>2011-02-06T07:47:32Z</time>
      </trkpt>
      <trkpt lat="48.26798" lon="2.61275">
        <ele>71.27</ele>
        <time>2011-02-06T07:47:40Z</time>
      </trkpt>
      <trkpt lat="48.26798" lon="2.61269">
        <ele>72.24</ele>
        <time>2011-02-06T07:47:43Z</time>
      </trkpt>
      <trkpt lat="48.26804" lon="2.61246">
        <ele>75.6</ele>
        <time>2011-02-06T07:47:57Z</time>
      </trkpt>
      <trkpt lat="48.26806" lon="2.61243">
        <ele>75.6</ele>
        <time>2011-02-06T07:47:59Z</time>
      </trkpt>
      <trkpt lat="48.2681" lon="2.61238">
        <ele>76.08</ele>
        <time>2011-02-06T07:48:04Z</time>
      </trkpt>
      <trkpt lat="48.26815" lon="2.61229">
        <ele>78</ele>
        <time>2011-02-06T07:48:10Z</time>
      </trkpt>
      <trkpt lat="48.26818" lon="2.61217">
        <ele>78.48</ele>
        <time>2011-02-06T07:48:24Z</time>
      </trkpt>
      <trkpt lat="48.26819" lon="2.61215">
        <ele>78.48</ele>
        <time>2011-02-06T07:48:26Z</time>
      </trkpt>
      <trkpt lat="48.26825" lon="2.61206">
        <ele>78.48</ele>
        <time>2011-02-06T07:48:33Z</time>
      </trkpt>
      <trkpt lat="48.26835" lon="2.61186">
        <ele>78.48</ele>
        <time>2011-02-06T07:48:43Z</time>
      </trkpt>
      <trkpt lat="48.26836" lon="2.61176">
        <ele>78.97</ele>
        <time>2011-02-06T07:48:47Z</time>
      </trkpt>
      <trkpt lat="48.26841" lon="2.61173">
        <ele>78.48</ele>
        <time>2011-02-06T07:48:51Z</time>
      </trkpt>
      <trkpt lat="48.26846" lon="2.61184">
        <ele>76.56</ele>
        <time>2011-02-06T07:48:57Z</time>
      </trkpt>
      <trkpt lat="48.26846" lon="2.61188">
        <ele>75.12</ele>
        <time>2011-02-06T07:48:59Z</time>
      </trkpt>
      <trkpt lat="48.2684" lon="2.61205">
        <ele>72.24</ele>
        <time>2011-02-06T07:49:07Z</time>
      </trkpt>
      <trkpt lat="48.26837" lon="2.61213">
        <ele>71.27</ele>
        <time>2011-02-06T07:49:09Z</time>
      </trkpt>
      <trkpt lat="48.26825" lon="2.61234">
        <ele>67.91</ele>
        <time>2011-02-06T07:49:16Z</time>
      </trkpt>
      <trkpt lat="48.26824" lon="2.61237">
        <ele>67.43</ele>
        <time>2011-02-06T07:49:17Z</time>
      </trkpt>
      <trkpt lat="48.2682" lon="2.61249">
        <ele>65.51</ele>
        <time>2011-02-06T07:49:22Z</time>
      </trkpt>
      <trkpt lat="48.26814" lon="2.61261">
        <ele>63.58</ele>
        <time>2011-02-06T07:49:30Z</time>
      </trkpt>
      <trkpt lat="48.26815" lon="2.61276">
        <ele>59.26</ele>
        <time>2011-02-06T07:49:34Z</time>
      </trkpt>
      <trkpt lat="48.26815" lon="2.6128">
        <ele>59.26</ele>
        <time>2011-02-06T07:49:35Z</time>
      </trkpt>
      <trkpt lat="48.2682" lon="2.61294">
        <ele>55.41</ele>
        <time>2011-02-06T07:49:40Z</time>
      </trkpt>
      <trkpt lat="48.26829" lon="2.61296">
        <ele>51.57</ele>
        <time>2011-02-06T07:49:42Z</time>
      </trkpt>
      <trkpt lat="48.26832" lon="2.61297">
        <ele>51.57</ele>
        <time>2011-02-06T07:49:43Z</time>
      </trkpt>
      <trkpt lat="48.26836" lon="2.61296">
        <ele>51.09</ele>
        <time>2011-02-06T07:49:45Z</time>
      </trkpt>
      <trkpt lat="48.26838" lon="2.61294">
        <ele>50.13</ele>
        <time>2011-02-06T07:49:53Z</time>
      </trkpt>
      <trkpt lat="48.26839" lon="2.61303">
        <ele>48.68</ele>
        <time>2011-02-06T07:49:57Z</time>
      </trkpt>
      <trkpt lat="48.26841" lon="2.61313">
        <ele>46.28</ele>
        <time>2011-02-06T07:50:00Z</time>
      </trkpt>
      <trkpt lat="48.26839" lon="2.61339">
        <ele>46.76</ele>
        <time>2011-02-06T07:50:13Z</time>
      </trkpt>
      <trkpt lat="48.26837" lon="2.61349">
        <ele>47.72</ele>
        <time>2011-02-06T07:50:19Z</time>
      </trkpt>
      <trkpt lat="48.26836" lon="2.61352">
        <ele>47.72</ele>
        <time>2011-02-06T07:50:21Z</time>
      </trkpt>
      <trkpt lat="48.26835" lon="2.61357">
        <ele>48.68</ele>
        <time>2011-02-06T07:50:25Z</time>
      </trkpt>
      <trkpt lat="48.26835" lon="2.61363">
        <ele>48.68</ele>
        <time>2011-02-06T07:50:28Z</time>
      </trkpt>
      <trkpt lat="48.26834" lon="2.61368">
        <ele>49.65</ele>
        <time>2011-02-06T07:50:31Z</time>
      </trkpt>
      <trkpt lat="48.26846" lon="2.61393">
        <ele>51.09</ele>
        <time>2011-02-06T07:50:44Z</time>
      </trkpt>
      <trkpt lat="48.26848" lon="2.6141">
        <ele>53.49</ele>
        <time>2011-02-06T07:50:56Z</time>
      </trkpt>
      <trkpt lat="48.26849" lon="2.61411">
        <ele>53.01</ele>
        <time>2011-02-06T07:50:58Z</time>
      </trkpt>
      <trkpt lat="48.26856" lon="2.61421">
        <ele>53.49</ele>
        <time>2011-02-06T07:51:03Z</time>
      </trkpt>
      <trkpt lat="48.26863" lon="2.61428">
        <ele>52.53</ele>
        <time>2011-02-06T07:51:07Z</time>
      </trkpt>
      <trkpt lat="48.26873" lon="2.6144">
        <ele>48.68</ele>
        <time>2011-02-06T07:51:11Z</time>
      </trkpt>
      <trkpt lat="48.26876" lon="2.61444">
        <ele>48.68</ele>
        <time>2011-02-06T07:51:12Z</time>
      </trkpt>
      <trkpt lat="48.26884" lon="2.61459">
        <ele>48.2</ele>
        <time>2011-02-06T07:51:17Z</time>
      </trkpt>
      <trkpt lat="48.26884" lon="2.61461">
        <ele>48.68</ele>
        <time>2011-02-06T07:51:18Z</time>
      </trkpt>
      <trkpt lat="48.26888" lon="2.6147">
        <ele>48.68</ele>
        <time>2011-02-06T07:51:21Z</time>
      </trkpt>
      <trkpt lat="48.26895" lon="2.61491">
        <ele>49.16</ele>
        <time>2011-02-06T07:51:28Z</time>
      </trkpt>
      <trkpt lat="48.26908" lon="2.61509">
        <ele>47.72</ele>
        <time>2011-02-06T07:51:35Z</time>
      </trkpt>
      <trkpt lat="48.26915" lon="2.61524">
        <ele>48.2</ele>
        <time>2011-02-06T07:51:41Z</time>
      </trkpt>
      <trkpt lat="48.2692" lon="2.61538">
        <ele>48.68</ele>
        <time>2011-02-06T07:51:46Z</time>
      </trkpt>
      <trkpt lat="48.26923" lon="2.61543">
        <ele>48.68</ele>
        <time>2011-02-06T07:51:48Z</time>
      </trkpt>
      <trkpt lat="48.26923" lon="2.61549">
        <ele>48.68</ele>
        <time>2011-02-06T07:52:02Z</time>
      </trkpt>
      <trkpt lat="48.26923" lon="2.6155">
        <ele>49.16</ele>
        <time>2011-02-06T07:52:10Z</time>
      </trkpt>
      <trkpt lat="48.26918" lon="2.61556">
        <ele>50.13</ele>
        <time>2011-02-06T07:52:15Z</time>
      </trkpt>
      <trkpt lat="48.26899" lon="2.61566">
        <ele>52.53</ele>
        <time>2011-02-06T07:52:28Z</time>
      </trkpt>
      <trkpt lat="48.26898" lon="2.61567">
        <ele>52.53</ele>
        <time>2011-02-06T07:52:29Z</time>
      </trkpt>
      <trkpt lat="48.26894" lon="2.61568">
        <ele>53.49</ele>
        <time>2011-02-06T07:52:32Z</time>
      </trkpt>
      <trkpt lat="48.26883" lon="2.61578">
        <ele>55.89</ele>
        <time>2011-02-06T07:52:42Z</time>
      </trkpt>
      <trkpt lat="48.26881" lon="2.61584">
        <ele>56.37</ele>
        <time>2011-02-06T07:52:45Z</time>
      </trkpt>
      <trkpt lat="48.26877" lon="2.61609">
        <ele>57.82</ele>
        <time>2011-02-06T07:52:56Z</time>
      </trkpt>
      <trkpt lat="48.26876" lon="2.61618">
        <ele>58.3</ele>
        <time>2011-02-06T07:53:00Z</time>
      </trkpt>
      <trkpt lat="48.2688" lon="2.61628">
        <ele>58.3</ele>
        <time>2011-02-06T07:53:04Z</time>
      </trkpt>
      <trkpt lat="48.26881" lon="2.61634">
        <ele>59.74</ele>
        <time>2011-02-06T07:53:06Z</time>
      </trkpt>
      <trkpt lat="48.26882" lon="2.61645">
        <ele>60.22</ele>
        <time>2011-02-06T07:53:10Z</time>
      </trkpt>
      <trkpt lat="48.26882" lon="2.61653">
        <ele>60.22</ele>
        <time>2011-02-06T07:53:13Z</time>
      </trkpt>
      <trkpt lat="48.26889" lon="2.61679">
        <ele>61.66</ele>
        <time>2011-02-06T07:53:24Z</time>
      </trkpt>
      <trkpt lat="48.26888" lon="2.61683">
        <ele>61.66</ele>
        <time>2011-02-06T07:53:26Z</time>
      </trkpt>
      <trkpt lat="48.26893" lon="2.61699">
        <ele>61.18</ele>
        <time>2011-02-06T07:53:33Z</time>
      </trkpt>
      <trkpt lat="48.26911" lon="2.61732">
        <ele>60.22</ele>
        <time>2011-02-06T07:53:42Z</time>
      </trkpt>
      <trkpt lat="48.2692" lon="2.61757">
        <ele>61.18</ele>
        <time>2011-02-06T07:53:50Z</time>
      </trkpt>
      <trkpt lat="48.26916" lon="2.61769">
        <ele>62.14</ele>
        <time>2011-02-06T07:53:55Z</time>
      </trkpt>
      <trkpt lat="48.2691" lon="2.61772">
        <ele>63.1</ele>
        <time>2011-02-06T07:53:59Z</time>
      </trkpt>
      <trkpt lat="48.26902" lon="2.61783">
        <ele>63.58</ele>
        <time>2011-02-06T07:54:05Z</time>
      </trkpt>
      <trkpt lat="48.26899" lon="2.61788">
        <ele>64.55</ele>
        <time>2011-02-06T07:54:08Z</time>
      </trkpt>
      <trkpt lat="48.26894" lon="2.61796">
        <ele>65.51</ele>
        <time>2011-02-06T07:54:13Z</time>
      </trkpt>
      <trkpt lat="48.26889" lon="2.61804">
        <ele>65.99</ele>
        <time>2011-02-06T07:54:19Z</time>
      </trkpt>
      <trkpt lat="48.26886" lon="2.61807">
        <ele>66.95</ele>
        <time>2011-02-06T07:54:22Z</time>
      </trkpt>
      <trkpt lat="48.26898" lon="2.61806">
        <ele>66.47</ele>
        <time>2011-02-06T07:54:31Z</time>
      </trkpt>
      <trkpt lat="48.26897" lon="2.61817">
        <ele>68.39</ele>
        <time>2011-02-06T07:54:36Z</time>
      </trkpt>
      <trkpt lat="48.26893" lon="2.61825">
        <ele>68.87</ele>
        <time>2011-02-06T07:54:40Z</time>
      </trkpt>
      <trkpt lat="48.26894" lon="2.61838">
        <ele>68.39</ele>
        <time>2011-02-06T07:54:45Z</time>
      </trkpt>
      <trkpt lat="48.26896" lon="2.61848">
        <ele>69.35</ele>
        <time>2011-02-06T07:54:48Z</time>
      </trkpt>
      <trkpt lat="48.26897" lon="2.61857">
        <ele>67.91</ele>
        <time>2011-02-06T07:54:51Z</time>
      </trkpt>
      <trkpt lat="48.26897" lon="2.61869">
        <ele>68.87</ele>
        <time>2011-02-06T07:54:54Z</time>
      </trkpt>
      <trkpt lat="48.26897" lon="2.61875">
        <ele>70.79</ele>
        <time>2011-02-06T07:55:01Z</time>
      </trkpt>
      <trkpt lat="48.26899" lon="2.61888">
        <ele>71.76</ele>
        <time>2011-02-06T07:55:06Z</time>
      </trkpt>
      <trkpt lat="48.26903" lon="2.61893">
        <ele>71.76</ele>
        <time>2011-02-06T07:55:09Z</time>
      </trkpt>
      <trkpt lat="48.26911" lon="2.61896">
        <ele>71.76</ele>
        <time>2011-02-06T07:55:13Z</time>
      </trkpt>
      <trkpt lat="48.26915" lon="2.61896">
        <ele>71.76</ele>
        <time>2011-02-06T07:55:15Z</time>
      </trkpt>
      <trkpt lat="48.26929" lon="2.61887">
        <ele>72.24</ele>
        <time>2011-02-06T07:55:23Z</time>
      </trkpt>
      <trkpt lat="48.2695" lon="2.61882">
        <ele>72.24</ele>
        <time>2011-02-06T07:55:34Z</time>
      </trkpt>
      <trkpt lat="48.26965" lon="2.61878">
        <ele>72.24</ele>
        <time>2011-02-06T07:55:41Z</time>
      </trkpt>
      <trkpt lat="48.26993" lon="2.6186">
        <ele>71.76</ele>
        <time>2011-02-06T07:55:52Z</time>
      </trkpt>
      <trkpt lat="48.27005" lon="2.61851">
        <ele>71.76</ele>
        <time>2011-02-06T07:55:57Z</time>
      </trkpt>
      <trkpt lat="48.27014" lon="2.6186">
        <ele>71.76</ele>
        <time>2011-02-06T07:56:02Z</time>
      </trkpt>
      <trkpt lat="48.27015" lon="2.61865">
        <ele>71.76</ele>
        <time>2011-02-06T07:56:04Z</time>
      </trkpt>
      <trkpt lat="48.27025" lon="2.61889">
        <ele>73.2</ele>
        <time>2011-02-06T07:56:13Z</time>
      </trkpt>
      <trkpt lat="48.27027" lon="2.6191">
        <ele>72.24</ele>
        <time>2011-02-06T07:56:18Z</time>
      </trkpt>
      <trkpt lat="48.27027" lon="2.61928">
        <ele>72.24</ele>
        <time>2011-02-06T07:56:24Z</time>
      </trkpt>
      <trkpt lat="48.27035" lon="2.6193">
        <ele>72.24</ele>
        <time>2011-02-06T07:56:28Z</time>
      </trkpt>
      <trkpt lat="48.27044" lon="2.61934">
        <ele>71.76</ele>
        <time>2011-02-06T07:56:35Z</time>
      </trkpt>
      <trkpt lat="48.27054" lon="2.61934">
        <ele>70.31</ele>
        <time>2011-02-06T07:56:44Z</time>
      </trkpt>
      <trkpt lat="48.27056" lon="2.61926">
        <ele>67.91</ele>
        <time>2011-02-06T07:56:49Z</time>
      </trkpt>
      <trkpt lat="48.27056" lon="2.61922">
        <ele>64.55</ele>
        <time>2011-02-06T07:57:03Z</time>
      </trkpt>
      <trkpt lat="48.27057" lon="2.61918">
        <ele>62.62</ele>
        <time>2011-02-06T07:57:07Z</time>
      </trkpt>
      <trkpt lat="48.27057" lon="2.61897">
        <ele>58.3</ele>
        <time>2011-02-06T07:57:13Z</time>
      </trkpt>
      <trkpt lat="48.27055" lon="2.6189">
        <ele>57.82</ele>
        <time>2011-02-06T07:57:15Z</time>
      </trkpt>
      <trkpt lat="48.27052" lon="2.61866">
        <ele>56.37</ele>
        <time>2011-02-06T07:57:23Z</time>
      </trkpt>
      <trkpt lat="48.27051" lon="2.61853">
        <ele>52.53</ele>
        <time>2011-02-06T07:57:27Z</time>
      </trkpt>
      <trkpt lat="48.2705" lon="2.61843">
        <ele>50.61</ele>
        <time>2011-02-06T07:57:29Z</time>
      </trkpt>
      <trkpt lat="48.27049" lon="2.61831">
        <ele>50.61</ele>
        <time>2011-02-06T07:57:32Z</time>
      </trkpt>
      <trkpt lat="48.27046" lon="2.61814">
        <ele>51.57</ele>
        <time>2011-02-06T07:57:38Z</time>
      </trkpt>
      <trkpt lat="48.27048" lon="2.61807">
        <ele>50.61</ele>
        <time>2011-02-06T07:57:40Z</time>
      </trkpt>
      <trkpt lat="48.27062" lon="2.61801">
        <ele>49.16</ele>
        <time>2011-02-06T07:57:49Z</time>
      </trkpt>
      <trkpt lat="48.27084" lon="2.61811">
        <ele>47.24</ele>
        <time>2011-02-06T07:57:57Z</time>
      </trkpt>
      <trkpt lat="48.27112" lon="2.61815">
        <ele>45.8</ele>
        <time>2011-02-06T07:58:06Z</time>
      </trkpt>
      <trkpt lat="48.27111" lon="2.61823">
        <ele>45.8</ele>
        <time>2011-02-06T07:58:10Z</time>
      </trkpt>
      <trkpt lat="48.27105" lon="2.61841">
        <ele>46.76</ele>
        <time>2011-02-06T07:58:18Z</time>
      </trkpt>
      <trkpt lat="48.27104" lon="2.61844">
        <ele>47.72</ele>
        <time>2011-02-06T07:58:37Z</time>
      </trkpt>
      <trkpt lat="48.27104" lon="2.61844">
        <ele>47.72</ele>
        <time>2011-02-06T07:58:38Z</time>
      </trkpt>
      <trkpt lat="48.27105" lon="2.61851">
        <ele>47.72</ele>
        <time>2011-02-06T07:58:43Z</time>
      </trkpt>
      <trkpt lat="48.27114" lon="2.61849">
        <ele>47.72</ele>
        <time>2011-02-06T07:58:50Z</time>
      </trkpt>
      <trkpt lat="48.27121" lon="2.6186">
        <ele>48.2</ele>
        <time>2011-02-06T07:59:00Z</time>
      </trkpt>
      <trkpt lat="48.27118" lon="2.61876">
        <ele>47.72</ele>
        <time>2011-02-06T07:59:06Z</time>
      </trkpt>
      <trkpt lat="48.27119" lon="2.61882">
        <ele>47.72</ele>
        <time>2011-02-06T07:59:08Z</time>
      </trkpt>
      <trkpt lat="48.27108" lon="2.61897">
        <ele>48.2</ele>
        <time>2011-02-06T07:59:18Z</time>
      </trkpt>
      <trkpt lat="48.27097" lon="2.61908">
        <ele>49.16</ele>
        <time>2011-02-06T07:59:26Z</time>
      </trkpt>
      <trkpt lat="48.27088" lon="2.61914">
        <ele>50.61</ele>
        <time>2011-02-06T07:59:32Z</time>
      </trkpt>
      <trkpt lat="48.27085" lon="2.61919">
        <ele>51.09</ele>
        <time>2011-02-06T07:59:35Z</time>
      </trkpt>
      <trkpt lat="48.27094" lon="2.61935">
        <ele>49.16</ele>
        <time>2011-02-06T07:59:43Z</time>
      </trkpt>
      <trkpt lat="48.27097" lon="2.61939">
        <ele>48.2</ele>
        <time>2011-02-06T07:59:45Z</time>
      </trkpt>
      <trkpt lat="48.27121" lon="2.6194">
        <ele>46.76</ele>
        <time>2011-02-06T07:59:55Z</time>
      </trkpt>
      <trkpt lat="48.27123" lon="2.61943">
        <ele>48.68</ele>
        <time>2011-02-06T08:00:00Z</time>
      </trkpt>
      <trkpt lat="48.27116" lon="2.61955">
        <ele>51.57</ele>
        <time>2011-02-06T08:00:13Z</time>
      </trkpt>
      <trkpt lat="48.27119" lon="2.61963">
        <ele>53.49</ele>
        <time>2011-02-06T08:00:18Z</time>
      </trkpt>
      <trkpt lat="48.27118" lon="2.61972">
        <ele>56.37</ele>
        <time>2011-02-06T08:00:33Z</time>
      </trkpt>
      <trkpt lat="48.2711" lon="2.61976">
        <ele>58.78</ele>
        <time>2011-02-06T08:00:46Z</time>
      </trkpt>
      <trkpt lat="48.27108" lon="2.61981">
        <ele>60.22</ele>
        <time>2011-02-06T08:00:59Z</time>
      </trkpt>
      <trkpt lat="48.27108" lon="2.61983">
        <ele>63.58</ele>
        <time>2011-02-06T08:01:08Z</time>
      </trkpt>
      <trkpt lat="48.27103" lon="2.61985">
        <ele>65.99</ele>
        <time>2011-02-06T08:01:22Z</time>
      </trkpt>
      <trkpt lat="48.27095" lon="2.61985">
        <ele>68.87</ele>
        <time>2011-02-06T08:01:38Z</time>
      </trkpt>
      <trkpt lat="48.27088" lon="2.61984">
        <ele>71.27</ele>
        <time>2011-02-06T08:01:46Z</time>
      </trkpt>
      <trkpt lat="48.27077" lon="2.61978">
        <ele>71.27</ele>
        <time>2011-02-06T08:01:56Z</time>
      </trkpt>
      <trkpt lat="48.27068" lon="2.61978">
        <ele>72.72</ele>
        <time>2011-02-06T08:02:03Z</time>
      </trkpt>
      <trkpt lat="48.2706" lon="2.61968">
        <ele>73.2</ele>
        <time>2011-02-06T08:02:12Z</time>
      </trkpt>
      <trkpt lat="48.27055" lon="2.61965">
        <ele>73.2</ele>
        <time>2011-02-06T08:02:19Z</time>
      </trkpt>
      <trkpt lat="48.27043" lon="2.61978">
        <ele>73.2</ele>
        <time>2011-02-06T08:02:30Z</time>
      </trkpt>
      <trkpt lat="48.27042" lon="2.61987">
        <ele>73.2</ele>
        <time>2011-02-06T08:02:34Z</time>
      </trkpt>
      <trkpt lat="48.27035" lon="2.61997">
        <ele>74.16</ele>
        <time>2011-02-06T08:02:41Z</time>
      </trkpt>
      <trkpt lat="48.27032" lon="2.6199">
        <ele>73.68</ele>
        <time>2011-02-06T08:02:46Z</time>
      </trkpt>
      <trkpt lat="48.27028" lon="2.61975">
        <ele>73.68</ele>
        <time>2011-02-06T08:02:52Z</time>
      </trkpt>
      <trkpt lat="48.27015" lon="2.61966">
        <ele>73.2</ele>
        <time>2011-02-06T08:02:59Z</time>
      </trkpt>
      <trkpt lat="48.27007" lon="2.61956">
        <ele>73.2</ele>
        <time>2011-02-06T08:03:04Z</time>
      </trkpt>
      <trkpt lat="48.26988" lon="2.61942">
        <ele>77.04</ele>
        <time>2011-02-06T08:03:13Z</time>
      </trkpt>
      <trkpt lat="48.26986" lon="2.61941">
        <ele>77.04</ele>
        <time>2011-02-06T08:03:14Z</time>
      </trkpt>
      <trkpt lat="48.26966" lon="2.61931">
        <ele>78</ele>
        <time>2011-02-06T08:03:26Z</time>
      </trkpt>
      <trkpt lat="48.26957" lon="2.61931">
        <ele>78</ele>
        <time>2011-02-06T08:03:30Z</time>
      </trkpt>
      <trkpt lat="48.2695" lon="2.61936">
        <ele>77.04</ele>
        <time>2011-02-06T08:03:34Z</time>
      </trkpt>
      <trkpt lat="48.26953" lon="2.61948">
        <ele>74.16</ele>
        <time>2011-02-06T08:03:38Z</time>
      </trkpt>
      <trkpt lat="48.26962" lon="2.61971">
        <ele>73.68</ele>
        <time>2011-02-06T08:03:46Z</time>
      </trkpt>
      <trkpt lat="48.2698" lon="2.61983">
        <ele>74.16</ele>
        <time>2011-02-06T08:03:55Z</time>
      </trkpt>
      <trkpt lat="48.26986" lon="2.61988">
        <ele>74.16</ele>
        <time>2011-02-06T08:03:58Z</time>
      </trkpt>
      <trkpt lat="48.26995" lon="2.61996">
        <ele>74.16</ele>
        <time>2011-02-06T08:04:03Z</time>
      </trkpt>
      <trkpt lat="48.27007" lon="2.62008">
        <ele>74.64</ele>
        <time>2011-02-06T08:04:08Z</time>
      </trkpt>
      <trkpt lat="48.27012" lon="2.62025">
        <ele>75.12</ele>
        <time>2011-02-06T08:04:12Z</time>
      </trkpt>
      <trkpt lat="48.27015" lon="2.62041">
        <ele>75.12</ele>
        <time>2011-02-06T08:04:17Z</time>
      </trkpt>
      <trkpt lat="48.27018" lon="2.62047">
        <ele>75.12</ele>
        <time>2011-02-06T08:04:19Z</time>
      </trkpt>
      <trkpt lat="48.27022" lon="2.62067">
        <ele>75.12</ele>
        <time>2011-02-06T08:04:25Z</time>
      </trkpt>
      <trkpt lat="48.27023" lon="2.62069">
        <ele>75.12</ele>
        <time>2011-02-06T08:04:26Z</time>
      </trkpt>
      <trkpt lat="48.27027" lon="2.62076">
        <ele>75.12</ele>
        <time>2011-02-06T08:04:29Z</time>
      </trkpt>
      <trkpt lat="48.27038" lon="2.62075">
        <ele>75.12</ele>
        <time>2011-02-06T08:04:36Z</time>
      </trkpt>
      <trkpt lat="48.27047" lon="2.62063">
        <ele>75.12</ele>
        <time>2011-02-06T08:04:40Z</time>
      </trkpt>
      <trkpt lat="48.27069" lon="2.62066">
        <ele>74.16</ele>
        <time>2011-02-06T08:04:49Z</time>
      </trkpt>
      <trkpt lat="48.27082" lon="2.62075">
        <ele>74.64</ele>
        <time>2011-02-06T08:04:55Z</time>
      </trkpt>
      <trkpt lat="48.27097" lon="2.62095">
        <ele>76.08</ele>
        <time>2011-02-06T08:05:00Z</time>
      </trkpt>
      <trkpt lat="48.27099" lon="2.62102">
        <ele>76.56</ele>
        <time>2011-02-06T08:05:02Z</time>
      </trkpt>
      <trkpt lat="48.271" lon="2.62146">
        <ele>76.56</ele>
        <time>2011-02-06T08:05:14Z</time>
      </trkpt>
      <trkpt lat="48.27107" lon="2.62185">
        <ele>76.56</ele>
        <time>2011-02-06T08:05:22Z</time>
      </trkpt>
      <trkpt lat="48.27108" lon="2.62193">
        <ele>76.56</ele>
        <time>2011-02-06T08:05:24Z</time>
      </trkpt>
      <trkpt lat="48.27104" lon="2.62213">
        <ele>76.56</ele>
        <time>2011-02-06T08:05:30Z</time>
      </trkpt>
      <trkpt lat="48.27089" lon="2.62217">
        <ele>76.08</ele>
        <time>2011-02-06T08:05:40Z</time>
      </trkpt>
      <trkpt lat="48.27089" lon="2.62213">
        <ele>76.56</ele>
        <time>2011-02-06T08:05:42Z</time>
      </trkpt>
      <trkpt lat="48.27085" lon="2.62195">
        <ele>75.6</ele>
        <time>2011-02-06T08:05:49Z</time>
      </trkpt>
      <trkpt lat="48.27069" lon="2.62163">
        <ele>74.64</ele>
        <time>2011-02-06T08:06:00Z</time>
      </trkpt>
      <trkpt lat="48.27064" lon="2.62156">
        <ele>75.6</ele>
        <time>2011-02-06T08:06:03Z</time>
      </trkpt>
      <trkpt lat="48.27062" lon="2.6215">
        <ele>75.6</ele>
        <time>2011-02-06T08:06:06Z</time>
      </trkpt>
      <trkpt lat="48.27047" lon="2.62126">
        <ele>76.56</ele>
        <time>2011-02-06T08:06:16Z</time>
      </trkpt>
      <trkpt lat="48.27047" lon="2.62126">
        <ele>76.56</ele>
        <time>2011-02-06T08:06:17Z</time>
      </trkpt>
      <trkpt lat="48.27029" lon="2.62129">
        <ele>76.08</ele>
        <time>2011-02-06T08:06:23Z</time>
      </trkpt>
      <trkpt lat="48.27017" lon="2.62136">
        <ele>76.56</ele>
        <time>2011-02-06T08:06:28Z</time>
      </trkpt>
      <trkpt lat="48.27008" lon="2.62172">
        <ele>76.56</ele>
        <time>2011-02-06T08:06:38Z</time>
      </trkpt>
      <trkpt lat="48.27004" lon="2.62178">
        <ele>75.6</ele>
        <time>2011-02-06T08:06:40Z</time>
      </trkpt>
      <trkpt lat="48.26989" lon="2.62209">
        <ele>75.6</ele>
        <time>2011-02-06T08:06:49Z</time>
      </trkpt>
      <trkpt lat="48.26993" lon="2.62233">
        <ele>76.56</ele>
        <time>2011-02-06T08:06:58Z</time>
      </trkpt>
      <trkpt lat="48.26995" lon="2.62262">
        <ele>77.04</ele>
        <time>2011-02-06T08:07:07Z</time>
      </trkpt>
      <trkpt lat="48.27001" lon="2.62287">
        <ele>76.56</ele>
        <time>2011-02-06T08:07:14Z</time>
      </trkpt>
      <trkpt lat="48.27003" lon="2.62298">
        <ele>77.04</ele>
        <time>2011-02-06T08:07:17Z</time>
      </trkpt>
      <trkpt lat="48.27002" lon="2.62329">
        <ele>76.08</ele>
        <time>2011-02-06T08:07:25Z</time>
      </trkpt>
      <trkpt lat="48.27001" lon="2.62333">
        <ele>76.56</ele>
        <time>2011-02-06T08:07:26Z</time>
      </trkpt>
      <trkpt lat="48.26987" lon="2.62357">
        <ele>76.08</ele>
        <time>2011-02-06T08:07:34Z</time>
      </trkpt>
      <trkpt lat="48.26989" lon="2.62376">
        <ele>77.52</ele>
        <time>2011-02-06T08:07:40Z</time>
      </trkpt>
      <trkpt lat="48.26984" lon="2.62415">
        <ele>76.56</ele>
        <time>2011-02-06T08:07:50Z</time>
      </trkpt>
      <trkpt lat="48.26983" lon="2.6242">
        <ele>77.04</ele>
        <time>2011-02-06T08:07:51Z</time>
      </trkpt>
      <trkpt lat="48.2697" lon="2.62427">
        <ele>76.08</ele>
        <time>2011-02-06T08:07:56Z</time>
      </trkpt>
      <trkpt lat="48.26973" lon="2.62438">
        <ele>76.08</ele>
        <time>2011-02-06T08:08:01Z</time>
      </trkpt>
      <trkpt lat="48.26981" lon="2.62443">
        <ele>78.48</ele>
        <time>2011-02-06T08:08:05Z</time>
      </trkpt>
      <trkpt lat="48.26985" lon="2.62447">
        <ele>78.48</ele>
        <time>2011-02-06T08:08:07Z</time>
      </trkpt>
      <trkpt lat="48.2699" lon="2.62473">
        <ele>79.45</ele>
        <time>2011-02-06T08:08:13Z</time>
      </trkpt>
      <trkpt lat="48.27" lon="2.6248">
        <ele>75.12</ele>
        <time>2011-02-06T08:08:18Z</time>
      </trkpt>
      <trkpt lat="48.27002" lon="2.62484">
        <ele>76.08</ele>
        <time>2011-02-06T08:08:19Z</time>
      </trkpt>
      <trkpt lat="48.27005" lon="2.62488">
        <ele>75.6</ele>
        <time>2011-02-06T08:08:20Z</time>
      </trkpt>
      <trkpt lat="48.27008" lon="2.62501">
        <ele>77.04</ele>
        <time>2011-02-06T08:08:23Z</time>
      </trkpt>
      <trkpt lat="48.27012" lon="2.6251">
        <ele>77.52</ele>
        <time>2011-02-06T08:08:25Z</time>
      </trkpt>
      <trkpt lat="48.27012" lon="2.62518">
        <ele>78</ele>
        <time>2011-02-06T08:08:27Z</time>
      </trkpt>
      <trkpt lat="48.27012" lon="2.62528">
        <ele>77.52</ele>
        <time>2011-02-06T08:08:30Z</time>
      </trkpt>
      <trkpt lat="48.27014" lon="2.62543">
        <ele>78</ele>
        <time>2011-02-06T08:08:36Z</time>
      </trkpt>
      <trkpt lat="48.27013" lon="2.62582">
        <ele>78</ele>
        <time>2011-02-06T08:08:46Z</time>
      </trkpt>
      <trkpt lat="48.27011" lon="2.62584">
        <ele>77.52</ele>
        <time>2011-02-06T08:08:47Z</time>
      </trkpt>
      <trkpt lat="48.27005" lon="2.62586">
        <ele>78</ele>
        <time>2011-02-06T08:08:50Z</time>
      </trkpt>
      <trkpt lat="48.26992" lon="2.62618">
        <ele>77.52</ele>
        <time>2011-02-06T08:09:00Z</time>
      </trkpt>
      <trkpt lat="48.26994" lon="2.62638">
        <ele>77.52</ele>
        <time>2011-02-06T08:09:06Z</time>
      </trkpt>
      <trkpt lat="48.27001" lon="2.62643">
        <ele>77.04</ele>
        <time>2011-02-06T08:09:11Z</time>
      </trkpt>
      <trkpt lat="48.27019" lon="2.62685">
        <ele>77.04</ele>
        <time>2011-02-06T08:09:22Z</time>
      </trkpt>
      <trkpt lat="48.27039" lon="2.62696">
        <ele>77.52</ele>
        <time>2011-02-06T08:09:28Z</time>
      </trkpt>
      <trkpt lat="48.27054" lon="2.62701">
        <ele>78.97</ele>
        <time>2011-02-06T08:09:38Z</time>
      </trkpt>
      <trkpt lat="48.27077" lon="2.62704">
        <ele>78.97</ele>
        <time>2011-02-06T08:09:47Z</time>
      </trkpt>
      <trkpt lat="48.27086" lon="2.62706">
        <ele>78.97</ele>
        <time>2011-02-06T08:09:50Z</time>
      </trkpt>
      <trkpt lat="48.27096" lon="2.62698">
        <ele>79.45</ele>
        <time>2011-02-06T08:09:55Z</time>
      </trkpt>
      <trkpt lat="48.27117" lon="2.62666">
        <ele>77.04</ele>
        <time>2011-02-06T08:10:05Z</time>
      </trkpt>
      <trkpt lat="48.27125" lon="2.62629">
        <ele>77.04</ele>
        <time>2011-02-06T08:10:14Z</time>
      </trkpt>
      <trkpt lat="48.27127" lon="2.6259">
        <ele>77.04</ele>
        <time>2011-02-06T08:10:23Z</time>
      </trkpt>
      <trkpt lat="48.27126" lon="2.62536">
        <ele>78</ele>
        <time>2011-02-06T08:10:34Z</time>
      </trkpt>
      <trkpt lat="48.27127" lon="2.62523">
        <ele>77.52</ele>
        <time>2011-02-06T08:10:37Z</time>
      </trkpt>
      <trkpt lat="48.27124" lon="2.62492">
        <ele>77.52</ele>
        <time>2011-02-06T08:10:43Z</time>
      </trkpt>
      <trkpt lat="48.27118" lon="2.62425">
        <ele>77.52</ele>
        <time>2011-02-06T08:10:55Z</time>
      </trkpt>
      <trkpt lat="48.2711" lon="2.62359">
        <ele>77.52</ele>
        <time>2011-02-06T08:11:07Z</time>
      </trkpt>
      <trkpt lat="48.27105" lon="2.62331">
        <ele>77.04</ele>
        <time>2011-02-06T08:11:13Z</time>
      </trkpt>
      <trkpt lat="48.27114" lon="2.62316">
        <ele>76.08</ele>
        <time>2011-02-06T08:11:18Z</time>
      </trkpt>
      <trkpt lat="48.27129" lon="2.62318">
        <ele>72.24</ele>
        <time>2011-02-06T08:11:23Z</time>
      </trkpt>
      <trkpt lat="48.27133" lon="2.6232">
        <ele>70.31</ele>
        <time>2011-02-06T08:11:24Z</time>
      </trkpt>
      <trkpt lat="48.27138" lon="2.62323">
        <ele>69.35</ele>
        <time>2011-02-06T08:11:25Z</time>
      </trkpt>
      <trkpt lat="48.27143" lon="2.62328">
        <ele>67.43</ele>
        <time>2011-02-06T08:11:26Z</time>
      </trkpt>
      <trkpt lat="48.27149" lon="2.62335">
        <ele>65.51</ele>
        <time>2011-02-06T08:11:27Z</time>
      </trkpt>
      <trkpt lat="48.27155" lon="2.62341">
        <ele>64.07</ele>
        <time>2011-02-06T08:11:28Z</time>
      </trkpt>
      <trkpt lat="48.27159" lon="2.62348">
        <ele>63.1</ele>
        <time>2011-02-06T08:11:29Z</time>
      </trkpt>
      <trkpt lat="48.27162" lon="2.62354">
        <ele>62.62</ele>
        <time>2011-02-06T08:11:30Z</time>
      </trkpt>
      <trkpt lat="48.27163" lon="2.62359">
        <ele>62.14</ele>
        <time>2011-02-06T08:11:31Z</time>
      </trkpt>
      <trkpt lat="48.27163" lon="2.62365">
        <ele>60.22</ele>
        <time>2011-02-06T08:11:32Z</time>
      </trkpt>
      <trkpt lat="48.27162" lon="2.62372">
        <ele>58.78</ele>
        <time>2011-02-06T08:11:33Z</time>
      </trkpt>
      <trkpt lat="48.27162" lon="2.62379">
        <ele>57.34</ele>
        <time>2011-02-06T08:11:34Z</time>
      </trkpt>
      <trkpt lat="48.27163" lon="2.62388">
        <ele>55.89</ele>
        <time>2011-02-06T08:11:35Z</time>
      </trkpt>
      <trkpt lat="48.27163" lon="2.62397">
        <ele>55.41</ele>
        <time>2011-02-06T08:11:36Z</time>
      </trkpt>
      <trkpt lat="48.27163" lon="2.62414">
        <ele>55.41</ele>
        <time>2011-02-06T08:11:38Z</time>
      </trkpt>
      <trkpt lat="48.2716" lon="2.62428">
        <ele>55.41</ele>
        <time>2011-02-06T08:11:40Z</time>
      </trkpt>
      <trkpt lat="48.27159" lon="2.62436">
        <ele>55.41</ele>
        <time>2011-02-06T08:11:41Z</time>
      </trkpt>
      <trkpt lat="48.27159" lon="2.62458">
        <ele>54.93</ele>
        <time>2011-02-06T08:11:44Z</time>
      </trkpt>
      <trkpt lat="48.27159" lon="2.62464">
        <ele>54.45</ele>
        <time>2011-02-06T08:11:45Z</time>
      </trkpt>
      <trkpt lat="48.2716" lon="2.6247">
        <ele>54.93</ele>
        <time>2011-02-06T08:11:46Z</time>
      </trkpt>
      <trkpt lat="48.27161" lon="2.62475">
        <ele>54.93</ele>
        <time>2011-02-06T08:11:47Z</time>
      </trkpt>
      <trkpt lat="48.27161" lon="2.6248">
        <ele>55.41</ele>
        <time>2011-02-06T08:11:48Z</time>
      </trkpt>
      <trkpt lat="48.27162" lon="2.62484">
        <ele>54.93</ele>
        <time>2011-02-06T08:11:49Z</time>
      </trkpt>
      <trkpt lat="48.27162" lon="2.62486">
        <ele>54.93</ele>
        <time>2011-02-06T08:11:50Z</time>
      </trkpt>
      <trkpt lat="48.27163" lon="2.6249">
        <ele>53.01</ele>
        <time>2011-02-06T08:12:03Z</time>
      </trkpt>
      <trkpt lat="48.27165" lon="2.62493">
        <ele>52.05</ele>
        <time>2011-02-06T08:12:04Z</time>
      </trkpt>
      <trkpt lat="48.2717" lon="2.62504">
        <ele>50.13</ele>
        <time>2011-02-06T08:12:06Z</time>
      </trkpt>
      <trkpt lat="48.27176" lon="2.62522">
        <ele>49.65</ele>
        <time>2011-02-06T08:12:09Z</time>
      </trkpt>
      <trkpt lat="48.27166" lon="2.62558">
        <ele>50.61</ele>
        <time>2011-02-06T08:12:16Z</time>
      </trkpt>
      <trkpt lat="48.27163" lon="2.62571">
        <ele>50.61</ele>
        <time>2011-02-06T08:12:19Z</time>
      </trkpt>
      <trkpt lat="48.27167" lon="2.62592">
        <ele>50.13</ele>
        <time>2011-02-06T08:12:25Z</time>
      </trkpt>
      <trkpt lat="48.27165" lon="2.62603">
        <ele>50.13</ele>
        <time>2011-02-06T08:12:27Z</time>
      </trkpt>
      <trkpt lat="48.27169" lon="2.62643">
        <ele>50.13</ele>
        <time>2011-02-06T08:12:33Z</time>
      </trkpt>
      <trkpt lat="48.27164" lon="2.62674">
        <ele>49.65</ele>
        <time>2011-02-06T08:12:39Z</time>
      </trkpt>
      <trkpt lat="48.27157" lon="2.62703">
        <ele>51.09</ele>
        <time>2011-02-06T08:12:45Z</time>
      </trkpt>
      <trkpt lat="48.27154" lon="2.62708">
        <ele>51.57</ele>
        <time>2011-02-06T08:12:47Z</time>
      </trkpt>
      <trkpt lat="48.27153" lon="2.62733">
        <ele>51.57</ele>
        <time>2011-02-06T08:12:58Z</time>
      </trkpt>
      <trkpt lat="48.2715" lon="2.62745">
        <ele>51.09</ele>
        <time>2011-02-06T08:13:11Z</time>
      </trkpt>
      <trkpt lat="48.27134" lon="2.62748">
        <ele>52.53</ele>
        <time>2011-02-06T08:13:21Z</time>
      </trkpt>
      <trkpt lat="48.27122" lon="2.62755">
        <ele>53.97</ele>
        <time>2011-02-06T08:13:28Z</time>
      </trkpt>
      <trkpt lat="48.27113" lon="2.62766">
        <ele>53.49</ele>
        <time>2011-02-06T08:13:34Z</time>
      </trkpt>
      <trkpt lat="48.27106" lon="2.62766">
        <ele>53.49</ele>
        <time>2011-02-06T08:13:37Z</time>
      </trkpt>
      <trkpt lat="48.27103" lon="2.62769">
        <ele>53.49</ele>
        <time>2011-02-06T08:13:39Z</time>
      </trkpt>
      <trkpt lat="48.27102" lon="2.62796">
        <ele>52.53</ele>
        <time>2011-02-06T08:13:45Z</time>
      </trkpt>
      <trkpt lat="48.27097" lon="2.62801">
        <ele>53.01</ele>
        <time>2011-02-06T08:13:47Z</time>
      </trkpt>
      <trkpt lat="48.27086" lon="2.62816">
        <ele>53.01</ele>
        <time>2011-02-06T08:13:59Z</time>
      </trkpt>
      <trkpt lat="48.27086" lon="2.62816">
        <ele>53.49</ele>
        <time>2011-02-06T08:14:19Z</time>
      </trkpt>
      <trkpt lat="48.27084" lon="2.62814">
        <ele>53.49</ele>
        <time>2011-02-06T08:14:44Z</time>
      </trkpt>
      <trkpt lat="48.27084" lon="2.62814">
        <ele>53.49</ele>
        <time>2011-02-06T08:14:59Z</time>
      </trkpt>
      <trkpt lat="48.27068" lon="2.62833">
        <ele>53.49</ele>
        <time>2011-02-06T08:15:11Z</time>
      </trkpt>
      <trkpt lat="48.27064" lon="2.62835">
        <ele>54.45</ele>
        <time>2011-02-06T08:15:14Z</time>
      </trkpt>
      <trkpt lat="48.27058" lon="2.62836">
        <ele>54.45</ele>
        <time>2011-02-06T08:15:18Z</time>
      </trkpt>
      <trkpt lat="48.27029" lon="2.62838">
        <ele>53.97</ele>
        <time>2011-02-06T08:15:31Z</time>
      </trkpt>
      <trkpt lat="48.27003" lon="2.62826">
        <ele>54.93</ele>
        <time>2011-02-06T08:15:42Z</time>
      </trkpt>
      <trkpt lat="48.27002" lon="2.62824">
        <ele>54.93</ele>
        <time>2011-02-06T08:15:55Z</time>
      </trkpt>
      <trkpt lat="48.27001" lon="2.62824">
        <ele>54.93</ele>
        <time>2011-02-06T08:16:11Z</time>
      </trkpt>
      <trkpt lat="48.26997" lon="2.62821">
        <ele>55.89</ele>
        <time>2011-02-06T08:16:28Z</time>
      </trkpt>
      <trkpt lat="48.26985" lon="2.62808">
        <ele>56.37</ele>
        <time>2011-02-06T08:16:35Z</time>
      </trkpt>
      <trkpt lat="48.26971" lon="2.62788">
        <ele>57.82</ele>
        <time>2011-02-06T08:16:47Z</time>
      </trkpt>
      <trkpt lat="48.26956" lon="2.62759">
        <ele>59.74</ele>
        <time>2011-02-06T08:17:01Z</time>
      </trkpt>
      <trkpt lat="48.26941" lon="2.6273">
        <ele>61.66</ele>
        <time>2011-02-06T08:17:12Z</time>
      </trkpt>
      <trkpt lat="48.26922" lon="2.62695">
        <ele>64.55</ele>
        <time>2011-02-06T08:17:25Z</time>
      </trkpt>
      <trkpt lat="48.26902" lon="2.62647">
        <ele>67.91</ele>
        <time>2011-02-06T08:17:42Z</time>
      </trkpt>
      <trkpt lat="48.26885" lon="2.62605">
        <ele>70.79</ele>
        <time>2011-02-06T08:17:56Z</time>
      </trkpt>
      <trkpt lat="48.26871" lon="2.62563">
        <ele>74.16</ele>
        <time>2011-02-06T08:18:09Z</time>
      </trkpt>
      <trkpt lat="48.26861" lon="2.62522">
        <ele>77.52</ele>
        <time>2011-02-06T08:18:21Z</time>
      </trkpt>
      <trkpt lat="48.2685" lon="2.62476">
        <ele>79.45</ele>
        <time>2011-02-06T08:18:35Z</time>
      </trkpt>
      <trkpt lat="48.26845" lon="2.62464">
        <ele>78.97</ele>
        <time>2011-02-06T08:18:39Z</time>
      </trkpt>
      <trkpt lat="48.26829" lon="2.62465">
        <ele>79.93</ele>
        <time>2011-02-06T08:18:45Z</time>
      </trkpt>
      <trkpt lat="48.26816" lon="2.62472">
        <ele>80.89</ele>
        <time>2011-02-06T08:18:50Z</time>
      </trkpt>
      <trkpt lat="48.26816" lon="2.62493">
        <ele>78</ele>
        <time>2011-02-06T08:18:57Z</time>
      </trkpt>
      <trkpt lat="48.26814" lon="2.62501">
        <ele>77.04</ele>
        <time>2011-02-06T08:18:59Z</time>
      </trkpt>
      <trkpt lat="48.26805" lon="2.62517">
        <ele>78.97</ele>
        <time>2011-02-06T08:19:06Z</time>
      </trkpt>
      <trkpt lat="48.26804" lon="2.62518">
        <ele>78.97</ele>
        <time>2011-02-06T08:19:07Z</time>
      </trkpt>
      <trkpt lat="48.26804" lon="2.62521">
        <ele>78.97</ele>
        <time>2011-02-06T08:19:09Z</time>
      </trkpt>
      <trkpt lat="48.26808" lon="2.62527">
        <ele>78.48</ele>
        <time>2011-02-06T08:19:12Z</time>
      </trkpt>
      <trkpt lat="48.26811" lon="2.62543">
        <ele>78.48</ele>
        <time>2011-02-06T08:19:17Z</time>
      </trkpt>
      <trkpt lat="48.2681" lon="2.62553">
        <ele>78.97</ele>
        <time>2011-02-06T08:19:22Z</time>
      </trkpt>
      <trkpt lat="48.26811" lon="2.62563">
        <ele>79.93</ele>
        <time>2011-02-06T08:19:26Z</time>
      </trkpt>
      <trkpt lat="48.26812" lon="2.62573">
        <ele>80.89</ele>
        <time>2011-02-06T08:19:31Z</time>
      </trkpt>
      <trkpt lat="48.26816" lon="2.62603">
        <ele>79.45</ele>
        <time>2011-02-06T08:19:41Z</time>
      </trkpt>
      <trkpt lat="48.26819" lon="2.62617">
        <ele>77.52</ele>
        <time>2011-02-06T08:19:54Z</time>
      </trkpt>
      <trkpt lat="48.2682" lon="2.62624">
        <ele>76.56</ele>
        <time>2011-02-06T08:19:57Z</time>
      </trkpt>
      <trkpt lat="48.26811" lon="2.62648">
        <ele>73.2</ele>
        <time>2011-02-06T08:20:06Z</time>
      </trkpt>
      <trkpt lat="48.26805" lon="2.62651">
        <ele>73.2</ele>
        <time>2011-02-06T08:20:08Z</time>
      </trkpt>
      <trkpt lat="48.26797" lon="2.62664">
        <ele>70.31</ele>
        <time>2011-02-06T08:20:12Z</time>
      </trkpt>
      <trkpt lat="48.26766" lon="2.62686">
        <ele>71.76</ele>
        <time>2011-02-06T08:20:21Z</time>
      </trkpt>
      <trkpt lat="48.26763" lon="2.62687">
        <ele>71.76</ele>
        <time>2011-02-06T08:20:22Z</time>
      </trkpt>
      <trkpt lat="48.26767" lon="2.62713">
        <ele>72.24</ele>
        <time>2011-02-06T08:20:30Z</time>
      </trkpt>
      <trkpt lat="48.26767" lon="2.62716">
        <ele>72.24</ele>
        <time>2011-02-06T08:20:31Z</time>
      </trkpt>
      <trkpt lat="48.2678" lon="2.62732">
        <ele>71.76</ele>
        <time>2011-02-06T08:20:40Z</time>
      </trkpt>
      <trkpt lat="48.26783" lon="2.62731">
        <ele>70.79</ele>
        <time>2011-02-06T08:20:42Z</time>
      </trkpt>
      <trkpt lat="48.26805" lon="2.62716">
        <ele>69.35</ele>
        <time>2011-02-06T08:20:51Z</time>
      </trkpt>
      <trkpt lat="48.26828" lon="2.62708">
        <ele>68.87</ele>
        <time>2011-02-06T08:20:57Z</time>
      </trkpt>
      <trkpt lat="48.26835" lon="2.62708">
        <ele>68.39</ele>
        <time>2011-02-06T08:20:59Z</time>
      </trkpt>
      <trkpt lat="48.2685" lon="2.62696">
        <ele>69.83</ele>
        <time>2011-02-06T08:21:05Z</time>
      </trkpt>
      <trkpt lat="48.26853" lon="2.62693">
        <ele>71.27</ele>
        <time>2011-02-06T08:21:07Z</time>
      </trkpt>
      <trkpt lat="48.26859" lon="2.62695">
        <ele>71.27</ele>
        <time>2011-02-06T08:21:11Z</time>
      </trkpt>
      <trkpt lat="48.26865" lon="2.62688">
        <ele>65.99</ele>
        <time>2011-02-06T08:21:15Z</time>
      </trkpt>
      <trkpt lat="48.2687" lon="2.62682">
        <ele>64.55</ele>
        <time>2011-02-06T08:21:17Z</time>
      </trkpt>
      <trkpt lat="48.26878" lon="2.62687">
        <ele>65.03</ele>
        <time>2011-02-06T08:21:21Z</time>
      </trkpt>
      <trkpt lat="48.26891" lon="2.62692">
        <ele>64.55</ele>
        <time>2011-02-06T08:21:25Z</time>
      </trkpt>
      <trkpt lat="48.26894" lon="2.62696">
        <ele>64.55</ele>
        <time>2011-02-06T08:21:26Z</time>
      </trkpt>
      <trkpt lat="48.26896" lon="2.62699">
        <ele>65.51</ele>
        <time>2011-02-06T08:21:27Z</time>
      </trkpt>
      <trkpt lat="48.26898" lon="2.62701">
        <ele>65.99</ele>
        <time>2011-02-06T08:21:28Z</time>
      </trkpt>
      <trkpt lat="48.26899" lon="2.62702">
        <ele>65.51</ele>
        <time>2011-02-06T08:21:29Z</time>
      </trkpt>
      <trkpt lat="48.26901" lon="2.62705">
        <ele>65.51</ele>
        <time>2011-02-06T08:21:30Z</time>
      </trkpt>
      <trkpt lat="48.26905" lon="2.6272">
        <ele>65.03</ele>
        <time>2011-02-06T08:21:34Z</time>
      </trkpt>
      <trkpt lat="48.26892" lon="2.62736">
        <ele>65.51</ele>
        <time>2011-02-06T08:21:40Z</time>
      </trkpt>
      <trkpt lat="48.26862" lon="2.62765">
        <ele>66.95</ele>
        <time>2011-02-06T08:21:52Z</time>
      </trkpt>
      <trkpt lat="48.26842" lon="2.62789">
        <ele>69.83</ele>
        <time>2011-02-06T08:22:03Z</time>
      </trkpt>
      <trkpt lat="48.26839" lon="2.62794">
        <ele>70.79</ele>
        <time>2011-02-06T08:22:06Z</time>
      </trkpt>
      <trkpt lat="48.26836" lon="2.62798">
        <ele>72.72</ele>
        <time>2011-02-06T08:22:15Z</time>
      </trkpt>
      <trkpt lat="48.26832" lon="2.62802">
        <ele>74.16</ele>
        <time>2011-02-06T08:22:26Z</time>
      </trkpt>
      <trkpt lat="48.2683" lon="2.62811">
        <ele>75.12</ele>
        <time>2011-02-06T08:22:30Z</time>
      </trkpt>
      <trkpt lat="48.26816" lon="2.62822">
        <ele>76.56</ele>
        <time>2011-02-06T08:22:42Z</time>
      </trkpt>
      <trkpt lat="48.26814" lon="2.62832">
        <ele>79.45</ele>
        <time>2011-02-06T08:22:47Z</time>
      </trkpt>
      <trkpt lat="48.268" lon="2.62845">
        <ele>81.37</ele>
        <time>2011-02-06T08:23:00Z</time>
      </trkpt>
      <trkpt lat="48.26801" lon="2.62869">
        <ele>84.25</ele>
        <time>2011-02-06T08:23:14Z</time>
      </trkpt>
      <trkpt lat="48.26807" lon="2.62883">
        <ele>83.77</ele>
        <time>2011-02-06T08:23:25Z</time>
      </trkpt>
      <trkpt lat="48.26823" lon="2.629">
        <ele>81.37</ele>
        <time>2011-02-06T08:23:36Z</time>
      </trkpt>
      <trkpt lat="48.2683" lon="2.62901">
        <ele>78.97</ele>
        <time>2011-02-06T08:23:38Z</time>
      </trkpt>
      <trkpt lat="48.26834" lon="2.62899">
        <ele>78.48</ele>
        <time>2011-02-06T08:23:39Z</time>
      </trkpt>
      <trkpt lat="48.26839" lon="2.62896">
        <ele>77.04</ele>
        <time>2011-02-06T08:23:40Z</time>
      </trkpt>
      <trkpt lat="48.26844" lon="2.62892">
        <ele>75.12</ele>
        <time>2011-02-06T08:23:41Z</time>
      </trkpt>
      <trkpt lat="48.26849" lon="2.62888">
        <ele>74.64</ele>
        <time>2011-02-06T08:23:42Z</time>
      </trkpt>
      <trkpt lat="48.26858" lon="2.6288">
        <ele>72.24</ele>
        <time>2011-02-06T08:23:44Z</time>
      </trkpt>
      <trkpt lat="48.26863" lon="2.62878">
        <ele>71.27</ele>
        <time>2011-02-06T08:23:45Z</time>
      </trkpt>
      <trkpt lat="48.26869" lon="2.62878">
        <ele>70.79</ele>
        <time>2011-02-06T08:23:46Z</time>
      </trkpt>
      <trkpt lat="48.26873" lon="2.62879">
        <ele>69.83</ele>
        <time>2011-02-06T08:23:47Z</time>
      </trkpt>
      <trkpt lat="48.26877" lon="2.62883">
        <ele>69.83</ele>
        <time>2011-02-06T08:23:48Z</time>
      </trkpt>
      <trkpt lat="48.26881" lon="2.62887">
        <ele>68.87</ele>
        <time>2011-02-06T08:23:49Z</time>
      </trkpt>
      <trkpt lat="48.26887" lon="2.62895">
        <ele>68.39</ele>
        <time>2011-02-06T08:23:51Z</time>
      </trkpt>
      <trkpt lat="48.2689" lon="2.629">
        <ele>67.91</ele>
        <time>2011-02-06T08:23:52Z</time>
      </trkpt>
      <trkpt lat="48.26894" lon="2.62904">
        <ele>67.43</ele>
        <time>2011-02-06T08:23:53Z</time>
      </trkpt>
      <trkpt lat="48.26898" lon="2.6291">
        <ele>66.47</ele>
        <time>2011-02-06T08:23:54Z</time>
      </trkpt>
      <trkpt lat="48.26902" lon="2.62914">
        <ele>65.99</ele>
        <time>2011-02-06T08:23:55Z</time>
      </trkpt>
      <trkpt lat="48.26905" lon="2.62918">
        <ele>65.03</ele>
        <time>2011-02-06T08:23:56Z</time>
      </trkpt>
      <trkpt lat="48.26907" lon="2.62924">
        <ele>64.55</ele>
        <time>2011-02-06T08:23:57Z</time>
      </trkpt>
      <trkpt lat="48.2691" lon="2.6293">
        <ele>64.55</ele>
        <time>2011-02-06T08:23:58Z</time>
      </trkpt>
      <trkpt lat="48.26913" lon="2.62937">
        <ele>64.07</ele>
        <time>2011-02-06T08:23:59Z</time>
      </trkpt>
      <trkpt lat="48.26917" lon="2.62943">
        <ele>64.07</ele>
        <time>2011-02-06T08:24:00Z</time>
      </trkpt>
      <trkpt lat="48.2693" lon="2.62961">
        <ele>63.58</ele>
        <time>2011-02-06T08:24:04Z</time>
      </trkpt>
      <trkpt lat="48.26933" lon="2.62966">
        <ele>63.1</ele>
        <time>2011-02-06T08:24:05Z</time>
      </trkpt>
      <trkpt lat="48.26935" lon="2.62972">
        <ele>63.58</ele>
        <time>2011-02-06T08:24:06Z</time>
      </trkpt>
      <trkpt lat="48.2695" lon="2.63019">
        <ele>61.66</ele>
        <time>2011-02-06T08:24:16Z</time>
      </trkpt>
      <trkpt lat="48.26944" lon="2.63049">
        <ele>62.14</ele>
        <time>2011-02-06T08:24:24Z</time>
      </trkpt>
      <trkpt lat="48.26937" lon="2.63089">
        <ele>63.58</ele>
        <time>2011-02-06T08:24:36Z</time>
      </trkpt>
      <trkpt lat="48.26937" lon="2.63097">
        <ele>64.07</ele>
        <time>2011-02-06T08:24:38Z</time>
      </trkpt>
      <trkpt lat="48.2693" lon="2.63121">
        <ele>65.99</ele>
        <time>2011-02-06T08:24:48Z</time>
      </trkpt>
      <trkpt lat="48.26912" lon="2.63139">
        <ele>65.51</ele>
        <time>2011-02-06T08:24:58Z</time>
      </trkpt>
      <trkpt lat="48.26909" lon="2.63141">
        <ele>65.99</ele>
        <time>2011-02-06T08:25:12Z</time>
      </trkpt>
      <trkpt lat="48.26909" lon="2.63145">
        <ele>65.51</ele>
        <time>2011-02-06T08:25:19Z</time>
      </trkpt>
      <trkpt lat="48.26909" lon="2.63148">
        <ele>65.51</ele>
        <time>2011-02-06T08:25:21Z</time>
      </trkpt>
      <trkpt lat="48.26906" lon="2.63155">
        <ele>65.51</ele>
        <time>2011-02-06T08:25:25Z</time>
      </trkpt>
      <trkpt lat="48.26901" lon="2.63184">
        <ele>65.51</ele>
        <time>2011-02-06T08:25:36Z</time>
      </trkpt>
      <trkpt lat="48.26901" lon="2.63186">
        <ele>65.51</ele>
        <time>2011-02-06T08:25:37Z</time>
      </trkpt>
      <trkpt lat="48.26898" lon="2.63201">
        <ele>65.51</ele>
        <time>2011-02-06T08:25:44Z</time>
      </trkpt>
      <trkpt lat="48.26897" lon="2.63204">
        <ele>65.99</ele>
        <time>2011-02-06T08:25:46Z</time>
      </trkpt>
      <trkpt lat="48.26884" lon="2.63227">
        <ele>66.47</ele>
        <time>2011-02-06T08:25:57Z</time>
      </trkpt>
      <trkpt lat="48.26872" lon="2.63232">
        <ele>67.43</ele>
        <time>2011-02-06T08:26:04Z</time>
      </trkpt>
      <trkpt lat="48.26852" lon="2.63225">
        <ele>69.83</ele>
        <time>2011-02-06T08:26:16Z</time>
      </trkpt>
      <trkpt lat="48.26843" lon="2.63245">
        <ele>71.76</ele>
        <time>2011-02-06T08:26:25Z</time>
      </trkpt>
      <trkpt lat="48.26846" lon="2.63258">
        <ele>73.68</ele>
        <time>2011-02-06T08:26:31Z</time>
      </trkpt>
      <trkpt lat="48.26845" lon="2.63262">
        <ele>74.64</ele>
        <time>2011-02-06T08:26:34Z</time>
      </trkpt>
      <trkpt lat="48.26846" lon="2.6327">
        <ele>76.56</ele>
        <time>2011-02-06T08:26:38Z</time>
      </trkpt>
      <trkpt lat="48.26849" lon="2.6329">
        <ele>77.52</ele>
        <time>2011-02-06T08:26:47Z</time>
      </trkpt>
      <trkpt lat="48.26849" lon="2.6331">
        <ele>78.48</ele>
        <time>2011-02-06T08:26:56Z</time>
      </trkpt>
      <trkpt lat="48.26851" lon="2.63314">
        <ele>78.48</ele>
        <time>2011-02-06T08:26:58Z</time>
      </trkpt>
      <trkpt lat="48.26846" lon="2.63331">
        <ele>78.97</ele>
        <time>2011-02-06T08:27:05Z</time>
      </trkpt>
      <trkpt lat="48.26844" lon="2.63335">
        <ele>78.97</ele>
        <time>2011-02-06T08:27:07Z</time>
      </trkpt>
      <trkpt lat="48.26829" lon="2.63354">
        <ele>79.93</ele>
        <time>2011-02-06T08:27:19Z</time>
      </trkpt>
      <trkpt lat="48.26827" lon="2.63357">
        <ele>78.97</ele>
        <time>2011-02-06T08:27:20Z</time>
      </trkpt>
      <trkpt lat="48.26833" lon="2.63375">
        <ele>75.6</ele>
        <time>2011-02-06T08:27:26Z</time>
      </trkpt>
      <trkpt lat="48.26842" lon="2.63379">
        <ele>73.68</ele>
        <time>2011-02-06T08:27:28Z</time>
      </trkpt>
      <trkpt lat="48.26865" lon="2.63388">
        <ele>69.35</ele>
        <time>2011-02-06T08:27:33Z</time>
      </trkpt>
      <trkpt lat="48.26869" lon="2.63389">
        <ele>68.87</ele>
        <time>2011-02-06T08:27:34Z</time>
      </trkpt>
      <trkpt lat="48.2688" lon="2.63412">
        <ele>65.03</ele>
        <time>2011-02-06T08:27:40Z</time>
      </trkpt>
      <trkpt lat="48.26884" lon="2.63415">
        <ele>65.03</ele>
        <time>2011-02-06T08:27:41Z</time>
      </trkpt>
      <trkpt lat="48.26898" lon="2.63422">
        <ele>62.62</ele>
        <time>2011-02-06T08:27:45Z</time>
      </trkpt>
      <trkpt lat="48.26909" lon="2.63425">
        <ele>60.7</ele>
        <time>2011-02-06T08:27:48Z</time>
      </trkpt>
      <trkpt lat="48.26923" lon="2.63434">
        <ele>58.3</ele>
        <time>2011-02-06T08:27:52Z</time>
      </trkpt>
      <trkpt lat="48.26952" lon="2.63464">
        <ele>53.97</ele>
        <time>2011-02-06T08:27:57Z</time>
      </trkpt>
      <trkpt lat="48.26969" lon="2.63486">
        <ele>52.53</ele>
        <time>2011-02-06T08:28:00Z</time>
      </trkpt>
      <trkpt lat="48.27" lon="2.63535">
        <ele>51.09</ele>
        <time>2011-02-06T08:28:06Z</time>
      </trkpt>
      <trkpt lat="48.27004" lon="2.63542">
        <ele>51.09</ele>
        <time>2011-02-06T08:28:07Z</time>
      </trkpt>
      <trkpt lat="48.27007" lon="2.63551">
        <ele>50.61</ele>
        <time>2011-02-06T08:28:08Z</time>
      </trkpt>
      <trkpt lat="48.27009" lon="2.63558">
        <ele>51.09</ele>
        <time>2011-02-06T08:28:09Z</time>
      </trkpt>
      <trkpt lat="48.2701" lon="2.63564">
        <ele>51.09</ele>
        <time>2011-02-06T08:28:10Z</time>
      </trkpt>
      <trkpt lat="48.27012" lon="2.6357">
        <ele>50.61</ele>
        <time>2011-02-06T08:28:11Z</time>
      </trkpt>
      <trkpt lat="48.27014" lon="2.63577">
        <ele>51.09</ele>
        <time>2011-02-06T08:28:12Z</time>
      </trkpt>
      <trkpt lat="48.27015" lon="2.63582">
        <ele>51.09</ele>
        <time>2011-02-06T08:28:13Z</time>
      </trkpt>
      <trkpt lat="48.27017" lon="2.63588">
        <ele>50.13</ele>
        <time>2011-02-06T08:28:14Z</time>
      </trkpt>
      <trkpt lat="48.27019" lon="2.63592">
        <ele>50.61</ele>
        <time>2011-02-06T08:28:15Z</time>
      </trkpt>
      <trkpt lat="48.27021" lon="2.63598">
        <ele>50.61</ele>
        <time>2011-02-06T08:28:16Z</time>
      </trkpt>
      <trkpt lat="48.27025" lon="2.63612">
        <ele>49.65</ele>
        <time>2011-02-06T08:28:19Z</time>
      </trkpt>
      <trkpt lat="48.27027" lon="2.63615">
        <ele>49.65</ele>
        <time>2011-02-06T08:28:20Z</time>
      </trkpt>
      <trkpt lat="48.27029" lon="2.63617">
        <ele>49.65</ele>
        <time>2011-02-06T08:28:21Z</time>
      </trkpt>
      <trkpt lat="48.2703" lon="2.63619">
        <ele>49.16</ele>
        <time>2011-02-06T08:28:22Z</time>
      </trkpt>
      <trkpt lat="48.27033" lon="2.63622">
        <ele>49.65</ele>
        <time>2011-02-06T08:28:23Z</time>
      </trkpt>
      <trkpt lat="48.27034" lon="2.63626">
        <ele>49.65</ele>
        <time>2011-02-06T08:28:24Z</time>
      </trkpt>
      <trkpt lat="48.27034" lon="2.63629">
        <ele>49.16</ele>
        <time>2011-02-06T08:28:25Z</time>
      </trkpt>
      <trkpt lat="48.27034" lon="2.63634">
        <ele>49.65</ele>
        <time>2011-02-06T08:28:26Z</time>
      </trkpt>
      <trkpt lat="48.27035" lon="2.63638">
        <ele>49.65</ele>
        <time>2011-02-06T08:28:27Z</time>
      </trkpt>
      <trkpt lat="48.27036" lon="2.63642">
        <ele>49.16</ele>
        <time>2011-02-06T08:28:28Z</time>
      </trkpt>
      <trkpt lat="48.27036" lon="2.63646">
        <ele>49.16</ele>
        <time>2011-02-06T08:28:29Z</time>
      </trkpt>
      <trkpt lat="48.27036" lon="2.6365">
        <ele>49.16</ele>
        <time>2011-02-06T08:28:30Z</time>
      </trkpt>
      <trkpt lat="48.27036" lon="2.63655">
        <ele>49.16</ele>
        <time>2011-02-06T08:28:31Z</time>
      </trkpt>
      <trkpt lat="48.27035" lon="2.63659">
        <ele>49.16</ele>
        <time>2011-02-06T08:28:32Z</time>
      </trkpt>
      <trkpt lat="48.27032" lon="2.63709">
        <ele>49.65</ele>
        <time>2011-02-06T08:28:43Z</time>
      </trkpt>
      <trkpt lat="48.27034" lon="2.63724">
        <ele>49.65</ele>
        <time>2011-02-06T08:28:46Z</time>
      </trkpt>
      <trkpt lat="48.27033" lon="2.63729">
        <ele>49.65</ele>
        <time>2011-02-06T08:28:47Z</time>
      </trkpt>
      <trkpt lat="48.27033" lon="2.63734">
        <ele>49.65</ele>
        <time>2011-02-06T08:28:48Z</time>
      </trkpt>
      <trkpt lat="48.2703" lon="2.63792">
        <ele>49.65</ele>
        <time>2011-02-06T08:28:59Z</time>
      </trkpt>
      <trkpt lat="48.27031" lon="2.63797">
        <ele>49.16</ele>
        <time>2011-02-06T08:29:00Z</time>
      </trkpt>
      <trkpt lat="48.27034" lon="2.63859">
        <ele>48.68</ele>
        <time>2011-02-06T08:29:11Z</time>
      </trkpt>
      <trkpt lat="48.27029" lon="2.63871">
        <ele>48.2</ele>
        <time>2011-02-06T08:29:14Z</time>
      </trkpt>
      <trkpt lat="48.27019" lon="2.63876">
        <ele>48.2</ele>
        <time>2011-02-06T08:29:18Z</time>
      </trkpt>
      <trkpt lat="48.27013" lon="2.63876">
        <ele>48.68</ele>
        <time>2011-02-06T08:29:20Z</time>
      </trkpt>
      <trkpt lat="48.26997" lon="2.63874">
        <ele>48.68</ele>
        <time>2011-02-06T08:29:25Z</time>
      </trkpt>
      <trkpt lat="48.2697" lon="2.63889">
        <ele>49.65</ele>
        <time>2011-02-06T08:29:34Z</time>
      </trkpt>
      <trkpt lat="48.26946" lon="2.63916">
        <ele>51.09</ele>
        <time>2011-02-06T08:29:43Z</time>
      </trkpt>
      <trkpt lat="48.26922" lon="2.63919">
        <ele>53.49</ele>
        <time>2011-02-06T08:29:53Z</time>
      </trkpt>
      <trkpt lat="48.26903" lon="2.63929">
        <ele>54.93</ele>
        <time>2011-02-06T08:30:04Z</time>
      </trkpt>
      <trkpt lat="48.26887" lon="2.6392">
        <ele>56.86</ele>
        <time>2011-02-06T08:30:15Z</time>
      </trkpt>
      <trkpt lat="48.26879" lon="2.63917">
        <ele>57.34</ele>
        <time>2011-02-06T08:30:21Z</time>
      </trkpt>
      <trkpt lat="48.26869" lon="2.63911">
        <ele>59.26</ele>
        <time>2011-02-06T08:30:28Z</time>
      </trkpt>
      <trkpt lat="48.26854" lon="2.63903">
        <ele>61.18</ele>
        <time>2011-02-06T08:30:41Z</time>
      </trkpt>
      <trkpt lat="48.26849" lon="2.63898">
        <ele>62.14</ele>
        <time>2011-02-06T08:30:46Z</time>
      </trkpt>
      <trkpt lat="48.26845" lon="2.63896">
        <ele>63.58</ele>
        <time>2011-02-06T08:30:49Z</time>
      </trkpt>
      <trkpt lat="48.26845" lon="2.63897">
        <ele>63.58</ele>
        <time>2011-02-06T08:30:50Z</time>
      </trkpt>
      <trkpt lat="48.26832" lon="2.63899">
        <ele>65.99</ele>
        <time>2011-02-06T08:31:02Z</time>
      </trkpt>
      <trkpt lat="48.26825" lon="2.63887">
        <ele>68.87</ele>
        <time>2011-02-06T08:31:13Z</time>
      </trkpt>
      <trkpt lat="48.26825" lon="2.63886">
        <ele>69.35</ele>
        <time>2011-02-06T08:31:34Z</time>
      </trkpt>
      <trkpt lat="48.26822" lon="2.63877">
        <ele>72.72</ele>
        <time>2011-02-06T08:31:46Z</time>
      </trkpt>
      <trkpt lat="48.2682" lon="2.63874">
        <ele>73.68</ele>
        <time>2011-02-06T08:31:55Z</time>
      </trkpt>
      <trkpt lat="48.26818" lon="2.63871">
        <ele>74.64</ele>
        <time>2011-02-06T08:31:58Z</time>
      </trkpt>
      <trkpt lat="48.26817" lon="2.6387">
        <ele>76.08</ele>
        <time>2011-02-06T08:32:05Z</time>
      </trkpt>
      <trkpt lat="48.2681" lon="2.63861">
        <ele>78</ele>
        <time>2011-02-06T08:32:19Z</time>
      </trkpt>
      <trkpt lat="48.26804" lon="2.63848">
        <ele>80.41</ele>
        <time>2011-02-06T08:32:30Z</time>
      </trkpt>
      <trkpt lat="48.26799" lon="2.63834">
        <ele>82.81</ele>
        <time>2011-02-06T08:32:44Z</time>
      </trkpt>
      <trkpt lat="48.26798" lon="2.63833">
        <ele>82.81</ele>
        <time>2011-02-06T08:32:45Z</time>
      </trkpt>
      <trkpt lat="48.26787" lon="2.63823">
        <ele>84.73</ele>
        <time>2011-02-06T08:32:58Z</time>
      </trkpt>
      <trkpt lat="48.26784" lon="2.63819">
        <ele>85.21</ele>
        <time>2011-02-06T08:33:02Z</time>
      </trkpt>
      <trkpt lat="48.26775" lon="2.63818">
        <ele>85.21</ele>
        <time>2011-02-06T08:33:07Z</time>
      </trkpt>
      <trkpt lat="48.2677" lon="2.63818">
        <ele>85.69</ele>
        <time>2011-02-06T08:33:10Z</time>
      </trkpt>
      <trkpt lat="48.26762" lon="2.63821">
        <ele>86.18</ele>
        <time>2011-02-06T08:33:15Z</time>
      </trkpt>
      <trkpt lat="48.26751" lon="2.6383">
        <ele>86.66</ele>
        <time>2011-02-06T08:33:21Z</time>
      </trkpt>
      <trkpt lat="48.26745" lon="2.63865">
        <ele>86.66</ele>
        <time>2011-02-06T08:33:33Z</time>
      </trkpt>
      <trkpt lat="48.26743" lon="2.6393">
        <ele>87.62</ele>
        <time>2011-02-06T08:33:48Z</time>
      </trkpt>
      <trkpt lat="48.26742" lon="2.63999">
        <ele>86.66</ele>
        <time>2011-02-06T08:34:02Z</time>
      </trkpt>
      <trkpt lat="48.2674" lon="2.64019">
        <ele>87.14</ele>
        <time>2011-02-06T08:34:07Z</time>
      </trkpt>
      <trkpt lat="48.26745" lon="2.64027">
        <ele>87.14</ele>
        <time>2011-02-06T08:34:11Z</time>
      </trkpt>
      <trkpt lat="48.26751" lon="2.6403">
        <ele>87.62</ele>
        <time>2011-02-06T08:34:14Z</time>
      </trkpt>
      <trkpt lat="48.26755" lon="2.64028">
        <ele>87.14</ele>
        <time>2011-02-06T08:34:25Z</time>
      </trkpt>
      <trkpt lat="48.26755" lon="2.64028">
        <ele>83.29</ele>
        <time>2011-02-06T08:34:32Z</time>
      </trkpt>
      <trkpt lat="48.26755" lon="2.64028">
        <ele>87.14</ele>
        <time>2011-02-06T08:34:33Z</time>
      </trkpt>
      <trkpt lat="48.26755" lon="2.64028">
        <ele>82.81</ele>
        <time>2011-02-06T08:34:34Z</time>
      </trkpt>
      <trkpt lat="48.26755" lon="2.64028">
        <ele>87.14</ele>
        <time>2011-02-06T08:34:35Z</time>
      </trkpt>
      <trkpt lat="48.26755" lon="2.64028">
        <ele>92.42</ele>
        <time>2011-02-06T08:34:36Z</time>
      </trkpt>
      <trkpt lat="48.26755" lon="2.64028">
        <ele>88.58</ele>
        <time>2011-02-06T08:34:37Z</time>
      </trkpt>
      <trkpt lat="48.26755" lon="2.64028">
        <ele>87.62</ele>
        <time>2011-02-06T08:34:38Z</time>
      </trkpt>
      <trkpt lat="48.26755" lon="2.64028">
        <ele>86.18</ele>
        <time>2011-02-06T08:34:40Z</time>
      </trkpt>
      <trkpt lat="48.26755" lon="2.64028">
        <ele>87.62</ele>
        <time>2011-02-06T08:35:03Z</time>
      </trkpt>
      <trkpt lat="48.26759" lon="2.64028">
        <ele>87.62</ele>
        <time>2011-02-06T08:35:14Z</time>
      </trkpt>
      <trkpt lat="48.26763" lon="2.64028">
        <ele>85.21</ele>
        <time>2011-02-06T08:35:18Z</time>
      </trkpt>
      <trkpt lat="48.26763" lon="2.64028">
        <ele>83.77</ele>
        <time>2011-02-06T08:35:22Z</time>
      </trkpt>
      <trkpt lat="48.26761" lon="2.64023">
        <ele>81.37</ele>
        <time>2011-02-06T08:35:37Z</time>
      </trkpt>
      <trkpt lat="48.2676" lon="2.64023">
        <ele>80.41</ele>
        <time>2011-02-06T08:35:40Z</time>
      </trkpt>
      <trkpt lat="48.26763" lon="2.64027">
        <ele>78.48</ele>
        <time>2011-02-06T08:35:43Z</time>
      </trkpt>
      <trkpt lat="48.26773" lon="2.64025">
        <ele>74.16</ele>
        <time>2011-02-06T08:35:49Z</time>
      </trkpt>
      <trkpt lat="48.26775" lon="2.64024">
        <ele>73.2</ele>
        <time>2011-02-06T08:35:51Z</time>
      </trkpt>
      <trkpt lat="48.26776" lon="2.64023">
        <ele>70.79</ele>
        <time>2011-02-06T08:35:55Z</time>
      </trkpt>
      <trkpt lat="48.26783" lon="2.64014">
        <ele>71.27</ele>
        <time>2011-02-06T08:36:01Z</time>
      </trkpt>
      <trkpt lat="48.268" lon="2.64024">
        <ele>70.79</ele>
        <time>2011-02-06T08:36:08Z</time>
      </trkpt>
      <trkpt lat="48.26812" lon="2.64036">
        <ele>69.35</ele>
        <time>2011-02-06T08:36:14Z</time>
      </trkpt>
      <trkpt lat="48.26816" lon="2.64041">
        <ele>69.35</ele>
        <time>2011-02-06T08:36:17Z</time>
      </trkpt>
      <trkpt lat="48.26828" lon="2.64056">
        <ele>68.87</ele>
        <time>2011-02-06T08:36:28Z</time>
      </trkpt>
      <trkpt lat="48.26828" lon="2.64056">
        <ele>68.87</ele>
        <time>2011-02-06T08:36:54Z</time>
      </trkpt>
      <trkpt lat="48.26829" lon="2.64055">
        <ele>68.39</ele>
        <time>2011-02-06T08:37:24Z</time>
      </trkpt>
      <trkpt lat="48.2683" lon="2.64057">
        <ele>67.91</ele>
        <time>2011-02-06T08:37:32Z</time>
      </trkpt>
      <trkpt lat="48.26841" lon="2.64061">
        <ele>65.99</ele>
        <time>2011-02-06T08:37:38Z</time>
      </trkpt>
      <trkpt lat="48.26847" lon="2.64064">
        <ele>65.99</ele>
        <time>2011-02-06T08:37:41Z</time>
      </trkpt>
      <trkpt lat="48.26856" lon="2.64072">
        <ele>64.07</ele>
        <time>2011-02-06T08:37:46Z</time>
      </trkpt>
      <trkpt lat="48.26863" lon="2.64074">
        <ele>64.55</ele>
        <time>2011-02-06T08:37:49Z</time>
      </trkpt>
      <trkpt lat="48.2688" lon="2.64083">
        <ele>64.55</ele>
        <time>2011-02-06T08:37:57Z</time>
      </trkpt>
      <trkpt lat="48.26887" lon="2.64087">
        <ele>64.55</ele>
        <time>2011-02-06T08:38:01Z</time>
      </trkpt>
      <trkpt lat="48.2689" lon="2.641">
        <ele>67.91</ele>
        <time>2011-02-06T08:38:07Z</time>
      </trkpt>
      <trkpt lat="48.26889" lon="2.64105">
        <ele>69.35</ele>
        <time>2011-02-06T08:38:10Z</time>
      </trkpt>
      <trkpt lat="48.26889" lon="2.64109">
        <ele>69.83</ele>
        <time>2011-02-06T08:38:12Z</time>
      </trkpt>
      <trkpt lat="48.26895" lon="2.64132">
        <ele>68.87</ele>
        <time>2011-02-06T08:38:25Z</time>
      </trkpt>
      <trkpt lat="48.26895" lon="2.64133">
        <ele>67.43</ele>
        <time>2011-02-06T08:38:38Z</time>
      </trkpt>
      <trkpt lat="48.26896" lon="2.64134">
        <ele>67.43</ele>
        <time>2011-02-06T08:38:43Z</time>
      </trkpt>
      <trkpt lat="48.26899" lon="2.6414">
        <ele>66.47</ele>
        <time>2011-02-06T08:38:52Z</time>
      </trkpt>
      <trkpt lat="48.269" lon="2.64141">
        <ele>65.03</ele>
        <time>2011-02-06T08:39:04Z</time>
      </trkpt>
      <trkpt lat="48.26905" lon="2.64142">
        <ele>61.66</ele>
        <time>2011-02-06T08:39:11Z</time>
      </trkpt>
      <trkpt lat="48.26909" lon="2.64146">
        <ele>60.7</ele>
        <time>2011-02-06T08:39:13Z</time>
      </trkpt>
      <trkpt lat="48.26914" lon="2.64153">
        <ele>59.26</ele>
        <time>2011-02-06T08:39:15Z</time>
      </trkpt>
      <trkpt lat="48.26922" lon="2.64164">
        <ele>56.37</ele>
        <time>2011-02-06T08:39:20Z</time>
      </trkpt>
      <trkpt lat="48.26924" lon="2.64167">
        <ele>55.89</ele>
        <time>2011-02-06T08:39:21Z</time>
      </trkpt>
      <trkpt lat="48.2694" lon="2.64192">
        <ele>52.05</ele>
        <time>2011-02-06T08:39:28Z</time>
      </trkpt>
      <trkpt lat="48.26937" lon="2.64222">
        <ele>52.53</ele>
        <time>2011-02-06T08:39:38Z</time>
      </trkpt>
      <trkpt lat="48.26936" lon="2.64225">
        <ele>52.53</ele>
        <time>2011-02-06T08:39:39Z</time>
      </trkpt>
      <trkpt lat="48.26925" lon="2.64259">
        <ele>53.01</ele>
        <time>2011-02-06T08:39:51Z</time>
      </trkpt>
      <trkpt lat="48.26904" lon="2.64304">
        <ele>53.49</ele>
        <time>2011-02-06T08:40:05Z</time>
      </trkpt>
      <trkpt lat="48.26876" lon="2.64346">
        <ele>53.97</ele>
        <time>2011-02-06T08:40:18Z</time>
      </trkpt>
      <trkpt lat="48.26851" lon="2.64383">
        <ele>53.97</ele>
        <time>2011-02-06T08:40:30Z</time>
      </trkpt>
      <trkpt lat="48.26846" lon="2.64387">
        <ele>54.93</ele>
        <time>2011-02-06T08:40:35Z</time>
      </trkpt>
      <trkpt lat="48.26841" lon="2.64384">
        <ele>54.93</ele>
        <time>2011-02-06T08:40:40Z</time>
      </trkpt>
      <trkpt lat="48.26838" lon="2.64371">
        <ele>56.37</ele>
        <time>2011-02-06T08:40:47Z</time>
      </trkpt>
      <trkpt lat="48.26837" lon="2.64368">
        <ele>56.86</ele>
        <time>2011-02-06T08:40:49Z</time>
      </trkpt>
      <trkpt lat="48.26828" lon="2.64354">
        <ele>58.3</ele>
        <time>2011-02-06T08:40:57Z</time>
      </trkpt>
      <trkpt lat="48.26817" lon="2.64335">
        <ele>60.7</ele>
        <time>2011-02-06T08:41:07Z</time>
      </trkpt>
      <trkpt lat="48.26815" lon="2.64329">
        <ele>61.18</ele>
        <time>2011-02-06T08:41:10Z</time>
      </trkpt>
      <trkpt lat="48.26807" lon="2.64313">
        <ele>63.58</ele>
        <time>2011-02-06T08:41:19Z</time>
      </trkpt>
      <trkpt lat="48.26804" lon="2.64294">
        <ele>66.47</ele>
        <time>2011-02-06T08:41:32Z</time>
      </trkpt>
      <trkpt lat="48.26804" lon="2.64287">
        <ele>67.43</ele>
        <time>2011-02-06T08:41:36Z</time>
      </trkpt>
      <trkpt lat="48.26796" lon="2.64275">
        <ele>69.35</ele>
        <time>2011-02-06T08:41:45Z</time>
      </trkpt>
      <trkpt lat="48.26784" lon="2.64279">
        <ele>70.31</ele>
        <time>2011-02-06T08:41:53Z</time>
      </trkpt>
      <trkpt lat="48.26775" lon="2.64288">
        <ele>71.27</ele>
        <time>2011-02-06T08:42:01Z</time>
      </trkpt>
      <trkpt lat="48.26766" lon="2.64295">
        <ele>72.24</ele>
        <time>2011-02-06T08:42:07Z</time>
      </trkpt>
      <trkpt lat="48.26759" lon="2.64301">
        <ele>72.24</ele>
        <time>2011-02-06T08:42:13Z</time>
      </trkpt>
      <trkpt lat="48.26752" lon="2.64304">
        <ele>72.24</ele>
        <time>2011-02-06T08:42:18Z</time>
      </trkpt>
      <trkpt lat="48.26731" lon="2.64303">
        <ele>72.72</ele>
        <time>2011-02-06T08:42:30Z</time>
      </trkpt>
      <trkpt lat="48.26714" lon="2.64321">
        <ele>72.24</ele>
        <time>2011-02-06T08:42:38Z</time>
      </trkpt>
      <trkpt lat="48.26705" lon="2.64318">
        <ele>72.72</ele>
        <time>2011-02-06T08:42:42Z</time>
      </trkpt>
      <trkpt lat="48.26684" lon="2.64317">
        <ele>74.64</ele>
        <time>2011-02-06T08:42:53Z</time>
      </trkpt>
      <trkpt lat="48.2668" lon="2.64318">
        <ele>75.6</ele>
        <time>2011-02-06T08:42:55Z</time>
      </trkpt>
      <trkpt lat="48.26684" lon="2.64335">
        <ele>78.48</ele>
        <time>2011-02-06T08:43:04Z</time>
      </trkpt>
      <trkpt lat="48.26689" lon="2.64351">
        <ele>81.37</ele>
        <time>2011-02-06T08:43:13Z</time>
      </trkpt>
      <trkpt lat="48.2669" lon="2.64354">
        <ele>81.37</ele>
        <time>2011-02-06T08:43:16Z</time>
      </trkpt>
      <trkpt lat="48.2669" lon="2.6436">
        <ele>81.85</ele>
        <time>2011-02-06T08:43:19Z</time>
      </trkpt>
      <trkpt lat="48.26691" lon="2.64371">
        <ele>82.33</ele>
        <time>2011-02-06T08:43:29Z</time>
      </trkpt>
      <trkpt lat="48.26691" lon="2.64371">
        <ele>82.81</ele>
        <time>2011-02-06T08:43:30Z</time>
      </trkpt>
      <trkpt lat="48.26694" lon="2.64373">
        <ele>82.33</ele>
        <time>2011-02-06T08:43:44Z</time>
      </trkpt>
      <trkpt lat="48.26694" lon="2.64373">
        <ele>82.81</ele>
        <time>2011-02-06T08:43:56Z</time>
      </trkpt>
      <trkpt lat="48.26695" lon="2.64373">
        <ele>82.81</ele>
        <time>2011-02-06T08:43:59Z</time>
      </trkpt>
      <trkpt lat="48.26696" lon="2.64376">
        <ele>82.81</ele>
        <time>2011-02-06T08:44:13Z</time>
      </trkpt>
      <trkpt lat="48.26696" lon="2.64376">
        <ele>83.29</ele>
        <time>2011-02-06T08:44:44Z</time>
      </trkpt>
      <trkpt lat="48.26695" lon="2.64377">
        <ele>83.29</ele>
        <time>2011-02-06T08:45:11Z</time>
      </trkpt>
      <trkpt lat="48.26695" lon="2.64377">
        <ele>83.29</ele>
        <time>2011-02-06T08:45:36Z</time>
      </trkpt>
      <trkpt lat="48.26696" lon="2.64377">
        <ele>83.29</ele>
        <time>2011-02-06T08:45:59Z</time>
      </trkpt>
      <trkpt lat="48.26696" lon="2.64377">
        <ele>83.77</ele>
        <time>2011-02-06T08:46:30Z</time>
      </trkpt>
      <trkpt lat="48.26696" lon="2.64377">
        <ele>83.77</ele>
        <time>2011-02-06T08:47:04Z</time>
      </trkpt>
      <trkpt lat="48.26696" lon="2.64377">
        <ele>83.77</ele>
        <time>2011-02-06T08:47:34Z</time>
      </trkpt>
      <trkpt lat="48.26696" lon="2.64378">
        <ele>84.25</ele>
        <time>2011-02-06T08:48:01Z</time>
      </trkpt>
      <trkpt lat="48.26696" lon="2.64377">
        <ele>84.25</ele>
        <time>2011-02-06T08:48:26Z</time>
      </trkpt>
      <trkpt lat="48.26696" lon="2.64377">
        <ele>84.25</ele>
        <time>2011-02-06T08:48:55Z</time>
      </trkpt>
      <trkpt lat="48.26695" lon="2.64373">
        <ele>84.73</ele>
        <time>2011-02-06T08:49:01Z</time>
      </trkpt>
      <trkpt lat="48.26693" lon="2.6437">
        <ele>83.77</ele>
        <time>2011-02-06T08:49:11Z</time>
      </trkpt>
      <trkpt lat="48.26693" lon="2.6437">
        <ele>84.25</ele>
        <time>2011-02-06T08:49:14Z</time>
      </trkpt>
      <trkpt lat="48.26701" lon="2.64367">
        <ele>80.89</ele>
        <time>2011-02-06T08:49:20Z</time>
      </trkpt>
      <trkpt lat="48.26704" lon="2.64365">
        <ele>78.97</ele>
        <time>2011-02-06T08:49:22Z</time>
      </trkpt>
      <trkpt lat="48.26707" lon="2.64359">
        <ele>78</ele>
        <time>2011-02-06T08:49:26Z</time>
      </trkpt>
      <trkpt lat="48.26708" lon="2.64354">
        <ele>76.56</ele>
        <time>2011-02-06T08:49:29Z</time>
      </trkpt>
      <trkpt lat="48.26709" lon="2.64349">
        <ele>75.12</ele>
        <time>2011-02-06T08:49:33Z</time>
      </trkpt>
      <trkpt lat="48.26724" lon="2.64358">
        <ele>72.72</ele>
        <time>2011-02-06T08:49:39Z</time>
      </trkpt>
      <trkpt lat="48.26735" lon="2.64368">
        <ele>68.87</ele>
        <time>2011-02-06T08:49:45Z</time>
      </trkpt>
      <trkpt lat="48.26739" lon="2.64378">
        <ele>65.99</ele>
        <time>2011-02-06T08:49:48Z</time>
      </trkpt>
      <trkpt lat="48.26744" lon="2.6443">
        <ele>63.58</ele>
        <time>2011-02-06T08:49:59Z</time>
      </trkpt>
      <trkpt lat="48.26736" lon="2.64455">
        <ele>63.1</ele>
        <time>2011-02-06T08:50:11Z</time>
      </trkpt>
      <trkpt lat="48.26736" lon="2.64455">
        <ele>63.1</ele>
        <time>2011-02-06T08:50:27Z</time>
      </trkpt>
      <trkpt lat="48.26736" lon="2.64456">
        <ele>62.62</ele>
        <time>2011-02-06T08:51:09Z</time>
      </trkpt>
      <trkpt lat="48.26736" lon="2.64455">
        <ele>63.58</ele>
        <time>2011-02-06T08:51:47Z</time>
      </trkpt>
      <trkpt lat="48.26736" lon="2.64455">
        <ele>63.58</ele>
        <time>2011-02-06T08:52:28Z</time>
      </trkpt>
      <trkpt lat="48.26736" lon="2.64456">
        <ele>63.58</ele>
        <time>2011-02-06T08:53:12Z</time>
      </trkpt>
      <trkpt lat="48.26736" lon="2.64456">
        <ele>63.58</ele>
        <time>2011-02-06T08:53:51Z</time>
      </trkpt>
      <trkpt lat="48.26736" lon="2.64456">
        <ele>64.07</ele>
        <time>2011-02-06T08:54:31Z</time>
      </trkpt>
      <trkpt lat="48.26737" lon="2.64456">
        <ele>64.07</ele>
        <time>2011-02-06T08:55:14Z</time>
      </trkpt>
      <trkpt lat="48.26736" lon="2.64456">
        <ele>64.07</ele>
        <time>2011-02-06T08:56:01Z</time>
      </trkpt>
      <trkpt lat="48.26736" lon="2.64456">
        <ele>64.55</ele>
        <time>2011-02-06T08:56:40Z</time>
      </trkpt>
      <trkpt lat="48.26736" lon="2.64456">
        <ele>64.55</ele>
        <time>2011-02-06T08:57:19Z</time>
      </trkpt>
      <trkpt lat="48.26736" lon="2.64457">
        <ele>65.03</ele>
        <time>2011-02-06T08:58:00Z</time>
      </trkpt>
      <trkpt lat="48.26736" lon="2.64457">
        <ele>65.51</ele>
        <time>2011-02-06T08:58:41Z</time>
      </trkpt>
      <trkpt lat="48.26736" lon="2.64457">
        <ele>65.51</ele>
        <time>2011-02-06T08:58:48Z</time>
      </trkpt>
      <trkpt lat="48.26737" lon="2.64469">
        <ele>65.51</ele>
        <time>2011-02-06T08:58:56Z</time>
      </trkpt>
      <trkpt lat="48.26766" lon="2.64491">
        <ele>63.58</ele>
        <time>2011-02-06T08:59:08Z</time>
      </trkpt>
      <trkpt lat="48.26776" lon="2.64499">
        <ele>62.14</ele>
        <time>2011-02-06T08:59:11Z</time>
      </trkpt>
      <trkpt lat="48.2678" lon="2.64501">
        <ele>62.62</ele>
        <time>2011-02-06T08:59:12Z</time>
      </trkpt>
      <trkpt lat="48.26784" lon="2.64502">
        <ele>62.14</ele>
        <time>2011-02-06T08:59:13Z</time>
      </trkpt>
      <trkpt lat="48.26788" lon="2.64502">
        <ele>61.66</ele>
        <time>2011-02-06T08:59:14Z</time>
      </trkpt>
      <trkpt lat="48.26799" lon="2.6452">
        <ele>62.62</ele>
        <time>2011-02-06T08:59:20Z</time>
      </trkpt>
      <trkpt lat="48.26813" lon="2.64552">
        <ele>65.03</ele>
        <time>2011-02-06T08:59:32Z</time>
      </trkpt>
      <trkpt lat="48.2681" lon="2.64573">
        <ele>63.58</ele>
        <time>2011-02-06T08:59:38Z</time>
      </trkpt>
      <trkpt lat="48.26814" lon="2.64614">
        <ele>65.03</ele>
        <time>2011-02-06T08:59:47Z</time>
      </trkpt>
      <trkpt lat="48.26818" lon="2.64624">
        <ele>65.03</ele>
        <time>2011-02-06T08:59:50Z</time>
      </trkpt>
      <trkpt lat="48.26824" lon="2.64649">
        <ele>66.95</ele>
        <time>2011-02-06T08:59:58Z</time>
      </trkpt>
      <trkpt lat="48.26838" lon="2.64668">
        <ele>68.87</ele>
        <time>2011-02-06T09:00:08Z</time>
      </trkpt>
      <trkpt lat="48.26843" lon="2.64682">
        <ele>68.39</ele>
        <time>2011-02-06T09:00:12Z</time>
      </trkpt>
      <trkpt lat="48.26845" lon="2.64688">
        <ele>68.39</ele>
        <time>2011-02-06T09:00:14Z</time>
      </trkpt>
      <trkpt lat="48.26842" lon="2.64717">
        <ele>66.47</ele>
        <time>2011-02-06T09:00:20Z</time>
      </trkpt>
      <trkpt lat="48.26841" lon="2.64724">
        <ele>65.99</ele>
        <time>2011-02-06T09:00:21Z</time>
      </trkpt>
      <trkpt lat="48.2684" lon="2.64731">
        <ele>65.99</ele>
        <time>2011-02-06T09:00:22Z</time>
      </trkpt>
      <trkpt lat="48.26841" lon="2.64737">
        <ele>65.51</ele>
        <time>2011-02-06T09:00:23Z</time>
      </trkpt>
      <trkpt lat="48.26841" lon="2.64743">
        <ele>66.47</ele>
        <time>2011-02-06T09:00:24Z</time>
      </trkpt>
      <trkpt lat="48.26847" lon="2.64761">
        <ele>66.95</ele>
        <time>2011-02-06T09:00:28Z</time>
      </trkpt>
      <trkpt lat="48.26847" lon="2.64765">
        <ele>66.95</ele>
        <time>2011-02-06T09:00:29Z</time>
      </trkpt>
      <trkpt lat="48.26847" lon="2.64771">
        <ele>66.95</ele>
        <time>2011-02-06T09:00:30Z</time>
      </trkpt>
      <trkpt lat="48.26847" lon="2.64787">
        <ele>67.43</ele>
        <time>2011-02-06T09:00:33Z</time>
      </trkpt>
      <trkpt lat="48.26848" lon="2.64792">
        <ele>67.43</ele>
        <time>2011-02-06T09:00:34Z</time>
      </trkpt>
      <trkpt lat="48.26849" lon="2.64797">
        <ele>67.43</ele>
        <time>2011-02-06T09:00:35Z</time>
      </trkpt>
      <trkpt lat="48.26849" lon="2.64803">
        <ele>67.91</ele>
        <time>2011-02-06T09:00:36Z</time>
      </trkpt>
      <trkpt lat="48.2685" lon="2.64808">
        <ele>68.39</ele>
        <time>2011-02-06T09:00:37Z</time>
      </trkpt>
      <trkpt lat="48.26851" lon="2.64812">
        <ele>68.87</ele>
        <time>2011-02-06T09:00:38Z</time>
      </trkpt>
      <trkpt lat="48.26851" lon="2.64817">
        <ele>69.35</ele>
        <time>2011-02-06T09:00:39Z</time>
      </trkpt>
      <trkpt lat="48.26852" lon="2.6482">
        <ele>69.83</ele>
        <time>2011-02-06T09:00:40Z</time>
      </trkpt>
      <trkpt lat="48.26852" lon="2.64824">
        <ele>69.35</ele>
        <time>2011-02-06T09:00:41Z</time>
      </trkpt>
      <trkpt lat="48.26852" lon="2.64828">
        <ele>69.35</ele>
        <time>2011-02-06T09:00:42Z</time>
      </trkpt>
      <trkpt lat="48.26852" lon="2.64832">
        <ele>69.35</ele>
        <time>2011-02-06T09:00:43Z</time>
      </trkpt>
      <trkpt lat="48.26851" lon="2.64836">
        <ele>69.83</ele>
        <time>2011-02-06T09:00:44Z</time>
      </trkpt>
      <trkpt lat="48.26852" lon="2.6484">
        <ele>70.31</ele>
        <time>2011-02-06T09:00:45Z</time>
      </trkpt>
      <trkpt lat="48.26853" lon="2.64844">
        <ele>70.31</ele>
        <time>2011-02-06T09:00:46Z</time>
      </trkpt>
      <trkpt lat="48.26853" lon="2.64847">
        <ele>70.31</ele>
        <time>2011-02-06T09:00:47Z</time>
      </trkpt>
      <trkpt lat="48.26854" lon="2.6485">
        <ele>70.79</ele>
        <time>2011-02-06T09:00:48Z</time>
      </trkpt>
      <trkpt lat="48.26854" lon="2.64853">
        <ele>70.79</ele>
        <time>2011-02-06T09:00:49Z</time>
      </trkpt>
      <trkpt lat="48.26855" lon="2.64856">
        <ele>71.27</ele>
        <time>2011-02-06T09:00:50Z</time>
      </trkpt>
      <trkpt lat="48.26856" lon="2.64859">
        <ele>71.76</ele>
        <time>2011-02-06T09:00:51Z</time>
      </trkpt>
      <trkpt lat="48.26856" lon="2.64861">
        <ele>72.24</ele>
        <time>2011-02-06T09:00:52Z</time>
      </trkpt>
      <trkpt lat="48.26861" lon="2.64908">
        <ele>70.79</ele>
        <time>2011-02-06T09:01:05Z</time>
      </trkpt>
      <trkpt lat="48.26861" lon="2.64925">
        <ele>69.83</ele>
        <time>2011-02-06T09:01:08Z</time>
      </trkpt>
      <trkpt lat="48.2686" lon="2.64932">
        <ele>68.87</ele>
        <time>2011-02-06T09:01:09Z</time>
      </trkpt>
      <trkpt lat="48.2686" lon="2.64958">
        <ele>65.51</ele>
        <time>2011-02-06T09:01:12Z</time>
      </trkpt>
      <trkpt lat="48.26863" lon="2.6499">
        <ele>62.14</ele>
        <time>2011-02-06T09:01:15Z</time>
      </trkpt>
      <trkpt lat="48.26865" lon="2.65002">
        <ele>60.7</ele>
        <time>2011-02-06T09:01:16Z</time>
      </trkpt>
      <trkpt lat="48.2687" lon="2.65031">
        <ele>58.3</ele>
        <time>2011-02-06T09:01:19Z</time>
      </trkpt>
      <trkpt lat="48.2687" lon="2.65038">
        <ele>58.3</ele>
        <time>2011-02-06T09:01:20Z</time>
      </trkpt>
      <trkpt lat="48.2687" lon="2.65044">
        <ele>57.82</ele>
        <time>2011-02-06T09:01:21Z</time>
      </trkpt>
      <trkpt lat="48.26872" lon="2.65048">
        <ele>57.82</ele>
        <time>2011-02-06T09:01:22Z</time>
      </trkpt>
      <trkpt lat="48.26874" lon="2.65053">
        <ele>57.82</ele>
        <time>2011-02-06T09:01:23Z</time>
      </trkpt>
      <trkpt lat="48.26877" lon="2.65058">
        <ele>56.37</ele>
        <time>2011-02-06T09:01:24Z</time>
      </trkpt>
      <trkpt lat="48.26881" lon="2.65064">
        <ele>56.37</ele>
        <time>2011-02-06T09:01:25Z</time>
      </trkpt>
      <trkpt lat="48.26885" lon="2.65068">
        <ele>55.41</ele>
        <time>2011-02-06T09:01:26Z</time>
      </trkpt>
      <trkpt lat="48.26889" lon="2.6507">
        <ele>55.41</ele>
        <time>2011-02-06T09:01:27Z</time>
      </trkpt>
      <trkpt lat="48.26893" lon="2.65071">
        <ele>55.41</ele>
        <time>2011-02-06T09:01:28Z</time>
      </trkpt>
      <trkpt lat="48.26897" lon="2.65071">
        <ele>55.89</ele>
        <time>2011-02-06T09:01:29Z</time>
      </trkpt>
      <trkpt lat="48.269" lon="2.6507">
        <ele>55.89</ele>
        <time>2011-02-06T09:01:30Z</time>
      </trkpt>
      <trkpt lat="48.26903" lon="2.65069">
        <ele>55.41</ele>
        <time>2011-02-06T09:01:31Z</time>
      </trkpt>
      <trkpt lat="48.26906" lon="2.65069">
        <ele>55.41</ele>
        <time>2011-02-06T09:01:32Z</time>
      </trkpt>
      <trkpt lat="48.26959" lon="2.65065">
        <ele>54.93</ele>
        <time>2011-02-06T09:01:46Z</time>
      </trkpt>
      <trkpt lat="48.27008" lon="2.65073">
        <ele>55.41</ele>
        <time>2011-02-06T09:01:58Z</time>
      </trkpt>
      <trkpt lat="48.27043" lon="2.65076">
        <ele>55.41</ele>
        <time>2011-02-06T09:02:09Z</time>
      </trkpt>
      <trkpt lat="48.2707" lon="2.65089">
        <ele>54.93</ele>
        <time>2011-02-06T09:02:18Z</time>
      </trkpt>
      <trkpt lat="48.27123" lon="2.6511">
        <ele>54.45</ele>
        <time>2011-02-06T09:02:29Z</time>
      </trkpt>
      <trkpt lat="48.27141" lon="2.65117">
        <ele>55.41</ele>
        <time>2011-02-06T09:02:33Z</time>
      </trkpt>
      <trkpt lat="48.27162" lon="2.65127">
        <ele>54.93</ele>
        <time>2011-02-06T09:02:38Z</time>
      </trkpt>
      <trkpt lat="48.2717" lon="2.65131">
        <ele>54.93</ele>
        <time>2011-02-06T09:02:40Z</time>
      </trkpt>
      <trkpt lat="48.27213" lon="2.65155">
        <ele>54.93</ele>
        <time>2011-02-06T09:02:51Z</time>
      </trkpt>
      <trkpt lat="48.27273" lon="2.6518">
        <ele>54.93</ele>
        <time>2011-02-06T09:03:05Z</time>
      </trkpt>
      <trkpt lat="48.27279" lon="2.65181">
        <ele>55.41</ele>
        <time>2011-02-06T09:03:06Z</time>
      </trkpt>
      <trkpt lat="48.27283" lon="2.65181">
        <ele>55.41</ele>
        <time>2011-02-06T09:03:07Z</time>
      </trkpt>
      <trkpt lat="48.27287" lon="2.65178">
        <ele>55.41</ele>
        <time>2011-02-06T09:03:08Z</time>
      </trkpt>
      <trkpt lat="48.2729" lon="2.65175">
        <ele>55.41</ele>
        <time>2011-02-06T09:03:09Z</time>
      </trkpt>
      <trkpt lat="48.27294" lon="2.65169">
        <ele>55.41</ele>
        <time>2011-02-06T09:03:10Z</time>
      </trkpt>
      <trkpt lat="48.27297" lon="2.65163">
        <ele>55.41</ele>
        <time>2011-02-06T09:03:11Z</time>
      </trkpt>
      <trkpt lat="48.27301" lon="2.65157">
        <ele>55.41</ele>
        <time>2011-02-06T09:03:12Z</time>
      </trkpt>
      <trkpt lat="48.27307" lon="2.65136">
        <ele>54.93</ele>
        <time>2011-02-06T09:03:15Z</time>
      </trkpt>
      <trkpt lat="48.27308" lon="2.65129">
        <ele>54.93</ele>
        <time>2011-02-06T09:03:16Z</time>
      </trkpt>
      <trkpt lat="48.27309" lon="2.65123">
        <ele>54.93</ele>
        <time>2011-02-06T09:03:17Z</time>
      </trkpt>
      <trkpt lat="48.27314" lon="2.65097">
        <ele>54.45</ele>
        <time>2011-02-06T09:03:21Z</time>
      </trkpt>
      <trkpt lat="48.27315" lon="2.6509">
        <ele>54.93</ele>
        <time>2011-02-06T09:03:22Z</time>
      </trkpt>
      <trkpt lat="48.27316" lon="2.65077">
        <ele>54.93</ele>
        <time>2011-02-06T09:03:24Z</time>
      </trkpt>
      <trkpt lat="48.27315" lon="2.64996">
        <ele>54.45</ele>
        <time>2011-02-06T09:03:37Z</time>
      </trkpt>
      <trkpt lat="48.2731" lon="2.64901">
        <ele>54.93</ele>
        <time>2011-02-06T09:03:52Z</time>
      </trkpt>
      <trkpt lat="48.2731" lon="2.64894">
        <ele>54.93</ele>
        <time>2011-02-06T09:03:53Z</time>
      </trkpt>
      <trkpt lat="48.2731" lon="2.64888">
        <ele>54.93</ele>
        <time>2011-02-06T09:03:54Z</time>
      </trkpt>
      <trkpt lat="48.27307" lon="2.64797">
        <ele>54.45</ele>
        <time>2011-02-06T09:04:06Z</time>
      </trkpt>
      <trkpt lat="48.27306" lon="2.64784">
        <ele>54.45</ele>
        <time>2011-02-06T09:04:08Z</time>
      </trkpt>
      <trkpt lat="48.27304" lon="2.64738">
        <ele>54.45</ele>
        <time>2011-02-06T09:04:15Z</time>
      </trkpt>
      <trkpt lat="48.27304" lon="2.64731">
        <ele>54.93</ele>
        <time>2011-02-06T09:04:16Z</time>
      </trkpt>
      <trkpt lat="48.27303" lon="2.64724">
        <ele>54.93</ele>
        <time>2011-02-06T09:04:17Z</time>
      </trkpt>
      <trkpt lat="48.27302" lon="2.64688">
        <ele>54.93</ele>
        <time>2011-02-06T09:04:22Z</time>
      </trkpt>
      <trkpt lat="48.27301" lon="2.64681">
        <ele>54.45</ele>
        <time>2011-02-06T09:04:23Z</time>
      </trkpt>
      <trkpt lat="48.27295" lon="2.6463">
        <ele>54.93</ele>
        <time>2011-02-06T09:04:30Z</time>
      </trkpt>
      <trkpt lat="48.27295" lon="2.64616">
        <ele>54.93</ele>
        <time>2011-02-06T09:04:32Z</time>
      </trkpt>
      <trkpt lat="48.27293" lon="2.64563">
        <ele>54.93</ele>
        <time>2011-02-06T09:04:40Z</time>
      </trkpt>
      <trkpt lat="48.27292" lon="2.64536">
        <ele>54.93</ele>
        <time>2011-02-06T09:04:44Z</time>
      </trkpt>
      <trkpt lat="48.2729" lon="2.64503">
        <ele>54.93</ele>
        <time>2011-02-06T09:04:49Z</time>
      </trkpt>
      <trkpt lat="48.27289" lon="2.64496">
        <ele>54.45</ele>
        <time>2011-02-06T09:04:50Z</time>
      </trkpt>
      <trkpt lat="48.27289" lon="2.6449">
        <ele>54.93</ele>
        <time>2011-02-06T09:04:51Z</time>
      </trkpt>
      <trkpt lat="48.27288" lon="2.64464">
        <ele>54.93</ele>
        <time>2011-02-06T09:04:55Z</time>
      </trkpt>
      <trkpt lat="48.27286" lon="2.64451">
        <ele>54.93</ele>
        <time>2011-02-06T09:04:57Z</time>
      </trkpt>
      <trkpt lat="48.27284" lon="2.64355">
        <ele>54.93</ele>
        <time>2011-02-06T09:05:11Z</time>
      </trkpt>
      <trkpt lat="48.27284" lon="2.64321">
        <ele>54.93</ele>
        <time>2011-02-06T09:05:16Z</time>
      </trkpt>
      <trkpt lat="48.27287" lon="2.64288">
        <ele>54.45</ele>
        <time>2011-02-06T09:05:21Z</time>
      </trkpt>
      <trkpt lat="48.27293" lon="2.64255">
        <ele>53.97</ele>
        <time>2011-02-06T09:05:26Z</time>
      </trkpt>
      <trkpt lat="48.27293" lon="2.64247">
        <ele>54.93</ele>
        <time>2011-02-06T09:05:27Z</time>
      </trkpt>
      <trkpt lat="48.27295" lon="2.64212">
        <ele>54.45</ele>
        <time>2011-02-06T09:05:32Z</time>
      </trkpt>
      <trkpt lat="48.27296" lon="2.64197">
        <ele>54.45</ele>
        <time>2011-02-06T09:05:34Z</time>
      </trkpt>
      <trkpt lat="48.27296" lon="2.64184">
        <ele>54.93</ele>
        <time>2011-02-06T09:05:36Z</time>
      </trkpt>
      <trkpt lat="48.27294" lon="2.64157">
        <ele>54.93</ele>
        <time>2011-02-06T09:05:40Z</time>
      </trkpt>
      <trkpt lat="48.27298" lon="2.6413">
        <ele>54.93</ele>
        <time>2011-02-06T09:05:44Z</time>
      </trkpt>
      <trkpt lat="48.273" lon="2.64109">
        <ele>54.45</ele>
        <time>2011-02-06T09:05:47Z</time>
      </trkpt>
      <trkpt lat="48.27304" lon="2.64082">
        <ele>54.45</ele>
        <time>2011-02-06T09:05:51Z</time>
      </trkpt>
      <trkpt lat="48.27304" lon="2.64076">
        <ele>54.45</ele>
        <time>2011-02-06T09:05:52Z</time>
      </trkpt>
      <trkpt lat="48.27306" lon="2.64069">
        <ele>54.45</ele>
        <time>2011-02-06T09:05:53Z</time>
      </trkpt>
      <trkpt lat="48.27307" lon="2.64062">
        <ele>53.97</ele>
        <time>2011-02-06T09:05:54Z</time>
      </trkpt>
      <trkpt lat="48.27308" lon="2.64056">
        <ele>54.45</ele>
        <time>2011-02-06T09:05:55Z</time>
      </trkpt>
      <trkpt lat="48.2731" lon="2.6405">
        <ele>54.45</ele>
        <time>2011-02-06T09:05:56Z</time>
      </trkpt>
      <trkpt lat="48.27312" lon="2.64044">
        <ele>54.93</ele>
        <time>2011-02-06T09:05:57Z</time>
      </trkpt>
      <trkpt lat="48.27312" lon="2.64037">
        <ele>54.45</ele>
        <time>2011-02-06T09:05:58Z</time>
      </trkpt>
      <trkpt lat="48.27313" lon="2.6403">
        <ele>54.45</ele>
        <time>2011-02-06T09:05:59Z</time>
      </trkpt>
      <trkpt lat="48.27314" lon="2.64023">
        <ele>54.45</ele>
        <time>2011-02-06T09:06:00Z</time>
      </trkpt>
      <trkpt lat="48.27315" lon="2.64009">
        <ele>54.93</ele>
        <time>2011-02-06T09:06:02Z</time>
      </trkpt>
      <trkpt lat="48.27324" lon="2.63908">
        <ele>53.97</ele>
        <time>2011-02-06T09:06:16Z</time>
      </trkpt>
      <trkpt lat="48.27331" lon="2.63885">
        <ele>54.45</ele>
        <time>2011-02-06T09:06:20Z</time>
      </trkpt>
      <trkpt lat="48.27332" lon="2.63879">
        <ele>54.45</ele>
        <time>2011-02-06T09:06:21Z</time>
      </trkpt>
      <trkpt lat="48.27335" lon="2.63861">
        <ele>54.45</ele>
        <time>2011-02-06T09:06:24Z</time>
      </trkpt>
      <trkpt lat="48.27339" lon="2.63827">
        <ele>54.93</ele>
        <time>2011-02-06T09:06:29Z</time>
      </trkpt>
      <trkpt lat="48.27342" lon="2.63822">
        <ele>54.45</ele>
        <time>2011-02-06T09:06:30Z</time>
      </trkpt>
      <trkpt lat="48.27345" lon="2.6382">
        <ele>54.93</ele>
        <time>2011-02-06T09:06:31Z</time>
      </trkpt>
      <trkpt lat="48.27348" lon="2.63818">
        <ele>55.41</ele>
        <time>2011-02-06T09:06:32Z</time>
      </trkpt>
      <trkpt lat="48.27352" lon="2.63818">
        <ele>54.93</ele>
        <time>2011-02-06T09:06:33Z</time>
      </trkpt>
      <trkpt lat="48.27356" lon="2.63818">
        <ele>54.93</ele>
        <time>2011-02-06T09:06:34Z</time>
      </trkpt>
      <trkpt lat="48.27361" lon="2.63819">
        <ele>54.93</ele>
        <time>2011-02-06T09:06:35Z</time>
      </trkpt>
      <trkpt lat="48.27365" lon="2.63819">
        <ele>54.93</ele>
        <time>2011-02-06T09:06:36Z</time>
      </trkpt>
      <trkpt lat="48.27369" lon="2.6382">
        <ele>54.93</ele>
        <time>2011-02-06T09:06:37Z</time>
      </trkpt>
      <trkpt lat="48.27373" lon="2.63821">
        <ele>54.93</ele>
        <time>2011-02-06T09:06:38Z</time>
      </trkpt>
      <trkpt lat="48.27416" lon="2.63833">
        <ele>55.41</ele>
        <time>2011-02-06T09:06:48Z</time>
      </trkpt>
      <trkpt lat="48.27481" lon="2.63853">
        <ele>54.93</ele>
        <time>2011-02-06T09:07:03Z</time>
      </trkpt>
      <trkpt lat="48.27499" lon="2.63859">
        <ele>54.93</ele>
        <time>2011-02-06T09:07:07Z</time>
      </trkpt>
      <trkpt lat="48.27521" lon="2.63873">
        <ele>54.93</ele>
        <time>2011-02-06T09:07:12Z</time>
      </trkpt>
      <trkpt lat="48.27539" lon="2.63887">
        <ele>54.93</ele>
        <time>2011-02-06T09:07:16Z</time>
      </trkpt>
      <trkpt lat="48.27543" lon="2.63889">
        <ele>54.93</ele>
        <time>2011-02-06T09:07:17Z</time>
      </trkpt>
      <trkpt lat="48.27548" lon="2.63891">
        <ele>54.93</ele>
        <time>2011-02-06T09:07:18Z</time>
      </trkpt>
      <trkpt lat="48.27599" lon="2.63906">
        <ele>54.93</ele>
        <time>2011-02-06T09:07:30Z</time>
      </trkpt>
      <trkpt lat="48.27603" lon="2.63907">
        <ele>54.93</ele>
        <time>2011-02-06T09:07:31Z</time>
      </trkpt>
      <trkpt lat="48.27612" lon="2.63909">
        <ele>54.93</ele>
        <time>2011-02-06T09:07:33Z</time>
      </trkpt>
      <trkpt lat="48.27616" lon="2.63912">
        <ele>54.93</ele>
        <time>2011-02-06T09:07:34Z</time>
      </trkpt>
      <trkpt lat="48.2762" lon="2.63915">
        <ele>54.93</ele>
        <time>2011-02-06T09:07:35Z</time>
      </trkpt>
      <trkpt lat="48.27624" lon="2.63916">
        <ele>54.93</ele>
        <time>2011-02-06T09:07:36Z</time>
      </trkpt>
      <trkpt lat="48.27628" lon="2.63918">
        <ele>54.93</ele>
        <time>2011-02-06T09:07:37Z</time>
      </trkpt>
      <trkpt lat="48.27636" lon="2.63921">
        <ele>54.93</ele>
        <time>2011-02-06T09:07:39Z</time>
      </trkpt>
      <trkpt lat="48.27666" lon="2.63929">
        <ele>54.93</ele>
        <time>2011-02-06T09:07:46Z</time>
      </trkpt>
      <trkpt lat="48.2767" lon="2.6393">
        <ele>54.45</ele>
        <time>2011-02-06T09:07:47Z</time>
      </trkpt>
      <trkpt lat="48.27679" lon="2.63932">
        <ele>54.45</ele>
        <time>2011-02-06T09:07:49Z</time>
      </trkpt>
      <trkpt lat="48.27683" lon="2.63933">
        <ele>54.45</ele>
        <time>2011-02-06T09:07:50Z</time>
      </trkpt>
      <trkpt lat="48.27723" lon="2.6395">
        <ele>53.97</ele>
        <time>2011-02-06T09:08:01Z</time>
      </trkpt>
      <trkpt lat="48.27726" lon="2.63949">
        <ele>53.97</ele>
        <time>2011-02-06T09:08:02Z</time>
      </trkpt>
      <trkpt lat="48.2773" lon="2.63949">
        <ele>53.97</ele>
        <time>2011-02-06T09:08:03Z</time>
      </trkpt>
      <trkpt lat="48.27765" lon="2.63959">
        <ele>53.97</ele>
        <time>2011-02-06T09:08:14Z</time>
      </trkpt>
      <trkpt lat="48.27812" lon="2.6397">
        <ele>53.97</ele>
        <time>2011-02-06T09:08:27Z</time>
      </trkpt>
      <trkpt lat="48.2785" lon="2.63977">
        <ele>53.49</ele>
        <time>2011-02-06T09:08:36Z</time>
      </trkpt>
      <trkpt lat="48.27882" lon="2.63978">
        <ele>53.49</ele>
        <time>2011-02-06T09:08:44Z</time>
      </trkpt>
      <trkpt lat="48.27907" lon="2.63926">
        <ele>53.01</ele>
        <time>2011-02-06T09:08:55Z</time>
      </trkpt>
      <trkpt lat="48.27912" lon="2.63918">
        <ele>53.01</ele>
        <time>2011-02-06T09:08:56Z</time>
      </trkpt>
      <trkpt lat="48.2792" lon="2.63901">
        <ele>53.01</ele>
        <time>2011-02-06T09:08:59Z</time>
      </trkpt>
      <trkpt lat="48.27938" lon="2.63871">
        <ele>53.97</ele>
        <time>2011-02-06T09:09:04Z</time>
      </trkpt>
      <trkpt lat="48.27942" lon="2.63865">
        <ele>53.49</ele>
        <time>2011-02-06T09:09:05Z</time>
      </trkpt>
      <trkpt lat="48.27944" lon="2.63859">
        <ele>53.97</ele>
        <time>2011-02-06T09:09:06Z</time>
      </trkpt>
      <trkpt lat="48.27946" lon="2.63853">
        <ele>54.45</ele>
        <time>2011-02-06T09:09:07Z</time>
      </trkpt>
      <trkpt lat="48.27949" lon="2.63847">
        <ele>53.97</ele>
        <time>2011-02-06T09:09:08Z</time>
      </trkpt>
      <trkpt lat="48.2795" lon="2.63842">
        <ele>53.97</ele>
        <time>2011-02-06T09:09:09Z</time>
      </trkpt>
      <trkpt lat="48.27951" lon="2.63838">
        <ele>53.49</ele>
        <time>2011-02-06T09:09:10Z</time>
      </trkpt>
      <trkpt lat="48.27953" lon="2.63836">
        <ele>53.97</ele>
        <time>2011-02-06T09:09:11Z</time>
      </trkpt>
      <trkpt lat="48.27955" lon="2.63835">
        <ele>53.97</ele>
        <time>2011-02-06T09:09:12Z</time>
      </trkpt>
      <trkpt lat="48.27958" lon="2.63835">
        <ele>54.45</ele>
        <time>2011-02-06T09:09:13Z</time>
      </trkpt>
      <trkpt lat="48.2796" lon="2.63835">
        <ele>53.97</ele>
        <time>2011-02-06T09:09:14Z</time>
      </trkpt>
      <trkpt lat="48.27962" lon="2.63836">
        <ele>53.97</ele>
        <time>2011-02-06T09:09:15Z</time>
      </trkpt>
      <trkpt lat="48.27965" lon="2.63838">
        <ele>53.97</ele>
        <time>2011-02-06T09:09:17Z</time>
      </trkpt>
      <trkpt lat="48.27966" lon="2.6384">
        <ele>53.97</ele>
        <time>2011-02-06T09:09:18Z</time>
      </trkpt>
      <trkpt lat="48.27968" lon="2.63843">
        <ele>53.97</ele>
        <time>2011-02-06T09:09:19Z</time>
      </trkpt>
      <trkpt lat="48.27969" lon="2.63847">
        <ele>53.97</ele>
        <time>2011-02-06T09:09:20Z</time>
      </trkpt>
      <trkpt lat="48.27972" lon="2.63851">
        <ele>53.97</ele>
        <time>2011-02-06T09:09:21Z</time>
      </trkpt>
      <trkpt lat="48.27974" lon="2.63855">
        <ele>53.49</ele>
        <time>2011-02-06T09:09:22Z</time>
      </trkpt>
      <trkpt lat="48.27977" lon="2.6386">
        <ele>53.97</ele>
        <time>2011-02-06T09:09:23Z</time>
      </trkpt>
      <trkpt lat="48.27996" lon="2.63893">
        <ele>53.97</ele>
        <time>2011-02-06T09:09:31Z</time>
      </trkpt>
      <trkpt lat="48.27998" lon="2.63898">
        <ele>53.97</ele>
        <time>2011-02-06T09:09:32Z</time>
      </trkpt>
      <trkpt lat="48.28" lon="2.63903">
        <ele>53.49</ele>
        <time>2011-02-06T09:09:33Z</time>
      </trkpt>
      <trkpt lat="48.28022" lon="2.63951">
        <ele>53.97</ele>
        <time>2011-02-06T09:09:44Z</time>
      </trkpt>
      <trkpt lat="48.28044" lon="2.63985">
        <ele>53.49</ele>
        <time>2011-02-06T09:09:55Z</time>
      </trkpt>
      <trkpt lat="48.28065" lon="2.64008">
        <ele>53.97</ele>
        <time>2011-02-06T09:10:04Z</time>
      </trkpt>
      <trkpt lat="48.28067" lon="2.64011">
        <ele>53.97</ele>
        <time>2011-02-06T09:10:05Z</time>
      </trkpt>
      <trkpt lat="48.28099" lon="2.64044">
        <ele>54.93</ele>
        <time>2011-02-06T09:10:17Z</time>
      </trkpt>
      <trkpt lat="48.28132" lon="2.64071">
        <ele>55.89</ele>
        <time>2011-02-06T09:10:27Z</time>
      </trkpt>
      <trkpt lat="48.28168" lon="2.641">
        <ele>55.41</ele>
        <time>2011-02-06T09:10:37Z</time>
      </trkpt>
      <trkpt lat="48.28203" lon="2.64128">
        <ele>55.41</ele>
        <time>2011-02-06T09:10:47Z</time>
      </trkpt>
      <trkpt lat="48.28233" lon="2.64154">
        <ele>55.89</ele>
        <time>2011-02-06T09:10:58Z</time>
      </trkpt>
      <trkpt lat="48.2826" lon="2.64175">
        <ele>56.37</ele>
        <time>2011-02-06T09:11:06Z</time>
      </trkpt>
      <trkpt lat="48.28298" lon="2.64204">
        <ele>56.86</ele>
        <time>2011-02-06T09:11:17Z</time>
      </trkpt>
      <trkpt lat="48.28333" lon="2.64233">
        <ele>56.86</ele>
        <time>2011-02-06T09:11:28Z</time>
      </trkpt>
      <trkpt lat="48.28367" lon="2.64268">
        <ele>56.86</ele>
        <time>2011-02-06T09:11:39Z</time>
      </trkpt>
      <trkpt lat="48.28386" lon="2.64287">
        <ele>57.82</ele>
        <time>2011-02-06T09:11:46Z</time>
      </trkpt>
      <trkpt lat="48.28389" lon="2.64286">
        <ele>57.82</ele>
        <time>2011-02-06T09:11:58Z</time>
      </trkpt>
      <trkpt lat="48.28389" lon="2.64285">
        <ele>56.86</ele>
        <time>2011-02-06T09:12:10Z</time>
      </trkpt>
      <trkpt lat="48.28391" lon="2.64284">
        <ele>56.86</ele>
        <time>2011-02-06T09:12:11Z</time>
      </trkpt>
      <trkpt lat="48.28393" lon="2.64283">
        <ele>57.34</ele>
        <time>2011-02-06T09:12:13Z</time>
      </trkpt>
      <trkpt lat="48.28422" lon="2.64273">
        <ele>56.86</ele>
        <time>2011-02-06T09:12:23Z</time>
      </trkpt>
      <trkpt lat="48.28455" lon="2.64262">
        <ele>57.34</ele>
        <time>2011-02-06T09:12:33Z</time>
      </trkpt>
      <trkpt lat="48.285" lon="2.64245">
        <ele>57.34</ele>
        <time>2011-02-06T09:12:44Z</time>
      </trkpt>
      <trkpt lat="48.28543" lon="2.6423">
        <ele>57.34</ele>
        <time>2011-02-06T09:12:55Z</time>
      </trkpt>
      <trkpt lat="48.28595" lon="2.64214">
        <ele>56.86</ele>
        <time>2011-02-06T09:13:08Z</time>
      </trkpt>
      <trkpt lat="48.28638" lon="2.64203">
        <ele>56.37</ele>
        <time>2011-02-06T09:13:19Z</time>
      </trkpt>
      <trkpt lat="48.28662" lon="2.64189">
        <ele>55.89</ele>
        <time>2011-02-06T09:13:25Z</time>
      </trkpt>
      <trkpt lat="48.28666" lon="2.64186">
        <ele>56.37</ele>
        <time>2011-02-06T09:13:26Z</time>
      </trkpt>
      <trkpt lat="48.28669" lon="2.64183">
        <ele>56.37</ele>
        <time>2011-02-06T09:13:27Z</time>
      </trkpt>
      <trkpt lat="48.28672" lon="2.6418">
        <ele>56.37</ele>
        <time>2011-02-06T09:13:28Z</time>
      </trkpt>
      <trkpt lat="48.28676" lon="2.64177">
        <ele>56.37</ele>
        <time>2011-02-06T09:13:29Z</time>
      </trkpt>
      <trkpt lat="48.2868" lon="2.64174">
        <ele>56.37</ele>
        <time>2011-02-06T09:13:30Z</time>
      </trkpt>
      <trkpt lat="48.28684" lon="2.64171">
        <ele>56.37</ele>
        <time>2011-02-06T09:13:31Z</time>
      </trkpt>
      <trkpt lat="48.28688" lon="2.64167">
        <ele>56.37</ele>
        <time>2011-02-06T09:13:32Z</time>
      </trkpt>
      <trkpt lat="48.28692" lon="2.64164">
        <ele>56.37</ele>
        <time>2011-02-06T09:13:33Z</time>
      </trkpt>
      <trkpt lat="48.28695" lon="2.6416">
        <ele>56.37</ele>
        <time>2011-02-06T09:13:34Z</time>
      </trkpt>
      <trkpt lat="48.28697" lon="2.64156">
        <ele>56.37</ele>
        <time>2011-02-06T09:13:35Z</time>
      </trkpt>
      <trkpt lat="48.2873" lon="2.64117">
        <ele>55.89</ele>
        <time>2011-02-06T09:13:45Z</time>
      </trkpt>
      <trkpt lat="48.28737" lon="2.64107">
        <ele>55.41</ele>
        <time>2011-02-06T09:13:47Z</time>
      </trkpt>
      <trkpt lat="48.28754" lon="2.64085">
        <ele>55.89</ele>
        <time>2011-02-06T09:13:52Z</time>
      </trkpt>
      <trkpt lat="48.28784" lon="2.64046">
        <ele>55.41</ele>
        <time>2011-02-06T09:14:02Z</time>
      </trkpt>
      <trkpt lat="48.28815" lon="2.64016">
        <ele>55.41</ele>
        <time>2011-02-06T09:14:13Z</time>
      </trkpt>
      <trkpt lat="48.28833" lon="2.63991">
        <ele>55.41</ele>
        <time>2011-02-06T09:14:19Z</time>
      </trkpt>
      <trkpt lat="48.28836" lon="2.63988">
        <ele>55.41</ele>
        <time>2011-02-06T09:14:20Z</time>
      </trkpt>
      <trkpt lat="48.28839" lon="2.63984">
        <ele>55.41</ele>
        <time>2011-02-06T09:14:21Z</time>
      </trkpt>
      <trkpt lat="48.2888" lon="2.63933">
        <ele>56.86</ele>
        <time>2011-02-06T09:14:34Z</time>
      </trkpt>
      <trkpt lat="48.28896" lon="2.6392">
        <ele>56.86</ele>
        <time>2011-02-06T09:14:39Z</time>
      </trkpt>
      <trkpt lat="48.28898" lon="2.63922">
        <ele>56.86</ele>
        <time>2011-02-06T09:14:40Z</time>
      </trkpt>
      <trkpt lat="48.28899" lon="2.63925">
        <ele>56.86</ele>
        <time>2011-02-06T09:14:41Z</time>
      </trkpt>
      <trkpt lat="48.28901" lon="2.63929">
        <ele>57.34</ele>
        <time>2011-02-06T09:14:42Z</time>
      </trkpt>
      <trkpt lat="48.28902" lon="2.63932">
        <ele>57.34</ele>
        <time>2011-02-06T09:14:43Z</time>
      </trkpt>
      <trkpt lat="48.28902" lon="2.63935">
        <ele>57.34</ele>
        <time>2011-02-06T09:14:44Z</time>
      </trkpt>
      <trkpt lat="48.28902" lon="2.6394">
        <ele>56.86</ele>
        <time>2011-02-06T09:14:45Z</time>
      </trkpt>
      <trkpt lat="48.28903" lon="2.63944">
        <ele>56.86</ele>
        <time>2011-02-06T09:14:46Z</time>
      </trkpt>
      <trkpt lat="48.28905" lon="2.64008">
        <ele>57.34</ele>
        <time>2011-02-06T09:14:58Z</time>
      </trkpt>
      <trkpt lat="48.28912" lon="2.6405">
        <ele>57.82</ele>
        <time>2011-02-06T09:15:06Z</time>
      </trkpt>
      <trkpt lat="48.28914" lon="2.64103">
        <ele>57.82</ele>
        <time>2011-02-06T09:15:16Z</time>
      </trkpt>
      <trkpt lat="48.28917" lon="2.64161">
        <ele>56.86</ele>
        <time>2011-02-06T09:15:26Z</time>
      </trkpt>
      <trkpt lat="48.28926" lon="2.64209">
        <ele>57.34</ele>
        <time>2011-02-06T09:15:36Z</time>
      </trkpt>
      <trkpt lat="48.28928" lon="2.64261">
        <ele>57.82</ele>
        <time>2011-02-06T09:15:45Z</time>
      </trkpt>
      <trkpt lat="48.2893" lon="2.64273">
        <ele>57.82</ele>
        <time>2011-02-06T09:15:47Z</time>
      </trkpt>
      <trkpt lat="48.28932" lon="2.64275">
        <ele>57.82</ele>
        <time>2011-02-06T09:15:48Z</time>
      </trkpt>
      <trkpt lat="48.28935" lon="2.64276">
        <ele>57.34</ele>
        <time>2011-02-06T09:15:49Z</time>
      </trkpt>
      <trkpt lat="48.28937" lon="2.64277">
        <ele>57.82</ele>
        <time>2011-02-06T09:15:50Z</time>
      </trkpt>
      <trkpt lat="48.28939" lon="2.64277">
        <ele>57.82</ele>
        <time>2011-02-06T09:15:51Z</time>
      </trkpt>
      <trkpt lat="48.28969" lon="2.64271">
        <ele>57.82</ele>
        <time>2011-02-06T09:16:00Z</time>
      </trkpt>
      <trkpt lat="48.28973" lon="2.6427">
        <ele>57.34</ele>
        <time>2011-02-06T09:16:01Z</time>
      </trkpt>
      <trkpt lat="48.29014" lon="2.64258">
        <ele>57.82</ele>
        <time>2011-02-06T09:16:12Z</time>
      </trkpt>
      <trkpt lat="48.29057" lon="2.64244">
        <ele>57.82</ele>
        <time>2011-02-06T09:16:23Z</time>
      </trkpt>
      <trkpt lat="48.2909" lon="2.64235">
        <ele>59.74</ele>
        <time>2011-02-06T09:16:32Z</time>
      </trkpt>
      <trkpt lat="48.29112" lon="2.64231">
        <ele>58.78</ele>
        <time>2011-02-06T09:16:40Z</time>
      </trkpt>
      <trkpt lat="48.29116" lon="2.64234">
        <ele>58.3</ele>
        <time>2011-02-06T09:16:41Z</time>
      </trkpt>
      <trkpt lat="48.29119" lon="2.64237">
        <ele>58.78</ele>
        <time>2011-02-06T09:16:42Z</time>
      </trkpt>
      <trkpt lat="48.29123" lon="2.64241">
        <ele>58.3</ele>
        <time>2011-02-06T09:16:43Z</time>
      </trkpt>
      <trkpt lat="48.29126" lon="2.64245">
        <ele>58.3</ele>
        <time>2011-02-06T09:16:44Z</time>
      </trkpt>
      <trkpt lat="48.29154" lon="2.6429">
        <ele>58.78</ele>
        <time>2011-02-06T09:16:55Z</time>
      </trkpt>
      <trkpt lat="48.29187" lon="2.64338">
        <ele>58.3</ele>
        <time>2011-02-06T09:17:07Z</time>
      </trkpt>
      <trkpt lat="48.29196" lon="2.64351">
        <ele>58.78</ele>
        <time>2011-02-06T09:17:10Z</time>
      </trkpt>
      <trkpt lat="48.29199" lon="2.64355">
        <ele>58.78</ele>
        <time>2011-02-06T09:17:11Z</time>
      </trkpt>
      <trkpt lat="48.29201" lon="2.6436">
        <ele>58.78</ele>
        <time>2011-02-06T09:17:12Z</time>
      </trkpt>
      <trkpt lat="48.29204" lon="2.64364">
        <ele>58.3</ele>
        <time>2011-02-06T09:17:13Z</time>
      </trkpt>
      <trkpt lat="48.29207" lon="2.64369">
        <ele>58.78</ele>
        <time>2011-02-06T09:17:14Z</time>
      </trkpt>
      <trkpt lat="48.2924" lon="2.64414">
        <ele>58.78</ele>
        <time>2011-02-06T09:17:24Z</time>
      </trkpt>
      <trkpt lat="48.29275" lon="2.64461">
        <ele>57.82</ele>
        <time>2011-02-06T09:17:34Z</time>
      </trkpt>
      <trkpt lat="48.29314" lon="2.64522">
        <ele>57.34</ele>
        <time>2011-02-06T09:17:46Z</time>
      </trkpt>
      <trkpt lat="48.29318" lon="2.64527">
        <ele>57.34</ele>
        <time>2011-02-06T09:17:47Z</time>
      </trkpt>
      <trkpt lat="48.29362" lon="2.64592">
        <ele>57.34</ele>
        <time>2011-02-06T09:18:01Z</time>
      </trkpt>
      <trkpt lat="48.29374" lon="2.64612">
        <ele>57.82</ele>
        <time>2011-02-06T09:18:06Z</time>
      </trkpt>
      <trkpt lat="48.29374" lon="2.64617">
        <ele>57.82</ele>
        <time>2011-02-06T09:18:07Z</time>
      </trkpt>
      <trkpt lat="48.29373" lon="2.64621">
        <ele>57.82</ele>
        <time>2011-02-06T09:18:08Z</time>
      </trkpt>
      <trkpt lat="48.29372" lon="2.64624">
        <ele>58.3</ele>
        <time>2011-02-06T09:18:09Z</time>
      </trkpt>
      <trkpt lat="48.29369" lon="2.64626">
        <ele>57.82</ele>
        <time>2011-02-06T09:18:10Z</time>
      </trkpt>
      <trkpt lat="48.29367" lon="2.64629">
        <ele>57.82</ele>
        <time>2011-02-06T09:18:11Z</time>
      </trkpt>
      <trkpt lat="48.29364" lon="2.64632">
        <ele>58.3</ele>
        <time>2011-02-06T09:18:12Z</time>
      </trkpt>
      <trkpt lat="48.2933" lon="2.64687">
        <ele>58.3</ele>
        <time>2011-02-06T09:18:25Z</time>
      </trkpt>
      <trkpt lat="48.29301" lon="2.64731">
        <ele>58.3</ele>
        <time>2011-02-06T09:18:35Z</time>
      </trkpt>
      <trkpt lat="48.29294" lon="2.64744">
        <ele>58.3</ele>
        <time>2011-02-06T09:18:38Z</time>
      </trkpt>
      <trkpt lat="48.29294" lon="2.64748">
        <ele>59.26</ele>
        <time>2011-02-06T09:18:39Z</time>
      </trkpt>
      <trkpt lat="48.29296" lon="2.64751">
        <ele>58.78</ele>
        <time>2011-02-06T09:18:40Z</time>
      </trkpt>
      <trkpt lat="48.29297" lon="2.64753">
        <ele>58.78</ele>
        <time>2011-02-06T09:18:41Z</time>
      </trkpt>
      <trkpt lat="48.29299" lon="2.64755">
        <ele>58.78</ele>
        <time>2011-02-06T09:18:42Z</time>
      </trkpt>
      <trkpt lat="48.29302" lon="2.64757">
        <ele>58.3</ele>
        <time>2011-02-06T09:18:43Z</time>
      </trkpt>
      <trkpt lat="48.29304" lon="2.64758">
        <ele>58.3</ele>
        <time>2011-02-06T09:18:44Z</time>
      </trkpt>
      <trkpt lat="48.2933" lon="2.64777">
        <ele>58.3</ele>
        <time>2011-02-06T09:18:53Z</time>
      </trkpt>
      <trkpt lat="48.29339" lon="2.64787">
        <ele>58.78</ele>
        <time>2011-02-06T09:18:57Z</time>
      </trkpt>
      <trkpt lat="48.29348" lon="2.6479">
        <ele>58.78</ele>
        <time>2011-02-06T09:19:02Z</time>
      </trkpt>
      <trkpt lat="48.29376" lon="2.64822">
        <ele>58.78</ele>
        <time>2011-02-06T09:19:12Z</time>
      </trkpt>
      <trkpt lat="48.29393" lon="2.64829">
        <ele>58.3</ele>
        <time>2011-02-06T09:19:19Z</time>
      </trkpt>
      <trkpt lat="48.29406" lon="2.6485">
        <ele>58.78</ele>
        <time>2011-02-06T09:19:25Z</time>
      </trkpt>
      <trkpt lat="48.2942" lon="2.64869">
        <ele>58.3</ele>
        <time>2011-02-06T09:19:31Z</time>
      </trkpt>
      <trkpt lat="48.29428" lon="2.64891">
        <ele>60.22</ele>
        <time>2011-02-06T09:19:37Z</time>
      </trkpt>
      <trkpt lat="48.29436" lon="2.64916">
        <ele>60.22</ele>
        <time>2011-02-06T09:19:45Z</time>
      </trkpt>
      <trkpt lat="48.29437" lon="2.6493">
        <ele>59.74</ele>
        <time>2011-02-06T09:19:48Z</time>
      </trkpt>
      <trkpt lat="48.29445" lon="2.6495">
        <ele>59.74</ele>
        <time>2011-02-06T09:19:52Z</time>
      </trkpt>
      <trkpt lat="48.29451" lon="2.64959">
        <ele>59.26</ele>
        <time>2011-02-06T09:19:55Z</time>
      </trkpt>
      <trkpt lat="48.29462" lon="2.64964">
        <ele>59.74</ele>
        <time>2011-02-06T09:20:00Z</time>
      </trkpt>
      <trkpt lat="48.29474" lon="2.64972">
        <ele>58.3</ele>
        <time>2011-02-06T09:20:04Z</time>
      </trkpt>
      <trkpt lat="48.29502" lon="2.64975">
        <ele>60.22</ele>
        <time>2011-02-06T09:20:14Z</time>
      </trkpt>
      <trkpt lat="48.29513" lon="2.64979">
        <ele>58.78</ele>
        <time>2011-02-06T09:20:18Z</time>
      </trkpt>
      <trkpt lat="48.2953" lon="2.64991">
        <ele>58.78</ele>
        <time>2011-02-06T09:20:26Z</time>
      </trkpt>
      <trkpt lat="48.29558" lon="2.65015">
        <ele>58.78</ele>
        <time>2011-02-06T09:20:36Z</time>
      </trkpt>
      <trkpt lat="48.29588" lon="2.65051">
        <ele>58.78</ele>
        <time>2011-02-06T09:20:48Z</time>
      </trkpt>
      <trkpt lat="48.29591" lon="2.65077">
        <ele>58.3</ele>
        <time>2011-02-06T09:20:54Z</time>
      </trkpt>
      <trkpt lat="48.29597" lon="2.65097">
        <ele>57.82</ele>
        <time>2011-02-06T09:20:58Z</time>
      </trkpt>
      <trkpt lat="48.29593" lon="2.65116">
        <ele>57.82</ele>
        <time>2011-02-06T09:21:02Z</time>
      </trkpt>
      <trkpt lat="48.29572" lon="2.65156">
        <ele>58.3</ele>
        <time>2011-02-06T09:21:13Z</time>
      </trkpt>
      <trkpt lat="48.2955" lon="2.65193">
        <ele>58.3</ele>
        <time>2011-02-06T09:21:23Z</time>
      </trkpt>
      <trkpt lat="48.29526" lon="2.65237">
        <ele>58.3</ele>
        <time>2011-02-06T09:21:34Z</time>
      </trkpt>
      <trkpt lat="48.29506" lon="2.65271">
        <ele>58.78</ele>
        <time>2011-02-06T09:21:43Z</time>
      </trkpt>
      <trkpt lat="48.29478" lon="2.65317">
        <ele>59.74</ele>
        <time>2011-02-06T09:21:54Z</time>
      </trkpt>
      <trkpt lat="48.29453" lon="2.65357">
        <ele>59.74</ele>
        <time>2011-02-06T09:22:05Z</time>
      </trkpt>
      <trkpt lat="48.29452" lon="2.65361">
        <ele>60.22</ele>
        <time>2011-02-06T09:22:06Z</time>
      </trkpt>
      <trkpt lat="48.29454" lon="2.65399">
        <ele>61.66</ele>
        <time>2011-02-06T09:22:17Z</time>
      </trkpt>
      <trkpt lat="48.29457" lon="2.65418">
        <ele>61.66</ele>
        <time>2011-02-06T09:22:22Z</time>
      </trkpt>
      <trkpt lat="48.29453" lon="2.65452">
        <ele>61.18</ele>
        <time>2011-02-06T09:22:31Z</time>
      </trkpt>
      <trkpt lat="48.29459" lon="2.6548">
        <ele>62.14</ele>
        <time>2011-02-06T09:22:39Z</time>
      </trkpt>
      <trkpt lat="48.29466" lon="2.65487">
        <ele>63.1</ele>
        <time>2011-02-06T09:22:45Z</time>
      </trkpt>
      <trkpt lat="48.29482" lon="2.65492">
        <ele>64.07</ele>
        <time>2011-02-06T09:22:55Z</time>
      </trkpt>
      <trkpt lat="48.29492" lon="2.65498">
        <ele>65.03</ele>
        <time>2011-02-06T09:23:01Z</time>
      </trkpt>
      <trkpt lat="48.29506" lon="2.65497">
        <ele>65.51</ele>
        <time>2011-02-06T09:23:09Z</time>
      </trkpt>
      <trkpt lat="48.29518" lon="2.65477">
        <ele>65.51</ele>
        <time>2011-02-06T09:23:17Z</time>
      </trkpt>
      <trkpt lat="48.29527" lon="2.65464">
        <ele>65.99</ele>
        <time>2011-02-06T09:23:23Z</time>
      </trkpt>
      <trkpt lat="48.29557" lon="2.65435">
        <ele>63.58</ele>
        <time>2011-02-06T09:23:33Z</time>
      </trkpt>
      <trkpt lat="48.29568" lon="2.65419">
        <ele>62.62</ele>
        <time>2011-02-06T09:23:37Z</time>
      </trkpt>
      <trkpt lat="48.29573" lon="2.65411">
        <ele>62.14</ele>
        <time>2011-02-06T09:23:39Z</time>
      </trkpt>
      <trkpt lat="48.29606" lon="2.65435">
        <ele>62.62</ele>
        <time>2011-02-06T09:23:48Z</time>
      </trkpt>
      <trkpt lat="48.29642" lon="2.65485">
        <ele>63.58</ele>
        <time>2011-02-06T09:24:01Z</time>
      </trkpt>
      <trkpt lat="48.29666" lon="2.65522">
        <ele>63.1</ele>
        <time>2011-02-06T09:24:11Z</time>
      </trkpt>
      <trkpt lat="48.29693" lon="2.6557">
        <ele>64.55</ele>
        <time>2011-02-06T09:24:23Z</time>
      </trkpt>
      <trkpt lat="48.29706" lon="2.65592">
        <ele>64.55</ele>
        <time>2011-02-06T09:24:29Z</time>
      </trkpt>
      <trkpt lat="48.29719" lon="2.65592">
        <ele>64.07</ele>
        <time>2011-02-06T09:24:35Z</time>
      </trkpt>
      <trkpt lat="48.2973" lon="2.65585">
        <ele>63.1</ele>
        <time>2011-02-06T09:24:39Z</time>
      </trkpt>
      <trkpt lat="48.29734" lon="2.65576">
        <ele>62.62</ele>
        <time>2011-02-06T09:24:41Z</time>
      </trkpt>
      <trkpt lat="48.2974" lon="2.65548">
        <ele>61.66</ele>
        <time>2011-02-06T09:24:48Z</time>
      </trkpt>
      <trkpt lat="48.29754" lon="2.65545">
        <ele>60.22</ele>
        <time>2011-02-06T09:24:55Z</time>
      </trkpt>
      <trkpt lat="48.29757" lon="2.65545">
        <ele>60.22</ele>
        <time>2011-02-06T09:24:56Z</time>
      </trkpt>
      <trkpt lat="48.29762" lon="2.65545">
        <ele>59.74</ele>
        <time>2011-02-06T09:24:58Z</time>
      </trkpt>
      <trkpt lat="48.29769" lon="2.65539">
        <ele>59.26</ele>
        <time>2011-02-06T09:25:00Z</time>
      </trkpt>
      <trkpt lat="48.2979" lon="2.6553">
        <ele>58.78</ele>
        <time>2011-02-06T09:25:07Z</time>
      </trkpt>
      <trkpt lat="48.29806" lon="2.65519">
        <ele>58.3</ele>
        <time>2011-02-06T09:25:12Z</time>
      </trkpt>
      <trkpt lat="48.29829" lon="2.65498">
        <ele>57.34</ele>
        <time>2011-02-06T09:25:21Z</time>
      </trkpt>
      <trkpt lat="48.29845" lon="2.65504">
        <ele>57.82</ele>
        <time>2011-02-06T09:25:28Z</time>
      </trkpt>
      <trkpt lat="48.29851" lon="2.6551">
        <ele>57.34</ele>
        <time>2011-02-06T09:25:31Z</time>
      </trkpt>
      <trkpt lat="48.29874" lon="2.65506">
        <ele>56.86</ele>
        <time>2011-02-06T09:25:39Z</time>
      </trkpt>
      <trkpt lat="48.29887" lon="2.65516">
        <ele>56.86</ele>
        <time>2011-02-06T09:25:44Z</time>
      </trkpt>
      <trkpt lat="48.29893" lon="2.65529">
        <ele>56.37</ele>
        <time>2011-02-06T09:25:48Z</time>
      </trkpt>
      <trkpt lat="48.29898" lon="2.65533">
        <ele>56.37</ele>
        <time>2011-02-06T09:25:51Z</time>
      </trkpt>
      <trkpt lat="48.29915" lon="2.65506">
        <ele>55.89</ele>
        <time>2011-02-06T09:25:59Z</time>
      </trkpt>
      <trkpt lat="48.29916" lon="2.65505">
        <ele>55.89</ele>
        <time>2011-02-06T09:26:00Z</time>
      </trkpt>
      <trkpt lat="48.29952" lon="2.65491">
        <ele>55.89</ele>
        <time>2011-02-06T09:26:10Z</time>
      </trkpt>
      <trkpt lat="48.29979" lon="2.65459">
        <ele>55.41</ele>
        <time>2011-02-06T09:26:18Z</time>
      </trkpt>
      <trkpt lat="48.30004" lon="2.65443">
        <ele>55.89</ele>
        <time>2011-02-06T09:26:24Z</time>
      </trkpt>
      <trkpt lat="48.30013" lon="2.65437">
        <ele>55.89</ele>
        <time>2011-02-06T09:26:27Z</time>
      </trkpt>
      <trkpt lat="48.30045" lon="2.65409">
        <ele>56.86</ele>
        <time>2011-02-06T09:26:37Z</time>
      </trkpt>
      <trkpt lat="48.30073" lon="2.65382">
        <ele>56.86</ele>
        <time>2011-02-06T09:26:47Z</time>
      </trkpt>
      <trkpt lat="48.30118" lon="2.65342">
        <ele>56.37</ele>
        <time>2011-02-06T09:26:59Z</time>
      </trkpt>
      <trkpt lat="48.30123" lon="2.65337">
        <ele>56.86</ele>
        <time>2011-02-06T09:27:01Z</time>
      </trkpt>
      <trkpt lat="48.30126" lon="2.65335">
        <ele>56.86</ele>
        <time>2011-02-06T09:27:02Z</time>
      </trkpt>
      <trkpt lat="48.30129" lon="2.65334">
        <ele>57.34</ele>
        <time>2011-02-06T09:27:03Z</time>
      </trkpt>
      <trkpt lat="48.30132" lon="2.65332">
        <ele>57.82</ele>
        <time>2011-02-06T09:27:04Z</time>
      </trkpt>
      <trkpt lat="48.30135" lon="2.65329">
        <ele>57.82</ele>
        <time>2011-02-06T09:27:05Z</time>
      </trkpt>
      <trkpt lat="48.30137" lon="2.65326">
        <ele>57.82</ele>
        <time>2011-02-06T09:27:06Z</time>
      </trkpt>
      <trkpt lat="48.30139" lon="2.65322">
        <ele>57.34</ele>
        <time>2011-02-06T09:27:07Z</time>
      </trkpt>
      <trkpt lat="48.30141" lon="2.65318">
        <ele>57.34</ele>
        <time>2011-02-06T09:27:08Z</time>
      </trkpt>
      <trkpt lat="48.3016" lon="2.65278">
        <ele>58.3</ele>
        <time>2011-02-06T09:27:18Z</time>
      </trkpt>
      <trkpt lat="48.30162" lon="2.65277">
        <ele>58.3</ele>
        <time>2011-02-06T09:27:19Z</time>
      </trkpt>
      <trkpt lat="48.30163" lon="2.65278">
        <ele>58.3</ele>
        <time>2011-02-06T09:27:20Z</time>
      </trkpt>
      <trkpt lat="48.30165" lon="2.65279">
        <ele>58.3</ele>
        <time>2011-02-06T09:27:21Z</time>
      </trkpt>
      <trkpt lat="48.30167" lon="2.65278">
        <ele>58.3</ele>
        <time>2011-02-06T09:27:22Z</time>
      </trkpt>
      <trkpt lat="48.30168" lon="2.65276">
        <ele>58.3</ele>
        <time>2011-02-06T09:27:23Z</time>
      </trkpt>
      <trkpt lat="48.30171" lon="2.65274">
        <ele>57.82</ele>
        <time>2011-02-06T09:27:24Z</time>
      </trkpt>
      <trkpt lat="48.30175" lon="2.65272">
        <ele>56.86</ele>
        <time>2011-02-06T09:27:25Z</time>
      </trkpt>
      <trkpt lat="48.3018" lon="2.65269">
        <ele>56.86</ele>
        <time>2011-02-06T09:27:26Z</time>
      </trkpt>
      <trkpt lat="48.30184" lon="2.65266">
        <ele>56.86</ele>
        <time>2011-02-06T09:27:27Z</time>
      </trkpt>
      <trkpt lat="48.30188" lon="2.65264">
        <ele>56.86</ele>
        <time>2011-02-06T09:27:28Z</time>
      </trkpt>
      <trkpt lat="48.30218" lon="2.65224">
        <ele>57.82</ele>
        <time>2011-02-06T09:27:39Z</time>
      </trkpt>
      <trkpt lat="48.30222" lon="2.65213">
        <ele>57.82</ele>
        <time>2011-02-06T09:27:42Z</time>
      </trkpt>
      <trkpt lat="48.3024" lon="2.65184">
        <ele>57.34</ele>
        <time>2011-02-06T09:27:48Z</time>
      </trkpt>
      <trkpt lat="48.30243" lon="2.65178">
        <ele>57.34</ele>
        <time>2011-02-06T09:27:49Z</time>
      </trkpt>
      <trkpt lat="48.30271" lon="2.65134">
        <ele>58.3</ele>
        <time>2011-02-06T09:27:59Z</time>
      </trkpt>
      <trkpt lat="48.30296" lon="2.65094">
        <ele>59.26</ele>
        <time>2011-02-06T09:28:09Z</time>
      </trkpt>
      <trkpt lat="48.30319" lon="2.65051">
        <ele>59.74</ele>
        <time>2011-02-06T09:28:19Z</time>
      </trkpt>
      <trkpt lat="48.3035" lon="2.65005">
        <ele>59.74</ele>
        <time>2011-02-06T09:28:30Z</time>
      </trkpt>
      <trkpt lat="48.30359" lon="2.64989">
        <ele>59.26</ele>
        <time>2011-02-06T09:28:33Z</time>
      </trkpt>
      <trkpt lat="48.30382" lon="2.64948">
        <ele>57.82</ele>
        <time>2011-02-06T09:28:41Z</time>
      </trkpt>
      <trkpt lat="48.30386" lon="2.64943">
        <ele>57.34</ele>
        <time>2011-02-06T09:28:42Z</time>
      </trkpt>
      <trkpt lat="48.3041" lon="2.64904">
        <ele>56.86</ele>
        <time>2011-02-06T09:28:49Z</time>
      </trkpt>
      <trkpt lat="48.30423" lon="2.64882">
        <ele>56.37</ele>
        <time>2011-02-06T09:28:54Z</time>
      </trkpt>
      <trkpt lat="48.3046" lon="2.64864">
        <ele>57.34</ele>
        <time>2011-02-06T09:29:04Z</time>
      </trkpt>
      <trkpt lat="48.30477" lon="2.64853">
        <ele>56.86</ele>
        <time>2011-02-06T09:29:08Z</time>
      </trkpt>
      <trkpt lat="48.30481" lon="2.6485">
        <ele>56.86</ele>
        <time>2011-02-06T09:29:09Z</time>
      </trkpt>
      <trkpt lat="48.30486" lon="2.64849">
        <ele>56.86</ele>
        <time>2011-02-06T09:29:10Z</time>
      </trkpt>
      <trkpt lat="48.30495" lon="2.64846">
        <ele>56.37</ele>
        <time>2011-02-06T09:29:12Z</time>
      </trkpt>
      <trkpt lat="48.30526" lon="2.64834">
        <ele>56.86</ele>
        <time>2011-02-06T09:29:21Z</time>
      </trkpt>
      <trkpt lat="48.3057" lon="2.64819">
        <ele>57.82</ele>
        <time>2011-02-06T09:29:31Z</time>
      </trkpt>
      <trkpt lat="48.30593" lon="2.64808">
        <ele>58.3</ele>
        <time>2011-02-06T09:29:37Z</time>
      </trkpt>
      <trkpt lat="48.30607" lon="2.64799">
        <ele>57.82</ele>
        <time>2011-02-06T09:29:40Z</time>
      </trkpt>
      <trkpt lat="48.3064" lon="2.64747">
        <ele>58.3</ele>
        <time>2011-02-06T09:29:51Z</time>
      </trkpt>
      <trkpt lat="48.30661" lon="2.64697">
        <ele>58.78</ele>
        <time>2011-02-06T09:30:01Z</time>
      </trkpt>
      <trkpt lat="48.30694" lon="2.64662">
        <ele>58.78</ele>
        <time>2011-02-06T09:30:11Z</time>
      </trkpt>
      <trkpt lat="48.30727" lon="2.64617">
        <ele>59.74</ele>
        <time>2011-02-06T09:30:23Z</time>
      </trkpt>
      <trkpt lat="48.30769" lon="2.64598">
        <ele>60.7</ele>
        <time>2011-02-06T09:30:35Z</time>
      </trkpt>
      <trkpt lat="48.308" lon="2.64598">
        <ele>61.18</ele>
        <time>2011-02-06T09:30:44Z</time>
      </trkpt>
      <trkpt lat="48.30803" lon="2.64596">
        <ele>61.18</ele>
        <time>2011-02-06T09:30:45Z</time>
      </trkpt>
      <trkpt lat="48.30838" lon="2.64582">
        <ele>61.66</ele>
        <time>2011-02-06T09:30:56Z</time>
      </trkpt>
      <trkpt lat="48.30872" lon="2.64567">
        <ele>62.62</ele>
        <time>2011-02-06T09:31:07Z</time>
      </trkpt>
      <trkpt lat="48.30904" lon="2.64555">
        <ele>63.58</ele>
        <time>2011-02-06T09:31:16Z</time>
      </trkpt>
      <trkpt lat="48.30934" lon="2.64545">
        <ele>64.55</ele>
        <time>2011-02-06T09:31:26Z</time>
      </trkpt>
      <trkpt lat="48.30974" lon="2.64533">
        <ele>65.99</ele>
        <time>2011-02-06T09:31:38Z</time>
      </trkpt>
      <trkpt lat="48.31018" lon="2.64522">
        <ele>65.03</ele>
        <time>2011-02-06T09:31:51Z</time>
      </trkpt>
      <trkpt lat="48.31046" lon="2.64514">
        <ele>66.47</ele>
        <time>2011-02-06T09:32:01Z</time>
      </trkpt>
      <trkpt lat="48.31047" lon="2.64513">
        <ele>66.95</ele>
        <time>2011-02-06T09:32:02Z</time>
      </trkpt>
      <trkpt lat="48.31049" lon="2.6451">
        <ele>66.95</ele>
        <time>2011-02-06T09:32:16Z</time>
      </trkpt>
      <trkpt lat="48.31055" lon="2.6449">
        <ele>66.47</ele>
        <time>2011-02-06T09:32:34Z</time>
      </trkpt>
      <trkpt lat="48.31064" lon="2.64462">
        <ele>67.43</ele>
        <time>2011-02-06T09:32:42Z</time>
      </trkpt>
      <trkpt lat="48.31066" lon="2.64459">
        <ele>66.95</ele>
        <time>2011-02-06T09:32:43Z</time>
      </trkpt>
      <trkpt lat="48.31067" lon="2.64455">
        <ele>66.95</ele>
        <time>2011-02-06T09:32:44Z</time>
      </trkpt>
      <trkpt lat="48.31068" lon="2.64452">
        <ele>66.95</ele>
        <time>2011-02-06T09:32:45Z</time>
      </trkpt>
      <trkpt lat="48.31069" lon="2.64449">
        <ele>66.95</ele>
        <time>2011-02-06T09:32:46Z</time>
      </trkpt>
      <trkpt lat="48.3107" lon="2.64445">
        <ele>67.43</ele>
        <time>2011-02-06T09:32:47Z</time>
      </trkpt>
      <trkpt lat="48.31071" lon="2.64441">
        <ele>66.95</ele>
        <time>2011-02-06T09:32:48Z</time>
      </trkpt>
      <trkpt lat="48.31072" lon="2.64438">
        <ele>67.43</ele>
        <time>2011-02-06T09:32:49Z</time>
      </trkpt>
      <trkpt lat="48.31086" lon="2.64386">
        <ele>69.35</ele>
        <time>2011-02-06T09:33:03Z</time>
      </trkpt>
      <trkpt lat="48.31102" lon="2.64342">
        <ele>71.76</ele>
        <time>2011-02-06T09:33:16Z</time>
      </trkpt>
      <trkpt lat="48.31117" lon="2.64301">
        <ele>74.16</ele>
        <time>2011-02-06T09:33:30Z</time>
      </trkpt>
      <trkpt lat="48.31122" lon="2.64294">
        <ele>74.64</ele>
        <time>2011-02-06T09:33:34Z</time>
      </trkpt>
      <trkpt lat="48.31124" lon="2.64295">
        <ele>74.64</ele>
        <time>2011-02-06T09:33:35Z</time>
      </trkpt>
      <trkpt lat="48.31126" lon="2.64296">
        <ele>74.64</ele>
        <time>2011-02-06T09:33:36Z</time>
      </trkpt>
      <trkpt lat="48.31127" lon="2.64297">
        <ele>74.64</ele>
        <time>2011-02-06T09:33:37Z</time>
      </trkpt>
      <trkpt lat="48.3113" lon="2.64298">
        <ele>74.64</ele>
        <time>2011-02-06T09:33:38Z</time>
      </trkpt>
      <trkpt lat="48.31132" lon="2.64299">
        <ele>75.12</ele>
        <time>2011-02-06T09:33:39Z</time>
      </trkpt>
      <trkpt lat="48.31134" lon="2.64301">
        <ele>75.12</ele>
        <time>2011-02-06T09:33:40Z</time>
      </trkpt>
      <trkpt lat="48.31163" lon="2.64318">
        <ele>76.08</ele>
        <time>2011-02-06T09:33:52Z</time>
      </trkpt>
      <trkpt lat="48.31189" lon="2.64337">
        <ele>77.04</ele>
        <time>2011-02-06T09:34:02Z</time>
      </trkpt>
      <trkpt lat="48.31225" lon="2.6435">
        <ele>77.52</ele>
        <time>2011-02-06T09:34:15Z</time>
      </trkpt>
      <trkpt lat="48.31263" lon="2.64362">
        <ele>78.97</ele>
        <time>2011-02-06T09:34:28Z</time>
      </trkpt>
      <trkpt lat="48.31303" lon="2.64376">
        <ele>79.45</ele>
        <time>2011-02-06T09:34:41Z</time>
      </trkpt>
      <trkpt lat="48.31345" lon="2.64407">
        <ele>80.89</ele>
        <time>2011-02-06T09:34:56Z</time>
      </trkpt>
      <trkpt lat="48.31347" lon="2.6441">
        <ele>80.89</ele>
        <time>2011-02-06T09:34:57Z</time>
      </trkpt>
      <trkpt lat="48.31356" lon="2.64434">
        <ele>83.29</ele>
        <time>2011-02-06T09:35:06Z</time>
      </trkpt>
      <trkpt lat="48.31362" lon="2.6445">
        <ele>84.73</ele>
        <time>2011-02-06T09:35:13Z</time>
      </trkpt>
      <trkpt lat="48.31364" lon="2.64451">
        <ele>84.73</ele>
        <time>2011-02-06T09:35:14Z</time>
      </trkpt>
      <trkpt lat="48.31365" lon="2.64452">
        <ele>84.73</ele>
        <time>2011-02-06T09:35:15Z</time>
      </trkpt>
      <trkpt lat="48.31367" lon="2.64453">
        <ele>84.73</ele>
        <time>2011-02-06T09:35:16Z</time>
      </trkpt>
      <trkpt lat="48.31369" lon="2.64455">
        <ele>84.73</ele>
        <time>2011-02-06T09:35:17Z</time>
      </trkpt>
      <trkpt lat="48.31371" lon="2.64457">
        <ele>85.21</ele>
        <time>2011-02-06T09:35:18Z</time>
      </trkpt>
      <trkpt lat="48.31372" lon="2.64459">
        <ele>85.69</ele>
        <time>2011-02-06T09:35:19Z</time>
      </trkpt>
      <trkpt lat="48.31383" lon="2.64487">
        <ele>88.58</ele>
        <time>2011-02-06T09:35:32Z</time>
      </trkpt>
      <trkpt lat="48.31384" lon="2.645">
        <ele>89.54</ele>
        <time>2011-02-06T09:35:38Z</time>
      </trkpt>
      <trkpt lat="48.31382" lon="2.64522">
        <ele>90.5</ele>
        <time>2011-02-06T09:35:48Z</time>
      </trkpt>
      <trkpt lat="48.31383" lon="2.64538">
        <ele>91.46</ele>
        <time>2011-02-06T09:35:55Z</time>
      </trkpt>
      <trkpt lat="48.31385" lon="2.64563">
        <ele>94.83</ele>
        <time>2011-02-06T09:36:08Z</time>
      </trkpt>
      <trkpt lat="48.31392" lon="2.64583">
        <ele>96.27</ele>
        <time>2011-02-06T09:36:18Z</time>
      </trkpt>
      <trkpt lat="48.31391" lon="2.64613">
        <ele>97.71</ele>
        <time>2011-02-06T09:36:32Z</time>
      </trkpt>
      <trkpt lat="48.31384" lon="2.64627">
        <ele>99.63</ele>
        <time>2011-02-06T09:36:40Z</time>
      </trkpt>
      <trkpt lat="48.3138" lon="2.64636">
        <ele>100.6</ele>
        <time>2011-02-06T09:36:45Z</time>
      </trkpt>
      <trkpt lat="48.31365" lon="2.64648">
        <ele>101.08</ele>
        <time>2011-02-06T09:36:56Z</time>
      </trkpt>
      <trkpt lat="48.31364" lon="2.64662">
        <ele>102.04</ele>
        <time>2011-02-06T09:37:02Z</time>
      </trkpt>
      <trkpt lat="48.31376" lon="2.64693">
        <ele>104.44</ele>
        <time>2011-02-06T09:37:15Z</time>
      </trkpt>
      <trkpt lat="48.31376" lon="2.64696">
        <ele>104.44</ele>
        <time>2011-02-06T09:37:16Z</time>
      </trkpt>
      <trkpt lat="48.31379" lon="2.64713">
        <ele>105.4</ele>
        <time>2011-02-06T09:37:22Z</time>
      </trkpt>
      <trkpt lat="48.3138" lon="2.64731">
        <ele>107.32</ele>
        <time>2011-02-06T09:37:28Z</time>
      </trkpt>
      <trkpt lat="48.31382" lon="2.64777">
        <ele>107.81</ele>
        <time>2011-02-06T09:37:42Z</time>
      </trkpt>
      <trkpt lat="48.3137" lon="2.64797">
        <ele>108.77</ele>
        <time>2011-02-06T09:37:48Z</time>
      </trkpt>
      <trkpt lat="48.31349" lon="2.64821">
        <ele>109.25</ele>
        <time>2011-02-06T09:37:59Z</time>
      </trkpt>
      <trkpt lat="48.31332" lon="2.64831">
        <ele>110.21</ele>
        <time>2011-02-06T09:38:06Z</time>
      </trkpt>
      <trkpt lat="48.31322" lon="2.64859">
        <ele>109.25</ele>
        <time>2011-02-06T09:38:15Z</time>
      </trkpt>
      <trkpt lat="48.31326" lon="2.64877">
        <ele>108.29</ele>
        <time>2011-02-06T09:38:18Z</time>
      </trkpt>
      <trkpt lat="48.31327" lon="2.64883">
        <ele>107.81</ele>
        <time>2011-02-06T09:38:19Z</time>
      </trkpt>
      <trkpt lat="48.31329" lon="2.64897">
        <ele>107.32</ele>
        <time>2011-02-06T09:38:21Z</time>
      </trkpt>
      <trkpt lat="48.31331" lon="2.64916">
        <ele>107.81</ele>
        <time>2011-02-06T09:38:24Z</time>
      </trkpt>
      <trkpt lat="48.31329" lon="2.6497">
        <ele>107.81</ele>
        <time>2011-02-06T09:38:35Z</time>
      </trkpt>
      <trkpt lat="48.31308" lon="2.65003">
        <ele>107.81</ele>
        <time>2011-02-06T09:38:45Z</time>
      </trkpt>
      <trkpt lat="48.31305" lon="2.6502">
        <ele>104.44</ele>
        <time>2011-02-06T09:38:47Z</time>
      </trkpt>
      <trkpt lat="48.31303" lon="2.65029">
        <ele>103.96</ele>
        <time>2011-02-06T09:38:48Z</time>
      </trkpt>
      <trkpt lat="48.31301" lon="2.65038">
        <ele>102.52</ele>
        <time>2011-02-06T09:38:49Z</time>
      </trkpt>
      <trkpt lat="48.313" lon="2.6505">
        <ele>101.08</ele>
        <time>2011-02-06T09:38:50Z</time>
      </trkpt>
      <trkpt lat="48.31302" lon="2.65075">
        <ele>99.63</ele>
        <time>2011-02-06T09:38:52Z</time>
      </trkpt>
      <trkpt lat="48.31303" lon="2.65088">
        <ele>98.19</ele>
        <time>2011-02-06T09:38:53Z</time>
      </trkpt>
      <trkpt lat="48.31305" lon="2.65126">
        <ele>95.79</ele>
        <time>2011-02-06T09:38:56Z</time>
      </trkpt>
      <trkpt lat="48.31309" lon="2.65136">
        <ele>95.31</ele>
        <time>2011-02-06T09:38:57Z</time>
      </trkpt>
      <trkpt lat="48.31314" lon="2.65145">
        <ele>93.87</ele>
        <time>2011-02-06T09:38:58Z</time>
      </trkpt>
      <trkpt lat="48.31319" lon="2.65153">
        <ele>92.9</ele>
        <time>2011-02-06T09:38:59Z</time>
      </trkpt>
      <trkpt lat="48.31325" lon="2.6516">
        <ele>91.94</ele>
        <time>2011-02-06T09:39:00Z</time>
      </trkpt>
      <trkpt lat="48.31338" lon="2.65175">
        <ele>88.1</ele>
        <time>2011-02-06T09:39:02Z</time>
      </trkpt>
      <trkpt lat="48.31346" lon="2.65181">
        <ele>86.66</ele>
        <time>2011-02-06T09:39:03Z</time>
      </trkpt>
      <trkpt lat="48.31355" lon="2.65186">
        <ele>85.69</ele>
        <time>2011-02-06T09:39:04Z</time>
      </trkpt>
      <trkpt lat="48.31374" lon="2.65195">
        <ele>82.33</ele>
        <time>2011-02-06T09:39:06Z</time>
      </trkpt>
      <trkpt lat="48.31395" lon="2.65207">
        <ele>77.52</ele>
        <time>2011-02-06T09:39:08Z</time>
      </trkpt>
      <trkpt lat="48.31406" lon="2.65211">
        <ele>76.08</ele>
        <time>2011-02-06T09:39:09Z</time>
      </trkpt>
      <trkpt lat="48.31416" lon="2.65214">
        <ele>75.12</ele>
        <time>2011-02-06T09:39:10Z</time>
      </trkpt>
      <trkpt lat="48.31426" lon="2.65214">
        <ele>74.16</ele>
        <time>2011-02-06T09:39:11Z</time>
      </trkpt>
      <trkpt lat="48.31435" lon="2.65212">
        <ele>74.16</ele>
        <time>2011-02-06T09:39:12Z</time>
      </trkpt>
      <trkpt lat="48.31443" lon="2.65208">
        <ele>73.68</ele>
        <time>2011-02-06T09:39:13Z</time>
      </trkpt>
      <trkpt lat="48.31451" lon="2.65204">
        <ele>73.68</ele>
        <time>2011-02-06T09:39:14Z</time>
      </trkpt>
      <trkpt lat="48.31471" lon="2.65186">
        <ele>72.72</ele>
        <time>2011-02-06T09:39:17Z</time>
      </trkpt>
      <trkpt lat="48.31482" lon="2.65171">
        <ele>71.76</ele>
        <time>2011-02-06T09:39:19Z</time>
      </trkpt>
      <trkpt lat="48.31488" lon="2.65165">
        <ele>72.24</ele>
        <time>2011-02-06T09:39:20Z</time>
      </trkpt>
      <trkpt lat="48.31494" lon="2.6516">
        <ele>72.24</ele>
        <time>2011-02-06T09:39:21Z</time>
      </trkpt>
      <trkpt lat="48.31499" lon="2.65157">
        <ele>72.24</ele>
        <time>2011-02-06T09:39:22Z</time>
      </trkpt>
      <trkpt lat="48.31505" lon="2.65156">
        <ele>71.76</ele>
        <time>2011-02-06T09:39:23Z</time>
      </trkpt>
      <trkpt lat="48.31511" lon="2.65157">
        <ele>71.27</ele>
        <time>2011-02-06T09:39:24Z</time>
      </trkpt>
      <trkpt lat="48.31516" lon="2.65158">
        <ele>71.27</ele>
        <time>2011-02-06T09:39:25Z</time>
      </trkpt>
      <trkpt lat="48.31521" lon="2.65157">
        <ele>71.27</ele>
        <time>2011-02-06T09:39:26Z</time>
      </trkpt>
      <trkpt lat="48.31525" lon="2.65154">
        <ele>70.79</ele>
        <time>2011-02-06T09:39:27Z</time>
      </trkpt>
      <trkpt lat="48.31529" lon="2.6515">
        <ele>70.79</ele>
        <time>2011-02-06T09:39:28Z</time>
      </trkpt>
      <trkpt lat="48.31532" lon="2.65144">
        <ele>70.79</ele>
        <time>2011-02-06T09:39:29Z</time>
      </trkpt>
      <trkpt lat="48.31535" lon="2.65139">
        <ele>70.31</ele>
        <time>2011-02-06T09:39:30Z</time>
      </trkpt>
      <trkpt lat="48.31538" lon="2.65133">
        <ele>70.31</ele>
        <time>2011-02-06T09:39:31Z</time>
      </trkpt>
      <trkpt lat="48.31573" lon="2.65077">
        <ele>69.83</ele>
        <time>2011-02-06T09:39:44Z</time>
      </trkpt>
      <trkpt lat="48.31605" lon="2.6503">
        <ele>69.83</ele>
        <time>2011-02-06T09:39:55Z</time>
      </trkpt>
      <trkpt lat="48.31657" lon="2.64957">
        <ele>68.87</ele>
        <time>2011-02-06T09:40:11Z</time>
      </trkpt>
      <trkpt lat="48.31664" lon="2.64948">
        <ele>68.39</ele>
        <time>2011-02-06T09:40:13Z</time>
      </trkpt>
      <trkpt lat="48.31673" lon="2.64934">
        <ele>68.39</ele>
        <time>2011-02-06T09:40:16Z</time>
      </trkpt>
      <trkpt lat="48.31676" lon="2.6493">
        <ele>67.91</ele>
        <time>2011-02-06T09:40:17Z</time>
      </trkpt>
      <trkpt lat="48.31679" lon="2.64925">
        <ele>68.39</ele>
        <time>2011-02-06T09:40:18Z</time>
      </trkpt>
      <trkpt lat="48.31716" lon="2.64855">
        <ele>68.39</ele>
        <time>2011-02-06T09:40:33Z</time>
      </trkpt>
      <trkpt lat="48.31717" lon="2.64852">
        <ele>68.39</ele>
        <time>2011-02-06T09:40:34Z</time>
      </trkpt>
      <trkpt lat="48.31718" lon="2.64851">
        <ele>68.39</ele>
        <time>2011-02-06T09:40:35Z</time>
      </trkpt>
      <trkpt lat="48.31719" lon="2.6485">
        <ele>68.39</ele>
        <time>2011-02-06T09:40:36Z</time>
      </trkpt>
      <trkpt lat="48.3172" lon="2.6485">
        <ele>68.39</ele>
        <time>2011-02-06T09:40:37Z</time>
      </trkpt>
      <trkpt lat="48.31722" lon="2.6485">
        <ele>68.39</ele>
        <time>2011-02-06T09:40:38Z</time>
      </trkpt>
      <trkpt lat="48.31723" lon="2.64851">
        <ele>68.87</ele>
        <time>2011-02-06T09:40:39Z</time>
      </trkpt>
      <trkpt lat="48.31725" lon="2.64852">
        <ele>68.87</ele>
        <time>2011-02-06T09:40:40Z</time>
      </trkpt>
      <trkpt lat="48.31766" lon="2.64881">
        <ele>67.91</ele>
        <time>2011-02-06T09:40:53Z</time>
      </trkpt>
      <trkpt lat="48.31771" lon="2.64884">
        <ele>68.39</ele>
        <time>2011-02-06T09:40:54Z</time>
      </trkpt>
      <trkpt lat="48.31779" lon="2.64891">
        <ele>67.91</ele>
        <time>2011-02-06T09:40:56Z</time>
      </trkpt>
      <trkpt lat="48.31813" lon="2.64915">
        <ele>67.43</ele>
        <time>2011-02-06T09:41:04Z</time>
      </trkpt>
      <trkpt lat="48.31817" lon="2.64918">
        <ele>66.95</ele>
        <time>2011-02-06T09:41:05Z</time>
      </trkpt>
      <trkpt lat="48.31846" lon="2.64937">
        <ele>67.43</ele>
        <time>2011-02-06T09:41:12Z</time>
      </trkpt>
      <trkpt lat="48.31848" lon="2.64936">
        <ele>67.91</ele>
        <time>2011-02-06T09:41:13Z</time>
      </trkpt>
      <trkpt lat="48.3185" lon="2.64934">
        <ele>67.91</ele>
        <time>2011-02-06T09:41:14Z</time>
      </trkpt>
      <trkpt lat="48.31851" lon="2.6493">
        <ele>67.91</ele>
        <time>2011-02-06T09:41:15Z</time>
      </trkpt>
      <trkpt lat="48.31852" lon="2.64925">
        <ele>67.91</ele>
        <time>2011-02-06T09:41:16Z</time>
      </trkpt>
      <trkpt lat="48.31852" lon="2.64919">
        <ele>67.43</ele>
        <time>2011-02-06T09:41:17Z</time>
      </trkpt>
      <trkpt lat="48.31853" lon="2.64912">
        <ele>68.39</ele>
        <time>2011-02-06T09:41:18Z</time>
      </trkpt>
      <trkpt lat="48.31855" lon="2.649">
        <ele>67.43</ele>
        <time>2011-02-06T09:41:20Z</time>
      </trkpt>
      <trkpt lat="48.31859" lon="2.64815">
        <ele>67.43</ele>
        <time>2011-02-06T09:41:34Z</time>
      </trkpt>
      <trkpt lat="48.31857" lon="2.6481">
        <ele>66.95</ele>
        <time>2011-02-06T09:41:35Z</time>
      </trkpt>
      <trkpt lat="48.31855" lon="2.64805">
        <ele>67.43</ele>
        <time>2011-02-06T09:41:36Z</time>
      </trkpt>
      <trkpt lat="48.31853" lon="2.64799">
        <ele>67.43</ele>
        <time>2011-02-06T09:41:37Z</time>
      </trkpt>
      <trkpt lat="48.31852" lon="2.64792">
        <ele>67.43</ele>
        <time>2011-02-06T09:41:38Z</time>
      </trkpt>
      <trkpt lat="48.31852" lon="2.64786">
        <ele>67.43</ele>
        <time>2011-02-06T09:41:39Z</time>
      </trkpt>
      <trkpt lat="48.31852" lon="2.6478">
        <ele>67.43</ele>
        <time>2011-02-06T09:41:40Z</time>
      </trkpt>
      <trkpt lat="48.31853" lon="2.64775">
        <ele>67.43</ele>
        <time>2011-02-06T09:41:41Z</time>
      </trkpt>
      <trkpt lat="48.31853" lon="2.64765">
        <ele>67.91</ele>
        <time>2011-02-06T09:41:51Z</time>
      </trkpt>
      <trkpt lat="48.31854" lon="2.64763">
        <ele>67.91</ele>
        <time>2011-02-06T09:41:52Z</time>
      </trkpt>
      <trkpt lat="48.31855" lon="2.64762">
        <ele>67.43</ele>
        <time>2011-02-06T09:41:53Z</time>
      </trkpt>
      <trkpt lat="48.31857" lon="2.64761">
        <ele>67.43</ele>
        <time>2011-02-06T09:41:54Z</time>
      </trkpt>
      <trkpt lat="48.31859" lon="2.64761">
        <ele>67.43</ele>
        <time>2011-02-06T09:41:55Z</time>
      </trkpt>
      <trkpt lat="48.31862" lon="2.64761">
        <ele>67.91</ele>
        <time>2011-02-06T09:41:56Z</time>
      </trkpt>
      <trkpt lat="48.31869" lon="2.64758">
        <ele>67.43</ele>
        <time>2011-02-06T09:41:59Z</time>
      </trkpt>
      <trkpt lat="48.3187" lon="2.64754">
        <ele>67.91</ele>
        <time>2011-02-06T09:42:00Z</time>
      </trkpt>
      <trkpt lat="48.31885" lon="2.6468">
        <ele>68.39</ele>
        <time>2011-02-06T09:42:13Z</time>
      </trkpt>
      <trkpt lat="48.31902" lon="2.64602">
        <ele>69.35</ele>
        <time>2011-02-06T09:42:27Z</time>
      </trkpt>
      <trkpt lat="48.31902" lon="2.64599">
        <ele>69.35</ele>
        <time>2011-02-06T09:42:28Z</time>
      </trkpt>
      <trkpt lat="48.319" lon="2.64596">
        <ele>69.35</ele>
        <time>2011-02-06T09:42:29Z</time>
      </trkpt>
      <trkpt lat="48.31897" lon="2.64594">
        <ele>69.35</ele>
        <time>2011-02-06T09:42:30Z</time>
      </trkpt>
      <trkpt lat="48.31894" lon="2.64593">
        <ele>69.35</ele>
        <time>2011-02-06T09:42:31Z</time>
      </trkpt>
      <trkpt lat="48.31891" lon="2.64591">
        <ele>69.83</ele>
        <time>2011-02-06T09:42:32Z</time>
      </trkpt>
      <trkpt lat="48.31846" lon="2.64571">
        <ele>69.83</ele>
        <time>2011-02-06T09:42:45Z</time>
      </trkpt>
      <trkpt lat="48.31803" lon="2.64549">
        <ele>70.79</ele>
        <time>2011-02-06T09:42:58Z</time>
      </trkpt>
      <trkpt lat="48.31756" lon="2.64521">
        <ele>71.27</ele>
        <time>2011-02-06T09:43:12Z</time>
      </trkpt>
      <trkpt lat="48.31702" lon="2.64488">
        <ele>71.76</ele>
        <time>2011-02-06T09:43:29Z</time>
      </trkpt>
      <trkpt lat="48.31659" lon="2.64454">
        <ele>73.2</ele>
        <time>2011-02-06T09:43:44Z</time>
      </trkpt>
      <trkpt lat="48.31622" lon="2.644">
        <ele>73.68</ele>
        <time>2011-02-06T09:44:00Z</time>
      </trkpt>
      <trkpt lat="48.31588" lon="2.64345">
        <ele>74.64</ele>
        <time>2011-02-06T09:44:16Z</time>
      </trkpt>
      <trkpt lat="48.31555" lon="2.64293">
        <ele>75.6</ele>
        <time>2011-02-06T09:44:31Z</time>
      </trkpt>
      <trkpt lat="48.31526" lon="2.64243">
        <ele>77.04</ele>
        <time>2011-02-06T09:44:46Z</time>
      </trkpt>
      <trkpt lat="48.31508" lon="2.64191">
        <ele>77.52</ele>
        <time>2011-02-06T09:44:59Z</time>
      </trkpt>
      <trkpt lat="48.31486" lon="2.64156">
        <ele>78.97</ele>
        <time>2011-02-06T09:45:10Z</time>
      </trkpt>
      <trkpt lat="48.31456" lon="2.64124">
        <ele>79.93</ele>
        <time>2011-02-06T09:45:22Z</time>
      </trkpt>
      <trkpt lat="48.31426" lon="2.64092">
        <ele>81.37</ele>
        <time>2011-02-06T09:45:35Z</time>
      </trkpt>
      <trkpt lat="48.31391" lon="2.64062">
        <ele>82.81</ele>
        <time>2011-02-06T09:45:48Z</time>
      </trkpt>
      <trkpt lat="48.31369" lon="2.64041">
        <ele>84.73</ele>
        <time>2011-02-06T09:45:59Z</time>
      </trkpt>
      <trkpt lat="48.31356" lon="2.64012">
        <ele>85.69</ele>
        <time>2011-02-06T09:46:10Z</time>
      </trkpt>
      <trkpt lat="48.31354" lon="2.64008">
        <ele>85.69</ele>
        <time>2011-02-06T09:46:11Z</time>
      </trkpt>
      <trkpt lat="48.31353" lon="2.64006">
        <ele>85.69</ele>
        <time>2011-02-06T09:46:12Z</time>
      </trkpt>
      <trkpt lat="48.31352" lon="2.64003">
        <ele>85.21</ele>
        <time>2011-02-06T09:46:13Z</time>
      </trkpt>
      <trkpt lat="48.31329" lon="2.63974">
        <ele>86.66</ele>
        <time>2011-02-06T09:46:25Z</time>
      </trkpt>
      <trkpt lat="48.31294" lon="2.63953">
        <ele>90.02</ele>
        <time>2011-02-06T09:46:39Z</time>
      </trkpt>
      <trkpt lat="48.3127" lon="2.6394">
        <ele>92.42</ele>
        <time>2011-02-06T09:46:52Z</time>
      </trkpt>
      <trkpt lat="48.31222" lon="2.63895">
        <ele>91.46</ele>
        <time>2011-02-06T09:47:09Z</time>
      </trkpt>
      <trkpt lat="48.31202" lon="2.63846">
        <ele>91.94</ele>
        <time>2011-02-06T09:47:23Z</time>
      </trkpt>
      <trkpt lat="48.31182" lon="2.63796">
        <ele>92.42</ele>
        <time>2011-02-06T09:47:36Z</time>
      </trkpt>
      <trkpt lat="48.31186" lon="2.63746">
        <ele>91.94</ele>
        <time>2011-02-06T09:47:48Z</time>
      </trkpt>
      <trkpt lat="48.31197" lon="2.63714">
        <ele>92.42</ele>
        <time>2011-02-06T09:47:56Z</time>
      </trkpt>
      <trkpt lat="48.31198" lon="2.6371">
        <ele>92.42</ele>
        <time>2011-02-06T09:47:57Z</time>
      </trkpt>
      <trkpt lat="48.31207" lon="2.63651">
        <ele>92.9</ele>
        <time>2011-02-06T09:48:08Z</time>
      </trkpt>
      <trkpt lat="48.31212" lon="2.63583">
        <ele>90.02</ele>
        <time>2011-02-06T09:48:20Z</time>
      </trkpt>
      <trkpt lat="48.31211" lon="2.63576">
        <ele>90.02</ele>
        <time>2011-02-06T09:48:21Z</time>
      </trkpt>
      <trkpt lat="48.31213" lon="2.63531">
        <ele>87.62</ele>
        <time>2011-02-06T09:48:29Z</time>
      </trkpt>
      <trkpt lat="48.31217" lon="2.63527">
        <ele>88.1</ele>
        <time>2011-02-06T09:48:32Z</time>
      </trkpt>
      <trkpt lat="48.31215" lon="2.63513">
        <ele>84.73</ele>
        <time>2011-02-06T09:48:36Z</time>
      </trkpt>
      <trkpt lat="48.31213" lon="2.63506">
        <ele>84.25</ele>
        <time>2011-02-06T09:48:37Z</time>
      </trkpt>
      <trkpt lat="48.31212" lon="2.63498">
        <ele>83.77</ele>
        <time>2011-02-06T09:48:38Z</time>
      </trkpt>
      <trkpt lat="48.31209" lon="2.6349">
        <ele>82.81</ele>
        <time>2011-02-06T09:48:39Z</time>
      </trkpt>
      <trkpt lat="48.31208" lon="2.63483">
        <ele>82.33</ele>
        <time>2011-02-06T09:48:40Z</time>
      </trkpt>
      <trkpt lat="48.31207" lon="2.63476">
        <ele>82.33</ele>
        <time>2011-02-06T09:48:41Z</time>
      </trkpt>
      <trkpt lat="48.31207" lon="2.63469">
        <ele>81.85</ele>
        <time>2011-02-06T09:48:42Z</time>
      </trkpt>
      <trkpt lat="48.31207" lon="2.63462">
        <ele>81.37</ele>
        <time>2011-02-06T09:48:43Z</time>
      </trkpt>
      <trkpt lat="48.31207" lon="2.63455">
        <ele>81.37</ele>
        <time>2011-02-06T09:48:44Z</time>
      </trkpt>
      <trkpt lat="48.31207" lon="2.63446">
        <ele>80.41</ele>
        <time>2011-02-06T09:48:45Z</time>
      </trkpt>
      <trkpt lat="48.31206" lon="2.63437">
        <ele>80.41</ele>
        <time>2011-02-06T09:48:46Z</time>
      </trkpt>
      <trkpt lat="48.31206" lon="2.63428">
        <ele>80.41</ele>
        <time>2011-02-06T09:48:47Z</time>
      </trkpt>
      <trkpt lat="48.31206" lon="2.63365">
        <ele>78.48</ele>
        <time>2011-02-06T09:48:54Z</time>
      </trkpt>
      <trkpt lat="48.31208" lon="2.63349">
        <ele>78.48</ele>
        <time>2011-02-06T09:48:56Z</time>
      </trkpt>
      <trkpt lat="48.31214" lon="2.63307">
        <ele>78</ele>
        <time>2011-02-06T09:49:02Z</time>
      </trkpt>
      <trkpt lat="48.31215" lon="2.63301">
        <ele>78.48</ele>
        <time>2011-02-06T09:49:03Z</time>
      </trkpt>
      <trkpt lat="48.31224" lon="2.63237">
        <ele>79.45</ele>
        <time>2011-02-06T09:49:13Z</time>
      </trkpt>
      <trkpt lat="48.31236" lon="2.63169">
        <ele>80.41</ele>
        <time>2011-02-06T09:49:25Z</time>
      </trkpt>
      <trkpt lat="48.31246" lon="2.63108">
        <ele>81.37</ele>
        <time>2011-02-06T09:49:37Z</time>
      </trkpt>
      <trkpt lat="48.31252" lon="2.63052">
        <ele>82.33</ele>
        <time>2011-02-06T09:49:48Z</time>
      </trkpt>
      <trkpt lat="48.31247" lon="2.63011">
        <ele>80.89</ele>
        <time>2011-02-06T09:49:56Z</time>
      </trkpt>
      <trkpt lat="48.31246" lon="2.63004">
        <ele>80.41</ele>
        <time>2011-02-06T09:49:57Z</time>
      </trkpt>
      <trkpt lat="48.31247" lon="2.62996">
        <ele>80.89</ele>
        <time>2011-02-06T09:49:58Z</time>
      </trkpt>
      <trkpt lat="48.31249" lon="2.62981">
        <ele>80.89</ele>
        <time>2011-02-06T09:50:00Z</time>
      </trkpt>
      <trkpt lat="48.31248" lon="2.62975">
        <ele>80.41</ele>
        <time>2011-02-06T09:50:01Z</time>
      </trkpt>
      <trkpt lat="48.31248" lon="2.62968">
        <ele>80.41</ele>
        <time>2011-02-06T09:50:02Z</time>
      </trkpt>
      <trkpt lat="48.31249" lon="2.62962">
        <ele>79.93</ele>
        <time>2011-02-06T09:50:03Z</time>
      </trkpt>
      <trkpt lat="48.31251" lon="2.62956">
        <ele>80.41</ele>
        <time>2011-02-06T09:50:04Z</time>
      </trkpt>
      <trkpt lat="48.31252" lon="2.6295">
        <ele>80.41</ele>
        <time>2011-02-06T09:50:05Z</time>
      </trkpt>
      <trkpt lat="48.31254" lon="2.62945">
        <ele>80.89</ele>
        <time>2011-02-06T09:50:06Z</time>
      </trkpt>
      <trkpt lat="48.31263" lon="2.62912">
        <ele>79.93</ele>
        <time>2011-02-06T09:50:12Z</time>
      </trkpt>
      <trkpt lat="48.31263" lon="2.62892">
        <ele>79.45</ele>
        <time>2011-02-06T09:50:15Z</time>
      </trkpt>
      <trkpt lat="48.31263" lon="2.62885">
        <ele>79.45</ele>
        <time>2011-02-06T09:50:16Z</time>
      </trkpt>
      <trkpt lat="48.31263" lon="2.62878">
        <ele>79.45</ele>
        <time>2011-02-06T09:50:17Z</time>
      </trkpt>
      <trkpt lat="48.31262" lon="2.62871">
        <ele>78.97</ele>
        <time>2011-02-06T09:50:18Z</time>
      </trkpt>
      <trkpt lat="48.31262" lon="2.62864">
        <ele>78.97</ele>
        <time>2011-02-06T09:50:19Z</time>
      </trkpt>
      <trkpt lat="48.31262" lon="2.62857">
        <ele>78.97</ele>
        <time>2011-02-06T09:50:20Z</time>
      </trkpt>
      <trkpt lat="48.31261" lon="2.6285">
        <ele>78.48</ele>
        <time>2011-02-06T09:50:21Z</time>
      </trkpt>
      <trkpt lat="48.31261" lon="2.62806">
        <ele>77.04</ele>
        <time>2011-02-06T09:50:28Z</time>
      </trkpt>
      <trkpt lat="48.31261" lon="2.62778">
        <ele>77.52</ele>
        <time>2011-02-06T09:50:32Z</time>
      </trkpt>
      <trkpt lat="48.31255" lon="2.62701">
        <ele>76.56</ele>
        <time>2011-02-06T09:50:44Z</time>
      </trkpt>
      <trkpt lat="48.31247" lon="2.62659">
        <ele>76.08</ele>
        <time>2011-02-06T09:50:51Z</time>
      </trkpt>
      <trkpt lat="48.31244" lon="2.62638">
        <ele>75.12</ele>
        <time>2011-02-06T09:50:54Z</time>
      </trkpt>
      <trkpt lat="48.31241" lon="2.62625">
        <ele>75.12</ele>
        <time>2011-02-06T09:50:56Z</time>
      </trkpt>
      <trkpt lat="48.31236" lon="2.6258">
        <ele>75.6</ele>
        <time>2011-02-06T09:51:04Z</time>
      </trkpt>
      <trkpt lat="48.31237" lon="2.62578">
        <ele>76.08</ele>
        <time>2011-02-06T09:51:05Z</time>
      </trkpt>
      <trkpt lat="48.31238" lon="2.62577">
        <ele>76.56</ele>
        <time>2011-02-06T09:51:06Z</time>
      </trkpt>
      <trkpt lat="48.3124" lon="2.62576">
        <ele>77.04</ele>
        <time>2011-02-06T09:51:07Z</time>
      </trkpt>
      <trkpt lat="48.31242" lon="2.62576">
        <ele>77.52</ele>
        <time>2011-02-06T09:51:08Z</time>
      </trkpt>
      <trkpt lat="48.31243" lon="2.62575">
        <ele>77.52</ele>
        <time>2011-02-06T09:51:09Z</time>
      </trkpt>
      <trkpt lat="48.31263" lon="2.62572">
        <ele>80.41</ele>
        <time>2011-02-06T09:51:21Z</time>
      </trkpt>
      <trkpt lat="48.3129" lon="2.62575">
        <ele>82.33</ele>
        <time>2011-02-06T09:51:36Z</time>
      </trkpt>
      <trkpt lat="48.313" lon="2.62576">
        <ele>83.77</ele>
        <time>2011-02-06T09:51:43Z</time>
      </trkpt>
      <trkpt lat="48.31301" lon="2.62576">
        <ele>83.77</ele>
        <time>2011-02-06T09:51:44Z</time>
      </trkpt>
      <trkpt lat="48.31303" lon="2.62576">
        <ele>83.77</ele>
        <time>2011-02-06T09:51:45Z</time>
      </trkpt>
      <trkpt lat="48.31331" lon="2.62567">
        <ele>85.21</ele>
        <time>2011-02-06T09:52:01Z</time>
      </trkpt>
      <trkpt lat="48.3135" lon="2.62565">
        <ele>87.14</ele>
        <time>2011-02-06T09:52:14Z</time>
      </trkpt>
      <trkpt lat="48.31359" lon="2.62566">
        <ele>87.62</ele>
        <time>2011-02-06T09:52:19Z</time>
      </trkpt>
      <trkpt lat="48.31361" lon="2.62565">
        <ele>88.58</ele>
        <time>2011-02-06T09:52:20Z</time>
      </trkpt>
      <trkpt lat="48.31362" lon="2.62566">
        <ele>88.1</ele>
        <time>2011-02-06T09:52:21Z</time>
      </trkpt>
      <trkpt lat="48.31364" lon="2.62566">
        <ele>88.58</ele>
        <time>2011-02-06T09:52:22Z</time>
      </trkpt>
      <trkpt lat="48.31366" lon="2.62565">
        <ele>88.58</ele>
        <time>2011-02-06T09:52:23Z</time>
      </trkpt>
      <trkpt lat="48.31384" lon="2.62559">
        <ele>90.98</ele>
        <time>2011-02-06T09:52:35Z</time>
      </trkpt>
      <trkpt lat="48.31386" lon="2.62558">
        <ele>91.46</ele>
        <time>2011-02-06T09:52:36Z</time>
      </trkpt>
      <trkpt lat="48.31387" lon="2.62558">
        <ele>91.94</ele>
        <time>2011-02-06T09:52:37Z</time>
      </trkpt>
      <trkpt lat="48.31394" lon="2.6255">
        <ele>93.39</ele>
        <time>2011-02-06T09:52:44Z</time>
      </trkpt>
      <trkpt lat="48.31394" lon="2.62549">
        <ele>93.39</ele>
        <time>2011-02-06T09:52:45Z</time>
      </trkpt>
      <trkpt lat="48.31394" lon="2.62547">
        <ele>94.35</ele>
        <time>2011-02-06T09:52:46Z</time>
      </trkpt>
      <trkpt lat="48.31395" lon="2.62546">
        <ele>94.83</ele>
        <time>2011-02-06T09:52:47Z</time>
      </trkpt>
      <trkpt lat="48.31396" lon="2.62544">
        <ele>94.83</ele>
        <time>2011-02-06T09:52:48Z</time>
      </trkpt>
      <trkpt lat="48.31396" lon="2.62542">
        <ele>94.83</ele>
        <time>2011-02-06T09:52:49Z</time>
      </trkpt>
      <trkpt lat="48.31399" lon="2.62526">
        <ele>97.23</ele>
        <time>2011-02-06T09:52:59Z</time>
      </trkpt>
      <trkpt lat="48.31399" lon="2.62523">
        <ele>97.71</ele>
        <time>2011-02-06T09:53:01Z</time>
      </trkpt>
      <trkpt lat="48.31399" lon="2.62498">
        <ele>99.63</ele>
        <time>2011-02-06T09:53:14Z</time>
      </trkpt>
      <trkpt lat="48.31396" lon="2.62493">
        <ele>100.6</ele>
        <time>2011-02-06T09:53:18Z</time>
      </trkpt>
      <trkpt lat="48.31395" lon="2.62493">
        <ele>101.08</ele>
        <time>2011-02-06T09:53:19Z</time>
      </trkpt>
      <trkpt lat="48.31394" lon="2.62493">
        <ele>101.08</ele>
        <time>2011-02-06T09:53:20Z</time>
      </trkpt>
      <trkpt lat="48.31392" lon="2.62493">
        <ele>101.08</ele>
        <time>2011-02-06T09:53:21Z</time>
      </trkpt>
      <trkpt lat="48.3139" lon="2.62493">
        <ele>101.08</ele>
        <time>2011-02-06T09:53:23Z</time>
      </trkpt>
      <trkpt lat="48.31371" lon="2.62503">
        <ele>103.48</ele>
        <time>2011-02-06T09:53:37Z</time>
      </trkpt>
      <trkpt lat="48.31365" lon="2.62505">
        <ele>103.96</ele>
        <time>2011-02-06T09:53:41Z</time>
      </trkpt>
      <trkpt lat="48.31364" lon="2.62504">
        <ele>103.96</ele>
        <time>2011-02-06T09:53:42Z</time>
      </trkpt>
      <trkpt lat="48.31362" lon="2.62505">
        <ele>103.96</ele>
        <time>2011-02-06T09:53:43Z</time>
      </trkpt>
      <trkpt lat="48.31347" lon="2.6248">
        <ele>105.88</ele>
        <time>2011-02-06T09:53:56Z</time>
      </trkpt>
      <trkpt lat="48.3135" lon="2.6245">
        <ele>108.29</ele>
        <time>2011-02-06T09:54:10Z</time>
      </trkpt>
      <trkpt lat="48.31356" lon="2.62445">
        <ele>109.73</ele>
        <time>2011-02-06T09:54:15Z</time>
      </trkpt>
      <trkpt lat="48.31375" lon="2.62432">
        <ele>113.09</ele>
        <time>2011-02-06T09:54:29Z</time>
      </trkpt>
      <trkpt lat="48.31393" lon="2.62417">
        <ele>115.98</ele>
        <time>2011-02-06T09:54:43Z</time>
      </trkpt>
      <trkpt lat="48.31413" lon="2.62409">
        <ele>117.42</ele>
        <time>2011-02-06T09:54:57Z</time>
      </trkpt>
      <trkpt lat="48.31431" lon="2.62385">
        <ele>117.42</ele>
        <time>2011-02-06T09:55:09Z</time>
      </trkpt>
      <trkpt lat="48.31451" lon="2.62355">
        <ele>120.78</ele>
        <time>2011-02-06T09:55:23Z</time>
      </trkpt>
      <trkpt lat="48.3145" lon="2.62309">
        <ele>120.78</ele>
        <time>2011-02-06T09:55:35Z</time>
      </trkpt>
      <trkpt lat="48.31448" lon="2.6226">
        <ele>120.78</ele>
        <time>2011-02-06T09:55:47Z</time>
      </trkpt>
      <trkpt lat="48.31445" lon="2.62216">
        <ele>120.78</ele>
        <time>2011-02-06T09:55:56Z</time>
      </trkpt>
      <trkpt lat="48.31441" lon="2.62175">
        <ele>120.78</ele>
        <time>2011-02-06T09:56:04Z</time>
      </trkpt>
      <trkpt lat="48.31446" lon="2.62095">
        <ele>120.3</ele>
        <time>2011-02-06T09:56:17Z</time>
      </trkpt>
      <trkpt lat="48.31447" lon="2.62089">
        <ele>120.78</ele>
        <time>2011-02-06T09:56:18Z</time>
      </trkpt>
      <trkpt lat="48.31447" lon="2.62082">
        <ele>120.78</ele>
        <time>2011-02-06T09:56:19Z</time>
      </trkpt>
      <trkpt lat="48.31449" lon="2.62006">
        <ele>119.82</ele>
        <time>2011-02-06T09:56:32Z</time>
      </trkpt>
      <trkpt lat="48.3145" lon="2.61987">
        <ele>119.34</ele>
        <time>2011-02-06T09:56:35Z</time>
      </trkpt>
      <trkpt lat="48.31453" lon="2.61983">
        <ele>118.86</ele>
        <time>2011-02-06T09:56:36Z</time>
      </trkpt>
      <trkpt lat="48.31456" lon="2.6198">
        <ele>119.82</ele>
        <time>2011-02-06T09:56:37Z</time>
      </trkpt>
      <trkpt lat="48.31459" lon="2.61978">
        <ele>119.82</ele>
        <time>2011-02-06T09:56:38Z</time>
      </trkpt>
      <trkpt lat="48.31463" lon="2.61976">
        <ele>119.82</ele>
        <time>2011-02-06T09:56:39Z</time>
      </trkpt>
      <trkpt lat="48.31493" lon="2.61952">
        <ele>120.78</ele>
        <time>2011-02-06T09:56:48Z</time>
      </trkpt>
      <trkpt lat="48.31497" lon="2.61947">
        <ele>120.78</ele>
        <time>2011-02-06T09:56:49Z</time>
      </trkpt>
      <trkpt lat="48.315" lon="2.61942">
        <ele>120.78</ele>
        <time>2011-02-06T09:56:50Z</time>
      </trkpt>
      <trkpt lat="48.31501" lon="2.61936">
        <ele>120.78</ele>
        <time>2011-02-06T09:56:51Z</time>
      </trkpt>
      <trkpt lat="48.31503" lon="2.61929">
        <ele>120.78</ele>
        <time>2011-02-06T09:56:52Z</time>
      </trkpt>
      <trkpt lat="48.31503" lon="2.61923">
        <ele>120.78</ele>
        <time>2011-02-06T09:56:53Z</time>
      </trkpt>
      <trkpt lat="48.31504" lon="2.61917">
        <ele>120.78</ele>
        <time>2011-02-06T09:56:54Z</time>
      </trkpt>
      <trkpt lat="48.31504" lon="2.61911">
        <ele>120.78</ele>
        <time>2011-02-06T09:56:55Z</time>
      </trkpt>
      <trkpt lat="48.31508" lon="2.6188">
        <ele>120.78</ele>
        <time>2011-02-06T09:57:01Z</time>
      </trkpt>
      <trkpt lat="48.31507" lon="2.61876">
        <ele>120.78</ele>
        <time>2011-02-06T09:57:02Z</time>
      </trkpt>
      <trkpt lat="48.31506" lon="2.61872">
        <ele>120.3</ele>
        <time>2011-02-06T09:57:03Z</time>
      </trkpt>
      <trkpt lat="48.31503" lon="2.61869">
        <ele>120.3</ele>
        <time>2011-02-06T09:57:04Z</time>
      </trkpt>
      <trkpt lat="48.31499" lon="2.61865">
        <ele>120.3</ele>
        <time>2011-02-06T09:57:05Z</time>
      </trkpt>
      <trkpt lat="48.31459" lon="2.61829">
        <ele>117.42</ele>
        <time>2011-02-06T09:57:15Z</time>
      </trkpt>
      <trkpt lat="48.31455" lon="2.61824">
        <ele>117.42</ele>
        <time>2011-02-06T09:57:16Z</time>
      </trkpt>
      <trkpt lat="48.31392" lon="2.61765">
        <ele>116.46</ele>
        <time>2011-02-06T09:57:30Z</time>
      </trkpt>
      <trkpt lat="48.31373" lon="2.61744">
        <ele>116.46</ele>
        <time>2011-02-06T09:57:35Z</time>
      </trkpt>
      <trkpt lat="48.3137" lon="2.6174">
        <ele>116.94</ele>
        <time>2011-02-06T09:57:36Z</time>
      </trkpt>
      <trkpt lat="48.31366" lon="2.61736">
        <ele>116.94</ele>
        <time>2011-02-06T09:57:37Z</time>
      </trkpt>
      <trkpt lat="48.31361" lon="2.61732">
        <ele>116.94</ele>
        <time>2011-02-06T09:57:38Z</time>
      </trkpt>
      <trkpt lat="48.31357" lon="2.61728">
        <ele>116.94</ele>
        <time>2011-02-06T09:57:39Z</time>
      </trkpt>
      <trkpt lat="48.31353" lon="2.61723">
        <ele>116.94</ele>
        <time>2011-02-06T09:57:40Z</time>
      </trkpt>
      <trkpt lat="48.31348" lon="2.61719">
        <ele>116.94</ele>
        <time>2011-02-06T09:57:41Z</time>
      </trkpt>
      <trkpt lat="48.31344" lon="2.61715">
        <ele>116.94</ele>
        <time>2011-02-06T09:57:42Z</time>
      </trkpt>
      <trkpt lat="48.3134" lon="2.61711">
        <ele>116.94</ele>
        <time>2011-02-06T09:57:43Z</time>
      </trkpt>
      <trkpt lat="48.31309" lon="2.61681">
        <ele>115.98</ele>
        <time>2011-02-06T09:57:50Z</time>
      </trkpt>
      <trkpt lat="48.31253" lon="2.61649">
        <ele>112.61</ele>
        <time>2011-02-06T09:58:01Z</time>
      </trkpt>
      <trkpt lat="48.31246" lon="2.61647">
        <ele>113.09</ele>
        <time>2011-02-06T09:58:03Z</time>
      </trkpt>
      <trkpt lat="48.31243" lon="2.61649">
        <ele>112.61</ele>
        <time>2011-02-06T09:58:04Z</time>
      </trkpt>
      <trkpt lat="48.31239" lon="2.6165">
        <ele>112.13</ele>
        <time>2011-02-06T09:58:05Z</time>
      </trkpt>
      <trkpt lat="48.31236" lon="2.61652">
        <ele>111.65</ele>
        <time>2011-02-06T09:58:06Z</time>
      </trkpt>
      <trkpt lat="48.31232" lon="2.61653">
        <ele>111.65</ele>
        <time>2011-02-06T09:58:07Z</time>
      </trkpt>
      <trkpt lat="48.31229" lon="2.61655">
        <ele>111.17</ele>
        <time>2011-02-06T09:58:08Z</time>
      </trkpt>
      <trkpt lat="48.31225" lon="2.61658">
        <ele>109.73</ele>
        <time>2011-02-06T09:58:09Z</time>
      </trkpt>
      <trkpt lat="48.31222" lon="2.61662">
        <ele>109.25</ele>
        <time>2011-02-06T09:58:10Z</time>
      </trkpt>
      <trkpt lat="48.3122" lon="2.61668">
        <ele>108.77</ele>
        <time>2011-02-06T09:58:11Z</time>
      </trkpt>
      <trkpt lat="48.31218" lon="2.61673">
        <ele>108.29</ele>
        <time>2011-02-06T09:58:12Z</time>
      </trkpt>
      <trkpt lat="48.31218" lon="2.61679">
        <ele>107.32</ele>
        <time>2011-02-06T09:58:13Z</time>
      </trkpt>
      <trkpt lat="48.31219" lon="2.61685">
        <ele>106.84</ele>
        <time>2011-02-06T09:58:14Z</time>
      </trkpt>
      <trkpt lat="48.31219" lon="2.6169">
        <ele>105.4</ele>
        <time>2011-02-06T09:58:15Z</time>
      </trkpt>
      <trkpt lat="48.31222" lon="2.6171">
        <ele>103</ele>
        <time>2011-02-06T09:58:18Z</time>
      </trkpt>
      <trkpt lat="48.31223" lon="2.61716">
        <ele>102.52</ele>
        <time>2011-02-06T09:58:19Z</time>
      </trkpt>
      <trkpt lat="48.31222" lon="2.61723">
        <ele>101.08</ele>
        <time>2011-02-06T09:58:20Z</time>
      </trkpt>
      <trkpt lat="48.31218" lon="2.61747">
        <ele>98.19</ele>
        <time>2011-02-06T09:58:23Z</time>
      </trkpt>
      <trkpt lat="48.31216" lon="2.61755">
        <ele>96.75</ele>
        <time>2011-02-06T09:58:24Z</time>
      </trkpt>
      <trkpt lat="48.31209" lon="2.61771">
        <ele>94.83</ele>
        <time>2011-02-06T09:58:26Z</time>
      </trkpt>
      <trkpt lat="48.31201" lon="2.61795">
        <ele>91.94</ele>
        <time>2011-02-06T09:58:29Z</time>
      </trkpt>
      <trkpt lat="48.31198" lon="2.61806">
        <ele>90.98</ele>
        <time>2011-02-06T09:58:30Z</time>
      </trkpt>
      <trkpt lat="48.31196" lon="2.61818">
        <ele>90.02</ele>
        <time>2011-02-06T09:58:31Z</time>
      </trkpt>
      <trkpt lat="48.31193" lon="2.61831">
        <ele>90.02</ele>
        <time>2011-02-06T09:58:32Z</time>
      </trkpt>
      <trkpt lat="48.3119" lon="2.61843">
        <ele>89.06</ele>
        <time>2011-02-06T09:58:33Z</time>
      </trkpt>
      <trkpt lat="48.31187" lon="2.61867">
        <ele>87.62</ele>
        <time>2011-02-06T09:58:35Z</time>
      </trkpt>
      <trkpt lat="48.3119" lon="2.61894">
        <ele>86.18</ele>
        <time>2011-02-06T09:58:37Z</time>
      </trkpt>
      <trkpt lat="48.31192" lon="2.61908">
        <ele>85.69</ele>
        <time>2011-02-06T09:58:38Z</time>
      </trkpt>
      <trkpt lat="48.31199" lon="2.61944">
        <ele>85.21</ele>
        <time>2011-02-06T09:58:41Z</time>
      </trkpt>
      <trkpt lat="48.31202" lon="2.61957">
        <ele>84.73</ele>
        <time>2011-02-06T09:58:42Z</time>
      </trkpt>
      <trkpt lat="48.31202" lon="2.61978">
        <ele>84.73</ele>
        <time>2011-02-06T09:58:43Z</time>
      </trkpt>
      <trkpt lat="48.31214" lon="2.62034">
        <ele>82.81</ele>
        <time>2011-02-06T09:58:48Z</time>
      </trkpt>
      <trkpt lat="48.31215" lon="2.62054">
        <ele>82.33</ele>
        <time>2011-02-06T09:58:50Z</time>
      </trkpt>
      <trkpt lat="48.31215" lon="2.62063">
        <ele>81.85</ele>
        <time>2011-02-06T09:58:51Z</time>
      </trkpt>
      <trkpt lat="48.3121" lon="2.62114">
        <ele>80.89</ele>
        <time>2011-02-06T09:58:56Z</time>
      </trkpt>
      <trkpt lat="48.31208" lon="2.62124">
        <ele>81.37</ele>
        <time>2011-02-06T09:58:57Z</time>
      </trkpt>
      <trkpt lat="48.31191" lon="2.62191">
        <ele>78.48</ele>
        <time>2011-02-06T09:59:04Z</time>
      </trkpt>
      <trkpt lat="48.31186" lon="2.62199">
        <ele>78.48</ele>
        <time>2011-02-06T09:59:05Z</time>
      </trkpt>
      <trkpt lat="48.31181" lon="2.62206">
        <ele>77.52</ele>
        <time>2011-02-06T09:59:06Z</time>
      </trkpt>
      <trkpt lat="48.31172" lon="2.62219">
        <ele>77.52</ele>
        <time>2011-02-06T09:59:08Z</time>
      </trkpt>
      <trkpt lat="48.31167" lon="2.62226">
        <ele>77.04</ele>
        <time>2011-02-06T09:59:09Z</time>
      </trkpt>
      <trkpt lat="48.31138" lon="2.62292">
        <ele>75.12</ele>
        <time>2011-02-06T09:59:16Z</time>
      </trkpt>
      <trkpt lat="48.31133" lon="2.623">
        <ele>75.12</ele>
        <time>2011-02-06T09:59:17Z</time>
      </trkpt>
      <trkpt lat="48.31119" lon="2.62322">
        <ele>75.12</ele>
        <time>2011-02-06T09:59:20Z</time>
      </trkpt>
      <trkpt lat="48.31115" lon="2.6233">
        <ele>75.12</ele>
        <time>2011-02-06T09:59:21Z</time>
      </trkpt>
      <trkpt lat="48.31112" lon="2.62339">
        <ele>75.12</ele>
        <time>2011-02-06T09:59:22Z</time>
      </trkpt>
      <trkpt lat="48.31084" lon="2.62443">
        <ele>73.68</ele>
        <time>2011-02-06T09:59:33Z</time>
      </trkpt>
      <trkpt lat="48.31081" lon="2.62477">
        <ele>73.2</ele>
        <time>2011-02-06T09:59:37Z</time>
      </trkpt>
      <trkpt lat="48.31079" lon="2.62482">
        <ele>73.68</ele>
        <time>2011-02-06T09:59:38Z</time>
      </trkpt>
      <trkpt lat="48.31076" lon="2.62485">
        <ele>72.72</ele>
        <time>2011-02-06T09:59:39Z</time>
      </trkpt>
      <trkpt lat="48.31073" lon="2.62487">
        <ele>73.2</ele>
        <time>2011-02-06T09:59:40Z</time>
      </trkpt>
      <trkpt lat="48.3107" lon="2.62487">
        <ele>73.68</ele>
        <time>2011-02-06T09:59:41Z</time>
      </trkpt>
      <trkpt lat="48.31068" lon="2.62488">
        <ele>73.2</ele>
        <time>2011-02-06T09:59:42Z</time>
      </trkpt>
      <trkpt lat="48.31066" lon="2.62487">
        <ele>73.2</ele>
        <time>2011-02-06T09:59:43Z</time>
      </trkpt>
      <trkpt lat="48.31055" lon="2.62445">
        <ele>74.16</ele>
        <time>2011-02-06T09:59:53Z</time>
      </trkpt>
      <trkpt lat="48.31048" lon="2.62387">
        <ele>76.08</ele>
        <time>2011-02-06T10:00:04Z</time>
      </trkpt>
      <trkpt lat="48.31037" lon="2.62346">
        <ele>77.52</ele>
        <time>2011-02-06T10:00:13Z</time>
      </trkpt>
      <trkpt lat="48.31037" lon="2.62343">
        <ele>78</ele>
        <time>2011-02-06T10:00:14Z</time>
      </trkpt>
      <trkpt lat="48.31036" lon="2.6234">
        <ele>78</ele>
        <time>2011-02-06T10:00:15Z</time>
      </trkpt>
      <trkpt lat="48.31035" lon="2.62337">
        <ele>78</ele>
        <time>2011-02-06T10:00:16Z</time>
      </trkpt>
      <trkpt lat="48.31034" lon="2.62333">
        <ele>78</ele>
        <time>2011-02-06T10:00:17Z</time>
      </trkpt>
      <trkpt lat="48.31034" lon="2.62331">
        <ele>78</ele>
        <time>2011-02-06T10:00:18Z</time>
      </trkpt>
      <trkpt lat="48.31032" lon="2.62326">
        <ele>78.48</ele>
        <time>2011-02-06T10:00:19Z</time>
      </trkpt>
      <trkpt lat="48.31028" lon="2.62319">
        <ele>78.48</ele>
        <time>2011-02-06T10:00:20Z</time>
      </trkpt>
      <trkpt lat="48.31027" lon="2.62315">
        <ele>78.97</ele>
        <time>2011-02-06T10:00:21Z</time>
      </trkpt>
      <trkpt lat="48.31026" lon="2.6231">
        <ele>78.97</ele>
        <time>2011-02-06T10:00:22Z</time>
      </trkpt>
      <trkpt lat="48.31024" lon="2.62305">
        <ele>79.45</ele>
        <time>2011-02-06T10:00:23Z</time>
      </trkpt>
      <trkpt lat="48.31024" lon="2.62301">
        <ele>78.97</ele>
        <time>2011-02-06T10:00:24Z</time>
      </trkpt>
      <trkpt lat="48.31015" lon="2.62252">
        <ele>80.89</ele>
        <time>2011-02-06T10:00:36Z</time>
      </trkpt>
      <trkpt lat="48.31011" lon="2.62223">
        <ele>82.81</ele>
        <time>2011-02-06T10:00:49Z</time>
      </trkpt>
      <trkpt lat="48.31011" lon="2.62221">
        <ele>83.29</ele>
        <time>2011-02-06T10:00:51Z</time>
      </trkpt>
      <trkpt lat="48.31011" lon="2.62209">
        <ele>84.25</ele>
        <time>2011-02-06T10:00:57Z</time>
      </trkpt>
      <trkpt lat="48.31012" lon="2.62207">
        <ele>84.25</ele>
        <time>2011-02-06T10:00:58Z</time>
      </trkpt>
      <trkpt lat="48.30985" lon="2.62136">
        <ele>86.66</ele>
        <time>2011-02-06T10:01:10Z</time>
      </trkpt>
      <trkpt lat="48.30986" lon="2.62131">
        <ele>87.14</ele>
        <time>2011-02-06T10:01:13Z</time>
      </trkpt>
      <trkpt lat="48.30972" lon="2.6211">
        <ele>88.1</ele>
        <time>2011-02-06T10:01:18Z</time>
      </trkpt>
      <trkpt lat="48.3097" lon="2.62109">
        <ele>88.58</ele>
        <time>2011-02-06T10:01:20Z</time>
      </trkpt>
      <trkpt lat="48.30957" lon="2.62121">
        <ele>90.5</ele>
        <time>2011-02-06T10:01:31Z</time>
      </trkpt>
      <trkpt lat="48.30957" lon="2.62125">
        <ele>90.98</ele>
        <time>2011-02-06T10:01:32Z</time>
      </trkpt>
      <trkpt lat="48.30951" lon="2.62119">
        <ele>90.98</ele>
        <time>2011-02-06T10:01:35Z</time>
      </trkpt>
      <trkpt lat="48.30948" lon="2.62124">
        <ele>91.94</ele>
        <time>2011-02-06T10:01:41Z</time>
      </trkpt>
      <trkpt lat="48.30945" lon="2.62119">
        <ele>91.94</ele>
        <time>2011-02-06T10:01:43Z</time>
      </trkpt>
      <trkpt lat="48.30908" lon="2.62038">
        <ele>92.42</ele>
        <time>2011-02-06T10:01:55Z</time>
      </trkpt>
      <trkpt lat="48.30899" lon="2.62002">
        <ele>93.87</ele>
        <time>2011-02-06T10:02:06Z</time>
      </trkpt>
      <trkpt lat="48.30902" lon="2.61982">
        <ele>95.79</ele>
        <time>2011-02-06T10:02:15Z</time>
      </trkpt>
      <trkpt lat="48.30896" lon="2.6195">
        <ele>98.67</ele>
        <time>2011-02-06T10:02:29Z</time>
      </trkpt>
      <trkpt lat="48.30891" lon="2.61931">
        <ele>101.08</ele>
        <time>2011-02-06T10:02:43Z</time>
      </trkpt>
      <trkpt lat="48.30892" lon="2.61928">
        <ele>102.04</ele>
        <time>2011-02-06T10:02:47Z</time>
      </trkpt>
      <trkpt lat="48.30888" lon="2.61899">
        <ele>103.96</ele>
        <time>2011-02-06T10:03:02Z</time>
      </trkpt>
      <trkpt lat="48.30875" lon="2.61877">
        <ele>105.4</ele>
        <time>2011-02-06T10:03:16Z</time>
      </trkpt>
      <trkpt lat="48.30867" lon="2.61863">
        <ele>106.36</ele>
        <time>2011-02-06T10:03:23Z</time>
      </trkpt>
      <trkpt lat="48.30863" lon="2.61851">
        <ele>107.81</ele>
        <time>2011-02-06T10:03:36Z</time>
      </trkpt>
      <trkpt lat="48.30859" lon="2.61839">
        <ele>109.25</ele>
        <time>2011-02-06T10:03:48Z</time>
      </trkpt>
      <trkpt lat="48.30864" lon="2.61838">
        <ele>111.17</ele>
        <time>2011-02-06T10:03:55Z</time>
      </trkpt>
      <trkpt lat="48.30866" lon="2.61835">
        <ele>110.21</ele>
        <time>2011-02-06T10:03:58Z</time>
      </trkpt>
      <trkpt lat="48.30849" lon="2.61803">
        <ele>110.21</ele>
        <time>2011-02-06T10:04:02Z</time>
      </trkpt>
      <trkpt lat="48.30847" lon="2.61798">
        <ele>110.69</ele>
        <time>2011-02-06T10:04:07Z</time>
      </trkpt>
      <trkpt lat="48.30817" lon="2.61738">
        <ele>110.69</ele>
        <time>2011-02-06T10:04:19Z</time>
      </trkpt>
      <trkpt lat="48.3081" lon="2.61681">
        <ele>110.21</ele>
        <time>2011-02-06T10:04:30Z</time>
      </trkpt>
      <trkpt lat="48.30805" lon="2.61627">
        <ele>111.17</ele>
        <time>2011-02-06T10:04:40Z</time>
      </trkpt>
      <trkpt lat="48.30811" lon="2.61594">
        <ele>110.69</ele>
        <time>2011-02-06T10:04:48Z</time>
      </trkpt>
      <trkpt lat="48.30836" lon="2.61578">
        <ele>110.69</ele>
        <time>2011-02-06T10:05:00Z</time>
      </trkpt>
      <trkpt lat="48.30844" lon="2.61577">
        <ele>110.69</ele>
        <time>2011-02-06T10:05:04Z</time>
      </trkpt>
      <trkpt lat="48.30857" lon="2.61576">
        <ele>111.17</ele>
        <time>2011-02-06T10:05:18Z</time>
      </trkpt>
      <trkpt lat="48.30857" lon="2.61576">
        <ele>111.17</ele>
        <time>2011-02-06T10:05:43Z</time>
      </trkpt>
      <trkpt lat="48.30858" lon="2.61576">
        <ele>111.17</ele>
        <time>2011-02-06T10:06:12Z</time>
      </trkpt>
      <trkpt lat="48.30861" lon="2.61576">
        <ele>111.65</ele>
        <time>2011-02-06T10:06:35Z</time>
      </trkpt>
      <trkpt lat="48.30883" lon="2.61581">
        <ele>112.61</ele>
        <time>2011-02-06T10:06:46Z</time>
      </trkpt>
      <trkpt lat="48.30918" lon="2.6157">
        <ele>113.57</ele>
        <time>2011-02-06T10:06:58Z</time>
      </trkpt>
      <trkpt lat="48.30946" lon="2.61562">
        <ele>114.53</ele>
        <time>2011-02-06T10:07:08Z</time>
      </trkpt>
      <trkpt lat="48.30959" lon="2.61565">
        <ele>115.01</ele>
        <time>2011-02-06T10:07:13Z</time>
      </trkpt>
      <trkpt lat="48.30998" lon="2.61574">
        <ele>115.5</ele>
        <time>2011-02-06T10:07:25Z</time>
      </trkpt>
      <trkpt lat="48.31008" lon="2.61584">
        <ele>115.5</ele>
        <time>2011-02-06T10:07:30Z</time>
      </trkpt>
      <trkpt lat="48.31018" lon="2.61589">
        <ele>114.53</ele>
        <time>2011-02-06T10:07:34Z</time>
      </trkpt>
      <trkpt lat="48.31029" lon="2.616">
        <ele>114.53</ele>
        <time>2011-02-06T10:07:38Z</time>
      </trkpt>
      <trkpt lat="48.31044" lon="2.61595">
        <ele>114.53</ele>
        <time>2011-02-06T10:07:49Z</time>
      </trkpt>
      <trkpt lat="48.31051" lon="2.61586">
        <ele>113.57</ele>
        <time>2011-02-06T10:08:00Z</time>
      </trkpt>
      <trkpt lat="48.31058" lon="2.61563">
        <ele>112.61</ele>
        <time>2011-02-06T10:08:06Z</time>
      </trkpt>
      <trkpt lat="48.31063" lon="2.6154">
        <ele>112.13</ele>
        <time>2011-02-06T10:08:11Z</time>
      </trkpt>
      <trkpt lat="48.31058" lon="2.61522">
        <ele>111.65</ele>
        <time>2011-02-06T10:08:15Z</time>
      </trkpt>
      <trkpt lat="48.31042" lon="2.61491">
        <ele>108.77</ele>
        <time>2011-02-06T10:08:20Z</time>
      </trkpt>
      <trkpt lat="48.3102" lon="2.61465">
        <ele>103.96</ele>
        <time>2011-02-06T10:08:24Z</time>
      </trkpt>
      <trkpt lat="48.31014" lon="2.61457">
        <ele>102.52</ele>
        <time>2011-02-06T10:08:25Z</time>
      </trkpt>
      <trkpt lat="48.30997" lon="2.6143">
        <ele>100.6</ele>
        <time>2011-02-06T10:08:28Z</time>
      </trkpt>
      <trkpt lat="48.30986" lon="2.61407">
        <ele>98.67</ele>
        <time>2011-02-06T10:08:32Z</time>
      </trkpt>
      <trkpt lat="48.30981" lon="2.614">
        <ele>97.23</ele>
        <time>2011-02-06T10:08:34Z</time>
      </trkpt>
      <trkpt lat="48.30978" lon="2.61391">
        <ele>95.79</ele>
        <time>2011-02-06T10:08:37Z</time>
      </trkpt>
      <trkpt lat="48.30976" lon="2.61386">
        <ele>94.83</ele>
        <time>2011-02-06T10:08:39Z</time>
      </trkpt>
      <trkpt lat="48.30971" lon="2.61379">
        <ele>90.02</ele>
        <time>2011-02-06T10:08:43Z</time>
      </trkpt>
      <trkpt lat="48.30965" lon="2.61373">
        <ele>88.58</ele>
        <time>2011-02-06T10:08:45Z</time>
      </trkpt>
      <trkpt lat="48.30951" lon="2.61352">
        <ele>88.58</ele>
        <time>2011-02-06T10:08:51Z</time>
      </trkpt>
      <trkpt lat="48.30934" lon="2.61337">
        <ele>86.66</ele>
        <time>2011-02-06T10:08:56Z</time>
      </trkpt>
      <trkpt lat="48.30929" lon="2.61337">
        <ele>86.18</ele>
        <time>2011-02-06T10:08:57Z</time>
      </trkpt>
      <trkpt lat="48.30925" lon="2.61338">
        <ele>85.69</ele>
        <time>2011-02-06T10:08:58Z</time>
      </trkpt>
      <trkpt lat="48.30921" lon="2.61338">
        <ele>85.69</ele>
        <time>2011-02-06T10:08:59Z</time>
      </trkpt>
      <trkpt lat="48.30889" lon="2.61334">
        <ele>82.81</ele>
        <time>2011-02-06T10:09:07Z</time>
      </trkpt>
      <trkpt lat="48.30882" lon="2.61334">
        <ele>82.33</ele>
        <time>2011-02-06T10:09:08Z</time>
      </trkpt>
      <trkpt lat="48.30875" lon="2.61334">
        <ele>81.85</ele>
        <time>2011-02-06T10:09:09Z</time>
      </trkpt>
      <trkpt lat="48.3087" lon="2.61332">
        <ele>82.33</ele>
        <time>2011-02-06T10:09:10Z</time>
      </trkpt>
      <trkpt lat="48.3084" lon="2.61301">
        <ele>80.89</ele>
        <time>2011-02-06T10:09:17Z</time>
      </trkpt>
      <trkpt lat="48.30833" lon="2.61291">
        <ele>80.89</ele>
        <time>2011-02-06T10:09:19Z</time>
      </trkpt>
      <trkpt lat="48.30829" lon="2.61286">
        <ele>79.93</ele>
        <time>2011-02-06T10:09:20Z</time>
      </trkpt>
      <trkpt lat="48.30825" lon="2.6128">
        <ele>79.93</ele>
        <time>2011-02-06T10:09:21Z</time>
      </trkpt>
      <trkpt lat="48.30789" lon="2.61237">
        <ele>79.93</ele>
        <time>2011-02-06T10:09:29Z</time>
      </trkpt>
      <trkpt lat="48.30786" lon="2.61233">
        <ele>79.45</ele>
        <time>2011-02-06T10:09:30Z</time>
      </trkpt>
      <trkpt lat="48.30784" lon="2.61227">
        <ele>79.93</ele>
        <time>2011-02-06T10:09:31Z</time>
      </trkpt>
      <trkpt lat="48.30788" lon="2.61194">
        <ele>83.29</ele>
        <time>2011-02-06T10:09:39Z</time>
      </trkpt>
      <trkpt lat="48.30788" lon="2.61189">
        <ele>83.77</ele>
        <time>2011-02-06T10:09:41Z</time>
      </trkpt>
      <trkpt lat="48.30793" lon="2.61176">
        <ele>86.18</ele>
        <time>2011-02-06T10:09:48Z</time>
      </trkpt>
      <trkpt lat="48.308" lon="2.61153">
        <ele>89.06</ele>
        <time>2011-02-06T10:10:00Z</time>
      </trkpt>
      <trkpt lat="48.30803" lon="2.61145">
        <ele>90.02</ele>
        <time>2011-02-06T10:10:05Z</time>
      </trkpt>
      <trkpt lat="48.30806" lon="2.61128">
        <ele>91.46</ele>
        <time>2011-02-06T10:10:17Z</time>
      </trkpt>
      <trkpt lat="48.30811" lon="2.61112">
        <ele>93.39</ele>
        <time>2011-02-06T10:10:29Z</time>
      </trkpt>
      <trkpt lat="48.30816" lon="2.61097">
        <ele>95.79</ele>
        <time>2011-02-06T10:10:41Z</time>
      </trkpt>
      <trkpt lat="48.3082" lon="2.6108">
        <ele>98.67</ele>
        <time>2011-02-06T10:10:58Z</time>
      </trkpt>
      <trkpt lat="48.30826" lon="2.61074">
        <ele>101.08</ele>
        <time>2011-02-06T10:11:07Z</time>
      </trkpt>
      <trkpt lat="48.30837" lon="2.61063">
        <ele>103.96</ele>
        <time>2011-02-06T10:11:23Z</time>
      </trkpt>
      <trkpt lat="48.30837" lon="2.61049">
        <ele>105.88</ele>
        <time>2011-02-06T10:11:34Z</time>
      </trkpt>
      <trkpt lat="48.30826" lon="2.61038">
        <ele>108.29</ele>
        <time>2011-02-06T10:11:49Z</time>
      </trkpt>
      <trkpt lat="48.30817" lon="2.61029">
        <ele>110.69</ele>
        <time>2011-02-06T10:12:01Z</time>
      </trkpt>
      <trkpt lat="48.30813" lon="2.61023">
        <ele>110.69</ele>
        <time>2011-02-06T10:12:13Z</time>
      </trkpt>
      <trkpt lat="48.30821" lon="2.61002">
        <ele>113.57</ele>
        <time>2011-02-06T10:12:27Z</time>
      </trkpt>
      <trkpt lat="48.30824" lon="2.60977">
        <ele>114.05</ele>
        <time>2011-02-06T10:12:37Z</time>
      </trkpt>
      <trkpt lat="48.30823" lon="2.60967">
        <ele>114.53</ele>
        <time>2011-02-06T10:12:40Z</time>
      </trkpt>
      <trkpt lat="48.30831" lon="2.60937">
        <ele>115.5</ele>
        <time>2011-02-06T10:12:52Z</time>
      </trkpt>
      <trkpt lat="48.30833" lon="2.60897">
        <ele>116.94</ele>
        <time>2011-02-06T10:13:04Z</time>
      </trkpt>
      <trkpt lat="48.30824" lon="2.60863">
        <ele>116.46</ele>
        <time>2011-02-06T10:13:14Z</time>
      </trkpt>
      <trkpt lat="48.30805" lon="2.6088">
        <ele>115.5</ele>
        <time>2011-02-06T10:13:24Z</time>
      </trkpt>
      <trkpt lat="48.3078" lon="2.60906">
        <ele>115.01</ele>
        <time>2011-02-06T10:13:35Z</time>
      </trkpt>
      <trkpt lat="48.30759" lon="2.60928">
        <ele>113.09</ele>
        <time>2011-02-06T10:13:41Z</time>
      </trkpt>
      <trkpt lat="48.30742" lon="2.60944">
        <ele>112.13</ele>
        <time>2011-02-06T10:13:45Z</time>
      </trkpt>
      <trkpt lat="48.30726" lon="2.6097">
        <ele>112.13</ele>
        <time>2011-02-06T10:13:50Z</time>
      </trkpt>
      <trkpt lat="48.30712" lon="2.60982">
        <ele>108.29</ele>
        <time>2011-02-06T10:13:55Z</time>
      </trkpt>
      <trkpt lat="48.30707" lon="2.60992">
        <ele>104.92</ele>
        <time>2011-02-06T10:13:58Z</time>
      </trkpt>
      <trkpt lat="48.30707" lon="2.60996">
        <ele>103.96</ele>
        <time>2011-02-06T10:13:59Z</time>
      </trkpt>
      <trkpt lat="48.30708" lon="2.61012">
        <ele>99.63</ele>
        <time>2011-02-06T10:14:02Z</time>
      </trkpt>
      <trkpt lat="48.30703" lon="2.61034">
        <ele>94.83</ele>
        <time>2011-02-06T10:14:06Z</time>
      </trkpt>
      <trkpt lat="48.307" lon="2.6105">
        <ele>90.5</ele>
        <time>2011-02-06T10:14:08Z</time>
      </trkpt>
      <trkpt lat="48.30697" lon="2.61067">
        <ele>86.18</ele>
        <time>2011-02-06T10:14:10Z</time>
      </trkpt>
      <trkpt lat="48.30695" lon="2.61076">
        <ele>82.33</ele>
        <time>2011-02-06T10:14:11Z</time>
      </trkpt>
      <trkpt lat="48.3069" lon="2.61098">
        <ele>78.48</ele>
        <time>2011-02-06T10:14:13Z</time>
      </trkpt>
      <trkpt lat="48.30681" lon="2.61134">
        <ele>75.12</ele>
        <time>2011-02-06T10:14:16Z</time>
      </trkpt>
      <trkpt lat="48.30673" lon="2.61162">
        <ele>74.64</ele>
        <time>2011-02-06T10:14:19Z</time>
      </trkpt>
      <trkpt lat="48.30661" lon="2.612">
        <ele>75.6</ele>
        <time>2011-02-06T10:14:26Z</time>
      </trkpt>
      <trkpt lat="48.30657" lon="2.61211">
        <ele>76.08</ele>
        <time>2011-02-06T10:14:30Z</time>
      </trkpt>
      <trkpt lat="48.30648" lon="2.61232">
        <ele>78.48</ele>
        <time>2011-02-06T10:14:40Z</time>
      </trkpt>
      <trkpt lat="48.30646" lon="2.6124">
        <ele>79.45</ele>
        <time>2011-02-06T10:14:44Z</time>
      </trkpt>
      <trkpt lat="48.30639" lon="2.61244">
        <ele>78.48</ele>
        <time>2011-02-06T10:14:50Z</time>
      </trkpt>
      <trkpt lat="48.30631" lon="2.61238">
        <ele>76.08</ele>
        <time>2011-02-06T10:14:53Z</time>
      </trkpt>
      <trkpt lat="48.30627" lon="2.61235">
        <ele>75.12</ele>
        <time>2011-02-06T10:14:54Z</time>
      </trkpt>
      <trkpt lat="48.30622" lon="2.61233">
        <ele>73.68</ele>
        <time>2011-02-06T10:14:55Z</time>
      </trkpt>
      <trkpt lat="48.30616" lon="2.6123">
        <ele>73.68</ele>
        <time>2011-02-06T10:14:56Z</time>
      </trkpt>
      <trkpt lat="48.3061" lon="2.61228">
        <ele>72.24</ele>
        <time>2011-02-06T10:14:57Z</time>
      </trkpt>
      <trkpt lat="48.30585" lon="2.61222">
        <ele>68.39</ele>
        <time>2011-02-06T10:15:01Z</time>
      </trkpt>
      <trkpt lat="48.30578" lon="2.61223">
        <ele>68.39</ele>
        <time>2011-02-06T10:15:02Z</time>
      </trkpt>
      <trkpt lat="48.3057" lon="2.61223">
        <ele>68.39</ele>
        <time>2011-02-06T10:15:03Z</time>
      </trkpt>
      <trkpt lat="48.30563" lon="2.61223">
        <ele>67.91</ele>
        <time>2011-02-06T10:15:04Z</time>
      </trkpt>
      <trkpt lat="48.30554" lon="2.61221">
        <ele>67.43</ele>
        <time>2011-02-06T10:15:05Z</time>
      </trkpt>
      <trkpt lat="48.30546" lon="2.61218">
        <ele>67.43</ele>
        <time>2011-02-06T10:15:06Z</time>
      </trkpt>
      <trkpt lat="48.30504" lon="2.61211">
        <ele>66.95</ele>
        <time>2011-02-06T10:15:12Z</time>
      </trkpt>
      <trkpt lat="48.30498" lon="2.6121">
        <ele>66.95</ele>
        <time>2011-02-06T10:15:13Z</time>
      </trkpt>
      <trkpt lat="48.30471" lon="2.61208">
        <ele>66.47</ele>
        <time>2011-02-06T10:15:18Z</time>
      </trkpt>
      <trkpt lat="48.30467" lon="2.61205">
        <ele>66.47</ele>
        <time>2011-02-06T10:15:19Z</time>
      </trkpt>
      <trkpt lat="48.30464" lon="2.61202">
        <ele>66.95</ele>
        <time>2011-02-06T10:15:20Z</time>
      </trkpt>
      <trkpt lat="48.30463" lon="2.61198">
        <ele>67.43</ele>
        <time>2011-02-06T10:15:21Z</time>
      </trkpt>
      <trkpt lat="48.30463" lon="2.61195">
        <ele>67.43</ele>
        <time>2011-02-06T10:15:22Z</time>
      </trkpt>
      <trkpt lat="48.30463" lon="2.61193">
        <ele>67.43</ele>
        <time>2011-02-06T10:15:23Z</time>
      </trkpt>
      <trkpt lat="48.30464" lon="2.6119">
        <ele>67.43</ele>
        <time>2011-02-06T10:15:24Z</time>
      </trkpt>
      <trkpt lat="48.30484" lon="2.61159">
        <ele>69.35</ele>
        <time>2011-02-06T10:15:37Z</time>
      </trkpt>
      <trkpt lat="48.30498" lon="2.61134">
        <ele>71.27</ele>
        <time>2011-02-06T10:15:49Z</time>
      </trkpt>
      <trkpt lat="48.30499" lon="2.61132">
        <ele>71.76</ele>
        <time>2011-02-06T10:15:50Z</time>
      </trkpt>
      <trkpt lat="48.305" lon="2.61131">
        <ele>72.24</ele>
        <time>2011-02-06T10:15:51Z</time>
      </trkpt>
      <trkpt lat="48.305" lon="2.61129">
        <ele>72.24</ele>
        <time>2011-02-06T10:15:52Z</time>
      </trkpt>
      <trkpt lat="48.30501" lon="2.61127">
        <ele>72.24</ele>
        <time>2011-02-06T10:15:53Z</time>
      </trkpt>
      <trkpt lat="48.30503" lon="2.61124">
        <ele>72.24</ele>
        <time>2011-02-06T10:15:55Z</time>
      </trkpt>
      <trkpt lat="48.30507" lon="2.61121">
        <ele>72.72</ele>
        <time>2011-02-06T10:15:59Z</time>
      </trkpt>
      <trkpt lat="48.30508" lon="2.61119">
        <ele>73.68</ele>
        <time>2011-02-06T10:16:00Z</time>
      </trkpt>
      <trkpt lat="48.3052" lon="2.61099">
        <ele>75.6</ele>
        <time>2011-02-06T10:16:12Z</time>
      </trkpt>
      <trkpt lat="48.30534" lon="2.61076">
        <ele>78</ele>
        <time>2011-02-06T10:16:27Z</time>
      </trkpt>
      <trkpt lat="48.30535" lon="2.61075">
        <ele>78.48</ele>
        <time>2011-02-06T10:16:28Z</time>
      </trkpt>
      <trkpt lat="48.30538" lon="2.61073">
        <ele>79.45</ele>
        <time>2011-02-06T10:16:32Z</time>
      </trkpt>
      <trkpt lat="48.30539" lon="2.61071">
        <ele>79.45</ele>
        <time>2011-02-06T10:16:33Z</time>
      </trkpt>
      <trkpt lat="48.30549" lon="2.6105">
        <ele>81.85</ele>
        <time>2011-02-06T10:16:45Z</time>
      </trkpt>
      <trkpt lat="48.30554" lon="2.6104">
        <ele>82.81</ele>
        <time>2011-02-06T10:16:52Z</time>
      </trkpt>
      <trkpt lat="48.30562" lon="2.61022">
        <ele>85.21</ele>
        <time>2011-02-06T10:17:03Z</time>
      </trkpt>
      <trkpt lat="48.30562" lon="2.6102">
        <ele>85.69</ele>
        <time>2011-02-06T10:17:04Z</time>
      </trkpt>
      <trkpt lat="48.30563" lon="2.61019">
        <ele>85.21</ele>
        <time>2011-02-06T10:17:05Z</time>
      </trkpt>
      <trkpt lat="48.30564" lon="2.61018">
        <ele>85.69</ele>
        <time>2011-02-06T10:17:06Z</time>
      </trkpt>
      <trkpt lat="48.30565" lon="2.61016">
        <ele>85.21</ele>
        <time>2011-02-06T10:17:07Z</time>
      </trkpt>
      <trkpt lat="48.30566" lon="2.61013">
        <ele>86.18</ele>
        <time>2011-02-06T10:17:08Z</time>
      </trkpt>
      <trkpt lat="48.30566" lon="2.61011">
        <ele>85.69</ele>
        <time>2011-02-06T10:17:09Z</time>
      </trkpt>
      <trkpt lat="48.30573" lon="2.60992">
        <ele>87.14</ele>
        <time>2011-02-06T10:17:22Z</time>
      </trkpt>
      <trkpt lat="48.30574" lon="2.60988">
        <ele>87.14</ele>
        <time>2011-02-06T10:17:23Z</time>
      </trkpt>
      <trkpt lat="48.30575" lon="2.60986">
        <ele>87.14</ele>
        <time>2011-02-06T10:17:24Z</time>
      </trkpt>
      <trkpt lat="48.30575" lon="2.60985">
        <ele>87.62</ele>
        <time>2011-02-06T10:17:25Z</time>
      </trkpt>
      <trkpt lat="48.30575" lon="2.60982">
        <ele>87.62</ele>
        <time>2011-02-06T10:17:26Z</time>
      </trkpt>
      <trkpt lat="48.3058" lon="2.60954">
        <ele>89.54</ele>
        <time>2011-02-06T10:17:39Z</time>
      </trkpt>
      <trkpt lat="48.30583" lon="2.60931">
        <ele>91.94</ele>
        <time>2011-02-06T10:17:51Z</time>
      </trkpt>
      <trkpt lat="48.30584" lon="2.609">
        <ele>95.31</ele>
        <time>2011-02-06T10:18:05Z</time>
      </trkpt>
      <trkpt lat="48.30584" lon="2.60888">
        <ele>96.27</ele>
        <time>2011-02-06T10:18:10Z</time>
      </trkpt>
      <trkpt lat="48.30584" lon="2.60886">
        <ele>96.27</ele>
        <time>2011-02-06T10:18:11Z</time>
      </trkpt>
      <trkpt lat="48.30584" lon="2.60868">
        <ele>98.19</ele>
        <time>2011-02-06T10:18:22Z</time>
      </trkpt>
      <trkpt lat="48.30585" lon="2.60863">
        <ele>98.19</ele>
        <time>2011-02-06T10:18:24Z</time>
      </trkpt>
      <trkpt lat="48.30586" lon="2.60858">
        <ele>98.67</ele>
        <time>2011-02-06T10:18:27Z</time>
      </trkpt>
      <trkpt lat="48.30586" lon="2.6085">
        <ele>99.15</ele>
        <time>2011-02-06T10:18:30Z</time>
      </trkpt>
      <trkpt lat="48.30585" lon="2.60847">
        <ele>99.15</ele>
        <time>2011-02-06T10:18:31Z</time>
      </trkpt>
      <trkpt lat="48.30585" lon="2.60845">
        <ele>99.15</ele>
        <time>2011-02-06T10:18:32Z</time>
      </trkpt>
      <trkpt lat="48.30585" lon="2.60824">
        <ele>100.11</ele>
        <time>2011-02-06T10:18:41Z</time>
      </trkpt>
      <trkpt lat="48.30585" lon="2.60822">
        <ele>100.6</ele>
        <time>2011-02-06T10:18:42Z</time>
      </trkpt>
      <trkpt lat="48.30586" lon="2.60819">
        <ele>101.08</ele>
        <time>2011-02-06T10:18:43Z</time>
      </trkpt>
      <trkpt lat="48.30586" lon="2.60817">
        <ele>100.6</ele>
        <time>2011-02-06T10:18:44Z</time>
      </trkpt>
      <trkpt lat="48.30587" lon="2.60816">
        <ele>100.6</ele>
        <time>2011-02-06T10:18:45Z</time>
      </trkpt>
      <trkpt lat="48.30588" lon="2.60815">
        <ele>101.08</ele>
        <time>2011-02-06T10:18:46Z</time>
      </trkpt>
      <trkpt lat="48.30589" lon="2.60814">
        <ele>101.08</ele>
        <time>2011-02-06T10:18:47Z</time>
      </trkpt>
      <trkpt lat="48.30601" lon="2.60806">
        <ele>102.04</ele>
        <time>2011-02-06T10:18:57Z</time>
      </trkpt>
      <trkpt lat="48.30605" lon="2.60803">
        <ele>102.52</ele>
        <time>2011-02-06T10:18:59Z</time>
      </trkpt>
      <trkpt lat="48.30606" lon="2.60802">
        <ele>102.52</ele>
        <time>2011-02-06T10:19:00Z</time>
      </trkpt>
      <trkpt lat="48.30608" lon="2.608">
        <ele>102.52</ele>
        <time>2011-02-06T10:19:01Z</time>
      </trkpt>
      <trkpt lat="48.3061" lon="2.60799">
        <ele>102.52</ele>
        <time>2011-02-06T10:19:02Z</time>
      </trkpt>
      <trkpt lat="48.30612" lon="2.60798">
        <ele>103</ele>
        <time>2011-02-06T10:19:03Z</time>
      </trkpt>
      <trkpt lat="48.30633" lon="2.60789">
        <ele>104.44</ele>
        <time>2011-02-06T10:19:15Z</time>
      </trkpt>
      <trkpt lat="48.30649" lon="2.60782">
        <ele>105.4</ele>
        <time>2011-02-06T10:19:25Z</time>
      </trkpt>
      <trkpt lat="48.30652" lon="2.60781">
        <ele>105.88</ele>
        <time>2011-02-06T10:19:28Z</time>
      </trkpt>
      <trkpt lat="48.30653" lon="2.60781">
        <ele>105.88</ele>
        <time>2011-02-06T10:19:29Z</time>
      </trkpt>
      <trkpt lat="48.30654" lon="2.60781">
        <ele>105.88</ele>
        <time>2011-02-06T10:19:30Z</time>
      </trkpt>
      <trkpt lat="48.30657" lon="2.60779">
        <ele>106.36</ele>
        <time>2011-02-06T10:19:32Z</time>
      </trkpt>
      <trkpt lat="48.30659" lon="2.60778">
        <ele>106.36</ele>
        <time>2011-02-06T10:19:33Z</time>
      </trkpt>
      <trkpt lat="48.30671" lon="2.60768">
        <ele>107.81</ele>
        <time>2011-02-06T10:19:42Z</time>
      </trkpt>
      <trkpt lat="48.30686" lon="2.60754">
        <ele>110.69</ele>
        <time>2011-02-06T10:19:55Z</time>
      </trkpt>
      <trkpt lat="48.30703" lon="2.60735">
        <ele>110.69</ele>
        <time>2011-02-06T10:20:04Z</time>
      </trkpt>
      <trkpt lat="48.30708" lon="2.60696">
        <ele>112.13</ele>
        <time>2011-02-06T10:20:18Z</time>
      </trkpt>
      <trkpt lat="48.30708" lon="2.60689">
        <ele>112.13</ele>
        <time>2011-02-06T10:20:20Z</time>
      </trkpt>
      <trkpt lat="48.30708" lon="2.60686">
        <ele>112.13</ele>
        <time>2011-02-06T10:20:21Z</time>
      </trkpt>
      <trkpt lat="48.30705" lon="2.60662">
        <ele>112.13</ele>
        <time>2011-02-06T10:20:28Z</time>
      </trkpt>
      <trkpt lat="48.30706" lon="2.60629">
        <ele>114.53</ele>
        <time>2011-02-06T10:20:41Z</time>
      </trkpt>
      <trkpt lat="48.30709" lon="2.60618">
        <ele>115.98</ele>
        <time>2011-02-06T10:20:47Z</time>
      </trkpt>
      <trkpt lat="48.30711" lon="2.60617">
        <ele>115.5</ele>
        <time>2011-02-06T10:20:48Z</time>
      </trkpt>
      <trkpt lat="48.30712" lon="2.60616">
        <ele>115.98</ele>
        <time>2011-02-06T10:20:49Z</time>
      </trkpt>
      <trkpt lat="48.3073" lon="2.60602">
        <ele>115.98</ele>
        <time>2011-02-06T10:21:01Z</time>
      </trkpt>
      <trkpt lat="48.3074" lon="2.60593">
        <ele>116.94</ele>
        <time>2011-02-06T10:21:07Z</time>
      </trkpt>
      <trkpt lat="48.30741" lon="2.60591">
        <ele>116.94</ele>
        <time>2011-02-06T10:21:08Z</time>
      </trkpt>
      <trkpt lat="48.30744" lon="2.60589">
        <ele>116.94</ele>
        <time>2011-02-06T10:21:09Z</time>
      </trkpt>
      <trkpt lat="48.30768" lon="2.60578">
        <ele>117.9</ele>
        <time>2011-02-06T10:21:20Z</time>
      </trkpt>
      <trkpt lat="48.30796" lon="2.60561">
        <ele>117.9</ele>
        <time>2011-02-06T10:21:31Z</time>
      </trkpt>
      <trkpt lat="48.30818" lon="2.60534">
        <ele>117.9</ele>
        <time>2011-02-06T10:21:41Z</time>
      </trkpt>
      <trkpt lat="48.30813" lon="2.60512">
        <ele>117.9</ele>
        <time>2011-02-06T10:21:47Z</time>
      </trkpt>
      <trkpt lat="48.30809" lon="2.6049">
        <ele>118.38</ele>
        <time>2011-02-06T10:21:52Z</time>
      </trkpt>
      <trkpt lat="48.30797" lon="2.60477">
        <ele>115.98</ele>
        <time>2011-02-06T10:21:56Z</time>
      </trkpt>
      <trkpt lat="48.30787" lon="2.60462">
        <ele>115.01</ele>
        <time>2011-02-06T10:21:59Z</time>
      </trkpt>
      <trkpt lat="48.30767" lon="2.60436">
        <ele>112.13</ele>
        <time>2011-02-06T10:22:04Z</time>
      </trkpt>
      <trkpt lat="48.30765" lon="2.6043">
        <ele>111.65</ele>
        <time>2011-02-06T10:22:05Z</time>
      </trkpt>
      <trkpt lat="48.30747" lon="2.60403">
        <ele>106.84</ele>
        <time>2011-02-06T10:22:10Z</time>
      </trkpt>
      <trkpt lat="48.3074" lon="2.60385">
        <ele>103.48</ele>
        <time>2011-02-06T10:22:13Z</time>
      </trkpt>
      <trkpt lat="48.30737" lon="2.60361">
        <ele>100.11</ele>
        <time>2011-02-06T10:22:16Z</time>
      </trkpt>
      <trkpt lat="48.30734" lon="2.60304">
        <ele>96.27</ele>
        <time>2011-02-06T10:22:22Z</time>
      </trkpt>
      <trkpt lat="48.30733" lon="2.60293">
        <ele>95.31</ele>
        <time>2011-02-06T10:22:23Z</time>
      </trkpt>
      <trkpt lat="48.30732" lon="2.60279">
        <ele>94.35</ele>
        <time>2011-02-06T10:22:24Z</time>
      </trkpt>
      <trkpt lat="48.30729" lon="2.6023">
        <ele>92.42</ele>
        <time>2011-02-06T10:22:29Z</time>
      </trkpt>
      <trkpt lat="48.30727" lon="2.60221">
        <ele>91.94</ele>
        <time>2011-02-06T10:22:30Z</time>
      </trkpt>
      <trkpt lat="48.30726" lon="2.60213">
        <ele>91.46</ele>
        <time>2011-02-06T10:22:31Z</time>
      </trkpt>
      <trkpt lat="48.30724" lon="2.60204">
        <ele>90.98</ele>
        <time>2011-02-06T10:22:32Z</time>
      </trkpt>
      <trkpt lat="48.30718" lon="2.60188">
        <ele>90.02</ele>
        <time>2011-02-06T10:22:34Z</time>
      </trkpt>
      <trkpt lat="48.30715" lon="2.60179">
        <ele>90.02</ele>
        <time>2011-02-06T10:22:35Z</time>
      </trkpt>
      <trkpt lat="48.30712" lon="2.60172">
        <ele>90.02</ele>
        <time>2011-02-06T10:22:36Z</time>
      </trkpt>
      <trkpt lat="48.30709" lon="2.60165">
        <ele>90.02</ele>
        <time>2011-02-06T10:22:37Z</time>
      </trkpt>
      <trkpt lat="48.30705" lon="2.60159">
        <ele>89.54</ele>
        <time>2011-02-06T10:22:38Z</time>
      </trkpt>
      <trkpt lat="48.30701" lon="2.60153">
        <ele>89.54</ele>
        <time>2011-02-06T10:22:39Z</time>
      </trkpt>
      <trkpt lat="48.30697" lon="2.60149">
        <ele>89.54</ele>
        <time>2011-02-06T10:22:40Z</time>
      </trkpt>
      <trkpt lat="48.30693" lon="2.60144">
        <ele>89.06</ele>
        <time>2011-02-06T10:22:41Z</time>
      </trkpt>
      <trkpt lat="48.3069" lon="2.60139">
        <ele>88.58</ele>
        <time>2011-02-06T10:22:42Z</time>
      </trkpt>
      <trkpt lat="48.30683" lon="2.60129">
        <ele>87.62</ele>
        <time>2011-02-06T10:22:44Z</time>
      </trkpt>
      <trkpt lat="48.3068" lon="2.60125">
        <ele>87.62</ele>
        <time>2011-02-06T10:22:45Z</time>
      </trkpt>
      <trkpt lat="48.30673" lon="2.60116">
        <ele>87.14</ele>
        <time>2011-02-06T10:22:47Z</time>
      </trkpt>
      <trkpt lat="48.30669" lon="2.60111">
        <ele>86.66</ele>
        <time>2011-02-06T10:22:48Z</time>
      </trkpt>
      <trkpt lat="48.30666" lon="2.60107">
        <ele>87.14</ele>
        <time>2011-02-06T10:22:49Z</time>
      </trkpt>
      <trkpt lat="48.30662" lon="2.60103">
        <ele>86.66</ele>
        <time>2011-02-06T10:22:50Z</time>
      </trkpt>
      <trkpt lat="48.30659" lon="2.601">
        <ele>86.18</ele>
        <time>2011-02-06T10:22:51Z</time>
      </trkpt>
      <trkpt lat="48.30655" lon="2.60097">
        <ele>85.69</ele>
        <time>2011-02-06T10:22:52Z</time>
      </trkpt>
      <trkpt lat="48.30647" lon="2.60091">
        <ele>85.69</ele>
        <time>2011-02-06T10:22:54Z</time>
      </trkpt>
      <trkpt lat="48.30644" lon="2.60088">
        <ele>85.69</ele>
        <time>2011-02-06T10:22:55Z</time>
      </trkpt>
      <trkpt lat="48.30626" lon="2.60085">
        <ele>87.62</ele>
        <time>2011-02-06T10:23:03Z</time>
      </trkpt>
      <trkpt lat="48.30612" lon="2.60079">
        <ele>89.06</ele>
        <time>2011-02-06T10:23:09Z</time>
      </trkpt>
      <trkpt lat="48.30585" lon="2.60058">
        <ele>89.06</ele>
        <time>2011-02-06T10:23:21Z</time>
      </trkpt>
      <trkpt lat="48.30552" lon="2.60028">
        <ele>88.1</ele>
        <time>2011-02-06T10:23:31Z</time>
      </trkpt>
      <trkpt lat="48.30544" lon="2.60018">
        <ele>87.62</ele>
        <time>2011-02-06T10:23:35Z</time>
      </trkpt>
      <trkpt lat="48.30543" lon="2.60015">
        <ele>86.66</ele>
        <time>2011-02-06T10:23:36Z</time>
      </trkpt>
      <trkpt lat="48.30541" lon="2.60013">
        <ele>86.18</ele>
        <time>2011-02-06T10:23:37Z</time>
      </trkpt>
      <trkpt lat="48.30538" lon="2.6001">
        <ele>85.21</ele>
        <time>2011-02-06T10:23:38Z</time>
      </trkpt>
      <trkpt lat="48.30535" lon="2.60008">
        <ele>84.73</ele>
        <time>2011-02-06T10:23:39Z</time>
      </trkpt>
      <trkpt lat="48.30532" lon="2.60005">
        <ele>84.73</ele>
        <time>2011-02-06T10:23:40Z</time>
      </trkpt>
      <trkpt lat="48.3053" lon="2.60003">
        <ele>83.77</ele>
        <time>2011-02-06T10:23:41Z</time>
      </trkpt>
      <trkpt lat="48.30523" lon="2.59991">
        <ele>81.85</ele>
        <time>2011-02-06T10:23:44Z</time>
      </trkpt>
      <trkpt lat="48.30522" lon="2.59988">
        <ele>79.93</ele>
        <time>2011-02-06T10:23:45Z</time>
      </trkpt>
      <trkpt lat="48.3052" lon="2.59985">
        <ele>79.93</ele>
        <time>2011-02-06T10:23:46Z</time>
      </trkpt>
      <trkpt lat="48.30517" lon="2.5998">
        <ele>78</ele>
        <time>2011-02-06T10:23:48Z</time>
      </trkpt>
      <trkpt lat="48.30514" lon="2.59969">
        <ele>75.12</ele>
        <time>2011-02-06T10:23:51Z</time>
      </trkpt>
      <trkpt lat="48.30488" lon="2.5997">
        <ele>73.68</ele>
        <time>2011-02-06T10:24:00Z</time>
      </trkpt>
      <trkpt lat="48.3048" lon="2.59978">
        <ele>74.16</ele>
        <time>2011-02-06T10:24:04Z</time>
      </trkpt>
      <trkpt lat="48.30473" lon="2.59955">
        <ele>75.12</ele>
        <time>2011-02-06T10:24:12Z</time>
      </trkpt>
      <trkpt lat="48.30462" lon="2.5993">
        <ele>74.64</ele>
        <time>2011-02-06T10:24:18Z</time>
      </trkpt>
      <trkpt lat="48.30461" lon="2.59921">
        <ele>74.64</ele>
        <time>2011-02-06T10:24:31Z</time>
      </trkpt>
      <trkpt lat="48.30462" lon="2.59919">
        <ele>74.16</ele>
        <time>2011-02-06T10:24:45Z</time>
      </trkpt>
      <trkpt lat="48.30467" lon="2.59917">
        <ele>74.64</ele>
        <time>2011-02-06T10:24:49Z</time>
      </trkpt>
      <trkpt lat="48.30471" lon="2.59914">
        <ele>74.64</ele>
        <time>2011-02-06T10:24:52Z</time>
      </trkpt>
      <trkpt lat="48.30492" lon="2.59904">
        <ele>75.12</ele>
        <time>2011-02-06T10:25:04Z</time>
      </trkpt>
      <trkpt lat="48.30524" lon="2.59879">
        <ele>77.04</ele>
        <time>2011-02-06T10:25:17Z</time>
      </trkpt>
      <trkpt lat="48.30553" lon="2.5986">
        <ele>78.48</ele>
        <time>2011-02-06T10:25:30Z</time>
      </trkpt>
      <trkpt lat="48.30563" lon="2.59854">
        <ele>80.41</ele>
        <time>2011-02-06T10:25:36Z</time>
      </trkpt>
      <trkpt lat="48.30574" lon="2.59818">
        <ele>81.37</ele>
        <time>2011-02-06T10:25:49Z</time>
      </trkpt>
      <trkpt lat="48.30577" lon="2.59808">
        <ele>82.33</ele>
        <time>2011-02-06T10:25:53Z</time>
      </trkpt>
      <trkpt lat="48.30588" lon="2.59775">
        <ele>83.77</ele>
        <time>2011-02-06T10:26:07Z</time>
      </trkpt>
      <trkpt lat="48.30589" lon="2.59767">
        <ele>85.21</ele>
        <time>2011-02-06T10:26:11Z</time>
      </trkpt>
      <trkpt lat="48.30594" lon="2.59742">
        <ele>87.14</ele>
        <time>2011-02-06T10:26:23Z</time>
      </trkpt>
      <trkpt lat="48.30597" lon="2.59716">
        <ele>88.58</ele>
        <time>2011-02-06T10:26:34Z</time>
      </trkpt>
      <trkpt lat="48.30599" lon="2.59709">
        <ele>89.06</ele>
        <time>2011-02-06T10:26:38Z</time>
      </trkpt>
      <trkpt lat="48.30601" lon="2.59687">
        <ele>90.02</ele>
        <time>2011-02-06T10:26:48Z</time>
      </trkpt>
      <trkpt lat="48.30601" lon="2.59676">
        <ele>91.94</ele>
        <time>2011-02-06T10:26:52Z</time>
      </trkpt>
      <trkpt lat="48.30606" lon="2.59659">
        <ele>92.9</ele>
        <time>2011-02-06T10:27:02Z</time>
      </trkpt>
      <trkpt lat="48.30607" lon="2.5965">
        <ele>93.39</ele>
        <time>2011-02-06T10:27:07Z</time>
      </trkpt>
      <trkpt lat="48.30609" lon="2.59638">
        <ele>94.83</ele>
        <time>2011-02-06T10:27:13Z</time>
      </trkpt>
      <trkpt lat="48.30612" lon="2.59614">
        <ele>96.27</ele>
        <time>2011-02-06T10:27:24Z</time>
      </trkpt>
      <trkpt lat="48.30616" lon="2.59605">
        <ele>97.23</ele>
        <time>2011-02-06T10:27:29Z</time>
      </trkpt>
      <trkpt lat="48.30619" lon="2.59605">
        <ele>97.71</ele>
        <time>2011-02-06T10:27:32Z</time>
      </trkpt>
      <trkpt lat="48.30628" lon="2.59598">
        <ele>98.67</ele>
        <time>2011-02-06T10:27:39Z</time>
      </trkpt>
      <trkpt lat="48.30633" lon="2.59592">
        <ele>99.15</ele>
        <time>2011-02-06T10:27:44Z</time>
      </trkpt>
      <trkpt lat="48.30635" lon="2.59586">
        <ele>100.11</ele>
        <time>2011-02-06T10:27:48Z</time>
      </trkpt>
      <trkpt lat="48.30638" lon="2.59575">
        <ele>100.6</ele>
        <time>2011-02-06T10:27:52Z</time>
      </trkpt>
      <trkpt lat="48.30646" lon="2.59544">
        <ele>103.48</ele>
        <time>2011-02-06T10:28:03Z</time>
      </trkpt>
      <trkpt lat="48.3065" lon="2.59527">
        <ele>104.92</ele>
        <time>2011-02-06T10:28:10Z</time>
      </trkpt>
      <trkpt lat="48.30652" lon="2.59519">
        <ele>105.4</ele>
        <time>2011-02-06T10:28:14Z</time>
      </trkpt>
      <trkpt lat="48.30659" lon="2.59501">
        <ele>106.84</ele>
        <time>2011-02-06T10:28:24Z</time>
      </trkpt>
      <trkpt lat="48.30662" lon="2.59489">
        <ele>107.81</ele>
        <time>2011-02-06T10:28:29Z</time>
      </trkpt>
      <trkpt lat="48.30666" lon="2.59473">
        <ele>109.25</ele>
        <time>2011-02-06T10:28:36Z</time>
      </trkpt>
      <trkpt lat="48.30679" lon="2.59454">
        <ele>112.13</ele>
        <time>2011-02-06T10:28:50Z</time>
      </trkpt>
      <trkpt lat="48.30685" lon="2.5944">
        <ele>114.05</ele>
        <time>2011-02-06T10:29:00Z</time>
      </trkpt>
      <trkpt lat="48.30684" lon="2.5943">
        <ele>114.05</ele>
        <time>2011-02-06T10:29:04Z</time>
      </trkpt>
      <trkpt lat="48.30687" lon="2.59422">
        <ele>114.05</ele>
        <time>2011-02-06T10:29:08Z</time>
      </trkpt>
      <trkpt lat="48.3069" lon="2.59406">
        <ele>115.5</ele>
        <time>2011-02-06T10:29:15Z</time>
      </trkpt>
      <trkpt lat="48.30682" lon="2.5936">
        <ele>115.98</ele>
        <time>2011-02-06T10:29:30Z</time>
      </trkpt>
      <trkpt lat="48.30681" lon="2.59357">
        <ele>115.5</ele>
        <time>2011-02-06T10:29:31Z</time>
      </trkpt>
      <trkpt lat="48.30665" lon="2.5935">
        <ele>114.05</ele>
        <time>2011-02-06T10:29:36Z</time>
      </trkpt>
      <trkpt lat="48.30642" lon="2.59345">
        <ele>113.09</ele>
        <time>2011-02-06T10:29:42Z</time>
      </trkpt>
      <trkpt lat="48.30624" lon="2.59336">
        <ele>111.17</ele>
        <time>2011-02-06T10:29:49Z</time>
      </trkpt>
      <trkpt lat="48.30623" lon="2.59331">
        <ele>111.17</ele>
        <time>2011-02-06T10:29:50Z</time>
      </trkpt>
      <trkpt lat="48.3062" lon="2.59283">
        <ele>112.61</ele>
        <time>2011-02-06T10:30:00Z</time>
      </trkpt>
      <trkpt lat="48.30619" lon="2.59278">
        <ele>112.61</ele>
        <time>2011-02-06T10:30:01Z</time>
      </trkpt>
      <trkpt lat="48.30616" lon="2.59257">
        <ele>114.05</ele>
        <time>2011-02-06T10:30:06Z</time>
      </trkpt>
      <trkpt lat="48.30606" lon="2.59232">
        <ele>113.57</ele>
        <time>2011-02-06T10:30:12Z</time>
      </trkpt>
      <trkpt lat="48.30596" lon="2.59177">
        <ele>113.09</ele>
        <time>2011-02-06T10:30:24Z</time>
      </trkpt>
      <trkpt lat="48.30589" lon="2.59161">
        <ele>113.09</ele>
        <time>2011-02-06T10:30:28Z</time>
      </trkpt>
      <trkpt lat="48.30586" lon="2.59152">
        <ele>113.57</ele>
        <time>2011-02-06T10:30:30Z</time>
      </trkpt>
      <trkpt lat="48.30595" lon="2.59127">
        <ele>114.05</ele>
        <time>2011-02-06T10:30:36Z</time>
      </trkpt>
      <trkpt lat="48.30615" lon="2.59097">
        <ele>115.01</ele>
        <time>2011-02-06T10:30:47Z</time>
      </trkpt>
      <trkpt lat="48.3063" lon="2.59061">
        <ele>112.13</ele>
        <time>2011-02-06T10:30:58Z</time>
      </trkpt>
      <trkpt lat="48.30631" lon="2.59057">
        <ele>112.13</ele>
        <time>2011-02-06T10:30:59Z</time>
      </trkpt>
      <trkpt lat="48.30633" lon="2.59049">
        <ele>111.17</ele>
        <time>2011-02-06T10:31:01Z</time>
      </trkpt>
      <trkpt lat="48.30636" lon="2.59025">
        <ele>106.36</ele>
        <time>2011-02-06T10:31:08Z</time>
      </trkpt>
      <trkpt lat="48.30632" lon="2.59014">
        <ele>104.44</ele>
        <time>2011-02-06T10:31:11Z</time>
      </trkpt>
      <trkpt lat="48.3062" lon="2.59005">
        <ele>101.08</ele>
        <time>2011-02-06T10:31:17Z</time>
      </trkpt>
      <trkpt lat="48.30616" lon="2.59001">
        <ele>100.11</ele>
        <time>2011-02-06T10:31:19Z</time>
      </trkpt>
      <trkpt lat="48.30615" lon="2.59">
        <ele>100.11</ele>
        <time>2011-02-06T10:31:20Z</time>
      </trkpt>
      <trkpt lat="48.30615" lon="2.5899">
        <ele>100.11</ele>
        <time>2011-02-06T10:31:24Z</time>
      </trkpt>
      <trkpt lat="48.30625" lon="2.59">
        <ele>103</ele>
        <time>2011-02-06T10:31:34Z</time>
      </trkpt>
      <trkpt lat="48.30626" lon="2.59001">
        <ele>103.48</ele>
        <time>2011-02-06T10:31:35Z</time>
      </trkpt>
      <trkpt lat="48.3063" lon="2.59">
        <ele>104.44</ele>
        <time>2011-02-06T10:31:40Z</time>
      </trkpt>
      <trkpt lat="48.30633" lon="2.58998">
        <ele>104.44</ele>
        <time>2011-02-06T10:31:42Z</time>
      </trkpt>
      <trkpt lat="48.30637" lon="2.58993">
        <ele>104.92</ele>
        <time>2011-02-06T10:31:50Z</time>
      </trkpt>
      <trkpt lat="48.30647" lon="2.58987">
        <ele>107.81</ele>
        <time>2011-02-06T10:31:57Z</time>
      </trkpt>
      <trkpt lat="48.3065" lon="2.58977">
        <ele>109.25</ele>
        <time>2011-02-06T10:32:02Z</time>
      </trkpt>
      <trkpt lat="48.30652" lon="2.5897">
        <ele>110.69</ele>
        <time>2011-02-06T10:32:07Z</time>
      </trkpt>
      <trkpt lat="48.30659" lon="2.58961">
        <ele>112.61</ele>
        <time>2011-02-06T10:32:19Z</time>
      </trkpt>
      <trkpt lat="48.3066" lon="2.58954">
        <ele>113.57</ele>
        <time>2011-02-06T10:32:25Z</time>
      </trkpt>
      <trkpt lat="48.3066" lon="2.58942">
        <ele>114.05</ele>
        <time>2011-02-06T10:32:35Z</time>
      </trkpt>
      <trkpt lat="48.30667" lon="2.58922">
        <ele>113.09</ele>
        <time>2011-02-06T10:32:43Z</time>
      </trkpt>
      <trkpt lat="48.30669" lon="2.58911">
        <ele>112.13</ele>
        <time>2011-02-06T10:32:47Z</time>
      </trkpt>
      <trkpt lat="48.30669" lon="2.58907">
        <ele>112.61</ele>
        <time>2011-02-06T10:32:49Z</time>
      </trkpt>
      <trkpt lat="48.30671" lon="2.58879">
        <ele>108.77</ele>
        <time>2011-02-06T10:32:56Z</time>
      </trkpt>
      <trkpt lat="48.30672" lon="2.58872">
        <ele>108.77</ele>
        <time>2011-02-06T10:32:57Z</time>
      </trkpt>
      <trkpt lat="48.3067" lon="2.58843">
        <ele>107.32</ele>
        <time>2011-02-06T10:33:04Z</time>
      </trkpt>
      <trkpt lat="48.30669" lon="2.58839">
        <ele>107.32</ele>
        <time>2011-02-06T10:33:06Z</time>
      </trkpt>
      <trkpt lat="48.30662" lon="2.58827">
        <ele>108.29</ele>
        <time>2011-02-06T10:33:12Z</time>
      </trkpt>
      <trkpt lat="48.3066" lon="2.58827">
        <ele>108.77</ele>
        <time>2011-02-06T10:33:14Z</time>
      </trkpt>
      <trkpt lat="48.30654" lon="2.58827">
        <ele>107.32</ele>
        <time>2011-02-06T10:33:17Z</time>
      </trkpt>
      <trkpt lat="48.30646" lon="2.58823">
        <ele>107.81</ele>
        <time>2011-02-06T10:33:22Z</time>
      </trkpt>
      <trkpt lat="48.30635" lon="2.58812">
        <ele>106.84</ele>
        <time>2011-02-06T10:33:33Z</time>
      </trkpt>
      <trkpt lat="48.30635" lon="2.58812">
        <ele>107.32</ele>
        <time>2011-02-06T10:33:36Z</time>
      </trkpt>
      <trkpt lat="48.30637" lon="2.58814">
        <ele>107.32</ele>
        <time>2011-02-06T10:33:42Z</time>
      </trkpt>
      <trkpt lat="48.30633" lon="2.58825">
        <ele>103.48</ele>
        <time>2011-02-06T10:33:49Z</time>
      </trkpt>
      <trkpt lat="48.30631" lon="2.58827">
        <ele>103.48</ele>
        <time>2011-02-06T10:33:50Z</time>
      </trkpt>
      <trkpt lat="48.3063" lon="2.58829">
        <ele>103</ele>
        <time>2011-02-06T10:33:52Z</time>
      </trkpt>
      <trkpt lat="48.30627" lon="2.58838">
        <ele>101.08</ele>
        <time>2011-02-06T10:34:01Z</time>
      </trkpt>
      <trkpt lat="48.30626" lon="2.58839">
        <ele>100.11</ele>
        <time>2011-02-06T10:34:05Z</time>
      </trkpt>
      <trkpt lat="48.30621" lon="2.58846">
        <ele>98.67</ele>
        <time>2011-02-06T10:34:07Z</time>
      </trkpt>
      <trkpt lat="48.3062" lon="2.58848">
        <ele>99.15</ele>
        <time>2011-02-06T10:34:16Z</time>
      </trkpt>
      <trkpt lat="48.30619" lon="2.58846">
        <ele>98.67</ele>
        <time>2011-02-06T10:34:23Z</time>
      </trkpt>
      <trkpt lat="48.30612" lon="2.58829">
        <ele>94.35</ele>
        <time>2011-02-06T10:34:28Z</time>
      </trkpt>
      <trkpt lat="48.30611" lon="2.58827">
        <ele>94.35</ele>
        <time>2011-02-06T10:34:29Z</time>
      </trkpt>
      <trkpt lat="48.30611" lon="2.58825">
        <ele>94.35</ele>
        <time>2011-02-06T10:34:30Z</time>
      </trkpt>
      <trkpt lat="48.30611" lon="2.58815">
        <ele>93.39</ele>
        <time>2011-02-06T10:34:40Z</time>
      </trkpt>
      <trkpt lat="48.30609" lon="2.58812">
        <ele>93.39</ele>
        <time>2011-02-06T10:34:43Z</time>
      </trkpt>
      <trkpt lat="48.30604" lon="2.5881">
        <ele>92.42</ele>
        <time>2011-02-06T10:34:51Z</time>
      </trkpt>
      <trkpt lat="48.30604" lon="2.5881">
        <ele>92.42</ele>
        <time>2011-02-06T10:35:13Z</time>
      </trkpt>
      <trkpt lat="48.30604" lon="2.5881">
        <ele>92.42</ele>
        <time>2011-02-06T10:35:34Z</time>
      </trkpt>
      <trkpt lat="48.30604" lon="2.58814">
        <ele>92.9</ele>
        <time>2011-02-06T10:35:48Z</time>
      </trkpt>
      <trkpt lat="48.30604" lon="2.58814">
        <ele>92.9</ele>
        <time>2011-02-06T10:36:17Z</time>
      </trkpt>
      <trkpt lat="48.30604" lon="2.58814">
        <ele>92.9</ele>
        <time>2011-02-06T10:36:43Z</time>
      </trkpt>
      <trkpt lat="48.30604" lon="2.58814">
        <ele>93.39</ele>
        <time>2011-02-06T10:37:10Z</time>
      </trkpt>
      <trkpt lat="48.30604" lon="2.58814">
        <ele>92.9</ele>
        <time>2011-02-06T10:37:36Z</time>
      </trkpt>
      <trkpt lat="48.30604" lon="2.58814">
        <ele>92.42</ele>
        <time>2011-02-06T10:37:59Z</time>
      </trkpt>
      <trkpt lat="48.30604" lon="2.58814">
        <ele>92.9</ele>
        <time>2011-02-06T10:38:21Z</time>
      </trkpt>
      <trkpt lat="48.306" lon="2.58792">
        <ele>90.98</ele>
        <time>2011-02-06T10:38:30Z</time>
      </trkpt>
      <trkpt lat="48.30587" lon="2.58772">
        <ele>87.14</ele>
        <time>2011-02-06T10:38:34Z</time>
      </trkpt>
      <trkpt lat="48.3058" lon="2.58761">
        <ele>84.73</ele>
        <time>2011-02-06T10:38:36Z</time>
      </trkpt>
      <trkpt lat="48.30575" lon="2.58745">
        <ele>84.73</ele>
        <time>2011-02-06T10:38:38Z</time>
      </trkpt>
      <trkpt lat="48.30581" lon="2.58723">
        <ele>87.62</ele>
        <time>2011-02-06T10:38:44Z</time>
      </trkpt>
      <trkpt lat="48.30584" lon="2.58713">
        <ele>87.62</ele>
        <time>2011-02-06T10:38:48Z</time>
      </trkpt>
      <trkpt lat="48.30586" lon="2.58704">
        <ele>87.62</ele>
        <time>2011-02-06T10:38:51Z</time>
      </trkpt>
      <trkpt lat="48.30588" lon="2.58691">
        <ele>88.58</ele>
        <time>2011-02-06T10:38:55Z</time>
      </trkpt>
      <trkpt lat="48.3059" lon="2.58663">
        <ele>90.98</ele>
        <time>2011-02-06T10:39:07Z</time>
      </trkpt>
      <trkpt lat="48.30586" lon="2.58646">
        <ele>93.39</ele>
        <time>2011-02-06T10:39:19Z</time>
      </trkpt>
      <trkpt lat="48.30583" lon="2.58638">
        <ele>94.35</ele>
        <time>2011-02-06T10:39:24Z</time>
      </trkpt>
      <trkpt lat="48.30578" lon="2.58644">
        <ele>95.79</ele>
        <time>2011-02-06T10:39:33Z</time>
      </trkpt>
      <trkpt lat="48.30579" lon="2.58657">
        <ele>96.75</ele>
        <time>2011-02-06T10:39:40Z</time>
      </trkpt>
      <trkpt lat="48.30562" lon="2.58681">
        <ele>96.75</ele>
        <time>2011-02-06T10:39:53Z</time>
      </trkpt>
      <trkpt lat="48.30557" lon="2.58716">
        <ele>98.19</ele>
        <time>2011-02-06T10:40:08Z</time>
      </trkpt>
      <trkpt lat="48.30554" lon="2.58726">
        <ele>97.71</ele>
        <time>2011-02-06T10:40:19Z</time>
      </trkpt>
      <trkpt lat="48.30553" lon="2.58726">
        <ele>97.71</ele>
        <time>2011-02-06T10:40:34Z</time>
      </trkpt>
      <trkpt lat="48.30553" lon="2.58726">
        <ele>97.23</ele>
        <time>2011-02-06T10:40:51Z</time>
      </trkpt>
      <trkpt lat="48.30553" lon="2.58726">
        <ele>97.23</ele>
        <time>2011-02-06T10:41:24Z</time>
      </trkpt>
      <trkpt lat="48.30553" lon="2.58726">
        <ele>97.23</ele>
        <time>2011-02-06T10:41:51Z</time>
      </trkpt>
      <trkpt lat="48.30553" lon="2.58726">
        <ele>97.23</ele>
        <time>2011-02-06T10:42:24Z</time>
      </trkpt>
      <trkpt lat="48.30553" lon="2.58727">
        <ele>97.23</ele>
        <time>2011-02-06T10:42:55Z</time>
      </trkpt>
      <trkpt lat="48.30553" lon="2.58727">
        <ele>97.23</ele>
        <time>2011-02-06T10:43:25Z</time>
      </trkpt>
      <trkpt lat="48.30553" lon="2.58727">
        <ele>97.71</ele>
        <time>2011-02-06T10:43:56Z</time>
      </trkpt>
      <trkpt lat="48.30553" lon="2.58727">
        <ele>97.71</ele>
        <time>2011-02-06T10:44:29Z</time>
      </trkpt>
      <trkpt lat="48.30553" lon="2.58727">
        <ele>97.71</ele>
        <time>2011-02-06T10:45:02Z</time>
      </trkpt>
      <trkpt lat="48.30553" lon="2.58726">
        <ele>97.71</ele>
        <time>2011-02-06T10:45:37Z</time>
      </trkpt>
      <trkpt lat="48.30554" lon="2.58726">
        <ele>97.71</ele>
        <time>2011-02-06T10:46:07Z</time>
      </trkpt>
      <trkpt lat="48.30554" lon="2.58726">
        <ele>97.71</ele>
        <time>2011-02-06T10:46:40Z</time>
      </trkpt>
      <trkpt lat="48.30554" lon="2.58726">
        <ele>97.71</ele>
        <time>2011-02-06T10:47:13Z</time>
      </trkpt>
      <trkpt lat="48.30554" lon="2.58726">
        <ele>97.71</ele>
        <time>2011-02-06T10:47:45Z</time>
      </trkpt>
      <trkpt lat="48.30554" lon="2.58725">
        <ele>97.71</ele>
        <time>2011-02-06T10:48:22Z</time>
      </trkpt>
      <trkpt lat="48.30553" lon="2.58725">
        <ele>97.71</ele>
        <time>2011-02-06T10:48:54Z</time>
      </trkpt>
      <trkpt lat="48.30553" lon="2.58725">
        <ele>97.71</ele>
        <time>2011-02-06T10:49:23Z</time>
      </trkpt>
      <trkpt lat="48.30553" lon="2.58725">
        <ele>97.23</ele>
        <time>2011-02-06T10:49:59Z</time>
      </trkpt>
      <trkpt lat="48.30552" lon="2.58725">
        <ele>98.19</ele>
        <time>2011-02-06T10:50:09Z</time>
      </trkpt>
      <trkpt lat="48.30543" lon="2.58737">
        <ele>98.67</ele>
        <time>2011-02-06T10:50:20Z</time>
      </trkpt>
      <trkpt lat="48.30534" lon="2.58752">
        <ele>98.19</ele>
        <time>2011-02-06T10:50:32Z</time>
      </trkpt>
      <trkpt lat="48.30532" lon="2.58758">
        <ele>98.19</ele>
        <time>2011-02-06T10:50:43Z</time>
      </trkpt>
      <trkpt lat="48.30532" lon="2.58758">
        <ele>97.71</ele>
        <time>2011-02-06T10:50:46Z</time>
      </trkpt>
      <trkpt lat="48.30529" lon="2.58764">
        <ele>94.35</ele>
        <time>2011-02-06T10:50:50Z</time>
      </trkpt>
      <trkpt lat="48.30524" lon="2.5877">
        <ele>91.94</ele>
        <time>2011-02-06T10:51:01Z</time>
      </trkpt>
      <trkpt lat="48.30525" lon="2.58777">
        <ele>90.02</ele>
        <time>2011-02-06T10:51:08Z</time>
      </trkpt>
      <trkpt lat="48.30506" lon="2.58791">
        <ele>86.18</ele>
        <time>2011-02-06T10:51:15Z</time>
      </trkpt>
      <trkpt lat="48.30502" lon="2.58781">
        <ele>86.18</ele>
        <time>2011-02-06T10:51:20Z</time>
      </trkpt>
      <trkpt lat="48.30503" lon="2.58776">
        <ele>86.18</ele>
        <time>2011-02-06T10:51:22Z</time>
      </trkpt>
      <trkpt lat="48.30506" lon="2.58759">
        <ele>86.18</ele>
        <time>2011-02-06T10:51:33Z</time>
      </trkpt>
      <trkpt lat="48.30506" lon="2.58759">
        <ele>86.66</ele>
        <time>2011-02-06T10:51:34Z</time>
      </trkpt>
      <trkpt lat="48.30509" lon="2.58734">
        <ele>86.66</ele>
        <time>2011-02-06T10:51:43Z</time>
      </trkpt>
      <trkpt lat="48.30488" lon="2.58711">
        <ele>85.69</ele>
        <time>2011-02-06T10:51:53Z</time>
      </trkpt>
      <trkpt lat="48.30475" lon="2.58707">
        <ele>85.21</ele>
        <time>2011-02-06T10:51:58Z</time>
      </trkpt>
      <trkpt lat="48.30476" lon="2.58705">
        <ele>85.69</ele>
        <time>2011-02-06T10:52:00Z</time>
      </trkpt>
      <trkpt lat="48.30483" lon="2.58683">
        <ele>86.66</ele>
        <time>2011-02-06T10:52:08Z</time>
      </trkpt>
      <trkpt lat="48.30482" lon="2.58656">
        <ele>87.62</ele>
        <time>2011-02-06T10:52:17Z</time>
      </trkpt>
      <trkpt lat="48.30481" lon="2.58635">
        <ele>89.06</ele>
        <time>2011-02-06T10:52:23Z</time>
      </trkpt>
      <trkpt lat="48.30491" lon="2.58622">
        <ele>89.06</ele>
        <time>2011-02-06T10:52:30Z</time>
      </trkpt>
      <trkpt lat="48.30493" lon="2.58603">
        <ele>89.54</ele>
        <time>2011-02-06T10:52:35Z</time>
      </trkpt>
      <trkpt lat="48.30501" lon="2.58586">
        <ele>91.46</ele>
        <time>2011-02-06T10:52:44Z</time>
      </trkpt>
      <trkpt lat="48.30518" lon="2.58584">
        <ele>91.46</ele>
        <time>2011-02-06T10:52:53Z</time>
      </trkpt>
      <trkpt lat="48.30521" lon="2.58574">
        <ele>92.42</ele>
        <time>2011-02-06T10:52:57Z</time>
      </trkpt>
      <trkpt lat="48.30537" lon="2.58566">
        <ele>93.87</ele>
        <time>2011-02-06T10:53:07Z</time>
      </trkpt>
      <trkpt lat="48.3055" lon="2.58539">
        <ele>94.83</ele>
        <time>2011-02-06T10:53:18Z</time>
      </trkpt>
      <trkpt lat="48.30554" lon="2.58532">
        <ele>95.79</ele>
        <time>2011-02-06T10:53:23Z</time>
      </trkpt>
      <trkpt lat="48.30554" lon="2.58524">
        <ele>96.75</ele>
        <time>2011-02-06T10:53:27Z</time>
      </trkpt>
      <trkpt lat="48.30555" lon="2.58522">
        <ele>96.27</ele>
        <time>2011-02-06T10:53:28Z</time>
      </trkpt>
      <trkpt lat="48.30562" lon="2.58512">
        <ele>97.71</ele>
        <time>2011-02-06T10:53:35Z</time>
      </trkpt>
      <trkpt lat="48.30567" lon="2.58508">
        <ele>98.67</ele>
        <time>2011-02-06T10:53:40Z</time>
      </trkpt>
      <trkpt lat="48.30564" lon="2.58496">
        <ele>98.67</ele>
        <time>2011-02-06T10:53:47Z</time>
      </trkpt>
      <trkpt lat="48.30563" lon="2.5848">
        <ele>100.6</ele>
        <time>2011-02-06T10:53:58Z</time>
      </trkpt>
      <trkpt lat="48.30563" lon="2.58478">
        <ele>101.08</ele>
        <time>2011-02-06T10:53:59Z</time>
      </trkpt>
      <trkpt lat="48.30558" lon="2.58455">
        <ele>101.56</ele>
        <time>2011-02-06T10:54:11Z</time>
      </trkpt>
      <trkpt lat="48.30551" lon="2.58443">
        <ele>102.52</ele>
        <time>2011-02-06T10:54:19Z</time>
      </trkpt>
      <trkpt lat="48.30543" lon="2.58446">
        <ele>103</ele>
        <time>2011-02-06T10:54:25Z</time>
      </trkpt>
      <trkpt lat="48.30539" lon="2.58469">
        <ele>99.15</ele>
        <time>2011-02-06T10:54:32Z</time>
      </trkpt>
      <trkpt lat="48.30538" lon="2.58476">
        <ele>98.19</ele>
        <time>2011-02-06T10:54:33Z</time>
      </trkpt>
      <trkpt lat="48.30525" lon="2.58509">
        <ele>96.27</ele>
        <time>2011-02-06T10:54:39Z</time>
      </trkpt>
      <trkpt lat="48.30522" lon="2.58511">
        <ele>96.27</ele>
        <time>2011-02-06T10:54:41Z</time>
      </trkpt>
      <trkpt lat="48.30504" lon="2.58521">
        <ele>97.23</ele>
        <time>2011-02-06T10:54:50Z</time>
      </trkpt>
      <trkpt lat="48.3049" lon="2.58532">
        <ele>95.31</ele>
        <time>2011-02-06T10:54:57Z</time>
      </trkpt>
      <trkpt lat="48.3049" lon="2.58537">
        <ele>94.83</ele>
        <time>2011-02-06T10:54:59Z</time>
      </trkpt>
      <trkpt lat="48.30482" lon="2.58555">
        <ele>94.35</ele>
        <time>2011-02-06T10:55:08Z</time>
      </trkpt>
      <trkpt lat="48.30482" lon="2.58556">
        <ele>93.87</ele>
        <time>2011-02-06T10:55:09Z</time>
      </trkpt>
      <trkpt lat="48.30469" lon="2.58565">
        <ele>91.46</ele>
        <time>2011-02-06T10:55:19Z</time>
      </trkpt>
      <trkpt lat="48.30466" lon="2.58572">
        <ele>90.5</ele>
        <time>2011-02-06T10:55:34Z</time>
      </trkpt>
      <trkpt lat="48.30462" lon="2.58575">
        <ele>90.02</ele>
        <time>2011-02-06T10:55:46Z</time>
      </trkpt>
      <trkpt lat="48.30455" lon="2.58585">
        <ele>89.06</ele>
        <time>2011-02-06T10:55:50Z</time>
      </trkpt>
      <trkpt lat="48.30426" lon="2.58608">
        <ele>87.14</ele>
        <time>2011-02-06T10:56:01Z</time>
      </trkpt>
      <trkpt lat="48.30421" lon="2.58629">
        <ele>85.69</ele>
        <time>2011-02-06T10:56:05Z</time>
      </trkpt>
      <trkpt lat="48.30404" lon="2.58673">
        <ele>82.33</ele>
        <time>2011-02-06T10:56:14Z</time>
      </trkpt>
      <trkpt lat="48.30393" lon="2.5869">
        <ele>80.89</ele>
        <time>2011-02-06T10:56:19Z</time>
      </trkpt>
      <trkpt lat="48.30388" lon="2.5869">
        <ele>79.93</ele>
        <time>2011-02-06T10:56:20Z</time>
      </trkpt>
      <trkpt lat="48.30381" lon="2.58687">
        <ele>78.97</ele>
        <time>2011-02-06T10:56:22Z</time>
      </trkpt>
      <trkpt lat="48.30377" lon="2.58684">
        <ele>78.48</ele>
        <time>2011-02-06T10:56:23Z</time>
      </trkpt>
      <trkpt lat="48.30375" lon="2.58681">
        <ele>78.97</ele>
        <time>2011-02-06T10:56:24Z</time>
      </trkpt>
      <trkpt lat="48.30372" lon="2.58672">
        <ele>78.48</ele>
        <time>2011-02-06T10:56:26Z</time>
      </trkpt>
      <trkpt lat="48.30355" lon="2.58639">
        <ele>78.48</ele>
        <time>2011-02-06T10:56:34Z</time>
      </trkpt>
      <trkpt lat="48.30344" lon="2.58605">
        <ele>78</ele>
        <time>2011-02-06T10:56:40Z</time>
      </trkpt>
      <trkpt lat="48.30342" lon="2.58599">
        <ele>78</ele>
        <time>2011-02-06T10:56:41Z</time>
      </trkpt>
      <trkpt lat="48.3034" lon="2.58594">
        <ele>78</ele>
        <time>2011-02-06T10:56:42Z</time>
      </trkpt>
      <trkpt lat="48.30339" lon="2.5859">
        <ele>77.52</ele>
        <time>2011-02-06T10:56:43Z</time>
      </trkpt>
      <trkpt lat="48.30337" lon="2.58585">
        <ele>78</ele>
        <time>2011-02-06T10:56:44Z</time>
      </trkpt>
      <trkpt lat="48.30336" lon="2.5858">
        <ele>78.48</ele>
        <time>2011-02-06T10:56:45Z</time>
      </trkpt>
      <trkpt lat="48.30335" lon="2.58574">
        <ele>78.48</ele>
        <time>2011-02-06T10:56:46Z</time>
      </trkpt>
      <trkpt lat="48.30333" lon="2.58569">
        <ele>78.48</ele>
        <time>2011-02-06T10:56:47Z</time>
      </trkpt>
      <trkpt lat="48.30332" lon="2.58563">
        <ele>78.48</ele>
        <time>2011-02-06T10:56:48Z</time>
      </trkpt>
      <trkpt lat="48.3033" lon="2.58557">
        <ele>78.48</ele>
        <time>2011-02-06T10:56:49Z</time>
      </trkpt>
      <trkpt lat="48.3031" lon="2.58511">
        <ele>78.48</ele>
        <time>2011-02-06T10:56:59Z</time>
      </trkpt>
      <trkpt lat="48.30308" lon="2.58498">
        <ele>79.93</ele>
        <time>2011-02-06T10:57:02Z</time>
      </trkpt>
      <trkpt lat="48.30291" lon="2.58459">
        <ele>79.45</ele>
        <time>2011-02-06T10:57:14Z</time>
      </trkpt>
      <trkpt lat="48.30275" lon="2.58438">
        <ele>78.48</ele>
        <time>2011-02-06T10:57:20Z</time>
      </trkpt>
      <trkpt lat="48.30274" lon="2.58434">
        <ele>78.97</ele>
        <time>2011-02-06T10:57:21Z</time>
      </trkpt>
      <trkpt lat="48.30254" lon="2.58393">
        <ele>78.48</ele>
        <time>2011-02-06T10:57:31Z</time>
      </trkpt>
      <trkpt lat="48.30251" lon="2.58385">
        <ele>78.48</ele>
        <time>2011-02-06T10:57:33Z</time>
      </trkpt>
      <trkpt lat="48.30245" lon="2.58361">
        <ele>79.45</ele>
        <time>2011-02-06T10:57:39Z</time>
      </trkpt>
      <trkpt lat="48.30256" lon="2.58356">
        <ele>81.37</ele>
        <time>2011-02-06T10:57:46Z</time>
      </trkpt>
      <trkpt lat="48.30265" lon="2.58367">
        <ele>81.85</ele>
        <time>2011-02-06T10:57:52Z</time>
      </trkpt>
      <trkpt lat="48.30267" lon="2.58371">
        <ele>81.85</ele>
        <time>2011-02-06T10:57:54Z</time>
      </trkpt>
      <trkpt lat="48.30282" lon="2.5838">
        <ele>83.29</ele>
        <time>2011-02-06T10:58:03Z</time>
      </trkpt>
      <trkpt lat="48.30296" lon="2.58387">
        <ele>85.69</ele>
        <time>2011-02-06T10:58:13Z</time>
      </trkpt>
      <trkpt lat="48.30298" lon="2.58391">
        <ele>87.14</ele>
        <time>2011-02-06T10:58:17Z</time>
      </trkpt>
      <trkpt lat="48.30312" lon="2.58391">
        <ele>88.1</ele>
        <time>2011-02-06T10:58:27Z</time>
      </trkpt>
      <trkpt lat="48.30336" lon="2.5841">
        <ele>88.58</ele>
        <time>2011-02-06T10:58:39Z</time>
      </trkpt>
      <trkpt lat="48.30359" lon="2.58424">
        <ele>90.5</ele>
        <time>2011-02-06T10:58:52Z</time>
      </trkpt>
      <trkpt lat="48.30377" lon="2.5844">
        <ele>91.94</ele>
        <time>2011-02-06T10:59:05Z</time>
      </trkpt>
      <trkpt lat="48.30386" lon="2.58448">
        <ele>92.42</ele>
        <time>2011-02-06T10:59:11Z</time>
      </trkpt>
      <trkpt lat="48.3041" lon="2.58476">
        <ele>91.46</ele>
        <time>2011-02-06T10:59:23Z</time>
      </trkpt>
      <trkpt lat="48.30421" lon="2.58492">
        <ele>92.9</ele>
        <time>2011-02-06T10:59:31Z</time>
      </trkpt>
      <trkpt lat="48.30426" lon="2.585">
        <ele>92.9</ele>
        <time>2011-02-06T10:59:35Z</time>
      </trkpt>
      <trkpt lat="48.30429" lon="2.58501">
        <ele>93.39</ele>
        <time>2011-02-06T10:59:37Z</time>
      </trkpt>
      <trkpt lat="48.3043" lon="2.58485">
        <ele>95.31</ele>
        <time>2011-02-06T10:59:46Z</time>
      </trkpt>
      <trkpt lat="48.30435" lon="2.58477">
        <ele>96.27</ele>
        <time>2011-02-06T10:59:54Z</time>
      </trkpt>
      <trkpt lat="48.3044" lon="2.58479">
        <ele>96.27</ele>
        <time>2011-02-06T10:59:58Z</time>
      </trkpt>
      <trkpt lat="48.30443" lon="2.5848">
        <ele>96.27</ele>
        <time>2011-02-06T11:00:00Z</time>
      </trkpt>
      <trkpt lat="48.30454" lon="2.5848">
        <ele>97.71</ele>
        <time>2011-02-06T11:00:09Z</time>
      </trkpt>
      <trkpt lat="48.30457" lon="2.58482">
        <ele>98.67</ele>
        <time>2011-02-06T11:00:11Z</time>
      </trkpt>
      <trkpt lat="48.30465" lon="2.58475">
        <ele>99.63</ele>
        <time>2011-02-06T11:00:16Z</time>
      </trkpt>
      <trkpt lat="48.30469" lon="2.58467">
        <ele>101.08</ele>
        <time>2011-02-06T11:00:21Z</time>
      </trkpt>
      <trkpt lat="48.30462" lon="2.5845">
        <ele>102.04</ele>
        <time>2011-02-06T11:00:34Z</time>
      </trkpt>
      <trkpt lat="48.30461" lon="2.58449">
        <ele>102.52</ele>
        <time>2011-02-06T11:00:35Z</time>
      </trkpt>
      <trkpt lat="48.30459" lon="2.5844">
        <ele>103</ele>
        <time>2011-02-06T11:00:39Z</time>
      </trkpt>
      <trkpt lat="48.30453" lon="2.58426">
        <ele>103</ele>
        <time>2011-02-06T11:00:47Z</time>
      </trkpt>
      <trkpt lat="48.30437" lon="2.58409">
        <ele>103.96</ele>
        <time>2011-02-06T11:00:59Z</time>
      </trkpt>
      <trkpt lat="48.30423" lon="2.58391">
        <ele>104.92</ele>
        <time>2011-02-06T11:01:11Z</time>
      </trkpt>
      <trkpt lat="48.30419" lon="2.58385">
        <ele>105.88</ele>
        <time>2011-02-06T11:01:14Z</time>
      </trkpt>
      <trkpt lat="48.30413" lon="2.58382">
        <ele>106.36</ele>
        <time>2011-02-06T11:01:18Z</time>
      </trkpt>
      <trkpt lat="48.30408" lon="2.58379">
        <ele>106.84</ele>
        <time>2011-02-06T11:01:21Z</time>
      </trkpt>
      <trkpt lat="48.30404" lon="2.58371">
        <ele>107.32</ele>
        <time>2011-02-06T11:01:26Z</time>
      </trkpt>
      <trkpt lat="48.304" lon="2.58362">
        <ele>108.77</ele>
        <time>2011-02-06T11:01:36Z</time>
      </trkpt>
      <trkpt lat="48.304" lon="2.58354">
        <ele>110.21</ele>
        <time>2011-02-06T11:01:41Z</time>
      </trkpt>
      <trkpt lat="48.30403" lon="2.58348">
        <ele>110.69</ele>
        <time>2011-02-06T11:01:45Z</time>
      </trkpt>
      <trkpt lat="48.30403" lon="2.58344">
        <ele>110.69</ele>
        <time>2011-02-06T11:01:48Z</time>
      </trkpt>
      <trkpt lat="48.30398" lon="2.58333">
        <ele>110.69</ele>
        <time>2011-02-06T11:01:54Z</time>
      </trkpt>
      <trkpt lat="48.30396" lon="2.58327">
        <ele>110.21</ele>
        <time>2011-02-06T11:01:56Z</time>
      </trkpt>
      <trkpt lat="48.30385" lon="2.58333">
        <ele>107.32</ele>
        <time>2011-02-06T11:02:02Z</time>
      </trkpt>
      <trkpt lat="48.30382" lon="2.58337">
        <ele>105.88</ele>
        <time>2011-02-06T11:02:04Z</time>
      </trkpt>
      <trkpt lat="48.3038" lon="2.58342">
        <ele>103.48</ele>
        <time>2011-02-06T11:02:06Z</time>
      </trkpt>
      <trkpt lat="48.30378" lon="2.58345">
        <ele>102.52</ele>
        <time>2011-02-06T11:02:08Z</time>
      </trkpt>
      <trkpt lat="48.30375" lon="2.58343">
        <ele>101.08</ele>
        <time>2011-02-06T11:02:10Z</time>
      </trkpt>
      <trkpt lat="48.3036" lon="2.58318">
        <ele>103.48</ele>
        <time>2011-02-06T11:02:21Z</time>
      </trkpt>
      <trkpt lat="48.30347" lon="2.58296">
        <ele>104.44</ele>
        <time>2011-02-06T11:02:29Z</time>
      </trkpt>
      <trkpt lat="48.30342" lon="2.58287">
        <ele>104.92</ele>
        <time>2011-02-06T11:02:33Z</time>
      </trkpt>
      <trkpt lat="48.30338" lon="2.5828">
        <ele>105.88</ele>
        <time>2011-02-06T11:02:36Z</time>
      </trkpt>
      <trkpt lat="48.30335" lon="2.58268">
        <ele>106.84</ele>
        <time>2011-02-06T11:02:41Z</time>
      </trkpt>
      <trkpt lat="48.30332" lon="2.58261">
        <ele>106.84</ele>
        <time>2011-02-06T11:02:44Z</time>
      </trkpt>
      <trkpt lat="48.30301" lon="2.58254">
        <ele>104.44</ele>
        <time>2011-02-06T11:02:53Z</time>
      </trkpt>
      <trkpt lat="48.30279" lon="2.58215">
        <ele>104.92</ele>
        <time>2011-02-06T11:03:06Z</time>
      </trkpt>
      <trkpt lat="48.30244" lon="2.58198">
        <ele>104.92</ele>
        <time>2011-02-06T11:03:20Z</time>
      </trkpt>
      <trkpt lat="48.30242" lon="2.58198">
        <ele>104.92</ele>
        <time>2011-02-06T11:03:21Z</time>
      </trkpt>
      <trkpt lat="48.30237" lon="2.58198">
        <ele>104.44</ele>
        <time>2011-02-06T11:03:23Z</time>
      </trkpt>
      <trkpt lat="48.30224" lon="2.58175">
        <ele>104.92</ele>
        <time>2011-02-06T11:03:32Z</time>
      </trkpt>
      <trkpt lat="48.30213" lon="2.58137">
        <ele>104.92</ele>
        <time>2011-02-06T11:03:43Z</time>
      </trkpt>
      <trkpt lat="48.30213" lon="2.5812">
        <ele>105.88</ele>
        <time>2011-02-06T11:03:48Z</time>
      </trkpt>
      <trkpt lat="48.30216" lon="2.5811">
        <ele>107.32</ele>
        <time>2011-02-06T11:03:51Z</time>
      </trkpt>
      <trkpt lat="48.30218" lon="2.58086">
        <ele>108.29</ele>
        <time>2011-02-06T11:03:59Z</time>
      </trkpt>
      <trkpt lat="48.30213" lon="2.58056">
        <ele>109.73</ele>
        <time>2011-02-06T11:04:09Z</time>
      </trkpt>
      <trkpt lat="48.30203" lon="2.58017">
        <ele>110.21</ele>
        <time>2011-02-06T11:04:22Z</time>
      </trkpt>
      <trkpt lat="48.30201" lon="2.58002">
        <ele>111.17</ele>
        <time>2011-02-06T11:04:27Z</time>
      </trkpt>
      <trkpt lat="48.30198" lon="2.57986">
        <ele>111.65</ele>
        <time>2011-02-06T11:04:36Z</time>
      </trkpt>
      <trkpt lat="48.30195" lon="2.57976">
        <ele>111.17</ele>
        <time>2011-02-06T11:04:39Z</time>
      </trkpt>
      <trkpt lat="48.30195" lon="2.57957">
        <ele>110.69</ele>
        <time>2011-02-06T11:04:44Z</time>
      </trkpt>
      <trkpt lat="48.30188" lon="2.5794">
        <ele>110.21</ele>
        <time>2011-02-06T11:04:49Z</time>
      </trkpt>
      <trkpt lat="48.30176" lon="2.57901">
        <ele>110.69</ele>
        <time>2011-02-06T11:05:01Z</time>
      </trkpt>
      <trkpt lat="48.30161" lon="2.57883">
        <ele>111.17</ele>
        <time>2011-02-06T11:05:09Z</time>
      </trkpt>
      <trkpt lat="48.30155" lon="2.57871">
        <ele>112.61</ele>
        <time>2011-02-06T11:05:13Z</time>
      </trkpt>
      <trkpt lat="48.30149" lon="2.57871">
        <ele>113.09</ele>
        <time>2011-02-06T11:05:17Z</time>
      </trkpt>
      <trkpt lat="48.30147" lon="2.57875">
        <ele>112.61</ele>
        <time>2011-02-06T11:05:19Z</time>
      </trkpt>
      <trkpt lat="48.30149" lon="2.57887">
        <ele>112.13</ele>
        <time>2011-02-06T11:05:29Z</time>
      </trkpt>
      <trkpt lat="48.30152" lon="2.57894">
        <ele>108.77</ele>
        <time>2011-02-06T11:05:41Z</time>
      </trkpt>
      <trkpt lat="48.30156" lon="2.579">
        <ele>107.81</ele>
        <time>2011-02-06T11:05:43Z</time>
      </trkpt>
      <trkpt lat="48.30158" lon="2.57907">
        <ele>103.96</ele>
        <time>2011-02-06T11:05:50Z</time>
      </trkpt>
      <trkpt lat="48.30161" lon="2.57916">
        <ele>103.96</ele>
        <time>2011-02-06T11:05:54Z</time>
      </trkpt>
      <trkpt lat="48.30152" lon="2.57926">
        <ele>100.11</ele>
        <time>2011-02-06T11:05:58Z</time>
      </trkpt>
      <trkpt lat="48.3015" lon="2.57927">
        <ele>98.67</ele>
        <time>2011-02-06T11:05:59Z</time>
      </trkpt>
      <trkpt lat="48.30149" lon="2.57928">
        <ele>97.71</ele>
        <time>2011-02-06T11:06:00Z</time>
      </trkpt>
      <trkpt lat="48.30148" lon="2.57935">
        <ele>96.27</ele>
        <time>2011-02-06T11:06:01Z</time>
      </trkpt>
      <trkpt lat="48.30148" lon="2.57938">
        <ele>95.31</ele>
        <time>2011-02-06T11:06:02Z</time>
      </trkpt>
      <trkpt lat="48.30145" lon="2.57945">
        <ele>94.35</ele>
        <time>2011-02-06T11:06:03Z</time>
      </trkpt>
      <trkpt lat="48.3013" lon="2.5796">
        <ele>90.5</ele>
        <time>2011-02-06T11:06:06Z</time>
      </trkpt>
      <trkpt lat="48.3011" lon="2.57986">
        <ele>87.14</ele>
        <time>2011-02-06T11:06:12Z</time>
      </trkpt>
      <trkpt lat="48.30112" lon="2.57998">
        <ele>85.69</ele>
        <time>2011-02-06T11:06:14Z</time>
      </trkpt>
      <trkpt lat="48.30113" lon="2.58006">
        <ele>85.69</ele>
        <time>2011-02-06T11:06:16Z</time>
      </trkpt>
      <trkpt lat="48.30113" lon="2.58019">
        <ele>84.25</ele>
        <time>2011-02-06T11:06:19Z</time>
      </trkpt>
      <trkpt lat="48.3011" lon="2.58027">
        <ele>83.77</ele>
        <time>2011-02-06T11:06:22Z</time>
      </trkpt>
      <trkpt lat="48.30107" lon="2.58061">
        <ele>80.41</ele>
        <time>2011-02-06T11:06:28Z</time>
      </trkpt>
      <trkpt lat="48.30094" lon="2.58099">
        <ele>79.45</ele>
        <time>2011-02-06T11:06:35Z</time>
      </trkpt>
      <trkpt lat="48.30084" lon="2.58107">
        <ele>79.45</ele>
        <time>2011-02-06T11:06:39Z</time>
      </trkpt>
      <trkpt lat="48.30079" lon="2.58113">
        <ele>79.93</ele>
        <time>2011-02-06T11:06:42Z</time>
      </trkpt>
      <trkpt lat="48.30072" lon="2.58136">
        <ele>80.41</ele>
        <time>2011-02-06T11:06:49Z</time>
      </trkpt>
      <trkpt lat="48.30066" lon="2.58139">
        <ele>80.41</ele>
        <time>2011-02-06T11:06:53Z</time>
      </trkpt>
      <trkpt lat="48.30053" lon="2.58146">
        <ele>80.41</ele>
        <time>2011-02-06T11:07:01Z</time>
      </trkpt>
      <trkpt lat="48.30047" lon="2.58158">
        <ele>79.93</ele>
        <time>2011-02-06T11:07:10Z</time>
      </trkpt>
      <trkpt lat="48.30042" lon="2.58191">
        <ele>78.48</ele>
        <time>2011-02-06T11:07:22Z</time>
      </trkpt>
      <trkpt lat="48.30041" lon="2.58193">
        <ele>78.48</ele>
        <time>2011-02-06T11:07:23Z</time>
      </trkpt>
      <trkpt lat="48.30039" lon="2.58197">
        <ele>78.48</ele>
        <time>2011-02-06T11:07:39Z</time>
      </trkpt>
      <trkpt lat="48.30037" lon="2.58201">
        <ele>78.48</ele>
        <time>2011-02-06T11:08:00Z</time>
      </trkpt>
      <trkpt lat="48.3003" lon="2.58213">
        <ele>78.48</ele>
        <time>2011-02-06T11:08:13Z</time>
      </trkpt>
      <trkpt lat="48.30017" lon="2.58237">
        <ele>77.04</ele>
        <time>2011-02-06T11:08:24Z</time>
      </trkpt>
      <trkpt lat="48.3" lon="2.58262">
        <ele>75.12</ele>
        <time>2011-02-06T11:08:30Z</time>
      </trkpt>
      <trkpt lat="48.29993" lon="2.5827">
        <ele>72.72</ele>
        <time>2011-02-06T11:08:32Z</time>
      </trkpt>
      <trkpt lat="48.2998" lon="2.58289">
        <ele>73.2</ele>
        <time>2011-02-06T11:08:35Z</time>
      </trkpt>
      <trkpt lat="48.29969" lon="2.58314">
        <ele>71.27</ele>
        <time>2011-02-06T11:08:40Z</time>
      </trkpt>
      <trkpt lat="48.29968" lon="2.58321">
        <ele>70.31</ele>
        <time>2011-02-06T11:08:41Z</time>
      </trkpt>
      <trkpt lat="48.29966" lon="2.58327">
        <ele>70.31</ele>
        <time>2011-02-06T11:08:42Z</time>
      </trkpt>
      <trkpt lat="48.29962" lon="2.58333">
        <ele>70.79</ele>
        <time>2011-02-06T11:08:44Z</time>
      </trkpt>
      <trkpt lat="48.2996" lon="2.58332">
        <ele>71.27</ele>
        <time>2011-02-06T11:08:45Z</time>
      </trkpt>
      <trkpt lat="48.29953" lon="2.5833">
        <ele>71.27</ele>
        <time>2011-02-06T11:08:49Z</time>
      </trkpt>
      <trkpt lat="48.29951" lon="2.58329">
        <ele>71.27</ele>
        <time>2011-02-06T11:08:50Z</time>
      </trkpt>
      <trkpt lat="48.29948" lon="2.5833">
        <ele>71.76</ele>
        <time>2011-02-06T11:08:52Z</time>
      </trkpt>
      <trkpt lat="48.29947" lon="2.5833">
        <ele>71.76</ele>
        <time>2011-02-06T11:08:53Z</time>
      </trkpt>
      <trkpt lat="48.29946" lon="2.58331">
        <ele>71.76</ele>
        <time>2011-02-06T11:08:54Z</time>
      </trkpt>
      <trkpt lat="48.29944" lon="2.58332">
        <ele>71.76</ele>
        <time>2011-02-06T11:08:55Z</time>
      </trkpt>
      <trkpt lat="48.29941" lon="2.58332">
        <ele>71.76</ele>
        <time>2011-02-06T11:08:56Z</time>
      </trkpt>
      <trkpt lat="48.29938" lon="2.5833">
        <ele>71.76</ele>
        <time>2011-02-06T11:08:57Z</time>
      </trkpt>
      <trkpt lat="48.29914" lon="2.58309">
        <ele>71.27</ele>
        <time>2011-02-06T11:09:07Z</time>
      </trkpt>
      <trkpt lat="48.29888" lon="2.58283">
        <ele>72.24</ele>
        <time>2011-02-06T11:09:20Z</time>
      </trkpt>
      <trkpt lat="48.29879" lon="2.58263">
        <ele>73.68</ele>
        <time>2011-02-06T11:09:29Z</time>
      </trkpt>
      <trkpt lat="48.29879" lon="2.58261">
        <ele>74.16</ele>
        <time>2011-02-06T11:09:30Z</time>
      </trkpt>
      <trkpt lat="48.2988" lon="2.58258">
        <ele>74.16</ele>
        <time>2011-02-06T11:09:31Z</time>
      </trkpt>
      <trkpt lat="48.2988" lon="2.58255">
        <ele>74.16</ele>
        <time>2011-02-06T11:09:32Z</time>
      </trkpt>
      <trkpt lat="48.2988" lon="2.58253">
        <ele>74.16</ele>
        <time>2011-02-06T11:09:33Z</time>
      </trkpt>
      <trkpt lat="48.2988" lon="2.58251">
        <ele>74.64</ele>
        <time>2011-02-06T11:09:34Z</time>
      </trkpt>
      <trkpt lat="48.29881" lon="2.58248">
        <ele>74.64</ele>
        <time>2011-02-06T11:09:35Z</time>
      </trkpt>
      <trkpt lat="48.29882" lon="2.58246">
        <ele>74.16</ele>
        <time>2011-02-06T11:09:36Z</time>
      </trkpt>
      <trkpt lat="48.29896" lon="2.58211">
        <ele>76.08</ele>
        <time>2011-02-06T11:09:48Z</time>
      </trkpt>
      <trkpt lat="48.29907" lon="2.58192">
        <ele>78</ele>
        <time>2011-02-06T11:09:57Z</time>
      </trkpt>
      <trkpt lat="48.29901" lon="2.58161">
        <ele>79.93</ele>
        <time>2011-02-06T11:10:10Z</time>
      </trkpt>
      <trkpt lat="48.29894" lon="2.58134">
        <ele>81.37</ele>
        <time>2011-02-06T11:10:23Z</time>
      </trkpt>
      <trkpt lat="48.29893" lon="2.5813">
        <ele>82.33</ele>
        <time>2011-02-06T11:10:25Z</time>
      </trkpt>
      <trkpt lat="48.29892" lon="2.58122">
        <ele>83.29</ele>
        <time>2011-02-06T11:10:29Z</time>
      </trkpt>
      <trkpt lat="48.29892" lon="2.58119">
        <ele>83.29</ele>
        <time>2011-02-06T11:10:30Z</time>
      </trkpt>
      <trkpt lat="48.29891" lon="2.58117">
        <ele>83.29</ele>
        <time>2011-02-06T11:10:31Z</time>
      </trkpt>
      <trkpt lat="48.2989" lon="2.5811">
        <ele>84.25</ele>
        <time>2011-02-06T11:10:34Z</time>
      </trkpt>
      <trkpt lat="48.2988" lon="2.58069">
        <ele>86.66</ele>
        <time>2011-02-06T11:10:50Z</time>
      </trkpt>
      <trkpt lat="48.29867" lon="2.58027">
        <ele>88.58</ele>
        <time>2011-02-06T11:11:03Z</time>
      </trkpt>
      <trkpt lat="48.29871" lon="2.57992">
        <ele>91.94</ele>
        <time>2011-02-06T11:11:18Z</time>
      </trkpt>
      <trkpt lat="48.29875" lon="2.57967">
        <ele>94.83</ele>
        <time>2011-02-06T11:11:30Z</time>
      </trkpt>
      <trkpt lat="48.29878" lon="2.57956">
        <ele>95.79</ele>
        <time>2011-02-06T11:11:36Z</time>
      </trkpt>
      <trkpt lat="48.29879" lon="2.57955">
        <ele>96.27</ele>
        <time>2011-02-06T11:11:37Z</time>
      </trkpt>
      <trkpt lat="48.29879" lon="2.57953">
        <ele>96.75</ele>
        <time>2011-02-06T11:11:38Z</time>
      </trkpt>
      <trkpt lat="48.29883" lon="2.57935">
        <ele>99.15</ele>
        <time>2011-02-06T11:11:49Z</time>
      </trkpt>
      <trkpt lat="48.29884" lon="2.57933">
        <ele>99.63</ele>
        <time>2011-02-06T11:11:50Z</time>
      </trkpt>
      <trkpt lat="48.29884" lon="2.57931">
        <ele>99.63</ele>
        <time>2011-02-06T11:11:51Z</time>
      </trkpt>
      <trkpt lat="48.29885" lon="2.5793">
        <ele>99.63</ele>
        <time>2011-02-06T11:11:52Z</time>
      </trkpt>
      <trkpt lat="48.29886" lon="2.57928">
        <ele>100.11</ele>
        <time>2011-02-06T11:11:53Z</time>
      </trkpt>
      <trkpt lat="48.29891" lon="2.57915">
        <ele>101.08</ele>
        <time>2011-02-06T11:12:02Z</time>
      </trkpt>
      <trkpt lat="48.29891" lon="2.57913">
        <ele>101.56</ele>
        <time>2011-02-06T11:12:03Z</time>
      </trkpt>
      <trkpt lat="48.29891" lon="2.57911">
        <ele>101.56</ele>
        <time>2011-02-06T11:12:04Z</time>
      </trkpt>
      <trkpt lat="48.29892" lon="2.5791">
        <ele>101.08</ele>
        <time>2011-02-06T11:12:05Z</time>
      </trkpt>
      <trkpt lat="48.29892" lon="2.57907">
        <ele>101.56</ele>
        <time>2011-02-06T11:12:06Z</time>
      </trkpt>
      <trkpt lat="48.29893" lon="2.57905">
        <ele>102.04</ele>
        <time>2011-02-06T11:12:07Z</time>
      </trkpt>
      <trkpt lat="48.29893" lon="2.57903">
        <ele>102.04</ele>
        <time>2011-02-06T11:12:08Z</time>
      </trkpt>
      <trkpt lat="48.29893" lon="2.57902">
        <ele>102.04</ele>
        <time>2011-02-06T11:12:09Z</time>
      </trkpt>
      <trkpt lat="48.29894" lon="2.579">
        <ele>102.52</ele>
        <time>2011-02-06T11:12:10Z</time>
      </trkpt>
      <trkpt lat="48.29902" lon="2.57878">
        <ele>104.44</ele>
        <time>2011-02-06T11:12:23Z</time>
      </trkpt>
      <trkpt lat="48.29903" lon="2.57876">
        <ele>104.44</ele>
        <time>2011-02-06T11:12:24Z</time>
      </trkpt>
      <trkpt lat="48.29903" lon="2.57875">
        <ele>104.44</ele>
        <time>2011-02-06T11:12:25Z</time>
      </trkpt>
      <trkpt lat="48.29904" lon="2.57873">
        <ele>103.96</ele>
        <time>2011-02-06T11:12:26Z</time>
      </trkpt>
      <trkpt lat="48.29904" lon="2.57871">
        <ele>104.44</ele>
        <time>2011-02-06T11:12:27Z</time>
      </trkpt>
      <trkpt lat="48.29906" lon="2.57858">
        <ele>105.4</ele>
        <time>2011-02-06T11:12:34Z</time>
      </trkpt>
      <trkpt lat="48.29907" lon="2.57856">
        <ele>105.4</ele>
        <time>2011-02-06T11:12:35Z</time>
      </trkpt>
      <trkpt lat="48.29909" lon="2.57834">
        <ele>107.32</ele>
        <time>2011-02-06T11:12:47Z</time>
      </trkpt>
      <trkpt lat="48.29908" lon="2.57832">
        <ele>106.84</ele>
        <time>2011-02-06T11:12:48Z</time>
      </trkpt>
      <trkpt lat="48.29899" lon="2.57808">
        <ele>109.25</ele>
        <time>2011-02-06T11:13:02Z</time>
      </trkpt>
      <trkpt lat="48.29881" lon="2.57795">
        <ele>112.13</ele>
        <time>2011-02-06T11:13:17Z</time>
      </trkpt>
      <trkpt lat="48.29862" lon="2.57785">
        <ele>111.17</ele>
        <time>2011-02-06T11:13:30Z</time>
      </trkpt>
      <trkpt lat="48.29838" lon="2.57783">
        <ele>113.57</ele>
        <time>2011-02-06T11:13:39Z</time>
      </trkpt>
      <trkpt lat="48.29833" lon="2.57786">
        <ele>115.5</ele>
        <time>2011-02-06T11:13:42Z</time>
      </trkpt>
      <trkpt lat="48.29833" lon="2.57788">
        <ele>115.5</ele>
        <time>2011-02-06T11:13:43Z</time>
      </trkpt>
      <trkpt lat="48.29834" lon="2.5779">
        <ele>115.5</ele>
        <time>2011-02-06T11:13:44Z</time>
      </trkpt>
      <trkpt lat="48.29834" lon="2.57791">
        <ele>115.5</ele>
        <time>2011-02-06T11:13:45Z</time>
      </trkpt>
      <trkpt lat="48.29835" lon="2.57793">
        <ele>115.5</ele>
        <time>2011-02-06T11:13:46Z</time>
      </trkpt>
      <trkpt lat="48.29836" lon="2.57795">
        <ele>115.5</ele>
        <time>2011-02-06T11:13:47Z</time>
      </trkpt>
      <trkpt lat="48.29836" lon="2.57798">
        <ele>115.5</ele>
        <time>2011-02-06T11:13:48Z</time>
      </trkpt>
      <trkpt lat="48.2984" lon="2.57824">
        <ele>114.05</ele>
        <time>2011-02-06T11:14:00Z</time>
      </trkpt>
      <trkpt lat="48.29837" lon="2.5784">
        <ele>110.69</ele>
        <time>2011-02-06T11:14:05Z</time>
      </trkpt>
      <trkpt lat="48.29837" lon="2.57842">
        <ele>109.73</ele>
        <time>2011-02-06T11:14:06Z</time>
      </trkpt>
      <trkpt lat="48.29838" lon="2.57851">
        <ele>107.32</ele>
        <time>2011-02-06T11:14:09Z</time>
      </trkpt>
      <trkpt lat="48.29837" lon="2.57866">
        <ele>103</ele>
        <time>2011-02-06T11:14:14Z</time>
      </trkpt>
      <trkpt lat="48.29837" lon="2.57876">
        <ele>99.63</ele>
        <time>2011-02-06T11:14:18Z</time>
      </trkpt>
      <trkpt lat="48.29832" lon="2.57883">
        <ele>98.19</ele>
        <time>2011-02-06T11:14:21Z</time>
      </trkpt>
      <trkpt lat="48.29828" lon="2.57903">
        <ele>93.87</ele>
        <time>2011-02-06T11:14:25Z</time>
      </trkpt>
      <trkpt lat="48.29823" lon="2.57926">
        <ele>90.98</ele>
        <time>2011-02-06T11:14:29Z</time>
      </trkpt>
      <trkpt lat="48.29819" lon="2.57935">
        <ele>89.54</ele>
        <time>2011-02-06T11:14:31Z</time>
      </trkpt>
      <trkpt lat="48.29811" lon="2.57939">
        <ele>89.54</ele>
        <time>2011-02-06T11:14:34Z</time>
      </trkpt>
      <trkpt lat="48.29795" lon="2.57928">
        <ele>90.5</ele>
        <time>2011-02-06T11:14:41Z</time>
      </trkpt>
      <trkpt lat="48.29787" lon="2.57912">
        <ele>93.39</ele>
        <time>2011-02-06T11:14:49Z</time>
      </trkpt>
      <trkpt lat="48.29777" lon="2.5792">
        <ele>94.83</ele>
        <time>2011-02-06T11:14:59Z</time>
      </trkpt>
      <trkpt lat="48.29776" lon="2.57912">
        <ele>96.75</ele>
        <time>2011-02-06T11:15:08Z</time>
      </trkpt>
      <trkpt lat="48.29781" lon="2.57899">
        <ele>98.19</ele>
        <time>2011-02-06T11:15:20Z</time>
      </trkpt>
      <trkpt lat="48.29784" lon="2.57879">
        <ele>101.08</ele>
        <time>2011-02-06T11:15:34Z</time>
      </trkpt>
      <trkpt lat="48.29789" lon="2.57868">
        <ele>103.96</ele>
        <time>2011-02-06T11:15:45Z</time>
      </trkpt>
      <trkpt lat="48.29799" lon="2.57862">
        <ele>103.96</ele>
        <time>2011-02-06T11:15:57Z</time>
      </trkpt>
      <trkpt lat="48.29802" lon="2.5785">
        <ele>107.32</ele>
        <time>2011-02-06T11:16:12Z</time>
      </trkpt>
      <trkpt lat="48.29797" lon="2.57843">
        <ele>107.81</ele>
        <time>2011-02-06T11:16:25Z</time>
      </trkpt>
      <trkpt lat="48.29785" lon="2.57839">
        <ele>109.25</ele>
        <time>2011-02-06T11:16:39Z</time>
      </trkpt>
      <trkpt lat="48.29791" lon="2.57832">
        <ele>111.17</ele>
        <time>2011-02-06T11:16:50Z</time>
      </trkpt>
      <trkpt lat="48.29804" lon="2.57827">
        <ele>112.61</ele>
        <time>2011-02-06T11:17:03Z</time>
      </trkpt>
      <trkpt lat="48.29807" lon="2.57827">
        <ele>112.61</ele>
        <time>2011-02-06T11:17:05Z</time>
      </trkpt>
      <trkpt lat="48.29809" lon="2.57819">
        <ele>114.53</ele>
        <time>2011-02-06T11:17:19Z</time>
      </trkpt>
      <trkpt lat="48.29808" lon="2.5782">
        <ele>115.01</ele>
        <time>2011-02-06T11:17:25Z</time>
      </trkpt>
      <trkpt lat="48.29806" lon="2.57819">
        <ele>114.53</ele>
        <time>2011-02-06T11:17:27Z</time>
      </trkpt>
      <trkpt lat="48.29803" lon="2.57811">
        <ele>115.01</ele>
        <time>2011-02-06T11:17:32Z</time>
      </trkpt>
      <trkpt lat="48.2982" lon="2.57788">
        <ele>114.53</ele>
        <time>2011-02-06T11:17:45Z</time>
      </trkpt>
      <trkpt lat="48.29822" lon="2.57785">
        <ele>114.53</ele>
        <time>2011-02-06T11:17:47Z</time>
      </trkpt>
      <trkpt lat="48.29825" lon="2.57784">
        <ele>115.5</ele>
        <time>2011-02-06T11:18:04Z</time>
      </trkpt>
      <trkpt lat="48.29825" lon="2.57784">
        <ele>115.01</ele>
        <time>2011-02-06T11:18:34Z</time>
      </trkpt>
      <trkpt lat="48.29825" lon="2.57784">
        <ele>115.01</ele>
        <time>2011-02-06T11:19:05Z</time>
      </trkpt>
      <trkpt lat="48.29825" lon="2.57784">
        <ele>115.01</ele>
        <time>2011-02-06T11:19:36Z</time>
      </trkpt>
      <trkpt lat="48.29825" lon="2.57784">
        <ele>115.01</ele>
        <time>2011-02-06T11:20:02Z</time>
      </trkpt>
      <trkpt lat="48.29826" lon="2.57783">
        <ele>114.53</ele>
        <time>2011-02-06T11:20:15Z</time>
      </trkpt>
      <trkpt lat="48.29826" lon="2.57777">
        <ele>115.5</ele>
        <time>2011-02-06T11:20:19Z</time>
      </trkpt>
      <trkpt lat="48.29825" lon="2.57775">
        <ele>115.01</ele>
        <time>2011-02-06T11:20:21Z</time>
      </trkpt>
      <trkpt lat="48.29808" lon="2.5776">
        <ele>115.01</ele>
        <time>2011-02-06T11:20:34Z</time>
      </trkpt>
      <trkpt lat="48.29805" lon="2.5776">
        <ele>115.01</ele>
        <time>2011-02-06T11:20:36Z</time>
      </trkpt>
      <trkpt lat="48.29799" lon="2.57764">
        <ele>115.01</ele>
        <time>2011-02-06T11:20:41Z</time>
      </trkpt>
      <trkpt lat="48.29797" lon="2.57767">
        <ele>114.53</ele>
        <time>2011-02-06T11:20:43Z</time>
      </trkpt>
      <trkpt lat="48.2979" lon="2.57777">
        <ele>114.53</ele>
        <time>2011-02-06T11:20:48Z</time>
      </trkpt>
      <trkpt lat="48.29784" lon="2.57782">
        <ele>115.01</ele>
        <time>2011-02-06T11:20:52Z</time>
      </trkpt>
      <trkpt lat="48.29771" lon="2.57783">
        <ele>115.01</ele>
        <time>2011-02-06T11:21:00Z</time>
      </trkpt>
      <trkpt lat="48.29762" lon="2.57793">
        <ele>114.53</ele>
        <time>2011-02-06T11:21:05Z</time>
      </trkpt>
      <trkpt lat="48.29755" lon="2.578">
        <ele>114.53</ele>
        <time>2011-02-06T11:21:09Z</time>
      </trkpt>
      <trkpt lat="48.29749" lon="2.57801">
        <ele>114.53</ele>
        <time>2011-02-06T11:21:12Z</time>
      </trkpt>
      <trkpt lat="48.29741" lon="2.5779">
        <ele>115.01</ele>
        <time>2011-02-06T11:21:18Z</time>
      </trkpt>
      <trkpt lat="48.29738" lon="2.57788">
        <ele>114.05</ele>
        <time>2011-02-06T11:21:29Z</time>
      </trkpt>
      <trkpt lat="48.29725" lon="2.57784">
        <ele>111.17</ele>
        <time>2011-02-06T11:21:33Z</time>
      </trkpt>
      <trkpt lat="48.29721" lon="2.57783">
        <ele>110.21</ele>
        <time>2011-02-06T11:21:34Z</time>
      </trkpt>
      <trkpt lat="48.29716" lon="2.57782">
        <ele>108.77</ele>
        <time>2011-02-06T11:21:35Z</time>
      </trkpt>
      <trkpt lat="48.29713" lon="2.57781">
        <ele>110.21</ele>
        <time>2011-02-06T11:21:36Z</time>
      </trkpt>
      <trkpt lat="48.2971" lon="2.5778">
        <ele>110.69</ele>
        <time>2011-02-06T11:21:37Z</time>
      </trkpt>
      <trkpt lat="48.29707" lon="2.57779">
        <ele>111.17</ele>
        <time>2011-02-06T11:21:38Z</time>
      </trkpt>
      <trkpt lat="48.29681" lon="2.57759">
        <ele>112.61</ele>
        <time>2011-02-06T11:21:48Z</time>
      </trkpt>
      <trkpt lat="48.29677" lon="2.57754">
        <ele>113.09</ele>
        <time>2011-02-06T11:21:50Z</time>
      </trkpt>
      <trkpt lat="48.29677" lon="2.57732">
        <ele>114.53</ele>
        <time>2011-02-06T11:21:59Z</time>
      </trkpt>
      <trkpt lat="48.2968" lon="2.5772">
        <ele>115.01</ele>
        <time>2011-02-06T11:22:03Z</time>
      </trkpt>
      <trkpt lat="48.2968" lon="2.57717">
        <ele>114.53</ele>
        <time>2011-02-06T11:22:05Z</time>
      </trkpt>
      <trkpt lat="48.29681" lon="2.57705">
        <ele>115.01</ele>
        <time>2011-02-06T11:22:15Z</time>
      </trkpt>
      <trkpt lat="48.2968" lon="2.57687">
        <ele>112.61</ele>
        <time>2011-02-06T11:22:24Z</time>
      </trkpt>
      <trkpt lat="48.29674" lon="2.57665">
        <ele>111.17</ele>
        <time>2011-02-06T11:22:33Z</time>
      </trkpt>
      <trkpt lat="48.29671" lon="2.57664">
        <ele>110.69</ele>
        <time>2011-02-06T11:22:34Z</time>
      </trkpt>
      <trkpt lat="48.2965" lon="2.57666">
        <ele>109.73</ele>
        <time>2011-02-06T11:22:46Z</time>
      </trkpt>
      <trkpt lat="48.29642" lon="2.57668">
        <ele>110.69</ele>
        <time>2011-02-06T11:23:04Z</time>
      </trkpt>
      <trkpt lat="48.29642" lon="2.57668">
        <ele>110.69</ele>
        <time>2011-02-06T11:23:05Z</time>
      </trkpt>
      <trkpt lat="48.2963" lon="2.57669">
        <ele>111.65</ele>
        <time>2011-02-06T11:23:18Z</time>
      </trkpt>
      <trkpt lat="48.29628" lon="2.57668">
        <ele>111.65</ele>
        <time>2011-02-06T11:23:20Z</time>
      </trkpt>
      <trkpt lat="48.29621" lon="2.57663">
        <ele>110.69</ele>
        <time>2011-02-06T11:23:24Z</time>
      </trkpt>
      <trkpt lat="48.29618" lon="2.5766">
        <ele>111.17</ele>
        <time>2011-02-06T11:23:26Z</time>
      </trkpt>
      <trkpt lat="48.29609" lon="2.57654">
        <ele>111.65</ele>
        <time>2011-02-06T11:23:31Z</time>
      </trkpt>
      <trkpt lat="48.29581" lon="2.57647">
        <ele>111.65</ele>
        <time>2011-02-06T11:23:43Z</time>
      </trkpt>
      <trkpt lat="48.29561" lon="2.57637">
        <ele>109.25</ele>
        <time>2011-02-06T11:23:49Z</time>
      </trkpt>
      <trkpt lat="48.29546" lon="2.57639">
        <ele>108.29</ele>
        <time>2011-02-06T11:23:53Z</time>
      </trkpt>
      <trkpt lat="48.29537" lon="2.57645">
        <ele>107.32</ele>
        <time>2011-02-06T11:23:55Z</time>
      </trkpt>
      <trkpt lat="48.29519" lon="2.57657">
        <ele>107.32</ele>
        <time>2011-02-06T11:24:00Z</time>
      </trkpt>
      <trkpt lat="48.29496" lon="2.57654">
        <ele>106.36</ele>
        <time>2011-02-06T11:24:08Z</time>
      </trkpt>
      <trkpt lat="48.29483" lon="2.57653">
        <ele>102.52</ele>
        <time>2011-02-06T11:24:14Z</time>
      </trkpt>
      <trkpt lat="48.29481" lon="2.57658">
        <ele>100.6</ele>
        <time>2011-02-06T11:24:16Z</time>
      </trkpt>
      <trkpt lat="48.29476" lon="2.57677">
        <ele>99.63</ele>
        <time>2011-02-06T11:24:19Z</time>
      </trkpt>
      <trkpt lat="48.29468" lon="2.57718">
        <ele>102.04</ele>
        <time>2011-02-06T11:24:26Z</time>
      </trkpt>
      <trkpt lat="48.29447" lon="2.57744">
        <ele>98.67</ele>
        <time>2011-02-06T11:24:38Z</time>
      </trkpt>
      <trkpt lat="48.29445" lon="2.57747">
        <ele>98.19</ele>
        <time>2011-02-06T11:24:39Z</time>
      </trkpt>
      <trkpt lat="48.29432" lon="2.57765">
        <ele>98.19</ele>
        <time>2011-02-06T11:24:45Z</time>
      </trkpt>
      <trkpt lat="48.29426" lon="2.57778">
        <ele>96.75</ele>
        <time>2011-02-06T11:24:48Z</time>
      </trkpt>
      <trkpt lat="48.29401" lon="2.57804">
        <ele>93.87</ele>
        <time>2011-02-06T11:24:58Z</time>
      </trkpt>
      <trkpt lat="48.29387" lon="2.57805">
        <ele>93.39</ele>
        <time>2011-02-06T11:25:03Z</time>
      </trkpt>
      <trkpt lat="48.29356" lon="2.57811">
        <ele>92.9</ele>
        <time>2011-02-06T11:25:15Z</time>
      </trkpt>
      <trkpt lat="48.29338" lon="2.57821">
        <ele>93.39</ele>
        <time>2011-02-06T11:25:25Z</time>
      </trkpt>
      <trkpt lat="48.29338" lon="2.57821">
        <ele>93.39</ele>
        <time>2011-02-06T11:25:29Z</time>
      </trkpt>
      <trkpt lat="48.29331" lon="2.5783">
        <ele>94.35</ele>
        <time>2011-02-06T11:25:34Z</time>
      </trkpt>
      <trkpt lat="48.29311" lon="2.57844">
        <ele>94.83</ele>
        <time>2011-02-06T11:25:43Z</time>
      </trkpt>
      <trkpt lat="48.29282" lon="2.57849">
        <ele>95.79</ele>
        <time>2011-02-06T11:25:54Z</time>
      </trkpt>
      <trkpt lat="48.29278" lon="2.57853">
        <ele>95.79</ele>
        <time>2011-02-06T11:25:56Z</time>
      </trkpt>
      <trkpt lat="48.29268" lon="2.57865">
        <ele>96.75</ele>
        <time>2011-02-06T11:26:02Z</time>
      </trkpt>
      <trkpt lat="48.29256" lon="2.57876">
        <ele>95.31</ele>
        <time>2011-02-06T11:26:09Z</time>
      </trkpt>
      <trkpt lat="48.29232" lon="2.57873">
        <ele>95.79</ele>
        <time>2011-02-06T11:26:18Z</time>
      </trkpt>
      <trkpt lat="48.2922" lon="2.57855">
        <ele>97.23</ele>
        <time>2011-02-06T11:26:26Z</time>
      </trkpt>
      <trkpt lat="48.29206" lon="2.57829">
        <ele>99.15</ele>
        <time>2011-02-06T11:26:37Z</time>
      </trkpt>
      <trkpt lat="48.29199" lon="2.57821">
        <ele>100.11</ele>
        <time>2011-02-06T11:26:42Z</time>
      </trkpt>
      <trkpt lat="48.29186" lon="2.57802">
        <ele>100.11</ele>
        <time>2011-02-06T11:26:53Z</time>
      </trkpt>
      <trkpt lat="48.29182" lon="2.57792">
        <ele>102.04</ele>
        <time>2011-02-06T11:27:07Z</time>
      </trkpt>
      <trkpt lat="48.2918" lon="2.57796">
        <ele>103</ele>
        <time>2011-02-06T11:27:10Z</time>
      </trkpt>
      <trkpt lat="48.29172" lon="2.57808">
        <ele>103.96</ele>
        <time>2011-02-06T11:27:22Z</time>
      </trkpt>
      <trkpt lat="48.29171" lon="2.57809">
        <ele>104.92</ele>
        <time>2011-02-06T11:27:29Z</time>
      </trkpt>
      <trkpt lat="48.29163" lon="2.57817">
        <ele>106.36</ele>
        <time>2011-02-06T11:27:37Z</time>
      </trkpt>
      <trkpt lat="48.29151" lon="2.57829">
        <ele>107.32</ele>
        <time>2011-02-06T11:27:46Z</time>
      </trkpt>
      <trkpt lat="48.29145" lon="2.57831">
        <ele>108.29</ele>
        <time>2011-02-06T11:27:50Z</time>
      </trkpt>
      <trkpt lat="48.29134" lon="2.5783">
        <ele>109.73</ele>
        <time>2011-02-06T11:28:02Z</time>
      </trkpt>
      <trkpt lat="48.29134" lon="2.5783">
        <ele>109.73</ele>
        <time>2011-02-06T11:28:14Z</time>
      </trkpt>
      <trkpt lat="48.29134" lon="2.5783">
        <ele>110.21</ele>
        <time>2011-02-06T11:28:43Z</time>
      </trkpt>
      <trkpt lat="48.29134" lon="2.57832">
        <ele>110.21</ele>
        <time>2011-02-06T11:28:57Z</time>
      </trkpt>
      <trkpt lat="48.29129" lon="2.57841">
        <ele>110.21</ele>
        <time>2011-02-06T11:29:03Z</time>
      </trkpt>
      <trkpt lat="48.29128" lon="2.57844">
        <ele>110.21</ele>
        <time>2011-02-06T11:29:05Z</time>
      </trkpt>
      <trkpt lat="48.29124" lon="2.57852">
        <ele>110.69</ele>
        <time>2011-02-06T11:29:20Z</time>
      </trkpt>
      <trkpt lat="48.29124" lon="2.57852">
        <ele>110.69</ele>
        <time>2011-02-06T11:29:54Z</time>
      </trkpt>
      <trkpt lat="48.29124" lon="2.57852">
        <ele>110.21</ele>
        <time>2011-02-06T11:30:26Z</time>
      </trkpt>
      <trkpt lat="48.29124" lon="2.57852">
        <ele>110.21</ele>
        <time>2011-02-06T11:30:42Z</time>
      </trkpt>
      <trkpt lat="48.29124" lon="2.57852">
        <ele>113.57</ele>
        <time>2011-02-06T11:31:06Z</time>
      </trkpt>
      <trkpt lat="48.29124" lon="2.57852">
        <ele>110.21</ele>
        <time>2011-02-06T11:31:09Z</time>
      </trkpt>
      <trkpt lat="48.29125" lon="2.57855">
        <ele>110.69</ele>
        <time>2011-02-06T11:31:11Z</time>
      </trkpt>
      <trkpt lat="48.29111" lon="2.57883">
        <ele>113.09</ele>
        <time>2011-02-06T11:31:25Z</time>
      </trkpt>
      <trkpt lat="48.29096" lon="2.57923">
        <ele>114.53</ele>
        <time>2011-02-06T11:31:38Z</time>
      </trkpt>
      <trkpt lat="48.29078" lon="2.57977">
        <ele>116.94</ele>
        <time>2011-02-06T11:31:55Z</time>
      </trkpt>
      <trkpt lat="48.29065" lon="2.58038">
        <ele>115.98</ele>
        <time>2011-02-06T11:32:11Z</time>
      </trkpt>
      <trkpt lat="48.29065" lon="2.58074">
        <ele>115.98</ele>
        <time>2011-02-06T11:32:21Z</time>
      </trkpt>
      <trkpt lat="48.2907" lon="2.58115">
        <ele>115.5</ele>
        <time>2011-02-06T11:32:33Z</time>
      </trkpt>
      <trkpt lat="48.2907" lon="2.58136">
        <ele>115.98</ele>
        <time>2011-02-06T11:32:38Z</time>
      </trkpt>
      <trkpt lat="48.29068" lon="2.58147">
        <ele>116.46</ele>
        <time>2011-02-06T11:32:42Z</time>
      </trkpt>
      <trkpt lat="48.29068" lon="2.58162">
        <ele>115.98</ele>
        <time>2011-02-06T11:32:47Z</time>
      </trkpt>
      <trkpt lat="48.29079" lon="2.58211">
        <ele>112.61</ele>
        <time>2011-02-06T11:33:00Z</time>
      </trkpt>
      <trkpt lat="48.2908" lon="2.58216">
        <ele>112.61</ele>
        <time>2011-02-06T11:33:01Z</time>
      </trkpt>
      <trkpt lat="48.29079" lon="2.5823">
        <ele>111.17</ele>
        <time>2011-02-06T11:33:04Z</time>
      </trkpt>
      <trkpt lat="48.29076" lon="2.58243">
        <ele>107.81</ele>
        <time>2011-02-06T11:33:07Z</time>
      </trkpt>
      <trkpt lat="48.29073" lon="2.58257">
        <ele>104.44</ele>
        <time>2011-02-06T11:33:10Z</time>
      </trkpt>
      <trkpt lat="48.29069" lon="2.58268">
        <ele>100.11</ele>
        <time>2011-02-06T11:33:13Z</time>
      </trkpt>
      <trkpt lat="48.29067" lon="2.58276">
        <ele>95.79</ele>
        <time>2011-02-06T11:33:15Z</time>
      </trkpt>
      <trkpt lat="48.29065" lon="2.58296">
        <ele>92.9</ele>
        <time>2011-02-06T11:33:19Z</time>
      </trkpt>
      <trkpt lat="48.29065" lon="2.58298">
        <ele>91.94</ele>
        <time>2011-02-06T11:33:20Z</time>
      </trkpt>
      <trkpt lat="48.29071" lon="2.58315">
        <ele>90.02</ele>
        <time>2011-02-06T11:33:23Z</time>
      </trkpt>
      <trkpt lat="48.29073" lon="2.58321">
        <ele>89.06</ele>
        <time>2011-02-06T11:33:24Z</time>
      </trkpt>
      <trkpt lat="48.29073" lon="2.58328">
        <ele>89.06</ele>
        <time>2011-02-06T11:33:25Z</time>
      </trkpt>
      <trkpt lat="48.29071" lon="2.58338">
        <ele>90.02</ele>
        <time>2011-02-06T11:33:28Z</time>
      </trkpt>
      <trkpt lat="48.2906" lon="2.58352">
        <ele>90.98</ele>
        <time>2011-02-06T11:33:39Z</time>
      </trkpt>
      <trkpt lat="48.29056" lon="2.58354">
        <ele>91.46</ele>
        <time>2011-02-06T11:33:41Z</time>
      </trkpt>
      <trkpt lat="48.29044" lon="2.58353">
        <ele>94.35</ele>
        <time>2011-02-06T11:33:51Z</time>
      </trkpt>
      <trkpt lat="48.29026" lon="2.5835">
        <ele>96.27</ele>
        <time>2011-02-06T11:34:03Z</time>
      </trkpt>
      <trkpt lat="48.29011" lon="2.58343">
        <ele>98.67</ele>
        <time>2011-02-06T11:34:14Z</time>
      </trkpt>
      <trkpt lat="48.29001" lon="2.58341">
        <ele>100.11</ele>
        <time>2011-02-06T11:34:20Z</time>
      </trkpt>
      <trkpt lat="48.2898" lon="2.58342">
        <ele>103</ele>
        <time>2011-02-06T11:34:33Z</time>
      </trkpt>
      <trkpt lat="48.2896" lon="2.58346">
        <ele>105.88</ele>
        <time>2011-02-06T11:34:48Z</time>
      </trkpt>
      <trkpt lat="48.28947" lon="2.5835">
        <ele>107.81</ele>
        <time>2011-02-06T11:35:00Z</time>
      </trkpt>
      <trkpt lat="48.2894" lon="2.58348">
        <ele>108.77</ele>
        <time>2011-02-06T11:35:06Z</time>
      </trkpt>
      <trkpt lat="48.2893" lon="2.58344">
        <ele>109.73</ele>
        <time>2011-02-06T11:35:12Z</time>
      </trkpt>
      <trkpt lat="48.28914" lon="2.58342">
        <ele>112.13</ele>
        <time>2011-02-06T11:35:26Z</time>
      </trkpt>
      <trkpt lat="48.28912" lon="2.58341">
        <ele>112.13</ele>
        <time>2011-02-06T11:35:27Z</time>
      </trkpt>
      <trkpt lat="48.28905" lon="2.58328">
        <ele>114.05</ele>
        <time>2011-02-06T11:35:37Z</time>
      </trkpt>
      <trkpt lat="48.28892" lon="2.58317">
        <ele>116.46</ele>
        <time>2011-02-06T11:35:48Z</time>
      </trkpt>
      <trkpt lat="48.28889" lon="2.58337">
        <ele>117.42</ele>
        <time>2011-02-06T11:35:57Z</time>
      </trkpt>
      <trkpt lat="48.28893" lon="2.58342">
        <ele>116.46</ele>
        <time>2011-02-06T11:36:01Z</time>
      </trkpt>
      <trkpt lat="48.289" lon="2.58346">
        <ele>115.5</ele>
        <time>2011-02-06T11:36:04Z</time>
      </trkpt>
      <trkpt lat="48.2891" lon="2.58359">
        <ele>115.01</ele>
        <time>2011-02-06T11:36:10Z</time>
      </trkpt>
      <trkpt lat="48.28923" lon="2.58373">
        <ele>115.01</ele>
        <time>2011-02-06T11:36:18Z</time>
      </trkpt>
      <trkpt lat="48.28929" lon="2.58378">
        <ele>114.53</ele>
        <time>2011-02-06T11:36:21Z</time>
      </trkpt>
      <trkpt lat="48.28938" lon="2.58384">
        <ele>114.05</ele>
        <time>2011-02-06T11:36:25Z</time>
      </trkpt>
      <trkpt lat="48.28947" lon="2.58392">
        <ele>115.01</ele>
        <time>2011-02-06T11:36:29Z</time>
      </trkpt>
      <trkpt lat="48.28949" lon="2.58393">
        <ele>115.5</ele>
        <time>2011-02-06T11:36:30Z</time>
      </trkpt>
      <trkpt lat="48.28967" lon="2.58399">
        <ele>115.01</ele>
        <time>2011-02-06T11:36:38Z</time>
      </trkpt>
      <trkpt lat="48.2897" lon="2.58408">
        <ele>115.5</ele>
        <time>2011-02-06T11:36:41Z</time>
      </trkpt>
      <trkpt lat="48.28976" lon="2.58423">
        <ele>116.46</ele>
        <time>2011-02-06T11:36:48Z</time>
      </trkpt>
      <trkpt lat="48.2899" lon="2.58438">
        <ele>116.46</ele>
        <time>2011-02-06T11:36:56Z</time>
      </trkpt>
      <trkpt lat="48.28994" lon="2.58481">
        <ele>115.5</ele>
        <time>2011-02-06T11:37:08Z</time>
      </trkpt>
      <trkpt lat="48.28993" lon="2.58493">
        <ele>115.5</ele>
        <time>2011-02-06T11:37:13Z</time>
      </trkpt>
      <trkpt lat="48.28996" lon="2.58501">
        <ele>114.53</ele>
        <time>2011-02-06T11:37:17Z</time>
      </trkpt>
      <trkpt lat="48.29" lon="2.58527">
        <ele>114.53</ele>
        <time>2011-02-06T11:37:28Z</time>
      </trkpt>
      <trkpt lat="48.29" lon="2.58527">
        <ele>114.53</ele>
        <time>2011-02-06T11:37:33Z</time>
      </trkpt>
      <trkpt lat="48.29003" lon="2.58533">
        <ele>114.53</ele>
        <time>2011-02-06T11:37:45Z</time>
      </trkpt>
      <trkpt lat="48.29007" lon="2.58537">
        <ele>114.53</ele>
        <time>2011-02-06T11:38:08Z</time>
      </trkpt>
      <trkpt lat="48.29013" lon="2.58544">
        <ele>115.5</ele>
        <time>2011-02-06T11:38:11Z</time>
      </trkpt>
      <trkpt lat="48.29019" lon="2.58551">
        <ele>115.5</ele>
        <time>2011-02-06T11:38:15Z</time>
      </trkpt>
      <trkpt lat="48.29033" lon="2.5859">
        <ele>115.5</ele>
        <time>2011-02-06T11:38:28Z</time>
      </trkpt>
      <trkpt lat="48.29039" lon="2.58611">
        <ele>115.5</ele>
        <time>2011-02-06T11:38:33Z</time>
      </trkpt>
      <trkpt lat="48.2904" lon="2.58623">
        <ele>115.98</ele>
        <time>2011-02-06T11:38:36Z</time>
      </trkpt>
      <trkpt lat="48.29052" lon="2.58639">
        <ele>114.53</ele>
        <time>2011-02-06T11:38:43Z</time>
      </trkpt>
      <trkpt lat="48.29065" lon="2.58637">
        <ele>110.21</ele>
        <time>2011-02-06T11:38:47Z</time>
      </trkpt>
      <trkpt lat="48.29075" lon="2.58638">
        <ele>110.21</ele>
        <time>2011-02-06T11:38:49Z</time>
      </trkpt>
      <trkpt lat="48.29088" lon="2.58641">
        <ele>111.17</ele>
        <time>2011-02-06T11:38:52Z</time>
      </trkpt>
      <trkpt lat="48.29116" lon="2.58665">
        <ele>110.21</ele>
        <time>2011-02-06T11:39:02Z</time>
      </trkpt>
      <trkpt lat="48.29109" lon="2.58707">
        <ele>111.17</ele>
        <time>2011-02-06T11:39:12Z</time>
      </trkpt>
      <trkpt lat="48.29124" lon="2.58736">
        <ele>110.21</ele>
        <time>2011-02-06T11:39:20Z</time>
      </trkpt>
      <trkpt lat="48.29144" lon="2.58763">
        <ele>109.73</ele>
        <time>2011-02-06T11:39:28Z</time>
      </trkpt>
      <trkpt lat="48.29154" lon="2.58766">
        <ele>108.77</ele>
        <time>2011-02-06T11:39:37Z</time>
      </trkpt>
      <trkpt lat="48.29157" lon="2.58764">
        <ele>106.36</ele>
        <time>2011-02-06T11:39:45Z</time>
      </trkpt>
      <trkpt lat="48.2916" lon="2.58763">
        <ele>105.4</ele>
        <time>2011-02-06T11:39:47Z</time>
      </trkpt>
      <trkpt lat="48.29163" lon="2.58767">
        <ele>103.96</ele>
        <time>2011-02-06T11:39:49Z</time>
      </trkpt>
      <trkpt lat="48.29166" lon="2.58777">
        <ele>100.6</ele>
        <time>2011-02-06T11:39:53Z</time>
      </trkpt>
      <trkpt lat="48.29169" lon="2.58794">
        <ele>97.23</ele>
        <time>2011-02-06T11:39:58Z</time>
      </trkpt>
      <trkpt lat="48.29171" lon="2.58808">
        <ele>95.31</ele>
        <time>2011-02-06T11:40:08Z</time>
      </trkpt>
      <trkpt lat="48.29172" lon="2.58813">
        <ele>93.87</ele>
        <time>2011-02-06T11:40:14Z</time>
      </trkpt>
      <trkpt lat="48.2918" lon="2.58821">
        <ele>90.02</ele>
        <time>2011-02-06T11:40:20Z</time>
      </trkpt>
      <trkpt lat="48.29189" lon="2.58838">
        <ele>85.69</ele>
        <time>2011-02-06T11:40:25Z</time>
      </trkpt>
      <trkpt lat="48.29192" lon="2.58842">
        <ele>84.73</ele>
        <time>2011-02-06T11:40:26Z</time>
      </trkpt>
      <trkpt lat="48.29199" lon="2.58849">
        <ele>82.33</ele>
        <time>2011-02-06T11:40:28Z</time>
      </trkpt>
      <trkpt lat="48.29205" lon="2.58853">
        <ele>82.33</ele>
        <time>2011-02-06T11:40:38Z</time>
      </trkpt>
      <trkpt lat="48.29207" lon="2.58867">
        <ele>78.48</ele>
        <time>2011-02-06T11:40:44Z</time>
      </trkpt>
      <trkpt lat="48.2921" lon="2.5887">
        <ele>78</ele>
        <time>2011-02-06T11:40:46Z</time>
      </trkpt>
      <trkpt lat="48.29214" lon="2.58875">
        <ele>77.52</ele>
        <time>2011-02-06T11:40:51Z</time>
      </trkpt>
      <trkpt lat="48.29216" lon="2.5888">
        <ele>78</ele>
        <time>2011-02-06T11:41:04Z</time>
      </trkpt>
      <trkpt lat="48.29216" lon="2.58883">
        <ele>77.52</ele>
        <time>2011-02-06T11:41:12Z</time>
      </trkpt>
      <trkpt lat="48.2922" lon="2.58905">
        <ele>77.52</ele>
        <time>2011-02-06T11:41:19Z</time>
      </trkpt>
      <trkpt lat="48.29207" lon="2.58936">
        <ele>78</ele>
        <time>2011-02-06T11:41:29Z</time>
      </trkpt>
      <trkpt lat="48.29203" lon="2.58941">
        <ele>78.97</ele>
        <time>2011-02-06T11:41:31Z</time>
      </trkpt>
      <trkpt lat="48.29195" lon="2.58939">
        <ele>79.45</ele>
        <time>2011-02-06T11:41:36Z</time>
      </trkpt>
      <trkpt lat="48.29187" lon="2.58923">
        <ele>80.41</ele>
        <time>2011-02-06T11:41:42Z</time>
      </trkpt>
      <trkpt lat="48.29175" lon="2.58898">
        <ele>81.85</ele>
        <time>2011-02-06T11:41:52Z</time>
      </trkpt>
      <trkpt lat="48.29168" lon="2.58883">
        <ele>81.85</ele>
        <time>2011-02-06T11:41:58Z</time>
      </trkpt>
      <trkpt lat="48.29161" lon="2.58849">
        <ele>84.73</ele>
        <time>2011-02-06T11:42:10Z</time>
      </trkpt>
      <trkpt lat="48.29159" lon="2.58843">
        <ele>85.69</ele>
        <time>2011-02-06T11:42:12Z</time>
      </trkpt>
      <trkpt lat="48.29151" lon="2.58839">
        <ele>85.69</ele>
        <time>2011-02-06T11:42:19Z</time>
      </trkpt>
      <trkpt lat="48.29147" lon="2.58837">
        <ele>86.18</ele>
        <time>2011-02-06T11:42:22Z</time>
      </trkpt>
      <trkpt lat="48.2914" lon="2.58826">
        <ele>88.58</ele>
        <time>2011-02-06T11:42:28Z</time>
      </trkpt>
      <trkpt lat="48.29139" lon="2.58823">
        <ele>89.06</ele>
        <time>2011-02-06T11:42:31Z</time>
      </trkpt>
      <trkpt lat="48.29136" lon="2.58817">
        <ele>90.5</ele>
        <time>2011-02-06T11:42:35Z</time>
      </trkpt>
      <trkpt lat="48.29133" lon="2.58814">
        <ele>91.46</ele>
        <time>2011-02-06T11:42:37Z</time>
      </trkpt>
      <trkpt lat="48.29126" lon="2.58801">
        <ele>93.39</ele>
        <time>2011-02-06T11:42:49Z</time>
      </trkpt>
      <trkpt lat="48.29122" lon="2.58794">
        <ele>95.79</ele>
        <time>2011-02-06T11:43:04Z</time>
      </trkpt>
      <trkpt lat="48.2911" lon="2.58788">
        <ele>97.23</ele>
        <time>2011-02-06T11:43:18Z</time>
      </trkpt>
      <trkpt lat="48.29103" lon="2.58779">
        <ele>92.9</ele>
        <time>2011-02-06T11:43:32Z</time>
      </trkpt>
      <trkpt lat="48.29103" lon="2.58778">
        <ele>99.15</ele>
        <time>2011-02-06T11:43:33Z</time>
      </trkpt>
      <trkpt lat="48.29095" lon="2.5877">
        <ele>102.04</ele>
        <time>2011-02-06T11:43:48Z</time>
      </trkpt>
      <trkpt lat="48.29094" lon="2.5877">
        <ele>102.04</ele>
        <time>2011-02-06T11:43:49Z</time>
      </trkpt>
      <trkpt lat="48.29087" lon="2.58767">
        <ele>103</ele>
        <time>2011-02-06T11:44:01Z</time>
      </trkpt>
      <trkpt lat="48.29075" lon="2.58752">
        <ele>105.88</ele>
        <time>2011-02-06T11:44:15Z</time>
      </trkpt>
      <trkpt lat="48.29075" lon="2.58746">
        <ele>105.88</ele>
        <time>2011-02-06T11:44:20Z</time>
      </trkpt>
      <trkpt lat="48.2907" lon="2.58739">
        <ele>107.32</ele>
        <time>2011-02-06T11:44:32Z</time>
      </trkpt>
      <trkpt lat="48.29068" lon="2.58739">
        <ele>107.32</ele>
        <time>2011-02-06T11:44:34Z</time>
      </trkpt>
      <trkpt lat="48.2906" lon="2.58738">
        <ele>107.32</ele>
        <time>2011-02-06T11:44:41Z</time>
      </trkpt>
      <trkpt lat="48.29055" lon="2.58735">
        <ele>108.29</ele>
        <time>2011-02-06T11:44:45Z</time>
      </trkpt>
      <trkpt lat="48.29053" lon="2.5873">
        <ele>108.77</ele>
        <time>2011-02-06T11:44:49Z</time>
      </trkpt>
      <trkpt lat="48.29051" lon="2.58725">
        <ele>109.73</ele>
        <time>2011-02-06T11:44:52Z</time>
      </trkpt>
      <trkpt lat="48.29049" lon="2.58724">
        <ele>110.21</ele>
        <time>2011-02-06T11:45:05Z</time>
      </trkpt>
      <trkpt lat="48.29049" lon="2.58724">
        <ele>107.81</ele>
        <time>2011-02-06T11:45:32Z</time>
      </trkpt>
      <trkpt lat="48.29048" lon="2.58724">
        <ele>110.69</ele>
        <time>2011-02-06T11:45:37Z</time>
      </trkpt>
      <trkpt lat="48.29048" lon="2.58724">
        <ele>110.69</ele>
        <time>2011-02-06T11:45:39Z</time>
      </trkpt>
      <trkpt lat="48.29042" lon="2.58728">
        <ele>110.69</ele>
        <time>2011-02-06T11:45:51Z</time>
      </trkpt>
      <trkpt lat="48.29028" lon="2.58721">
        <ele>112.13</ele>
        <time>2011-02-06T11:46:05Z</time>
      </trkpt>
      <trkpt lat="48.29025" lon="2.58719">
        <ele>112.61</ele>
        <time>2011-02-06T11:46:08Z</time>
      </trkpt>
      <trkpt lat="48.29018" lon="2.5872">
        <ele>113.09</ele>
        <time>2011-02-06T11:46:14Z</time>
      </trkpt>
      <trkpt lat="48.29007" lon="2.58728">
        <ele>114.05</ele>
        <time>2011-02-06T11:46:23Z</time>
      </trkpt>
      <trkpt lat="48.28993" lon="2.58771">
        <ele>115.98</ele>
        <time>2011-02-06T11:46:42Z</time>
      </trkpt>
      <trkpt lat="48.28976" lon="2.58814">
        <ele>116.94</ele>
        <time>2011-02-06T11:46:58Z</time>
      </trkpt>
      <trkpt lat="48.28962" lon="2.58852">
        <ele>117.9</ele>
        <time>2011-02-06T11:47:12Z</time>
      </trkpt>
      <trkpt lat="48.28952" lon="2.58874">
        <ele>117.9</ele>
        <time>2011-02-06T11:47:22Z</time>
      </trkpt>
      <trkpt lat="48.28979" lon="2.58898">
        <ele>117.9</ele>
        <time>2011-02-06T11:47:33Z</time>
      </trkpt>
      <trkpt lat="48.28991" lon="2.58893">
        <ele>116.94</ele>
        <time>2011-02-06T11:47:37Z</time>
      </trkpt>
      <trkpt lat="48.29005" lon="2.58896">
        <ele>116.94</ele>
        <time>2011-02-06T11:47:42Z</time>
      </trkpt>
      <trkpt lat="48.29004" lon="2.58934">
        <ele>116.94</ele>
        <time>2011-02-06T11:47:51Z</time>
      </trkpt>
      <trkpt lat="48.29006" lon="2.58948">
        <ele>116.46</ele>
        <time>2011-02-06T11:47:54Z</time>
      </trkpt>
      <trkpt lat="48.29014" lon="2.58975">
        <ele>115.5</ele>
        <time>2011-02-06T11:48:00Z</time>
      </trkpt>
      <trkpt lat="48.28993" lon="2.58997">
        <ele>115.5</ele>
        <time>2011-02-06T11:48:09Z</time>
      </trkpt>
      <trkpt lat="48.28977" lon="2.59011">
        <ele>115.98</ele>
        <time>2011-02-06T11:48:16Z</time>
      </trkpt>
      <trkpt lat="48.28971" lon="2.59035">
        <ele>114.53</ele>
        <time>2011-02-06T11:48:21Z</time>
      </trkpt>
      <trkpt lat="48.2897" lon="2.59043">
        <ele>114.05</ele>
        <time>2011-02-06T11:48:22Z</time>
      </trkpt>
      <trkpt lat="48.2897" lon="2.59051">
        <ele>113.57</ele>
        <time>2011-02-06T11:48:23Z</time>
      </trkpt>
      <trkpt lat="48.2897" lon="2.59058">
        <ele>113.57</ele>
        <time>2011-02-06T11:48:24Z</time>
      </trkpt>
      <trkpt lat="48.2897" lon="2.59065">
        <ele>113.57</ele>
        <time>2011-02-06T11:48:25Z</time>
      </trkpt>
      <trkpt lat="48.28962" lon="2.59106">
        <ele>114.05</ele>
        <time>2011-02-06T11:48:32Z</time>
      </trkpt>
      <trkpt lat="48.28963" lon="2.59112">
        <ele>114.53</ele>
        <time>2011-02-06T11:48:33Z</time>
      </trkpt>
      <trkpt lat="48.28965" lon="2.59117">
        <ele>115.01</ele>
        <time>2011-02-06T11:48:34Z</time>
      </trkpt>
      <trkpt lat="48.28968" lon="2.59123">
        <ele>115.5</ele>
        <time>2011-02-06T11:48:35Z</time>
      </trkpt>
      <trkpt lat="48.28971" lon="2.59128">
        <ele>115.5</ele>
        <time>2011-02-06T11:48:36Z</time>
      </trkpt>
      <trkpt lat="48.28973" lon="2.59133">
        <ele>115.98</ele>
        <time>2011-02-06T11:48:37Z</time>
      </trkpt>
      <trkpt lat="48.28977" lon="2.59138">
        <ele>115.98</ele>
        <time>2011-02-06T11:48:38Z</time>
      </trkpt>
      <trkpt lat="48.2898" lon="2.59144">
        <ele>115.98</ele>
        <time>2011-02-06T11:48:39Z</time>
      </trkpt>
      <trkpt lat="48.28983" lon="2.59149">
        <ele>115.01</ele>
        <time>2011-02-06T11:48:40Z</time>
      </trkpt>
      <trkpt lat="48.28986" lon="2.59156">
        <ele>115.5</ele>
        <time>2011-02-06T11:48:41Z</time>
      </trkpt>
      <trkpt lat="48.28988" lon="2.59162">
        <ele>115.5</ele>
        <time>2011-02-06T11:48:42Z</time>
      </trkpt>
      <trkpt lat="48.2899" lon="2.59169">
        <ele>115.98</ele>
        <time>2011-02-06T11:48:43Z</time>
      </trkpt>
      <trkpt lat="48.28991" lon="2.59176">
        <ele>115.98</ele>
        <time>2011-02-06T11:48:44Z</time>
      </trkpt>
      <trkpt lat="48.28993" lon="2.59183">
        <ele>115.98</ele>
        <time>2011-02-06T11:48:45Z</time>
      </trkpt>
      <trkpt lat="48.28995" lon="2.5919">
        <ele>115.98</ele>
        <time>2011-02-06T11:48:46Z</time>
      </trkpt>
      <trkpt lat="48.28996" lon="2.59197">
        <ele>116.46</ele>
        <time>2011-02-06T11:48:47Z</time>
      </trkpt>
      <trkpt lat="48.28996" lon="2.59204">
        <ele>115.98</ele>
        <time>2011-02-06T11:48:48Z</time>
      </trkpt>
      <trkpt lat="48.28997" lon="2.59211">
        <ele>115.98</ele>
        <time>2011-02-06T11:48:49Z</time>
      </trkpt>
      <trkpt lat="48.28999" lon="2.59224">
        <ele>115.98</ele>
        <time>2011-02-06T11:48:51Z</time>
      </trkpt>
      <trkpt lat="48.28998" lon="2.5923">
        <ele>115.01</ele>
        <time>2011-02-06T11:48:52Z</time>
      </trkpt>
      <trkpt lat="48.28998" lon="2.59235">
        <ele>115.01</ele>
        <time>2011-02-06T11:48:53Z</time>
      </trkpt>
      <trkpt lat="48.28999" lon="2.5924">
        <ele>115.01</ele>
        <time>2011-02-06T11:48:54Z</time>
      </trkpt>
      <trkpt lat="48.29001" lon="2.59245">
        <ele>115.01</ele>
        <time>2011-02-06T11:48:55Z</time>
      </trkpt>
      <trkpt lat="48.29003" lon="2.5925">
        <ele>115.01</ele>
        <time>2011-02-06T11:48:56Z</time>
      </trkpt>
      <trkpt lat="48.29005" lon="2.59254">
        <ele>114.53</ele>
        <time>2011-02-06T11:48:57Z</time>
      </trkpt>
      <trkpt lat="48.29008" lon="2.59258">
        <ele>114.53</ele>
        <time>2011-02-06T11:48:58Z</time>
      </trkpt>
      <trkpt lat="48.29011" lon="2.59264">
        <ele>114.05</ele>
        <time>2011-02-06T11:48:59Z</time>
      </trkpt>
      <trkpt lat="48.29014" lon="2.5927">
        <ele>114.53</ele>
        <time>2011-02-06T11:49:00Z</time>
      </trkpt>
      <trkpt lat="48.29016" lon="2.59276">
        <ele>114.53</ele>
        <time>2011-02-06T11:49:01Z</time>
      </trkpt>
      <trkpt lat="48.29019" lon="2.59282">
        <ele>114.53</ele>
        <time>2011-02-06T11:49:02Z</time>
      </trkpt>
      <trkpt lat="48.29021" lon="2.59288">
        <ele>114.05</ele>
        <time>2011-02-06T11:49:03Z</time>
      </trkpt>
      <trkpt lat="48.29023" lon="2.59306">
        <ele>114.05</ele>
        <time>2011-02-06T11:49:07Z</time>
      </trkpt>
      <trkpt lat="48.29027" lon="2.59319">
        <ele>114.05</ele>
        <time>2011-02-06T11:49:10Z</time>
      </trkpt>
      <trkpt lat="48.29029" lon="2.59326">
        <ele>111.17</ele>
        <time>2011-02-06T11:49:14Z</time>
      </trkpt>
      <trkpt lat="48.29039" lon="2.59338">
        <ele>106.84</ele>
        <time>2011-02-06T11:49:18Z</time>
      </trkpt>
      <trkpt lat="48.29049" lon="2.59357">
        <ele>103.96</ele>
        <time>2011-02-06T11:49:23Z</time>
      </trkpt>
      <trkpt lat="48.29051" lon="2.59361">
        <ele>103.48</ele>
        <time>2011-02-06T11:49:24Z</time>
      </trkpt>
      <trkpt lat="48.29066" lon="2.59434">
        <ele>104.44</ele>
        <time>2011-02-06T11:49:36Z</time>
      </trkpt>
      <trkpt lat="48.2907" lon="2.59464">
        <ele>105.88</ele>
        <time>2011-02-06T11:49:41Z</time>
      </trkpt>
      <trkpt lat="48.29078" lon="2.59501">
        <ele>106.84</ele>
        <time>2011-02-06T11:49:52Z</time>
      </trkpt>
      <trkpt lat="48.29085" lon="2.59508">
        <ele>104.92</ele>
        <time>2011-02-06T11:50:02Z</time>
      </trkpt>
      <trkpt lat="48.29088" lon="2.59516">
        <ele>101.56</ele>
        <time>2011-02-06T11:50:11Z</time>
      </trkpt>
      <trkpt lat="48.29091" lon="2.59522">
        <ele>100.11</ele>
        <time>2011-02-06T11:50:13Z</time>
      </trkpt>
      <trkpt lat="48.29095" lon="2.59528">
        <ele>97.71</ele>
        <time>2011-02-06T11:50:16Z</time>
      </trkpt>
      <trkpt lat="48.2911" lon="2.59534">
        <ele>92.9</ele>
        <time>2011-02-06T11:50:20Z</time>
      </trkpt>
      <trkpt lat="48.29114" lon="2.59534">
        <ele>91.94</ele>
        <time>2011-02-06T11:50:21Z</time>
      </trkpt>
      <trkpt lat="48.29124" lon="2.59535">
        <ele>91.94</ele>
        <time>2011-02-06T11:50:24Z</time>
      </trkpt>
      <trkpt lat="48.29126" lon="2.59536">
        <ele>91.46</ele>
        <time>2011-02-06T11:50:25Z</time>
      </trkpt>
      <trkpt lat="48.2913" lon="2.59539">
        <ele>91.94</ele>
        <time>2011-02-06T11:50:35Z</time>
      </trkpt>
      <trkpt lat="48.29133" lon="2.59543">
        <ele>88.1</ele>
        <time>2011-02-06T11:50:48Z</time>
      </trkpt>
      <trkpt lat="48.29134" lon="2.59548">
        <ele>87.14</ele>
        <time>2011-02-06T11:50:55Z</time>
      </trkpt>
      <trkpt lat="48.29136" lon="2.5955">
        <ele>85.69</ele>
        <time>2011-02-06T11:51:02Z</time>
      </trkpt>
      <trkpt lat="48.2914" lon="2.59554">
        <ele>84.73</ele>
        <time>2011-02-06T11:51:04Z</time>
      </trkpt>
      <trkpt lat="48.29144" lon="2.59557">
        <ele>82.81</ele>
        <time>2011-02-06T11:51:12Z</time>
      </trkpt>
      <trkpt lat="48.29145" lon="2.59558">
        <ele>81.85</ele>
        <time>2011-02-06T11:51:13Z</time>
      </trkpt>
      <trkpt lat="48.29146" lon="2.59563">
        <ele>80.89</ele>
        <time>2011-02-06T11:51:15Z</time>
      </trkpt>
      <trkpt lat="48.29146" lon="2.59569">
        <ele>78.48</ele>
        <time>2011-02-06T11:51:23Z</time>
      </trkpt>
      <trkpt lat="48.29141" lon="2.59586">
        <ele>76.56</ele>
        <time>2011-02-06T11:51:27Z</time>
      </trkpt>
      <trkpt lat="48.2914" lon="2.59591">
        <ele>76.08</ele>
        <time>2011-02-06T11:51:28Z</time>
      </trkpt>
      <trkpt lat="48.29135" lon="2.59619">
        <ele>74.64</ele>
        <time>2011-02-06T11:51:33Z</time>
      </trkpt>
      <trkpt lat="48.29125" lon="2.5964">
        <ele>73.68</ele>
        <time>2011-02-06T11:51:39Z</time>
      </trkpt>
      <trkpt lat="48.29111" lon="2.59662">
        <ele>74.16</ele>
        <time>2011-02-06T11:51:48Z</time>
      </trkpt>
      <trkpt lat="48.29106" lon="2.59666">
        <ele>74.64</ele>
        <time>2011-02-06T11:51:51Z</time>
      </trkpt>
      <trkpt lat="48.29087" lon="2.59676">
        <ele>73.2</ele>
        <time>2011-02-06T11:52:00Z</time>
      </trkpt>
      <trkpt lat="48.29067" lon="2.59678">
        <ele>73.2</ele>
        <time>2011-02-06T11:52:10Z</time>
      </trkpt>
      <trkpt lat="48.2905" lon="2.59671">
        <ele>76.56</ele>
        <time>2011-02-06T11:52:22Z</time>
      </trkpt>
      <trkpt lat="48.29049" lon="2.59669">
        <ele>77.04</ele>
        <time>2011-02-06T11:52:24Z</time>
      </trkpt>
      <trkpt lat="48.29042" lon="2.59664">
        <ele>79.45</ele>
        <time>2011-02-06T11:52:39Z</time>
      </trkpt>
      <trkpt lat="48.29031" lon="2.59658">
        <ele>81.37</ele>
        <time>2011-02-06T11:52:53Z</time>
      </trkpt>
      <trkpt lat="48.29024" lon="2.59655">
        <ele>83.77</ele>
        <time>2011-02-06T11:53:07Z</time>
      </trkpt>
      <trkpt lat="48.29019" lon="2.59652">
        <ele>84.73</ele>
        <time>2011-02-06T11:53:20Z</time>
      </trkpt>
      <trkpt lat="48.29017" lon="2.59651">
        <ele>84.73</ele>
        <time>2011-02-06T11:53:22Z</time>
      </trkpt>
      <trkpt lat="48.29004" lon="2.59648">
        <ele>84.73</ele>
        <time>2011-02-06T11:53:31Z</time>
      </trkpt>
      <trkpt lat="48.28988" lon="2.59645">
        <ele>83.29</ele>
        <time>2011-02-06T11:53:39Z</time>
      </trkpt>
      <trkpt lat="48.28977" lon="2.59632">
        <ele>83.29</ele>
        <time>2011-02-06T11:53:45Z</time>
      </trkpt>
      <trkpt lat="48.28975" lon="2.59627">
        <ele>84.25</ele>
        <time>2011-02-06T11:53:48Z</time>
      </trkpt>
      <trkpt lat="48.28966" lon="2.59624">
        <ele>84.25</ele>
        <time>2011-02-06T11:54:00Z</time>
      </trkpt>
      <trkpt lat="48.28962" lon="2.59613">
        <ele>86.66</ele>
        <time>2011-02-06T11:54:13Z</time>
      </trkpt>
      <trkpt lat="48.2896" lon="2.59606">
        <ele>86.66</ele>
        <time>2011-02-06T11:54:19Z</time>
      </trkpt>
      <trkpt lat="48.28954" lon="2.59592">
        <ele>85.69</ele>
        <time>2011-02-06T11:54:30Z</time>
      </trkpt>
      <trkpt lat="48.28954" lon="2.59584">
        <ele>88.1</ele>
        <time>2011-02-06T11:54:41Z</time>
      </trkpt>
      <trkpt lat="48.28948" lon="2.59575">
        <ele>88.1</ele>
        <time>2011-02-06T11:54:52Z</time>
      </trkpt>
      <trkpt lat="48.28942" lon="2.59564">
        <ele>86.66</ele>
        <time>2011-02-06T11:54:58Z</time>
      </trkpt>
      <trkpt lat="48.28943" lon="2.5956">
        <ele>88.1</ele>
        <time>2011-02-06T11:55:04Z</time>
      </trkpt>
      <trkpt lat="48.28949" lon="2.59552">
        <ele>90.5</ele>
        <time>2011-02-06T11:55:17Z</time>
      </trkpt>
      <trkpt lat="48.28951" lon="2.59552">
        <ele>90.5</ele>
        <time>2011-02-06T11:55:27Z</time>
      </trkpt>
      <trkpt lat="48.28957" lon="2.59552">
        <ele>92.42</ele>
        <time>2011-02-06T11:55:31Z</time>
      </trkpt>
      <trkpt lat="48.28959" lon="2.59551">
        <ele>93.39</ele>
        <time>2011-02-06T11:55:34Z</time>
      </trkpt>
      <trkpt lat="48.28961" lon="2.5955">
        <ele>92.42</ele>
        <time>2011-02-06T11:55:39Z</time>
      </trkpt>
      <trkpt lat="48.28966" lon="2.59549">
        <ele>93.39</ele>
        <time>2011-02-06T11:55:43Z</time>
      </trkpt>
      <trkpt lat="48.28969" lon="2.59531">
        <ele>93.87</ele>
        <time>2011-02-06T11:55:52Z</time>
      </trkpt>
      <trkpt lat="48.28973" lon="2.59522">
        <ele>94.83</ele>
        <time>2011-02-06T11:55:57Z</time>
      </trkpt>
      <trkpt lat="48.28973" lon="2.59512">
        <ele>94.83</ele>
        <time>2011-02-06T11:56:01Z</time>
      </trkpt>
      <trkpt lat="48.2898" lon="2.595">
        <ele>95.31</ele>
        <time>2011-02-06T11:56:08Z</time>
      </trkpt>
      <trkpt lat="48.28986" lon="2.59494">
        <ele>96.75</ele>
        <time>2011-02-06T11:56:14Z</time>
      </trkpt>
      <trkpt lat="48.28995" lon="2.59483">
        <ele>98.67</ele>
        <time>2011-02-06T11:56:23Z</time>
      </trkpt>
      <trkpt lat="48.28997" lon="2.59463">
        <ele>100.11</ele>
        <time>2011-02-06T11:56:35Z</time>
      </trkpt>
      <trkpt lat="48.2899" lon="2.59444">
        <ele>100.6</ele>
        <time>2011-02-06T11:56:48Z</time>
      </trkpt>
      <trkpt lat="48.28988" lon="2.59436">
        <ele>101.08</ele>
        <time>2011-02-06T11:56:51Z</time>
      </trkpt>
      <trkpt lat="48.2899" lon="2.5942">
        <ele>102.52</ele>
        <time>2011-02-06T11:57:01Z</time>
      </trkpt>
      <trkpt lat="48.28988" lon="2.59411">
        <ele>103</ele>
        <time>2011-02-06T11:57:06Z</time>
      </trkpt>
      <trkpt lat="48.28988" lon="2.59407">
        <ele>103.48</ele>
        <time>2011-02-06T11:57:07Z</time>
      </trkpt>
      <trkpt lat="48.28987" lon="2.59403">
        <ele>103.96</ele>
        <time>2011-02-06T11:57:09Z</time>
      </trkpt>
      <trkpt lat="48.28989" lon="2.59379">
        <ele>106.84</ele>
        <time>2011-02-06T11:57:20Z</time>
      </trkpt>
      <trkpt lat="48.28992" lon="2.59371">
        <ele>107.81</ele>
        <time>2011-02-06T11:57:25Z</time>
      </trkpt>
      <trkpt lat="48.28993" lon="2.59367">
        <ele>108.29</ele>
        <time>2011-02-06T11:57:27Z</time>
      </trkpt>
      <trkpt lat="48.28997" lon="2.59349">
        <ele>111.17</ele>
        <time>2011-02-06T11:57:38Z</time>
      </trkpt>
      <trkpt lat="48.28994" lon="2.59345">
        <ele>111.65</ele>
        <time>2011-02-06T11:57:41Z</time>
      </trkpt>
      <trkpt lat="48.28994" lon="2.5934">
        <ele>112.13</ele>
        <time>2011-02-06T11:57:44Z</time>
      </trkpt>
      <trkpt lat="48.28996" lon="2.59327">
        <ele>113.09</ele>
        <time>2011-02-06T11:57:52Z</time>
      </trkpt>
      <trkpt lat="48.28991" lon="2.59317">
        <ele>112.13</ele>
        <time>2011-02-06T11:57:57Z</time>
      </trkpt>
      <trkpt lat="48.28991" lon="2.59313">
        <ele>112.13</ele>
        <time>2011-02-06T11:57:59Z</time>
      </trkpt>
      <trkpt lat="48.28987" lon="2.59298">
        <ele>111.65</ele>
        <time>2011-02-06T11:58:07Z</time>
      </trkpt>
      <trkpt lat="48.28982" lon="2.59282">
        <ele>111.65</ele>
        <time>2011-02-06T11:58:16Z</time>
      </trkpt>
      <trkpt lat="48.28977" lon="2.5927">
        <ele>112.13</ele>
        <time>2011-02-06T11:58:23Z</time>
      </trkpt>
      <trkpt lat="48.28969" lon="2.59256">
        <ele>112.13</ele>
        <time>2011-02-06T11:58:31Z</time>
      </trkpt>
      <trkpt lat="48.28957" lon="2.59261">
        <ele>111.65</ele>
        <time>2011-02-06T11:58:38Z</time>
      </trkpt>
      <trkpt lat="48.28944" lon="2.59297">
        <ele>109.25</ele>
        <time>2011-02-06T11:58:52Z</time>
      </trkpt>
      <trkpt lat="48.28936" lon="2.59316">
        <ele>107.32</ele>
        <time>2011-02-06T11:59:01Z</time>
      </trkpt>
      <trkpt lat="48.28904" lon="2.59328">
        <ele>104.44</ele>
        <time>2011-02-06T11:59:12Z</time>
      </trkpt>
      <trkpt lat="48.289" lon="2.59329">
        <ele>103.48</ele>
        <time>2011-02-06T11:59:13Z</time>
      </trkpt>
      <trkpt lat="48.28896" lon="2.59332">
        <ele>103.48</ele>
        <time>2011-02-06T11:59:14Z</time>
      </trkpt>
      <trkpt lat="48.28893" lon="2.59334">
        <ele>103</ele>
        <time>2011-02-06T11:59:15Z</time>
      </trkpt>
      <trkpt lat="48.28876" lon="2.59334">
        <ele>103.48</ele>
        <time>2011-02-06T11:59:22Z</time>
      </trkpt>
      <trkpt lat="48.28868" lon="2.59336">
        <ele>101.08</ele>
        <time>2011-02-06T11:59:34Z</time>
      </trkpt>
      <trkpt lat="48.28868" lon="2.59336">
        <ele>100.6</ele>
        <time>2011-02-06T11:59:39Z</time>
      </trkpt>
      <trkpt lat="48.28854" lon="2.59334">
        <ele>97.71</ele>
        <time>2011-02-06T11:59:44Z</time>
      </trkpt>
      <trkpt lat="48.28843" lon="2.59331">
        <ele>95.31</ele>
        <time>2011-02-06T11:59:48Z</time>
      </trkpt>
      <trkpt lat="48.28836" lon="2.59331">
        <ele>92.9</ele>
        <time>2011-02-06T11:59:51Z</time>
      </trkpt>
      <trkpt lat="48.28825" lon="2.59328">
        <ele>90.02</ele>
        <time>2011-02-06T11:59:58Z</time>
      </trkpt>
      <trkpt lat="48.2882" lon="2.5933">
        <ele>86.18</ele>
        <time>2011-02-06T12:00:01Z</time>
      </trkpt>
      <trkpt lat="48.28818" lon="2.59332">
        <ele>86.18</ele>
        <time>2011-02-06T12:00:02Z</time>
      </trkpt>
      <trkpt lat="48.28821" lon="2.59359">
        <ele>84.73</ele>
        <time>2011-02-06T12:00:08Z</time>
      </trkpt>
      <trkpt lat="48.28824" lon="2.59374">
        <ele>84.25</ele>
        <time>2011-02-06T12:00:12Z</time>
      </trkpt>
      <trkpt lat="48.28828" lon="2.59383">
        <ele>85.21</ele>
        <time>2011-02-06T12:00:16Z</time>
      </trkpt>
      <trkpt lat="48.28835" lon="2.59409">
        <ele>84.25</ele>
        <time>2011-02-06T12:00:27Z</time>
      </trkpt>
      <trkpt lat="48.28835" lon="2.59412">
        <ele>83.77</ele>
        <time>2011-02-06T12:00:31Z</time>
      </trkpt>
      <trkpt lat="48.28841" lon="2.59427">
        <ele>84.25</ele>
        <time>2011-02-06T12:00:36Z</time>
      </trkpt>
      <trkpt lat="48.28842" lon="2.59439">
        <ele>81.85</ele>
        <time>2011-02-06T12:00:41Z</time>
      </trkpt>
      <trkpt lat="48.2885" lon="2.5946">
        <ele>81.85</ele>
        <time>2011-02-06T12:00:46Z</time>
      </trkpt>
      <trkpt lat="48.28857" lon="2.59477">
        <ele>81.85</ele>
        <time>2011-02-06T12:00:54Z</time>
      </trkpt>
      <trkpt lat="48.28857" lon="2.5948">
        <ele>79.93</ele>
        <time>2011-02-06T12:00:56Z</time>
      </trkpt>
      <trkpt lat="48.28853" lon="2.59488">
        <ele>78</ele>
        <time>2011-02-06T12:00:57Z</time>
      </trkpt>
      <trkpt lat="48.28831" lon="2.59515">
        <ele>74.64</ele>
        <time>2011-02-06T12:01:01Z</time>
      </trkpt>
      <trkpt lat="48.28813" lon="2.59532">
        <ele>73.2</ele>
        <time>2011-02-06T12:01:04Z</time>
      </trkpt>
      <trkpt lat="48.28776" lon="2.59563">
        <ele>70.79</ele>
        <time>2011-02-06T12:01:11Z</time>
      </trkpt>
      <trkpt lat="48.28767" lon="2.59564">
        <ele>71.76</ele>
        <time>2011-02-06T12:01:13Z</time>
      </trkpt>
      <trkpt lat="48.28764" lon="2.59561">
        <ele>72.24</ele>
        <time>2011-02-06T12:01:14Z</time>
      </trkpt>
      <trkpt lat="48.28762" lon="2.59557">
        <ele>72.24</ele>
        <time>2011-02-06T12:01:15Z</time>
      </trkpt>
      <trkpt lat="48.28761" lon="2.59554">
        <ele>72.24</ele>
        <time>2011-02-06T12:01:16Z</time>
      </trkpt>
      <trkpt lat="48.2876" lon="2.5955">
        <ele>72.24</ele>
        <time>2011-02-06T12:01:17Z</time>
      </trkpt>
      <trkpt lat="48.28754" lon="2.59512">
        <ele>73.2</ele>
        <time>2011-02-06T12:01:29Z</time>
      </trkpt>
      <trkpt lat="48.28743" lon="2.59457">
        <ele>74.64</ele>
        <time>2011-02-06T12:01:43Z</time>
      </trkpt>
      <trkpt lat="48.28722" lon="2.59392">
        <ele>75.12</ele>
        <time>2011-02-06T12:01:59Z</time>
      </trkpt>
      <trkpt lat="48.28703" lon="2.59329">
        <ele>77.04</ele>
        <time>2011-02-06T12:02:14Z</time>
      </trkpt>
      <trkpt lat="48.28679" lon="2.59273">
        <ele>77.04</ele>
        <time>2011-02-06T12:02:28Z</time>
      </trkpt>
      <trkpt lat="48.28653" lon="2.59215">
        <ele>78.97</ele>
        <time>2011-02-06T12:02:43Z</time>
      </trkpt>
      <trkpt lat="48.28642" lon="2.59203">
        <ele>78.97</ele>
        <time>2011-02-06T12:02:55Z</time>
      </trkpt>
      <trkpt lat="48.28639" lon="2.59194">
        <ele>79.45</ele>
        <time>2011-02-06T12:03:16Z</time>
      </trkpt>
      <trkpt lat="48.28621" lon="2.59156">
        <ele>80.41</ele>
        <time>2011-02-06T12:03:28Z</time>
      </trkpt>
      <trkpt lat="48.28595" lon="2.59104">
        <ele>81.85</ele>
        <time>2011-02-06T12:03:42Z</time>
      </trkpt>
      <trkpt lat="48.28568" lon="2.59049">
        <ele>83.29</ele>
        <time>2011-02-06T12:03:56Z</time>
      </trkpt>
      <trkpt lat="48.28546" lon="2.59014">
        <ele>85.21</ele>
        <time>2011-02-06T12:04:07Z</time>
      </trkpt>
      <trkpt lat="48.28533" lon="2.58975">
        <ele>86.66</ele>
        <time>2011-02-06T12:04:20Z</time>
      </trkpt>
      <trkpt lat="48.28531" lon="2.58966">
        <ele>87.14</ele>
        <time>2011-02-06T12:04:24Z</time>
      </trkpt>
      <trkpt lat="48.28531" lon="2.58964">
        <ele>87.62</ele>
        <time>2011-02-06T12:04:25Z</time>
      </trkpt>
      <trkpt lat="48.28541" lon="2.5893">
        <ele>88.1</ele>
        <time>2011-02-06T12:04:37Z</time>
      </trkpt>
      <trkpt lat="48.28545" lon="2.58917">
        <ele>89.54</ele>
        <time>2011-02-06T12:04:42Z</time>
      </trkpt>
      <trkpt lat="48.28546" lon="2.58914">
        <ele>89.06</ele>
        <time>2011-02-06T12:04:43Z</time>
      </trkpt>
      <trkpt lat="48.28547" lon="2.58912">
        <ele>89.54</ele>
        <time>2011-02-06T12:04:44Z</time>
      </trkpt>
      <trkpt lat="48.28554" lon="2.58882">
        <ele>90.98</ele>
        <time>2011-02-06T12:04:56Z</time>
      </trkpt>
      <trkpt lat="48.28562" lon="2.58865">
        <ele>92.42</ele>
        <time>2011-02-06T12:05:07Z</time>
      </trkpt>
      <trkpt lat="48.28566" lon="2.58841">
        <ele>94.83</ele>
        <time>2011-02-06T12:05:21Z</time>
      </trkpt>
      <trkpt lat="48.28564" lon="2.58818">
        <ele>96.75</ele>
        <time>2011-02-06T12:05:36Z</time>
      </trkpt>
      <trkpt lat="48.28561" lon="2.5879">
        <ele>98.19</ele>
        <time>2011-02-06T12:05:51Z</time>
      </trkpt>
      <trkpt lat="48.28559" lon="2.58775">
        <ele>100.6</ele>
        <time>2011-02-06T12:06:04Z</time>
      </trkpt>
      <trkpt lat="48.28558" lon="2.58758">
        <ele>102.04</ele>
        <time>2011-02-06T12:06:18Z</time>
      </trkpt>
      <trkpt lat="48.28556" lon="2.58742">
        <ele>105.4</ele>
        <time>2011-02-06T12:06:30Z</time>
      </trkpt>
      <trkpt lat="48.28556" lon="2.58741">
        <ele>104.92</ele>
        <time>2011-02-06T12:06:31Z</time>
      </trkpt>
      <trkpt lat="48.28555" lon="2.58724">
        <ele>107.81</ele>
        <time>2011-02-06T12:06:43Z</time>
      </trkpt>
      <trkpt lat="48.28556" lon="2.58717">
        <ele>109.25</ele>
        <time>2011-02-06T12:06:48Z</time>
      </trkpt>
      <trkpt lat="48.28556" lon="2.58708">
        <ele>111.17</ele>
        <time>2011-02-06T12:07:00Z</time>
      </trkpt>
      <trkpt lat="48.28555" lon="2.587">
        <ele>113.09</ele>
        <time>2011-02-06T12:07:13Z</time>
      </trkpt>
      <trkpt lat="48.28549" lon="2.58694">
        <ele>115.5</ele>
        <time>2011-02-06T12:07:27Z</time>
      </trkpt>
      <trkpt lat="48.2854" lon="2.58694">
        <ele>117.42</ele>
        <time>2011-02-06T12:07:39Z</time>
      </trkpt>
      <trkpt lat="48.28528" lon="2.58695">
        <ele>118.86</ele>
        <time>2011-02-06T12:07:53Z</time>
      </trkpt>
      <trkpt lat="48.28528" lon="2.587">
        <ele>118.86</ele>
        <time>2011-02-06T12:07:57Z</time>
      </trkpt>
      <trkpt lat="48.28528" lon="2.58702">
        <ele>118.38</ele>
        <time>2011-02-06T12:07:58Z</time>
      </trkpt>
      <trkpt lat="48.28529" lon="2.58711">
        <ele>115.01</ele>
        <time>2011-02-06T12:08:03Z</time>
      </trkpt>
      <trkpt lat="48.28526" lon="2.58717">
        <ele>112.61</ele>
        <time>2011-02-06T12:08:05Z</time>
      </trkpt>
      <trkpt lat="48.28521" lon="2.58722">
        <ele>111.65</ele>
        <time>2011-02-06T12:08:07Z</time>
      </trkpt>
      <trkpt lat="48.28507" lon="2.58732">
        <ele>112.13</ele>
        <time>2011-02-06T12:08:16Z</time>
      </trkpt>
      <trkpt lat="48.28504" lon="2.58736">
        <ele>109.25</ele>
        <time>2011-02-06T12:08:26Z</time>
      </trkpt>
      <trkpt lat="48.285" lon="2.58743">
        <ele>106.36</ele>
        <time>2011-02-06T12:08:38Z</time>
      </trkpt>
      <trkpt lat="48.28498" lon="2.58745">
        <ele>104.92</ele>
        <time>2011-02-06T12:08:41Z</time>
      </trkpt>
      <trkpt lat="48.28493" lon="2.58756">
        <ele>101.08</ele>
        <time>2011-02-06T12:08:43Z</time>
      </trkpt>
      <trkpt lat="48.28487" lon="2.58781">
        <ele>99.15</ele>
        <time>2011-02-06T12:08:47Z</time>
      </trkpt>
      <trkpt lat="48.28487" lon="2.58824">
        <ele>99.15</ele>
        <time>2011-02-06T12:08:57Z</time>
      </trkpt>
      <trkpt lat="48.2849" lon="2.58847">
        <ele>95.79</ele>
        <time>2011-02-06T12:09:01Z</time>
      </trkpt>
      <trkpt lat="48.28492" lon="2.58864">
        <ele>93.39</ele>
        <time>2011-02-06T12:09:03Z</time>
      </trkpt>
      <trkpt lat="48.28492" lon="2.58872">
        <ele>92.9</ele>
        <time>2011-02-06T12:09:04Z</time>
      </trkpt>
      <trkpt lat="48.2849" lon="2.58878">
        <ele>93.39</ele>
        <time>2011-02-06T12:09:05Z</time>
      </trkpt>
      <trkpt lat="48.28488" lon="2.58885">
        <ele>93.87</ele>
        <time>2011-02-06T12:09:07Z</time>
      </trkpt>
      <trkpt lat="48.28475" lon="2.58899">
        <ele>90.5</ele>
        <time>2011-02-06T12:09:13Z</time>
      </trkpt>
      <trkpt lat="48.28474" lon="2.58901">
        <ele>90.98</ele>
        <time>2011-02-06T12:09:14Z</time>
      </trkpt>
      <trkpt lat="48.28459" lon="2.58879">
        <ele>92.42</ele>
        <time>2011-02-06T12:09:27Z</time>
      </trkpt>
      <trkpt lat="48.28448" lon="2.58853">
        <ele>93.87</ele>
        <time>2011-02-06T12:09:40Z</time>
      </trkpt>
      <trkpt lat="48.2844" lon="2.58847">
        <ele>93.39</ele>
        <time>2011-02-06T12:09:45Z</time>
      </trkpt>
      <trkpt lat="48.28428" lon="2.58861">
        <ele>91.94</ele>
        <time>2011-02-06T12:09:51Z</time>
      </trkpt>
      <trkpt lat="48.28425" lon="2.58866">
        <ele>90.98</ele>
        <time>2011-02-06T12:09:52Z</time>
      </trkpt>
      <trkpt lat="48.28421" lon="2.5887">
        <ele>90.5</ele>
        <time>2011-02-06T12:09:53Z</time>
      </trkpt>
      <trkpt lat="48.28412" lon="2.58881">
        <ele>89.54</ele>
        <time>2011-02-06T12:09:55Z</time>
      </trkpt>
      <trkpt lat="48.28398" lon="2.58901">
        <ele>87.62</ele>
        <time>2011-02-06T12:09:58Z</time>
      </trkpt>
      <trkpt lat="48.28374" lon="2.58938">
        <ele>85.21</ele>
        <time>2011-02-06T12:10:03Z</time>
      </trkpt>
      <trkpt lat="48.28316" lon="2.59029">
        <ele>84.73</ele>
        <time>2011-02-06T12:10:17Z</time>
      </trkpt>
      <trkpt lat="48.28313" lon="2.59033">
        <ele>84.73</ele>
        <time>2011-02-06T12:10:18Z</time>
      </trkpt>
      <trkpt lat="48.28311" lon="2.59037">
        <ele>85.21</ele>
        <time>2011-02-06T12:10:19Z</time>
      </trkpt>
      <trkpt lat="48.28308" lon="2.59042">
        <ele>85.69</ele>
        <time>2011-02-06T12:10:20Z</time>
      </trkpt>
      <trkpt lat="48.28305" lon="2.59045">
        <ele>85.21</ele>
        <time>2011-02-06T12:10:21Z</time>
      </trkpt>
      <trkpt lat="48.28302" lon="2.59049">
        <ele>85.21</ele>
        <time>2011-02-06T12:10:22Z</time>
      </trkpt>
      <trkpt lat="48.28299" lon="2.59053">
        <ele>85.21</ele>
        <time>2011-02-06T12:10:23Z</time>
      </trkpt>
      <trkpt lat="48.28277" lon="2.59087">
        <ele>86.18</ele>
        <time>2011-02-06T12:10:30Z</time>
      </trkpt>
      <trkpt lat="48.28274" lon="2.59094">
        <ele>86.18</ele>
        <time>2011-02-06T12:10:31Z</time>
      </trkpt>
      <trkpt lat="48.2824" lon="2.59146">
        <ele>89.06</ele>
        <time>2011-02-06T12:10:39Z</time>
      </trkpt>
      <trkpt lat="48.2823" lon="2.59161">
        <ele>90.5</ele>
        <time>2011-02-06T12:10:42Z</time>
      </trkpt>
      <trkpt lat="48.28213" lon="2.59188">
        <ele>91.46</ele>
        <time>2011-02-06T12:10:50Z</time>
      </trkpt>
      <trkpt lat="48.28211" lon="2.59188">
        <ele>90.98</ele>
        <time>2011-02-06T12:10:51Z</time>
      </trkpt>
      <trkpt lat="48.28209" lon="2.59188">
        <ele>90.98</ele>
        <time>2011-02-06T12:10:52Z</time>
      </trkpt>
      <trkpt lat="48.28208" lon="2.59186">
        <ele>90.98</ele>
        <time>2011-02-06T12:10:53Z</time>
      </trkpt>
      <trkpt lat="48.28207" lon="2.59184">
        <ele>91.46</ele>
        <time>2011-02-06T12:10:54Z</time>
      </trkpt>
      <trkpt lat="48.28207" lon="2.59183">
        <ele>91.94</ele>
        <time>2011-02-06T12:10:55Z</time>
      </trkpt>
      <trkpt lat="48.28206" lon="2.5918">
        <ele>91.94</ele>
        <time>2011-02-06T12:10:56Z</time>
      </trkpt>
      <trkpt lat="48.28205" lon="2.59178">
        <ele>91.94</ele>
        <time>2011-02-06T12:10:57Z</time>
      </trkpt>
      <trkpt lat="48.28205" lon="2.59176">
        <ele>92.42</ele>
        <time>2011-02-06T12:10:58Z</time>
      </trkpt>
      <trkpt lat="48.28204" lon="2.59175">
        <ele>92.42</ele>
        <time>2011-02-06T12:10:59Z</time>
      </trkpt>
      <trkpt lat="48.28203" lon="2.59173">
        <ele>92.42</ele>
        <time>2011-02-06T12:11:00Z</time>
      </trkpt>
      <trkpt lat="48.28194" lon="2.59152">
        <ele>92.9</ele>
        <time>2011-02-06T12:11:13Z</time>
      </trkpt>
      <trkpt lat="48.28187" lon="2.5914">
        <ele>93.39</ele>
        <time>2011-02-06T12:11:20Z</time>
      </trkpt>
      <trkpt lat="48.28186" lon="2.59139">
        <ele>93.87</ele>
        <time>2011-02-06T12:11:21Z</time>
      </trkpt>
      <trkpt lat="48.28185" lon="2.59138">
        <ele>93.87</ele>
        <time>2011-02-06T12:11:22Z</time>
      </trkpt>
      <trkpt lat="48.28184" lon="2.59137">
        <ele>94.35</ele>
        <time>2011-02-06T12:11:23Z</time>
      </trkpt>
      <trkpt lat="48.28183" lon="2.59136">
        <ele>94.35</ele>
        <time>2011-02-06T12:11:24Z</time>
      </trkpt>
      <trkpt lat="48.28182" lon="2.59135">
        <ele>94.35</ele>
        <time>2011-02-06T12:11:25Z</time>
      </trkpt>
      <trkpt lat="48.28181" lon="2.59133">
        <ele>94.35</ele>
        <time>2011-02-06T12:11:26Z</time>
      </trkpt>
      <trkpt lat="48.2818" lon="2.59131">
        <ele>94.83</ele>
        <time>2011-02-06T12:11:27Z</time>
      </trkpt>
      <trkpt lat="48.28179" lon="2.59129">
        <ele>95.31</ele>
        <time>2011-02-06T12:11:28Z</time>
      </trkpt>
      <trkpt lat="48.28179" lon="2.59127">
        <ele>95.79</ele>
        <time>2011-02-06T12:11:29Z</time>
      </trkpt>
      <trkpt lat="48.28178" lon="2.59126">
        <ele>95.79</ele>
        <time>2011-02-06T12:11:30Z</time>
      </trkpt>
      <trkpt lat="48.28177" lon="2.59124">
        <ele>95.79</ele>
        <time>2011-02-06T12:11:31Z</time>
      </trkpt>
      <trkpt lat="48.28173" lon="2.59114">
        <ele>96.75</ele>
        <time>2011-02-06T12:11:36Z</time>
      </trkpt>
      <trkpt lat="48.28172" lon="2.59112">
        <ele>96.75</ele>
        <time>2011-02-06T12:11:37Z</time>
      </trkpt>
      <trkpt lat="48.28167" lon="2.59107">
        <ele>97.23</ele>
        <time>2011-02-06T12:11:41Z</time>
      </trkpt>
      <trkpt lat="48.28166" lon="2.59105">
        <ele>97.71</ele>
        <time>2011-02-06T12:11:42Z</time>
      </trkpt>
      <trkpt lat="48.28165" lon="2.59103">
        <ele>97.71</ele>
        <time>2011-02-06T12:11:43Z</time>
      </trkpt>
      <trkpt lat="48.28165" lon="2.59102">
        <ele>97.71</ele>
        <time>2011-02-06T12:11:44Z</time>
      </trkpt>
      <trkpt lat="48.28164" lon="2.591">
        <ele>97.71</ele>
        <time>2011-02-06T12:11:45Z</time>
      </trkpt>
      <trkpt lat="48.28163" lon="2.59099">
        <ele>98.19</ele>
        <time>2011-02-06T12:11:46Z</time>
      </trkpt>
      <trkpt lat="48.28163" lon="2.59097">
        <ele>98.67</ele>
        <time>2011-02-06T12:11:47Z</time>
      </trkpt>
      <trkpt lat="48.28162" lon="2.59095">
        <ele>98.19</ele>
        <time>2011-02-06T12:11:48Z</time>
      </trkpt>
      <trkpt lat="48.28161" lon="2.59094">
        <ele>98.19</ele>
        <time>2011-02-06T12:11:49Z</time>
      </trkpt>
      <trkpt lat="48.28154" lon="2.59078">
        <ele>100.11</ele>
        <time>2011-02-06T12:12:01Z</time>
      </trkpt>
      <trkpt lat="48.28152" lon="2.59075">
        <ele>100.6</ele>
        <time>2011-02-06T12:12:04Z</time>
      </trkpt>
      <trkpt lat="48.28151" lon="2.59074">
        <ele>100.6</ele>
        <time>2011-02-06T12:12:05Z</time>
      </trkpt>
      <trkpt lat="48.2815" lon="2.59072">
        <ele>100.6</ele>
        <time>2011-02-06T12:12:06Z</time>
      </trkpt>
      <trkpt lat="48.2815" lon="2.59071">
        <ele>100.6</ele>
        <time>2011-02-06T12:12:07Z</time>
      </trkpt>
      <trkpt lat="48.28149" lon="2.5907">
        <ele>101.08</ele>
        <time>2011-02-06T12:12:08Z</time>
      </trkpt>
      <trkpt lat="48.28148" lon="2.59068">
        <ele>101.08</ele>
        <time>2011-02-06T12:12:09Z</time>
      </trkpt>
      <trkpt lat="48.28148" lon="2.59066">
        <ele>101.08</ele>
        <time>2011-02-06T12:12:10Z</time>
      </trkpt>
      <trkpt lat="48.28146" lon="2.59064">
        <ele>101.08</ele>
        <time>2011-02-06T12:12:11Z</time>
      </trkpt>
      <trkpt lat="48.28146" lon="2.59063">
        <ele>101.08</ele>
        <time>2011-02-06T12:12:12Z</time>
      </trkpt>
      <trkpt lat="48.28145" lon="2.59061">
        <ele>101.56</ele>
        <time>2011-02-06T12:12:13Z</time>
      </trkpt>
      <trkpt lat="48.28144" lon="2.5906">
        <ele>101.56</ele>
        <time>2011-02-06T12:12:14Z</time>
      </trkpt>
      <trkpt lat="48.28144" lon="2.59059">
        <ele>102.04</ele>
        <time>2011-02-06T12:12:15Z</time>
      </trkpt>
      <trkpt lat="48.28143" lon="2.59057">
        <ele>102.52</ele>
        <time>2011-02-06T12:12:16Z</time>
      </trkpt>
      <trkpt lat="48.28143" lon="2.59056">
        <ele>102.52</ele>
        <time>2011-02-06T12:12:17Z</time>
      </trkpt>
      <trkpt lat="48.28129" lon="2.5903">
        <ele>105.4</ele>
        <time>2011-02-06T12:12:33Z</time>
      </trkpt>
      <trkpt lat="48.28129" lon="2.59029">
        <ele>105.4</ele>
        <time>2011-02-06T12:12:34Z</time>
      </trkpt>
      <trkpt lat="48.28123" lon="2.59008">
        <ele>108.29</ele>
        <time>2011-02-06T12:12:48Z</time>
      </trkpt>
      <trkpt lat="48.28123" lon="2.59007">
        <ele>107.81</ele>
        <time>2011-02-06T12:12:49Z</time>
      </trkpt>
      <trkpt lat="48.28123" lon="2.59005">
        <ele>107.81</ele>
        <time>2011-02-06T12:12:50Z</time>
      </trkpt>
      <trkpt lat="48.28123" lon="2.59003">
        <ele>108.29</ele>
        <time>2011-02-06T12:12:51Z</time>
      </trkpt>
      <trkpt lat="48.28123" lon="2.59001">
        <ele>108.77</ele>
        <time>2011-02-06T12:12:52Z</time>
      </trkpt>
      <trkpt lat="48.28122" lon="2.58999">
        <ele>108.77</ele>
        <time>2011-02-06T12:12:53Z</time>
      </trkpt>
      <trkpt lat="48.28121" lon="2.58997">
        <ele>109.25</ele>
        <time>2011-02-06T12:12:54Z</time>
      </trkpt>
      <trkpt lat="48.2812" lon="2.58995">
        <ele>109.25</ele>
        <time>2011-02-06T12:12:55Z</time>
      </trkpt>
      <trkpt lat="48.28119" lon="2.58995">
        <ele>110.21</ele>
        <time>2011-02-06T12:12:56Z</time>
      </trkpt>
      <trkpt lat="48.28117" lon="2.58996">
        <ele>110.69</ele>
        <time>2011-02-06T12:12:58Z</time>
      </trkpt>
      <trkpt lat="48.28116" lon="2.58998">
        <ele>110.69</ele>
        <time>2011-02-06T12:12:59Z</time>
      </trkpt>
      <trkpt lat="48.28115" lon="2.59001">
        <ele>110.21</ele>
        <time>2011-02-06T12:13:00Z</time>
      </trkpt>
      <trkpt lat="48.28115" lon="2.59004">
        <ele>110.21</ele>
        <time>2011-02-06T12:13:01Z</time>
      </trkpt>
      <trkpt lat="48.28115" lon="2.59009">
        <ele>109.73</ele>
        <time>2011-02-06T12:13:02Z</time>
      </trkpt>
      <trkpt lat="48.28114" lon="2.59015">
        <ele>109.25</ele>
        <time>2011-02-06T12:13:03Z</time>
      </trkpt>
      <trkpt lat="48.28114" lon="2.5907">
        <ele>106.36</ele>
        <time>2011-02-06T12:13:10Z</time>
      </trkpt>
      <trkpt lat="48.28114" lon="2.5908">
        <ele>105.88</ele>
        <time>2011-02-06T12:13:11Z</time>
      </trkpt>
      <trkpt lat="48.28113" lon="2.5909">
        <ele>104.92</ele>
        <time>2011-02-06T12:13:12Z</time>
      </trkpt>
      <trkpt lat="48.28111" lon="2.59101">
        <ele>104.44</ele>
        <time>2011-02-06T12:13:13Z</time>
      </trkpt>
      <trkpt lat="48.281" lon="2.59176">
        <ele>106.36</ele>
        <time>2011-02-06T12:13:23Z</time>
      </trkpt>
      <trkpt lat="48.281" lon="2.59179">
        <ele>106.36</ele>
        <time>2011-02-06T12:13:24Z</time>
      </trkpt>
      <trkpt lat="48.28101" lon="2.59182">
        <ele>106.36</ele>
        <time>2011-02-06T12:13:25Z</time>
      </trkpt>
      <trkpt lat="48.28101" lon="2.59185">
        <ele>106.84</ele>
        <time>2011-02-06T12:13:26Z</time>
      </trkpt>
      <trkpt lat="48.28101" lon="2.59189">
        <ele>106.84</ele>
        <time>2011-02-06T12:13:27Z</time>
      </trkpt>
      <trkpt lat="48.28102" lon="2.59193">
        <ele>106.84</ele>
        <time>2011-02-06T12:13:28Z</time>
      </trkpt>
      <trkpt lat="48.28103" lon="2.59196">
        <ele>106.84</ele>
        <time>2011-02-06T12:13:29Z</time>
      </trkpt>
      <trkpt lat="48.28112" lon="2.59247">
        <ele>109.73</ele>
        <time>2011-02-06T12:13:42Z</time>
      </trkpt>
      <trkpt lat="48.28091" lon="2.59282">
        <ele>113.09</ele>
        <time>2011-02-06T12:13:54Z</time>
      </trkpt>
      <trkpt lat="48.28072" lon="2.59312">
        <ele>115.5</ele>
        <time>2011-02-06T12:14:06Z</time>
      </trkpt>
      <trkpt lat="48.28052" lon="2.59348">
        <ele>117.9</ele>
        <time>2011-02-06T12:14:20Z</time>
      </trkpt>
      <trkpt lat="48.28026" lon="2.59366">
        <ele>119.34</ele>
        <time>2011-02-06T12:14:32Z</time>
      </trkpt>
      <trkpt lat="48.27984" lon="2.59384">
        <ele>119.82</ele>
        <time>2011-02-06T12:14:48Z</time>
      </trkpt>
      <trkpt lat="48.27983" lon="2.59388">
        <ele>119.82</ele>
        <time>2011-02-06T12:14:49Z</time>
      </trkpt>
      <trkpt lat="48.27984" lon="2.59398">
        <ele>119.82</ele>
        <time>2011-02-06T12:14:51Z</time>
      </trkpt>
      <trkpt lat="48.28001" lon="2.59473">
        <ele>118.86</ele>
        <time>2011-02-06T12:15:05Z</time>
      </trkpt>
      <trkpt lat="48.28004" lon="2.59516">
        <ele>117.9</ele>
        <time>2011-02-06T12:15:12Z</time>
      </trkpt>
      <trkpt lat="48.28005" lon="2.59522">
        <ele>117.9</ele>
        <time>2011-02-06T12:15:13Z</time>
      </trkpt>
      <trkpt lat="48.28007" lon="2.59528">
        <ele>117.9</ele>
        <time>2011-02-06T12:15:14Z</time>
      </trkpt>
      <trkpt lat="48.28013" lon="2.59557">
        <ele>116.46</ele>
        <time>2011-02-06T12:15:22Z</time>
      </trkpt>
      <trkpt lat="48.28016" lon="2.59568">
        <ele>112.13</ele>
        <time>2011-02-06T12:15:25Z</time>
      </trkpt>
      <trkpt lat="48.28029" lon="2.59584">
        <ele>107.81</ele>
        <time>2011-02-06T12:15:29Z</time>
      </trkpt>
      <trkpt lat="48.28041" lon="2.59596">
        <ele>105.88</ele>
        <time>2011-02-06T12:15:32Z</time>
      </trkpt>
      <trkpt lat="48.28046" lon="2.59599">
        <ele>105.4</ele>
        <time>2011-02-06T12:15:33Z</time>
      </trkpt>
      <trkpt lat="48.28065" lon="2.59618">
        <ele>102.04</ele>
        <time>2011-02-06T12:15:37Z</time>
      </trkpt>
      <trkpt lat="48.28076" lon="2.59631">
        <ele>98.19</ele>
        <time>2011-02-06T12:15:39Z</time>
      </trkpt>
      <trkpt lat="48.28081" lon="2.59636">
        <ele>96.75</ele>
        <time>2011-02-06T12:15:40Z</time>
      </trkpt>
      <trkpt lat="48.28104" lon="2.59646">
        <ele>91.94</ele>
        <time>2011-02-06T12:15:44Z</time>
      </trkpt>
      <trkpt lat="48.2811" lon="2.59647">
        <ele>90.98</ele>
        <time>2011-02-06T12:15:45Z</time>
      </trkpt>
      <trkpt lat="48.28121" lon="2.59648">
        <ele>90.5</ele>
        <time>2011-02-06T12:15:47Z</time>
      </trkpt>
      <trkpt lat="48.28125" lon="2.59645">
        <ele>89.54</ele>
        <time>2011-02-06T12:15:48Z</time>
      </trkpt>
      <trkpt lat="48.28129" lon="2.59641">
        <ele>90.02</ele>
        <time>2011-02-06T12:15:49Z</time>
      </trkpt>
      <trkpt lat="48.28132" lon="2.59636">
        <ele>90.5</ele>
        <time>2011-02-06T12:15:50Z</time>
      </trkpt>
      <trkpt lat="48.28134" lon="2.5963">
        <ele>90.5</ele>
        <time>2011-02-06T12:15:51Z</time>
      </trkpt>
      <trkpt lat="48.28135" lon="2.59625">
        <ele>90.5</ele>
        <time>2011-02-06T12:15:52Z</time>
      </trkpt>
      <trkpt lat="48.28137" lon="2.5962">
        <ele>89.54</ele>
        <time>2011-02-06T12:15:53Z</time>
      </trkpt>
      <trkpt lat="48.28138" lon="2.59615">
        <ele>89.54</ele>
        <time>2011-02-06T12:15:54Z</time>
      </trkpt>
      <trkpt lat="48.2814" lon="2.59608">
        <ele>88.58</ele>
        <time>2011-02-06T12:15:55Z</time>
      </trkpt>
      <trkpt lat="48.28142" lon="2.59595">
        <ele>88.58</ele>
        <time>2011-02-06T12:15:57Z</time>
      </trkpt>
      <trkpt lat="48.28149" lon="2.59563">
        <ele>88.1</ele>
        <time>2011-02-06T12:16:03Z</time>
      </trkpt>
      <trkpt lat="48.28152" lon="2.59559">
        <ele>88.1</ele>
        <time>2011-02-06T12:16:04Z</time>
      </trkpt>
      <trkpt lat="48.28156" lon="2.59555">
        <ele>87.62</ele>
        <time>2011-02-06T12:16:05Z</time>
      </trkpt>
      <trkpt lat="48.28159" lon="2.59554">
        <ele>87.62</ele>
        <time>2011-02-06T12:16:06Z</time>
      </trkpt>
      <trkpt lat="48.28165" lon="2.59555">
        <ele>87.14</ele>
        <time>2011-02-06T12:16:08Z</time>
      </trkpt>
      <trkpt lat="48.28203" lon="2.59602">
        <ele>82.81</ele>
        <time>2011-02-06T12:16:18Z</time>
      </trkpt>
      <trkpt lat="48.28212" lon="2.59613">
        <ele>81.85</ele>
        <time>2011-02-06T12:16:20Z</time>
      </trkpt>
      <trkpt lat="48.28267" lon="2.59676">
        <ele>78.48</ele>
        <time>2011-02-06T12:16:32Z</time>
      </trkpt>
      <trkpt lat="48.283" lon="2.59713">
        <ele>77.52</ele>
        <time>2011-02-06T12:16:40Z</time>
      </trkpt>
      <trkpt lat="48.28303" lon="2.59717">
        <ele>77.04</ele>
        <time>2011-02-06T12:16:41Z</time>
      </trkpt>
      <trkpt lat="48.28314" lon="2.5973">
        <ele>75.6</ele>
        <time>2011-02-06T12:16:44Z</time>
      </trkpt>
      <trkpt lat="48.28317" lon="2.59736">
        <ele>75.12</ele>
        <time>2011-02-06T12:16:45Z</time>
      </trkpt>
      <trkpt lat="48.28321" lon="2.59742">
        <ele>74.64</ele>
        <time>2011-02-06T12:16:46Z</time>
      </trkpt>
      <trkpt lat="48.28324" lon="2.59749">
        <ele>74.64</ele>
        <time>2011-02-06T12:16:47Z</time>
      </trkpt>
      <trkpt lat="48.28327" lon="2.59755">
        <ele>74.16</ele>
        <time>2011-02-06T12:16:48Z</time>
      </trkpt>
      <trkpt lat="48.2833" lon="2.59762">
        <ele>74.16</ele>
        <time>2011-02-06T12:16:49Z</time>
      </trkpt>
      <trkpt lat="48.28331" lon="2.59768">
        <ele>74.16</ele>
        <time>2011-02-06T12:16:50Z</time>
      </trkpt>
      <trkpt lat="48.2833" lon="2.59773">
        <ele>74.16</ele>
        <time>2011-02-06T12:16:51Z</time>
      </trkpt>
      <trkpt lat="48.28328" lon="2.59776">
        <ele>73.68</ele>
        <time>2011-02-06T12:16:52Z</time>
      </trkpt>
      <trkpt lat="48.28326" lon="2.59779">
        <ele>74.16</ele>
        <time>2011-02-06T12:16:53Z</time>
      </trkpt>
      <trkpt lat="48.28324" lon="2.59781">
        <ele>74.64</ele>
        <time>2011-02-06T12:16:54Z</time>
      </trkpt>
      <trkpt lat="48.28322" lon="2.59781">
        <ele>75.12</ele>
        <time>2011-02-06T12:17:05Z</time>
      </trkpt>
      <trkpt lat="48.28314" lon="2.59791">
        <ele>75.6</ele>
        <time>2011-02-06T12:17:24Z</time>
      </trkpt>
      <trkpt lat="48.28311" lon="2.59799">
        <ele>76.08</ele>
        <time>2011-02-06T12:17:35Z</time>
      </trkpt>
      <trkpt lat="48.28311" lon="2.59799">
        <ele>76.08</ele>
        <time>2011-02-06T12:17:41Z</time>
      </trkpt>
      <trkpt lat="48.28313" lon="2.59799">
        <ele>75.6</ele>
        <time>2011-02-06T12:17:42Z</time>
      </trkpt>
      <trkpt lat="48.28314" lon="2.598">
        <ele>75.6</ele>
        <time>2011-02-06T12:17:43Z</time>
      </trkpt>
      <trkpt lat="48.28315" lon="2.59801">
        <ele>75.6</ele>
        <time>2011-02-06T12:17:44Z</time>
      </trkpt>
      <trkpt lat="48.28316" lon="2.59804">
        <ele>75.12</ele>
        <time>2011-02-06T12:17:45Z</time>
      </trkpt>
      <trkpt lat="48.28317" lon="2.59807">
        <ele>75.12</ele>
        <time>2011-02-06T12:17:46Z</time>
      </trkpt>
      <trkpt lat="48.28318" lon="2.59811">
        <ele>74.64</ele>
        <time>2011-02-06T12:17:47Z</time>
      </trkpt>
      <trkpt lat="48.28319" lon="2.59816">
        <ele>74.64</ele>
        <time>2011-02-06T12:17:48Z</time>
      </trkpt>
      <trkpt lat="48.28321" lon="2.5982">
        <ele>74.64</ele>
        <time>2011-02-06T12:17:49Z</time>
      </trkpt>
      <trkpt lat="48.28322" lon="2.59824">
        <ele>75.12</ele>
        <time>2011-02-06T12:17:50Z</time>
      </trkpt>
      <trkpt lat="48.28323" lon="2.59829">
        <ele>74.16</ele>
        <time>2011-02-06T12:17:51Z</time>
      </trkpt>
      <trkpt lat="48.28326" lon="2.59847">
        <ele>74.16</ele>
        <time>2011-02-06T12:17:55Z</time>
      </trkpt>
      <trkpt lat="48.28325" lon="2.5985">
        <ele>74.16</ele>
        <time>2011-02-06T12:17:56Z</time>
      </trkpt>
      <trkpt lat="48.28324" lon="2.59852">
        <ele>73.68</ele>
        <time>2011-02-06T12:18:05Z</time>
      </trkpt>
      <trkpt lat="48.28324" lon="2.59852">
        <ele>74.16</ele>
        <time>2011-02-06T12:18:33Z</time>
      </trkpt>
      <trkpt lat="48.28324" lon="2.59852">
        <ele>69.35</ele>
        <time>2011-02-06T12:18:46Z</time>
      </trkpt>
    </trkseg>
  </trk>
</gpx>